# Wetter Temperatur Luftdruck Luftfeuchtigkeit Sichtweite Windgeschwindigkeit Windrichtung Zeit
1 Clear 19 1022 53 10000 2.57 210 14:54 07.10.2022
2 Clear 17 1022 60 10000 1.54 0 12:37 07.10.2022
3 Clouds 9 1021 84 10000 2.23 164 09:37 07.10.2022
4 Clear 8 1023 85 10000 0.51 0 09:19 07.10.2022
5 Clouds 7 1022 94 10000 2.12 146 07:51 07.10.2022
6 Clear 8 1026 83 10000 1.03 0 01:37 07.10.2022
7 Clear 10 1027 77 10000 0.51 0 22:51 06.10.2022
8 Clear 11 1027 75 10000 0.51 0 21:48 06.10.2022
9 Clear 11 1027 74 10000 0.51 0 21:25 06.10.2022
10 Clear 12 1030 73 10000 1.03 0 20:34 06.10.2022
11 Clear 16 1030 55 10000 2.06 300 18:39 06.10.2022
12 Clear 18 1027 45 10000 2.06 290 18:19 06.10.2022
13 Clear 18 1031 47 10000 5.14 280 15:33 06.10.2022
14 Clouds 16 1031 64 10000 5.14 270 12:22 06.10.2022
15 Clouds 11 1028 80 10000 4.12 250 07:55 06.10.2022
16 Clouds 14 1021 80 10000 4.63 260 03:38 06.10.2022
17 Rain 17 1020 71 10000 6.17 230 00:39 06.10.2022
18 Clouds 18 1016 67 10000 2.06 200 21:52 05.10.2022
19 Clear 19 1014 68 10000 5.14 180 19:31 05.10.2022
20 Clear 21 1013 60 10000 7.72 190 17:36 05.10.2022
21 Clear 22 1013 54 10000 8.75 180 16:20 05.10.2022
22 Clear 21 1017 60 10000 6.69 170 14:48 05.10.2022
23 Clear 21 1017 60 10000 5.66 180 14:19 05.10.2022
24 Clouds 18 1015 69 10000 4.63 130 12:26 05.10.2022
25 Clouds 13 1016 83 10000 4.63 150 09:51 05.10.2022
26 Clouds 11 1016 85 10000 4.63 160 07:57 05.10.2022
27 Clear 11 1016 87 10000 4.12 140 06:22 05.10.2022
28 Clear 11 1016 87 10000 5.14 140 04:35 05.10.2022
29 Clear 12 1017 82 10000 1.03 0 01:22 05.10.2022
30 Clear 12 1017 81 10000 1.03 0 00:27 05.10.2022
31 Clear 13 1017 76 10000 3.09 140 22:51 04.10.2022
32 Clear 15 1020 77 10000 3.6 140 20:40 04.10.2022
33 Clear 16 1017 71 10000 3.09 140 19:47 04.10.2022
34 Clear 19 1019 68 10000 2.57 130 18:40 04.10.2022
35 Clear 20 1016 57 10000 4.63 150 17:51 04.10.2022
36 Clear 20 1020 59 10000 4.12 140 16:51 04.10.2022
37 Clear 18 1022 66 10000 4.12 130 13:59 04.10.2022
38 Clear 10 1020 85 10000 1.54 120 09:57 04.10.2022
39 Clear 8 1020 90 10000 1.54 110 07:48 04.10.2022
40 Clear 9 1021 87 10000 1.54 70 04:43 04.10.2022
41 Clouds 11 1020 82 10000 1.65 142 23:49 03.10.2022
42 Clear 12 1023 82 10000 1.54 60 22:28 03.10.2022
43 Clear 12 1022 81 10000 0.51 0 21:27 03.10.2022
44 Clear 13 1023 75 10000 0.51 0 20:35 03.10.2022
45 Clouds 16 1023 66 10000 1.03 130 18:52 03.10.2022
46 Clouds 16 1027 66 10000 1.03 0 17:32 03.10.2022
47 Clouds 17 1027 64 10000 2.57 0 15:59 03.10.2022
48 Clouds 16 1027 69 10000 1.54 290 14:26 03.10.2022
49 Clouds 15 1028 76 10000 1.54 0 12:36 03.10.2022
50 Clouds 13 1028 80 10000 0.51 0 11:21 03.10.2022
51 Clouds 10 1028 86 10000 1.03 60 09:56 03.10.2022
52 Clouds 9 1025 90 10000 1.54 60 08:46 03.10.2022
53 Clouds 9 1024 89 10000 0 0 04:45 03.10.2022
54 Clouds 11 1024 79 10000 1.54 350 23:51 02.10.2022
55 Clouds 13 1021 80 10000 1.54 320 22:19 02.10.2022
56 Clear 14 1018 80 10000 4.12 280 19:52 02.10.2022
57 Clouds 16 1016 75 10000 4.63 280 17:58 02.10.2022
58 Clouds 17 1016 71 10000 5.66 260 16:57 02.10.2022
59 Clouds 17 1016 71 10000 5.14 270 16:32 02.10.2022
60 Clouds 17 1018 75 10000 5.14 270 15:39 02.10.2022
61 Clouds 16 1018 78 10000 4.63 270 13:46 02.10.2022
62 Clouds 16 1015 77 10000 4.63 270 12:42 02.10.2022
63 Clouds 15 1018 79 10000 4.12 280 12:20 02.10.2022
64 Clouds 15 1018 80 10000 4.12 270 11:34 02.10.2022
65 Clouds 14 1017 80 10000 4.12 250 10:20 02.10.2022
66 Clouds 14 1014 86 10000 3.6 230 08:31 02.10.2022
67 Rain 14 1013 89 10000 3.09 200 05:23 02.10.2022
68 Clouds 13 1013 85 10000 2.06 220 01:29 02.10.2022
69 Clouds 13 1012 86 10000 1.54 160 00:39 02.10.2022
70 Clouds 12 1012 86 10000 1.54 160 00:39 02.10.2022
71 Clouds 13 1012 86 10000 1.54 160 00:39 02.10.2022
72 Clear 12 1012 81 10000 2.57 200 23:36 01.10.2022
73 Clear 13 1011 81 10000 2.06 190 22:24 01.10.2022
74 Clear 16 1010 71 10000 6.69 300 19:31 01.10.2022
75 Clouds 17 1009 73 10000 5.66 280 17:46 01.10.2022
76 Clouds 16 1008 79 8000 6.17 280 16:28 01.10.2022
77 Rain 16 1004 76 10000 4.12 290 14:19 01.10.2022
78 Clouds 15 1006 79 10000 4.63 210 12:35 01.10.2022
79 Clouds 14 1003 82 10000 4.63 190 11:57 01.10.2022
80 Rain 14 1002 81 10000 4.12 180 11:18 01.10.2022
81 Clouds 13 1002 83 10000 3.6 160 10:30 01.10.2022
82 Drizzle 12 1002 84 10000 4.12 190 09:27 01.10.2022
83 Clouds 12 1001 84 10000 6.17 190 08:41 01.10.2022
84 Rain 11 1004 82 10000 5.66 170 03:55 01.10.2022
85 Rain 11 1005 80 10000 4.63 150 03:28 01.10.2022
86 Clouds 12 1005 70 10000 0.89 355 23:33 30.09.2022
87 Clear 12 1007 65 10000 4.63 170 22:19 30.09.2022
88 Clear 12 1007 65 10000 4.63 170 22:19 30.09.2022
89 Clear 13 1008 66 10000 4.12 170 21:22 30.09.2022
90 Clear 13 1007 62 10000 4.12 180 20:42 30.09.2022
91 Clear 14 1010 63 10000 3.6 180 19:32 30.09.2022
92 Clear 18 1007 43 10000 2.06 200 17:27 30.09.2022
93 Clear 18 1011 52 10000 2.57 0 15:26 30.09.2022
94 Clear 15 1011 62 10000 2.06 180 13:27 30.09.2022
95 Clear 14 1009 72 10000 2.57 170 11:57 30.09.2022
96 Clear 10 1009 80 10000 2.57 150 10:23 30.09.2022
97 Clear 5 1006 87 10000 1.75 146 08:23 30.09.2022
98 Clear 6 1006 87 10000 1.54 120 04:56 30.09.2022
99 Clear 7 1006 86 10000 0.51 0 02:31 30.09.2022
100 Clear 9 1004 85 10000 0.51 0 22:26 29.09.2022
101 Clear 10 1003 76 10000 1.03 0 21:26 29.09.2022
102 Clouds 11 1003 72 10000 2.06 160 20:35 29.09.2022
103 Clouds 15 1004 58 10000 1.03 0 18:34 29.09.2022
104 Clear 15 1003 57 10000 1.54 80 17:23 29.09.2022
105 Clouds 15 1003 57 10000 1.03 0 16:28 29.09.2022
106 Clouds 16 1003 58 10000 2.06 290 15:35 29.09.2022
107 Clouds 15 1003 58 10000 1.03 0 14:25 29.09.2022
108 Fog 8 999 86 10000 2.06 150 09:57 29.09.2022
109 Clear 5 998 88 10000 1.03 0 06:46 29.09.2022
110 Clear 7 1000 82 10000 0.51 0 02:47 29.09.2022
111 Clear 9 1000 82 10000 3.09 140 23:54 28.09.2022
112 Clouds 9 1000 83 10000 2.57 160 22:42 28.09.2022
113 Clear 10 997 84 10000 2.57 130 21:29 28.09.2022
114 Clouds 10 999 81 10000 2.06 360 20:22 28.09.2022
115 Rain 11 998 76 10000 3.6 310 18:31 28.09.2022
116 Clouds 13 995 68 10000 3.6 280 14:52 28.09.2022
117 Clouds 12 995 72 10000 6.17 290 12:56 28.09.2022
118 Clouds 10 995 81 10000 3.6 280 10:51 28.09.2022
119 Clouds 9 996 81 10000 4.63 270 09:18 28.09.2022
120 Clouds 8 996 85 7000 3.09 290 07:19 28.09.2022
121 Rain 8 993 89 10000 1.54 160 02:36 28.09.2022
122 Rain 9 994 88 10000 2.57 150 01:35 28.09.2022
123 Rain 9 995 85 10000 4.12 160 23:20 27.09.2022
124 Clouds 9 995 85 10000 4.12 150 21:44 27.09.2022
125 Rain 9 996 82 10000 3.09 150 20:39 27.09.2022
126 Clouds 10 996 81 10000 2.06 180 19:48 27.09.2022
127 Clouds 10 997 77 10000 3.6 240 18:45 27.09.2022
128 Rain 11 997 77 10000 4.63 280 17:45 27.09.2022
129 Drizzle 11 996 80 10000 7.72 250 15:40 27.09.2022
130 Clouds 11 999 75 10000 7.72 250 14:58 27.09.2022
131 Clouds 12 997 74 10000 6.69 260 12:53 27.09.2022
132 Clouds 11 999 76 10000 7.2 250 12:21 27.09.2022
133 Rain 10 999 79 10000 5.14 270 09:34 27.09.2022
134 Clouds 9 995 87 10000 7.2 280 06:56 27.09.2022
135 Rain 10 994 88 10000 6.17 290 02:51 27.09.2022
136 Rain 11 993 87 7000 5.14 250 01:35 27.09.2022
137 Rain 11 993 87 7000 5.14 250 01:35 27.09.2022
138 Clouds 11 994 87 10000 3.09 240 23:35 26.09.2022
139 Clouds 11 994 88 7000 3.09 190 22:40 26.09.2022
140 Rain 11 994 87 10000 4.12 170 20:47 26.09.2022
141 Rain 11 995 85 10000 4.63 160 19:34 26.09.2022
142 Rain 12 996 84 10000 4.63 160 18:34 26.09.2022
143 Rain 12 998 81 10000 6.17 170 16:41 26.09.2022
144 Rain 13 999 70 10000 6.69 170 14:41 26.09.2022
145 Rain 12 1002 75 10000 4.63 210 11:36 26.09.2022
146 Rain 12 1005 80 10000 4.63 190 10:41 26.09.2022
147 Rain 12 1005 78 10000 4.63 190 10:21 26.09.2022
148 Rain 12 1002 75 10000 5.14 170 09:56 26.09.2022
149 Clear 11 1002 76 10000 4.63 170 09:24 26.09.2022
150 Clouds 11 1003 80 10000 4.12 170 08:58 26.09.2022
151 Clear 9 1008 82 10000 1.03 0 02:59 26.09.2022
152 Clouds 10 1009 79 10000 1.54 140 01:31 26.09.2022
153 Clear 10 1010 77 10000 0.51 0 23:20 25.09.2022
154 Clear 12 1010 73 10000 1.03 0 21:44 25.09.2022
155 Clouds 13 1010 67 10000 2.06 320 20:57 25.09.2022
156 Clouds 13 1013 69 10000 2.57 350 20:32 25.09.2022
157 Clear 16 1010 51 10000 3.6 320 18:44 25.09.2022
158 Clear 17 1010 48 10000 2.57 350 18:24 25.09.2022
159 Clear 17 1013 53 10000 3.6 330 16:59 25.09.2022
160 Clouds 17 1013 54 10000 3.6 0 15:48 25.09.2022
161 Clouds 16 1014 58 10000 3.09 350 14:35 25.09.2022
162 Clouds 15 1014 61 10000 4.12 360 13:45 25.09.2022
163 Clear 13 1014 79 10000 3.6 340 10:38 25.09.2022
164 Clouds 12 1012 83 10000 2.57 330 09:37 25.09.2022
165 Clouds 12 1014 82 10000 2.57 330 07:41 25.09.2022
166 Mist 12 1013 83 4000 2.06 330 05:19 25.09.2022
167 Clouds 13 1013 81 10000 1.03 0 23:36 24.09.2022
168 Clouds 14 1013 80 10000 2.06 80 21:19 24.09.2022
169 Clouds 15 1013 78 10000 1.54 40 19:34 24.09.2022
170 Clouds 15 1010 76 10000 2.57 40 18:57 24.09.2022
171 Clouds 16 1012 75 10000 2.57 20 16:51 24.09.2022
172 Drizzle 16 1013 73 10000 2.06 350 15:23 24.09.2022
173 Drizzle 16 1013 73 10000 2.06 350 15:23 24.09.2022
174 Clouds 16 1013 75 10000 1.54 360 14:36 24.09.2022
175 Clouds 16 1013 74 10000 1.03 0 13:22 24.09.2022
176 Clouds 15 1013 77 10000 1.03 0 12:23 24.09.2022
177 Clouds 13 1008 80 10000 1.41 164 09:59 24.09.2022
178 Rain 12 1008 80 10000 1.62 154 08:58 24.09.2022
179 Clear 11 1010 82 10000 2.06 90 07:41 24.09.2022
180 Clouds 12 1010 83 10000 1.03 0 04:55 24.09.2022
181 Clouds 12 1010 83 10000 0.51 110 04:21 24.09.2022
182 Clear 13 1011 77 10000 0.51 0 22:58 23.09.2022
183 Clear 14 1012 72 10000 0 0 21:40 23.09.2022
184 Clear 14 1012 71 10000 0.51 0 21:22 23.09.2022
185 Clear 15 1012 70 10000 2.06 60 20:45 23.09.2022
186 Clear 17 1015 70 10000 1.03 0 19:20 23.09.2022
187 Rain 18 1015 55 10000 1.54 10 17:42 23.09.2022
188 Clear 18 1017 55 10000 2.06 160 13:40 23.09.2022
189 Clear 14 1015 66 10000 3.6 130 10:22 23.09.2022
190 Clear 8 1015 81 10000 1.03 0 07:30 23.09.2022
191 Clear 11 1016 76 10000 1.03 0 02:25 23.09.2022
192 Clear 12 1017 70 10000 2.57 120 23:29 22.09.2022
193 Clear 13 1017 64 10000 3.09 120 22:28 22.09.2022
194 Clear 13 1017 63 10000 2.57 110 21:35 22.09.2022
195 Clear 15 1018 57 10000 2.57 110 20:23 22.09.2022
196 Clear 18 1017 40 10000 2.57 130 18:57 22.09.2022
197 Clear 19 1022 41 10000 4.63 170 15:39 22.09.2022
198 Clear 14 1021 66 10000 3.09 150 10:51 22.09.2022
199 Clear 12 1021 70 10000 2.57 150 10:19 22.09.2022
200 Clear 13 1021 68 10000 2.57 150 10:19 22.09.2022
201 Clear 6 1021 92 10000 1.54 130 08:20 22.09.2022
202 Clear 7 1021 92 10000 1.03 0 05:22 22.09.2022
203 Clear 9 1022 89 10000 1.03 0 01:19 22.09.2022
204 Clear 10 1022 75 10000 0.51 0 22:29 21.09.2022
205 Clear 12 1023 72 10000 2.06 60 21:24 21.09.2022
206 Clear 16 1022 53 10000 2.06 350 19:22 21.09.2022
207 Clear 18 1022 44 10000 3.6 40 17:45 21.09.2022
208 Clouds 18 1026 46 10000 2.57 170 16:20 21.09.2022
209 Clouds 16 1027 56 10000 2.06 100 13:56 21.09.2022
210 Clear 14 1025 74 10000 1.54 0 11:44 21.09.2022
211 Clouds 13 1025 77 10000 2.06 160 11:21 21.09.2022
212 Clouds 10 1022 99 10000 1.01 148 09:44 21.09.2022
213 Clouds 8 1022 96 10000 0.45 131 08:50 21.09.2022
214 Clear 7 1023 89 10000 1.54 150 05:53 21.09.2022
215 Clear 9 1023 86 10000 1.03 70 02:42 21.09.2022
216 Clear 9 1023 86 10000 0.51 0 02:19 21.09.2022
217 Clear 10 1026 81 10000 1.03 0 00:20 21.09.2022
218 Clear 11 1025 78 10000 2.06 60 21:55 20.09.2022
219 Clouds 13 1024 75 10000 1.54 10 20:34 20.09.2022
220 Clouds 15 1023 66 10000 3.09 320 19:18 20.09.2022
221 Clear 15 1023 67 10000 4.12 300 15:58 20.09.2022
222 Clouds 15 1021 67 10000 4.12 330 14:34 20.09.2022
223 Clouds 14 1023 70 10000 4.63 330 12:41 20.09.2022
224 Clouds 11 1023 82 10000 0.51 0 08:51 20.09.2022
225 Clouds 11 1023 82 10000 1.03 0 08:25 20.09.2022
226 Clouds 11 1019 84 10000 1.03 0 04:44 20.09.2022
227 Clear 11 1019 82 10000 1.03 0 02:37 20.09.2022
228 Clouds 12 1022 77 10000 2.06 330 22:50 19.09.2022
229 Clear 13 1021 75 10000 5.14 320 21:39 19.09.2022
230 Rain 13 1021 77 10000 2.06 340 20:47 19.09.2022
231 Clouds 14 1021 74 10000 0 0 19:42 19.09.2022
232 Clear 15 1017 69 10000 5.66 320 17:39 19.09.2022
233 Clouds 16 1020 73 10000 4.63 290 14:18 19.09.2022
234 Clouds 15 1020 75 10000 4.63 300 12:56 19.09.2022
235 Clouds 13 1018 79 10000 4.63 300 10:47 19.09.2022
236 Clouds 10 1019 80 10000 2.06 260 08:51 19.09.2022
237 Clouds 9 1018 82 10000 3.6 300 05:53 19.09.2022
238 Clear 9 1014 87 10000 3.6 300 01:54 19.09.2022
239 Clouds 9 1014 86 10000 2.57 250 23:22 18.09.2022
240 Clouds 9 1013 88 10000 2.06 240 21:43 18.09.2022
241 Rain 10 1012 87 10000 3.6 360 20:24 18.09.2022
242 Rain 12 1011 85 10000 5.14 280 18:18 18.09.2022
243 Rain 12 1012 84 10000 5.14 270 17:37 18.09.2022
244 Rain 13 1012 81 10000 9.26 270 15:44 18.09.2022
245 Rain 12 1015 79 10000 8.75 260 13:51 18.09.2022
246 Rain 12 1015 79 10000 6.69 280 12:35 18.09.2022
247 Clouds 13 1013 80 10000 7.72 270 11:24 18.09.2022
248 Rain 11 1013 82 10000 6.17 280 04:28 18.09.2022
249 Clouds 11 1013 80 10000 7.2 280 01:26 18.09.2022
250 Clouds 12 1013 78 10000 6.69 280 00:24 18.09.2022
251 Rain 12 1013 78 10000 3.09 270 21:44 17.09.2022
252 Clouds 13 1012 74 10000 4.63 290 19:51 17.09.2022
253 Clear 13 1012 77 10000 3.6 280 18:59 17.09.2022
254 Rain 14 1011 74 10000 3.09 280 16:52 17.09.2022
255 Rain 15 1014 61 10000 8.23 300 13:57 17.09.2022
256 Clouds 14 1012 66 10000 8.23 300 11:55 17.09.2022
257 Clouds 12 1012 77 10000 4.12 320 09:40 17.09.2022
258 Clouds 10 1013 81 10000 4.63 300 06:27 17.09.2022
259 Clouds 10 1010 81 10000 4.63 290 02:34 17.09.2022
260 Clear 11 1010 79 10000 5.14 280 22:56 16.09.2022
261 Clear 11 1009 79 10000 4.12 280 21:29 16.09.2022
262 Clear 12 1009 76 10000 4.63 280 20:24 16.09.2022
263 Clouds 14 1009 70 10000 6.17 290 17:52 16.09.2022
264 Clouds 14 1008 70 10000 6.17 290 17:52 16.09.2022
265 Rain 14 1009 81 10000 5.14 290 15:43 16.09.2022
266 Clouds 15 1011 63 10000 8.23 300 14:28 16.09.2022
267 Clouds 15 1011 70 10000 7.2 290 11:56 16.09.2022
268 Clouds 13 1010 77 10000 4.12 280 09:21 16.09.2022
269 Clouds 12 1010 76 10000 3.6 270 07:20 16.09.2022
270 Clouds 12 1010 87 10000 2.57 280 06:47 16.09.2022
271 Rain 12 1011 72 10000 3.09 280 04:42 16.09.2022
272 Clear 14 1011 73 10000 5.66 290 23:50 15.09.2022
273 Clear 15 1010 73 10000 4.12 270 21:24 15.09.2022
274 Clear 16 1007 69 10000 4.12 270 20:25 15.09.2022
275 Clear 16 1007 64 10000 3.6 260 18:53 15.09.2022
276 Clouds 17 1006 70 10000 5.66 320 17:34 15.09.2022
277 Rain 17 1006 68 10000 6.17 290 16:54 15.09.2022
278 Clouds 18 1009 68 10000 5.66 290 14:58 15.09.2022
279 Clouds 17 1009 75 10000 3.6 330 12:49 15.09.2022
280 Clouds 15 1008 81 8000 2.57 320 10:34 15.09.2022
281 Clouds 13 1007 83 6000 1.03 160 08:57 15.09.2022
282 Clouds 13 1004 88 6000 2.06 320 04:46 15.09.2022
283 Clouds 14 1006 85 6000 4.12 330 02:18 15.09.2022
284 Clouds 15 1003 87 10000 2.57 320 22:26 14.09.2022
285 Clouds 16 1002 88 10000 4.12 310 20:24 14.09.2022
286 Clouds 16 1002 87 10000 3.6 320 19:32 14.09.2022
287 Rain 17 1001 88 2400 4.63 310 17:28 14.09.2022
288 Rain 17 1001 86 10000 2.57 320 16:36 14.09.2022
289 Clouds 17 1002 87 10000 1.54 340 14:46 14.09.2022
290 Rain 17 1002 87 6000 2.06 310 12:24 14.09.2022
291 Rain 17 1003 87 2600 0.51 0 09:49 14.09.2022
292 Rain 17 1003 87 5000 0.51 0 07:47 14.09.2022
293 Rain 18 1003 87 4800 0 0 06:48 14.09.2022
294 Rain 18 1003 87 6000 1.03 0 05:22 14.09.2022
295 Rain 18 1008 80 9000 2.57 10 01:55 14.09.2022
296 Rain 18 1005 85 10000 1.54 20 01:30 14.09.2022
297 Drizzle 18 1008 80 10000 1.03 0 00:52 14.09.2022
298 Rain 18 1009 80 10000 1.54 180 23:54 13.09.2022
299 Rain 18 1009 82 10000 2.06 190 23:36 13.09.2022
300 Rain 18 1009 82 10000 2.06 190 23:18 13.09.2022
301 Rain 19 1006 82 10000 1.54 80 22:22 13.09.2022
302 Rain 21 1007 75 10000 2.06 180 20:41 13.09.2022
303 Rain 24 1009 56 10000 3.09 190 18:37 13.09.2022
304 Clear 26 1009 49 10000 2.57 250 15:58 13.09.2022
305 Clear 26 1010 48 10000 1.54 0 14:50 13.09.2022
306 Clear 24 1010 55 10000 2.06 200 13:25 13.09.2022
307 Clear 19 1008 71 10000 2.06 140 09:51 13.09.2022
308 Rain 17 1008 77 10000 1.03 0 07:31 13.09.2022
309 Clear 18 1008 68 10000 3.6 140 00:52 13.09.2022
310 Clear 19 1009 63 10000 3.6 140 22:52 12.09.2022
311 Clear 20 1009 61 10000 4.63 130 22:26 12.09.2022
312 Clear 21 1009 54 10000 3.09 120 20:46 12.09.2022
313 Clear 25 1009 47 10000 3.09 120 19:26 12.09.2022
314 Clear 26 1010 42 10000 3.6 130 17:46 12.09.2022
315 Clear 25 1014 47 10000 4.63 170 15:22 12.09.2022
316 Clear 22 1016 67 10000 3.09 150 12:26 12.09.2022
317 Clear 17 1014 77 10000 3.6 140 10:24 12.09.2022
318 Clear 12 1013 87 10000 1.54 80 07:21 12.09.2022
319 Clouds 13 1014 88 8000 1.03 0 04:32 12.09.2022
320 Clear 14 1015 86 10000 0.51 0 00:42 12.09.2022
321 Clear 15 1016 81 10000 0.51 0 22:46 11.09.2022
322 Clear 17 1015 74 10000 1.03 0 21:25 11.09.2022
323 Clear 18 1016 74 10000 1.03 70 20:43 11.09.2022
324 Clear 21 1015 62 10000 2.06 360 19:27 11.09.2022
325 Clear 21 1015 58 10000 2.06 340 18:58 11.09.2022
326 Clouds 22 1016 59 10000 2.57 330 17:28 11.09.2022
327 Clouds 21 1019 65 10000 3.6 360 15:51 11.09.2022
328 Clouds 18 1020 77 10000 2.57 320 13:22 11.09.2022
329 Clouds 16 1017 84 6000 2.06 280 11:25 11.09.2022
330 Mist 16 1016 87 2600 2.06 340 08:25 11.09.2022
331 Clouds 15 1017 81 9000 4.12 280 05:30 11.09.2022
332 Clouds 16 1015 81 10000 3.09 330 23:51 10.09.2022
333 Clouds 17 1014 79 10000 4.12 290 22:23 10.09.2022
334 Clouds 17 1010 83 10000 4.12 290 20:34 10.09.2022
335 Rain 17 1010 81 10000 4.63 280 19:44 10.09.2022
336 Rain 18 1010 80 10000 4.63 280 19:25 10.09.2022
337 Rain 19 1009 76 10000 5.66 270 17:49 10.09.2022
338 Rain 17 1009 80 3400 7.2 260 15:37 10.09.2022
339 Rain 18 1009 76 10000 5.14 250 13:55 10.09.2022
340 Rain 18 1009 74 10000 3.6 220 12:51 10.09.2022
341 Rain 17 1009 76 10000 3.09 190 10:34 10.09.2022
342 Rain 16 1011 77 10000 3.6 170 08:42 10.09.2022
343 Clouds 15 1011 79 10000 3.09 170 08:22 10.09.2022
344 Clouds 16 1008 79 10000 3.6 170 04:55 10.09.2022
345 Clouds 16 1008 80 10000 3.6 180 23:38 09.09.2022
346 Clouds 16 1008 80 10000 4.12 170 22:36 09.09.2022
347 Rain 17 1008 77 10000 3.6 180 21:21 09.09.2022
348 Rain 17 1007 77 10000 2.06 170 20:22 09.09.2022
349 Clouds 17 1007 80 10000 1.54 90 19:23 09.09.2022
350 Rain 18 1007 82 10000 7.2 230 18:18 09.09.2022
351 Clouds 20 1009 66 10000 4.63 210 15:45 09.09.2022
352 Clouds 20 1009 56 10000 6.17 220 13:43 09.09.2022
353 Clouds 20 1010 60 10000 4.63 210 11:38 09.09.2022
354 Clouds 16 1006 82 10000 5.14 170 08:19 09.09.2022
355 Clouds 16 1009 77 10000 3.6 170 03:43 09.09.2022
356 Rain 17 1010 77 10000 4.63 150 00:40 09.09.2022
357 Clear 17 1010 72 10000 3.6 170 21:52 08.09.2022
358 Clear 18 1009 74 10000 4.12 150 20:50 08.09.2022
359 Clear 19 1006 65 10000 3.09 160 20:29 08.09.2022
360 Clear 20 1009 67 10000 3.6 160 19:39 08.09.2022
361 Clouds 22 1006 56 10000 6.17 240 17:40 08.09.2022
362 Clouds 22 1009 56 10000 6.17 230 16:19 08.09.2022
363 Clouds 22 1007 58 10000 5.14 210 14:37 08.09.2022
364 Clouds 19 1010 75 10000 5.66 260 12:51 08.09.2022
365 Clouds 18 1010 78 10000 3.6 290 11:36 08.09.2022
366 Clouds 17 1007 84 10000 2.06 200 10:23 08.09.2022
367 Rain 17 1006 85 10000 2.57 140 07:49 08.09.2022
368 Rain 17 1006 80 10000 1.03 0 05:51 08.09.2022
369 Clear 18 1006 77 10000 0.51 0 02:36 08.09.2022
370 Clear 18 1009 79 10000 0.51 0 02:18 08.09.2022
371 Clear 18 1011 76 10000 1.54 120 00:27 08.09.2022
372 Clear 19 1011 71 10000 2.57 130 22:36 07.09.2022
373 Clear 20 1011 71 10000 2.57 140 21:41 07.09.2022
374 Clear 22 1011 62 10000 2.57 130 20:38 07.09.2022
375 Clear 25 1012 53 10000 2.57 200 19:36 07.09.2022
376 Clouds 25 1012 57 10000 1.03 0 17:28 07.09.2022
377 Clouds 23 1014 68 10000 2.06 0 12:49 07.09.2022
378 Clouds 20 1014 77 10000 2.06 180 10:47 07.09.2022
379 Clouds 17 1010 87 10000 3.09 170 08:38 07.09.2022
380 Fog 17 1010 85 900 2.06 150 06:57 07.09.2022
381 Rain 18 1012 84 10000 3.09 360 02:46 07.09.2022
382 Thunderstorm 24 1010 54 10000 4.63 140 22:59 06.09.2022
383 Rain 25 1013 52 10000 3.6 130 21:41 06.09.2022
384 Clear 27 1010 41 10000 1.54 100 20:24 06.09.2022
385 Clear 30 1010 29 10000 2.06 160 18:45 06.09.2022
386 Clear 30 1010 28 10000 1.54 170 18:22 06.09.2022
387 Clear 31 1011 27 10000 2.06 260 17:21 06.09.2022
388 Clear 31 1014 31 10000 3.09 290 16:37 06.09.2022
389 Clear 30 1015 40 10000 1.54 0 14:59 06.09.2022
390 Clear 29 1015 41 10000 2.57 0 13:45 06.09.2022
391 Clear 29 1015 44 10000 2.57 0 13:23 06.09.2022
392 Clear 27 1013 47 10000 2.06 0 11:57 06.09.2022
393 Clear 25 1013 54 10000 4.63 150 10:41 06.09.2022
394 Clear 20 1013 76 10000 0.89 166 08:50 06.09.2022
395 Clear 17 1013 83 10000 1.54 80 07:45 06.09.2022
396 Rain 20 1014 60 10000 1.03 0 02:44 06.09.2022
397 Clear 22 1014 54 10000 2.57 60 23:27 05.09.2022
398 Clear 23 1014 53 10000 2.06 130 22:21 05.09.2022
399 Clear 26 1014 41 10000 1.54 60 20:35 05.09.2022
400 Clear 28 1014 33 10000 1.54 70 19:26 05.09.2022
401 Clear 29 1017 34 10000 1.54 80 18:46 05.09.2022
402 Clear 29 1015 29 10000 1.54 80 18:21 05.09.2022
403 Clear 30 1018 30 10000 3.09 140 16:43 05.09.2022
404 Clear 31 1019 28 10000 2.57 270 15:47 05.09.2022
405 Clear 29 1020 37 10000 2.57 190 13:26 05.09.2022
406 Clear 28 1020 42 10000 2.57 0 12:28 05.09.2022
407 Clear 23 1021 59 10000 4.12 140 10:18 05.09.2022
408 Clear 16 1017 79 10000 1.54 70 06:46 05.09.2022
409 Clear 18 1017 77 10000 1.54 60 02:42 05.09.2022
410 Clear 21 1017 65 10000 1.54 100 23:28 04.09.2022
411 Clear 21 1016 65 10000 0.51 0 22:28 04.09.2022
412 Clear 22 1016 61 10000 1.54 100 21:34 04.09.2022
413 Clear 26 1018 50 10000 2.06 80 19:39 04.09.2022
414 Clear 28 1015 43 10000 1.54 30 18:20 04.09.2022
415 Clouds 28 1016 41 10000 1.54 0 17:19 04.09.2022
416 Clouds 27 1016 46 10000 2.06 180 14:56 04.09.2022
417 Clouds 26 1018 52 10000 1.54 0 14:18 04.09.2022
418 Clear 24 1019 64 10000 1.54 0 12:21 04.09.2022
419 Clouds 22 1018 74 10000 1.07 154 10:51 04.09.2022
420 Clear 16 1015 84 10000 1.54 110 08:21 04.09.2022
421 Clear 15 1013 85 10000 1.03 0 06:21 04.09.2022
422 Clear 17 1012 81 10000 1.03 0 01:56 04.09.2022
423 Clear 18 1011 78 10000 2.57 110 22:26 03.09.2022
424 Clear 19 1011 77 10000 2.06 110 21:24 03.09.2022
425 Clouds 20 1010 76 10000 3.6 110 20:42 03.09.2022
426 Clear 25 1011 46 10000 3.09 110 17:36 03.09.2022
427 Clear 26 1011 49 10000 3.6 150 16:34 03.09.2022
428 Clear 24 1012 50 10000 5.14 150 14:47 03.09.2022
429 Clear 24 1012 50 10000 4.63 130 14:28 03.09.2022
430 Clouds 24 1009 46 10000 4.12 120 13:43 03.09.2022
431 Rain 20 1008 49 10000 0.89 341 11:24 03.09.2022
432 Clear 18 1009 51 10000 3.09 100 08:57 03.09.2022
433 Clear 16 1009 55 10000 1.54 100 07:23 03.09.2022
434 Clear 16 1009 52 10000 2.57 90 04:45 03.09.2022
435 Clear 17 1009 47 10000 3.6 90 02:35 03.09.2022
436 Clear 19 1010 41 10000 2.57 90 23:35 02.09.2022
437 Clear 21 1010 37 10000 2.57 90 21:46 02.09.2022
438 Clear 23 1013 35 10000 2.57 100 20:40 02.09.2022
439 Clear 25 1012 31 10000 2.57 120 19:47 02.09.2022
440 Clear 26 1010 27 10000 4.63 130 18:50 02.09.2022
441 Clear 26 1010 26 10000 4.12 140 18:24 02.09.2022
442 Clear 27 1010 25 10000 4.12 100 17:23 02.09.2022
443 Clear 27 1014 29 10000 5.66 130 16:31 02.09.2022
444 Clear 25 1015 33 10000 6.69 140 13:25 02.09.2022
445 Clear 22 1013 45 10000 3.6 120 10:43 02.09.2022
446 Clear 19 1014 52 10000 3.09 100 09:42 02.09.2022
447 Clear 18 1014 54 10000 2.06 110 08:45 02.09.2022
448 Clear 16 1014 54 10000 2.06 100 06:46 02.09.2022
449 Clear 17 1014 54 10000 2.06 110 06:18 02.09.2022
450 Clear 19 1015 48 10000 4.63 80 00:20 02.09.2022
451 Clear 20 1015 45 10000 2.06 100 21:56 01.09.2022
452 Clear 21 1015 43 10000 2.06 100 21:37 01.09.2022
453 Clear 21 1015 43 10000 2.06 90 21:18 01.09.2022
454 Clear 25 1014 30 10000 2.57 50 19:32 01.09.2022
455 Clear 26 1018 36 10000 3.09 0 18:20 01.09.2022
456 Clear 26 1018 36 10000 4.63 150 16:54 01.09.2022
457 Clear 25 1019 38 10000 5.14 150 14:52 01.09.2022
458 Clear 25 1020 38 10000 4.63 130 13:27 01.09.2022
459 Clear 24 1020 42 10000 5.14 130 12:55 01.09.2022
460 Clear 23 1020 46 10000 2.57 100 11:51 01.09.2022
461 Clear 22 1020 49 10000 3.6 120 11:20 01.09.2022
462 Clear 18 1020 65 10000 0.51 30 09:32 01.09.2022
463 Clear 14 1020 81 10000 1.54 120 06:41 01.09.2022
464 Clear 17 1017 63 10000 2.57 90 03:59 01.09.2022
465 Clear 18 1021 67 10000 2.06 90 01:30 01.09.2022
466 Clear 18 1021 67 10000 2.06 90 01:30 01.09.2022
467 Clear 18 1021 67 10000 2.06 90 01:30 01.09.2022
468 Clear 18 1021 67 10000 2.06 90 01:30 01.09.2022
469 Clear 18 1021 67 10000 2.06 90 01:30 01.09.2022
470 Clear 18 1021 67 10000 2.06 90 01:30 01.09.2022
471 Clear 18 1021 67 10000 2.06 90 01:30 01.09.2022
472 Clear 18 1021 67 10000 2.06 90 01:30 01.09.2022
473 Clear 21 1018 53 10000 2.57 80 22:50 31.08.2022
474 Clear 22 1020 57 10000 1.03 100 20:44 31.08.2022
475 Clear 24 1019 48 10000 2.06 210 18:46 31.08.2022
476 Clouds 24 1020 48 10000 2.57 140 16:47 31.08.2022
477 Clear 24 1020 50 10000 4.12 140 15:25 31.08.2022
478 Clouds 22 1021 64 10000 2.57 120 13:37 31.08.2022
479 Clouds 20 1021 75 10000 1.03 0 11:55 31.08.2022
480 Rain 17 1020 80 10000 1.03 0 09:36 31.08.2022
481 Clear 16 1020 80 10000 0.51 0 08:26 31.08.2022
482 Rain 19 1017 70 10000 4.12 330 02:58 31.08.2022
483 Clear 22 1018 53 10000 5.66 50 22:24 30.08.2022
484 Clear 23 1018 51 10000 4.63 40 21:29 30.08.2022
485 Clouds 24 1018 49 10000 3.19 43 20:35 30.08.2022
486 Clear 28 1018 39 10000 3.09 20 17:24 30.08.2022
487 Clear 27 1019 39 10000 1.54 0 13:53 30.08.2022
488 Clear 25 1020 40 10000 2.06 60 12:25 30.08.2022
489 Clear 23 1020 49 10000 1.54 0 11:20 30.08.2022
490 Clear 20 1020 63 10000 1.54 290 09:58 30.08.2022
491 Clear 16 1017 69 10000 0.51 130 06:49 30.08.2022
492 Clear 19 1020 59 10000 2.06 90 01:26 30.08.2022
493 Clear 19 1019 56 10000 2.57 50 22:44 29.08.2022
494 Clear 20 1019 51 10000 1.54 50 21:55 29.08.2022
495 Clear 21 1019 50 10000 1.54 20 21:23 29.08.2022
496 Clear 21 1019 50 10000 1.54 20 21:23 29.08.2022
497 Clear 24 1019 40 10000 3.09 330 19:41 29.08.2022
498 Clear 24 1019 38 10000 2.06 290 17:42 29.08.2022
499 Clear 24 1020 37 10000 1.03 0 17:24 29.08.2022
500 Clear 24 1020 41 10000 2.57 0 15:41 29.08.2022
501 Clear 23 1021 46 10000 2.57 0 14:18 29.08.2022
502 Clear 21 1022 50 10000 2.57 0 12:34 29.08.2022
503 Clear 19 1022 61 10000 1.54 0 10:49 29.08.2022
504 Clear 16 1022 72 10000 1.03 0 09:41 29.08.2022
505 Clear 12 1022 81 10000 1.03 0 08:27 29.08.2022
506 Clear 14 1021 71 10000 0.51 0 02:42 29.08.2022
507 Clear 17 1021 57 10000 3.09 40 23:50 28.08.2022
508 Clear 18 1020 54 10000 2.06 20 22:22 28.08.2022
509 Clear 19 1019 52 10000 2.06 10 21:32 28.08.2022
510 Clear 21 1019 46 10000 3.09 30 20:39 28.08.2022
511 Clear 24 1016 37 10000 5.14 30 18:51 28.08.2022
512 Clear 24 1016 37 10000 4.12 350 18:20 28.08.2022
513 Clear 24 1019 41 10000 3.6 20 16:57 28.08.2022
514 Clear 23 1019 43 10000 3.09 20 15:50 28.08.2022
515 Clear 22 1020 47 10000 3.6 30 14:21 28.08.2022
516 Clouds 20 1020 55 10000 4.12 50 12:31 28.08.2022
517 Clear 18 1020 67 10000 4.63 20 10:42 28.08.2022
518 Clear 17 1019 68 10000 4.63 30 09:41 28.08.2022
519 Clear 16 1019 72 10000 2.57 20 08:36 28.08.2022
520 Clear 16 1019 72 10000 3.09 20 07:41 28.08.2022
521 Clear 18 1017 70 10000 1.54 30 02:31 28.08.2022
522 Clear 19 1017 74 10000 0.51 0 00:25 28.08.2022
523 Clouds 19 1017 69 10000 1.54 360 22:32 27.08.2022
524 Clouds 20 1014 62 10000 1.54 10 21:24 27.08.2022
525 Clouds 21 1014 62 10000 2.57 340 19:40 27.08.2022
526 Clouds 21 1014 62 10000 3.09 340 16:48 27.08.2022
527 Clouds 21 1014 64 10000 2.06 320 15:52 27.08.2022
528 Clouds 21 1014 65 10000 3.6 320 15:23 27.08.2022
529 Clouds 19 1014 77 10000 4.12 310 12:23 27.08.2022
530 Clouds 17 1014 80 10000 4.12 320 11:24 27.08.2022
531 Drizzle 17 1014 82 4300 2.57 330 09:42 27.08.2022
532 Clouds 17 1016 78 10000 3.09 330 07:37 27.08.2022
533 Clouds 18 1016 76 10000 3.09 330 02:34 27.08.2022
534 Clouds 20 1016 75 10000 4.12 350 23:55 26.08.2022
535 Clouds 20 1015 74 10000 3.6 340 22:37 26.08.2022
536 Clouds 21 1015 72 10000 5.14 330 20:42 26.08.2022
537 Clouds 22 1015 71 10000 4.12 340 19:23 26.08.2022
538 Clouds 23 1015 68 10000 6.69 310 16:50 26.08.2022
539 Clouds 25 1013 62 10000 4.63 320 15:31 26.08.2022
540 Clouds 23 1015 64 10000 5.66 310 14:30 26.08.2022
541 Clouds 23 1013 71 10000 4.63 300 12:49 26.08.2022
542 Clouds 22 1013 73 10000 3.6 320 11:27 26.08.2022
543 Clouds 22 1013 74 10000 3.09 310 10:46 26.08.2022
544 Clouds 20 1015 78 6000 3.09 310 07:28 26.08.2022
545 Clouds 20 1015 78 6000 3.09 310 07:28 26.08.2022
546 Clear 21 1014 69 10000 2.57 0 02:30 26.08.2022
547 Clear 24 1010 50 10000 1.54 100 23:41 25.08.2022
548 Clear 27 1010 40 10000 1.54 100 21:36 25.08.2022
549 Clear 29 1010 32 10000 1.54 120 20:30 25.08.2022
550 Clear 33 1010 23 10000 2.06 90 18:55 25.08.2022
551 Clear 33 1010 25 10000 2.57 0 17:59 25.08.2022
552 Clear 33 1010 26 10000 4.63 170 17:31 25.08.2022
553 Clear 33 1014 30 10000 3.09 150 15:43 25.08.2022
554 Clear 33 1014 32 10000 3.6 180 15:25 25.08.2022
555 Clear 31 1015 39 10000 4.63 160 12:40 25.08.2022
556 Clear 28 1014 45 10000 5.14 150 10:48 25.08.2022
557 Clear 24 1014 53 10000 2.57 120 09:20 25.08.2022
558 Clear 20 1014 63 10000 1.03 0 05:39 25.08.2022
559 Clear 23 1015 45 10000 2.57 100 01:43 25.08.2022
560 Clear 25 1014 45 10000 3.09 80 23:27 24.08.2022
561 Clear 25 1014 45 10000 2.57 80 22:41 24.08.2022
562 Clear 27 1017 41 10000 2.06 100 21:36 24.08.2022
563 Clear 28 1017 40 10000 2.57 80 20:55 24.08.2022
564 Clear 32 1013 26 10000 2.06 110 19:24 24.08.2022
565 Clear 34 1014 23 10000 2.06 0 16:47 24.08.2022
566 Clear 33 1017 27 10000 3.09 0 15:52 24.08.2022
567 Clear 32 1018 30 10000 1.54 0 13:46 24.08.2022
568 Clear 29 1016 37 10000 1.54 170 11:58 24.08.2022
569 Clear 27 1019 45 10000 2.06 190 11:18 24.08.2022
570 Clear 20 1016 70 10000 0 0 08:26 24.08.2022
571 Clear 19 1017 73 10000 0.51 0 03:32 24.08.2022
572 Clear 22 1017 63 10000 2.06 0 23:47 23.08.2022
573 Clear 24 1014 52 10000 2.06 20 22:33 23.08.2022
574 Clear 25 1016 52 10000 2.06 10 21:39 23.08.2022
575 Clear 28 1013 41 10000 2.57 350 20:33 23.08.2022
576 Clear 30 1012 33 10000 3.6 290 18:53 23.08.2022
577 Clear 31 1015 34 10000 3.6 210 17:51 23.08.2022
578 Clear 31 1015 33 10000 2.06 0 17:18 23.08.2022
579 Clear 30 1015 34 10000 2.06 0 15:49 23.08.2022
580 Clear 29 1016 37 10000 2.06 0 13:36 23.08.2022
581 Clear 28 1016 41 10000 1.54 0 12:45 23.08.2022
582 Clear 25 1016 50 10000 2.57 160 10:53 23.08.2022
583 Clear 24 1016 52 10000 2.57 140 10:32 23.08.2022
584 Clear 24 1016 52 10000 2.57 140 10:32 23.08.2022
585 Clear 20 1013 64 10000 0.51 0 08:55 23.08.2022
586 Clear 18 1013 74 10000 0.51 0 08:22 23.08.2022
587 Clouds 18 1011 70 10000 1.4 137 07:52 23.08.2022
588 Clear 16 1012 76 10000 1.03 0 07:22 23.08.2022
589 Clear 16 1012 76 10000 0.51 0 06:22 23.08.2022
590 Clear 19 1014 69 10000 1.03 0 01:43 23.08.2022
591 Clear 20 1014 65 10000 1.54 160 00:26 23.08.2022
592 Clear 22 1011 54 10000 1.54 50 23:32 22.08.2022
593 Clear 23 1011 49 10000 2.06 60 22:19 22.08.2022
594 Clear 27 1010 34 10000 2.06 350 19:56 22.08.2022
595 Clear 28 1010 33 10000 3.6 360 19:36 22.08.2022
596 Clear 28 1013 35 10000 3.6 320 18:36 22.08.2022
597 Clear 28 1014 35 10000 2.06 300 15:45 22.08.2022
598 Clear 29 1011 31 10000 2.06 0 15:18 22.08.2022
599 Clouds 24 1015 48 10000 2.06 0 11:39 22.08.2022
600 Clear 19 1016 72 10000 1.54 170 09:24 22.08.2022
601 Clear 14 1016 79 10000 1.03 0 05:51 22.08.2022
602 Clear 19 1016 67 10000 1.03 70 00:57 22.08.2022
603 Clear 19 1016 66 10000 1.03 0 00:36 22.08.2022
604 Clear 19 1016 60 10000 1.54 50 23:21 21.08.2022
605 Clear 21 1016 56 10000 2.06 350 21:55 21.08.2022
606 Clear 21 1016 53 10000 2.57 350 21:19 21.08.2022
607 Clear 24 1015 46 10000 4.12 320 19:58 21.08.2022
608 Clear 25 1013 39 10000 3.6 330 18:48 21.08.2022
609 Clear 26 1015 40 10000 3.6 300 16:50 21.08.2022
610 Clear 26 1016 42 10000 1.03 0 15:52 21.08.2022
611 Clear 25 1016 44 10000 3.09 250 14:51 21.08.2022
612 Clear 25 1016 47 10000 2.06 0 13:50 21.08.2022
613 Clouds 24 1017 48 10000 2.57 0 12:56 21.08.2022
614 Clear 21 1018 63 10000 1.54 290 10:40 21.08.2022
615 Clear 17 1018 77 10000 2.57 140 09:21 21.08.2022
616 Clear 17 1015 72 10000 1.03 0 08:46 21.08.2022
617 Clear 15 1018 80 10000 0.51 0 08:28 21.08.2022
618 Clear 14 1015 82 10000 1.54 60 06:37 21.08.2022
619 Clear 15 1018 80 10000 0.51 130 02:35 21.08.2022
620 Clear 18 1015 70 10000 1.54 70 23:35 20.08.2022
621 Clear 19 1018 65 10000 1.54 40 21:57 20.08.2022
622 Clear 21 1017 59 10000 2.06 330 21:22 20.08.2022
623 Clear 24 1014 40 10000 4.12 290 19:49 20.08.2022
624 Clear 24 1014 39 10000 5.14 320 19:21 20.08.2022
625 Clear 25 1015 39 10000 5.14 290 18:27 20.08.2022
626 Clouds 25 1014 40 10000 4.12 300 17:25 20.08.2022
627 Clouds 26 1014 45 10000 5.14 290 16:35 20.08.2022
628 Clouds 25 1015 50 10000 4.63 320 14:55 20.08.2022
629 Clouds 22 1015 68 10000 5.14 290 12:28 20.08.2022
630 Clouds 21 1015 76 10000 3.6 290 11:46 20.08.2022
631 Clouds 18 1017 80 10000 5.14 270 09:29 20.08.2022
632 Clouds 19 1014 83 10000 1.03 0 08:25 20.08.2022
633 Rain 18 1016 81 10000 0.51 0 05:48 20.08.2022
634 Clouds 20 1016 77 10000 3.6 270 00:58 20.08.2022
635 Clouds 20 1016 77 10000 4.12 290 00:30 20.08.2022
636 Clouds 22 1011 71 10000 0.89 239 22:50 19.08.2022
637 Clear 23 1014 64 10000 4.63 310 21:34 19.08.2022
638 Clear 25 1014 56 10000 5.14 300 19:43 19.08.2022
639 Clear 28 1011 37 10000 5.14 310 16:40 19.08.2022
640 Clouds 27 1014 49 10000 5.66 320 14:51 19.08.2022
641 Clouds 24 1015 63 10000 3.6 320 12:47 19.08.2022
642 Clouds 22 1012 68 10000 1.03 0 10:44 19.08.2022
643 Clear 20 1014 77 10000 1.03 0 09:59 19.08.2022
644 Clear 17 1010 81 10000 1.54 80 05:30 19.08.2022
645 Clear 19 1013 78 10000 1.54 60 00:46 19.08.2022
646 Clouds 19 1013 76 10000 1.54 70 00:23 19.08.2022
647 Clouds 20 1013 74 10000 1.03 40 23:28 18.08.2022
648 Clouds 20 1013 72 10000 0.51 0 22:37 18.08.2022
649 Clear 22 1010 65 10000 1.03 60 21:54 18.08.2022
650 Clear 23 1010 62 10000 1.03 0 21:26 18.08.2022
651 Clear 25 1010 55 10000 2.57 360 19:55 18.08.2022
652 Clear 25 1010 54 10000 3.09 340 19:25 18.08.2022
653 Clouds 25 1010 53 10000 3.6 320 17:49 18.08.2022
654 Clouds 26 1010 47 10000 4.12 270 16:55 18.08.2022
655 Clouds 24 1011 58 10000 1.54 0 14:42 18.08.2022
656 Clouds 24 1011 59 10000 1.03 0 14:19 18.08.2022
657 Clouds 24 1011 62 9000 0.89 332 12:55 18.08.2022
658 Clouds 21 1011 75 6000 2.06 260 11:31 18.08.2022
659 Rain 18 1014 89 4000 2.06 340 09:43 18.08.2022
660 Clouds 18 1011 83 9000 1.03 0 08:37 18.08.2022
661 Mist 17 1011 83 8000 1.54 60 07:18 18.08.2022
662 Clear 17 1013 81 10000 1.54 140 03:53 18.08.2022
663 Clear 20 1012 76 10000 1.54 360 23:30 17.08.2022
664 Clear 22 1012 69 10000 3.09 350 21:39 17.08.2022
665 Clear 24 1011 62 10000 4.12 310 20:18 17.08.2022
666 Clear 26 1008 57 10000 4.12 300 19:28 17.08.2022
667 Clouds 26 1008 57 10000 5.14 290 17:32 17.08.2022
668 Clouds 25 1011 58 10000 2.57 250 16:22 17.08.2022
669 Clouds 26 1008 54 10000 2.57 250 16:22 17.08.2022
670 Clouds 24 1011 60 10000 3.09 280 15:22 17.08.2022
671 Clouds 21 1012 71 10000 1.6 333 12:54 17.08.2022
672 Clear 22 1011 63 10000 3.6 310 11:37 17.08.2022
673 Clear 23 1010 60 10000 3.6 270 09:31 17.08.2022
674 Clear 21 1009 64 10000 3.09 90 08:23 17.08.2022
675 Clear 21 1009 65 10000 2.06 90 03:27 17.08.2022
676 Clear 23 1010 60 10000 2.57 80 00:19 17.08.2022
677 Clear 24 1009 57 10000 2.57 60 22:35 16.08.2022
678 Clear 27 1006 41 10000 1.54 40 20:52 16.08.2022
679 Clear 29 1009 38 10000 1.03 0 19:53 16.08.2022
680 Clear 29 1009 36 10000 1.54 0 18:43 16.08.2022
681 Clear 29 1009 37 10000 2.06 210 17:43 16.08.2022
682 Clear 30 1009 35 10000 1.54 0 15:52 16.08.2022
683 Clear 29 1009 38 10000 1.54 0 14:55 16.08.2022
684 Clear 29 1009 40 10000 1.03 0 14:37 16.08.2022
685 Clear 27 1009 50 10000 2.57 200 12:58 16.08.2022
686 Clear 24 1009 63 10000 2.06 150 10:59 16.08.2022
687 Clear 22 1009 70 10000 2.06 160 09:51 16.08.2022
688 Clear 20 1008 74 10000 2.06 120 08:47 16.08.2022
689 Clear 18 1005 76 10000 1.03 0 07:58 16.08.2022
690 Clear 19 1005 74 10000 3.09 140 02:50 16.08.2022
691 Clear 21 1004 70 10000 1.54 80 22:55 15.08.2022
692 Clouds 22 1002 65 10000 2.25 171 21:56 15.08.2022
693 Clear 22 1004 68 10000 1.03 0 21:35 15.08.2022
694 Clear 23 1003 63 10000 1.54 100 20:29 15.08.2022
695 Clear 23 1003 63 10000 1.54 100 20:29 15.08.2022
696 Clouds 25 1003 58 10000 1.54 80 18:46 15.08.2022
697 Clouds 25 1004 53 10000 1.48 319 17:47 15.08.2022
698 Clear 25 1006 56 10000 1.54 160 16:22 15.08.2022
699 Clouds 23 1003 66 10000 4.12 220 14:31 15.08.2022
700 Rain 24 1003 50 10000 4.12 220 12:54 15.08.2022
701 Clear 23 1005 56 10000 4.12 220 10:23 15.08.2022
702 Clear 23 1005 57 10000 1.54 160 08:53 15.08.2022
703 Clear 22 1001 56 10000 1.03 0 06:39 15.08.2022
704 Clear 22 1002 56 10000 3.6 150 03:34 15.08.2022
705 Clear 24 1002 49 10000 1.03 0 23:27 14.08.2022
706 Clear 27 1002 43 10000 1.03 0 21:48 14.08.2022
707 Clear 29 1002 38 10000 1.54 130 20:41 14.08.2022
708 Clear 31 1002 30 10000 2.57 140 19:45 14.08.2022
709 Clear 32 1002 28 10000 2.57 190 18:32 14.08.2022
710 Clear 32 1002 28 10000 2.57 190 18:32 14.08.2022
711 Clear 33 1003 27 10000 4.63 170 17:37 14.08.2022
712 Clear 32 1006 31 10000 4.63 150 16:25 14.08.2022
713 Clear 32 1006 31 10000 2.06 0 15:43 14.08.2022
714 Clear 32 1008 33 10000 3.09 0 13:52 14.08.2022
715 Clear 32 1008 33 10000 2.06 0 13:33 14.08.2022
716 Clear 31 1009 36 10000 1.54 0 12:54 14.08.2022
717 Clear 28 1010 47 10000 3.09 160 11:31 14.08.2022
718 Clear 26 1010 52 10000 3.09 120 10:18 14.08.2022
719 Clear 21 1011 67 10000 2.06 90 08:18 14.08.2022
720 Clear 19 1008 67 10000 1.54 110 06:18 14.08.2022
721 Clear 21 1010 48 10000 2.06 100 01:48 14.08.2022
722 Clear 23 1010 44 10000 0.51 0 23:23 13.08.2022
723 Clear 25 1010 38 10000 0.51 0 22:28 13.08.2022
724 Clear 29 1013 30 10000 2.06 110 20:57 13.08.2022
725 Clear 31 1010 20 10000 2.57 90 19:50 13.08.2022
726 Clear 32 1010 20 10000 2.06 0 19:19 13.08.2022
727 Clear 33 1011 19 10000 2.06 0 17:22 13.08.2022
728 Clear 32 1015 26 10000 3.6 170 15:18 13.08.2022
729 Clear 31 1016 26 10000 2.57 0 14:24 13.08.2022
730 Clear 31 1016 28 10000 3.09 0 13:37 13.08.2022
731 Clear 28 1017 33 10000 2.57 130 11:49 13.08.2022
732 Clear 25 1018 42 10000 2.06 90 09:43 13.08.2022
733 Clear 18 1017 63 10000 2.06 140 07:50 13.08.2022
734 Clear 20 1017 48 10000 3.09 90 02:56 13.08.2022
735 Clear 23 1017 37 10000 3.6 80 23:46 12.08.2022
736 Clear 26 1017 29 10000 2.06 90 21:40 12.08.2022
737 Clear 29 1016 23 10000 3.6 120 20:40 12.08.2022
738 Clear 31 1010 27 10000 4.63 80 19:36 12.08.2022
739 Clear 31 1010 27 10000 4.12 110 18:37 12.08.2022
740 Clear 31 1010 27 10000 4.63 140 16:28 12.08.2022
741 Clear 31 1010 27 10000 3.6 90 15:31 12.08.2022
742 Clear 31 1010 28 10000 3.09 80 14:27 12.08.2022
743 Clear 30 1011 31 10000 4.63 110 12:53 12.08.2022
744 Clear 24 1019 43 10000 3.6 120 09:52 12.08.2022
745 Clear 19 1019 59 10000 1.03 0 07:47 12.08.2022
746 Clear 16 1019 72 10000 1.03 0 06:38 12.08.2022
747 Clear 20 1019 51 10000 3.6 80 02:33 12.08.2022
748 Clear 22 1019 46 10000 3.6 70 00:24 12.08.2022
749 Clear 24 1019 42 10000 3.6 70 23:35 11.08.2022
750 Clear 25 1019 36 10000 2.06 80 22:26 11.08.2022
751 Clear 26 1019 33 10000 2.06 90 21:43 11.08.2022
752 Clear 29 1018 27 10000 2.57 80 20:51 11.08.2022
753 Clear 30 1010 31 10000 2.57 80 20:19 11.08.2022
754 Clear 31 1010 29 10000 3.09 120 19:32 11.08.2022
755 Clear 32 1011 29 10000 3.6 40 17:48 11.08.2022
756 Clear 31 1011 28 10000 3.09 110 16:37 11.08.2022
757 Clear 31 1011 30 10000 3.09 110 15:24 11.08.2022
758 Clear 30 1012 31 10000 3.09 110 13:37 11.08.2022
759 Clear 27 1022 36 10000 3.09 140 10:58 11.08.2022
760 Clear 18 1022 67 10000 1.97 128 07:47 11.08.2022
761 Clear 17 1022 66 10000 0.51 0 03:54 11.08.2022
762 Clear 21 1022 53 10000 2.57 80 00:50 11.08.2022
763 Clear 25 1022 39 10000 3.09 70 22:36 10.08.2022
764 Clear 26 1022 35 10000 2.57 60 21:34 10.08.2022
765 Clear 28 1021 31 10000 2.06 80 20:55 10.08.2022
766 Clear 30 1012 33 10000 2.06 100 19:31 10.08.2022
767 Clear 31 1012 32 10000 2.06 0 18:23 10.08.2022
768 Clear 31 1012 33 10000 3.6 0 16:41 10.08.2022
769 Clear 30 1013 33 10000 3.6 70 13:36 10.08.2022
770 Clear 29 1013 34 10000 4.12 100 12:46 10.08.2022
771 Clear 23 1026 52 10000 1.54 0 09:55 10.08.2022
772 Clear 20 1026 61 10000 1.03 160 08:35 10.08.2022
773 Clear 15 1025 76 10000 0.51 0 07:21 10.08.2022
774 Clear 17 1025 70 10000 0.51 0 03:35 10.08.2022
775 Clear 22 1025 49 10000 3.6 60 23:58 09.08.2022
776 Clear 23 1025 48 10000 4.63 50 23:25 09.08.2022
777 Clear 25 1025 44 10000 3.6 20 21:37 09.08.2022
778 Clear 26 1025 37 10000 5.14 20 20:42 09.08.2022
779 Clear 29 1013 37 10000 6.17 20 18:48 09.08.2022
780 Clear 29 1013 36 10000 4.63 360 17:31 09.08.2022
781 Clear 29 1013 37 10000 3.09 0 16:42 09.08.2022
782 Clear 29 1013 37 10000 4.12 340 15:59 09.08.2022
783 Clear 29 1014 38 10000 2.57 0 14:30 09.08.2022
784 Clear 23 1026 52 10000 1.03 0 10:53 09.08.2022
785 Clear 18 1026 70 10000 0.51 0 08:52 09.08.2022
786 Clear 16 1026 76 10000 1.03 0 07:54 09.08.2022
787 Clear 15 1025 72 10000 1.54 340 04:49 09.08.2022
788 Clear 19 1025 61 10000 1.54 360 23:58 08.08.2022
789 Clear 20 1025 59 10000 2.06 340 23:24 08.08.2022
790 Clear 21 1025 55 10000 2.57 350 22:38 08.08.2022
791 Clear 23 1024 48 10000 3.09 360 21:44 08.08.2022
792 Clear 25 1023 40 10000 4.63 10 20:34 08.08.2022
793 Clear 26 1023 37 10000 4.63 30 19:34 08.08.2022
794 Clear 28 1013 37 10000 4.12 30 18:18 08.08.2022
795 Clear 28 1013 37 10000 5.14 360 15:48 08.08.2022
796 Clear 28 1013 37 10000 3.6 0 15:28 08.08.2022
797 Clear 25 1025 41 10000 3.6 0 12:30 08.08.2022
798 Clear 22 1025 50 10000 1.54 0 10:33 08.08.2022
799 Clouds 14 1025 76 10000 1.16 350 07:59 08.08.2022
800 Clear 13 1023 76 10000 1.03 60 04:31 08.08.2022
801 Clear 16 1023 63 10000 1.03 0 00:33 08.08.2022
802 Clear 21 1022 41 10000 2.57 10 21:42 07.08.2022
803 Clear 22 1022 37 10000 3.09 360 21:24 07.08.2022
804 Clear 24 1021 33 10000 4.63 20 20:24 07.08.2022
805 Clear 25 1021 33 10000 4.12 20 19:52 07.08.2022
806 Clear 25 1021 33 10000 4.12 40 19:22 07.08.2022
807 Clear 26 1022 31 10000 2.57 70 17:58 07.08.2022
808 Clear 26 1022 31 10000 3.09 0 16:53 07.08.2022
809 Clear 26 1023 33 10000 3.09 320 15:40 07.08.2022
810 Clear 25 1023 34 10000 2.57 0 14:32 07.08.2022
811 Clear 23 1024 38 10000 2.57 30 12:41 07.08.2022
812 Clear 20 1025 50 10000 1.03 0 10:54 07.08.2022
813 Clear 19 1026 53 10000 0.51 0 10:21 07.08.2022
814 Clear 11 1025 78 10000 3.09 60 04:41 07.08.2022
815 Clear 12 1026 78 10000 2.06 150 02:37 07.08.2022
816 Clear 16 1026 60 10000 2.57 60 22:57 06.08.2022
817 Clear 17 1026 57 10000 2.06 60 22:19 06.08.2022
818 Clear 21 1026 38 10000 3.09 30 20:19 06.08.2022
819 Clear 22 1026 36 10000 4.63 20 19:38 06.08.2022
820 Clear 23 1026 36 10000 4.12 40 18:19 06.08.2022
821 Clear 23 1027 36 10000 4.12 10 16:33 06.08.2022
822 Clear 21 1027 44 10000 3.09 340 13:52 06.08.2022
823 Clouds 20 1028 46 10000 2.57 0 12:50 06.08.2022
824 Clouds 18 1028 58 10000 2.57 310 11:21 06.08.2022
825 Clear 17 1028 70 10000 1.03 0 09:50 06.08.2022
826 Clear 11 1027 79 10000 1.03 0 07:36 06.08.2022
827 Clear 13 1025 75 10000 0 0 03:24 06.08.2022
828 Clear 16 1023 69 10000 2.06 360 23:27 05.08.2022
829 Clear 19 1022 56 10000 2.06 20 21:51 05.08.2022
830 Clouds 21 1020 53 10000 3.09 360 19:32 05.08.2022
831 Clear 22 1020 59 10000 4.63 360 18:44 05.08.2022
832 Clouds 22 1019 58 10000 3.09 330 17:27 05.08.2022
833 Clouds 22 1019 61 10000 2.57 40 16:48 05.08.2022
834 Clouds 22 1019 66 10000 3.09 20 15:21 05.08.2022
835 Clouds 19 1018 75 10000 4.12 340 13:59 05.08.2022
836 Clouds 18 1018 88 7000 5.66 330 13:23 05.08.2022
837 Mist 18 1016 91 5000 5.14 340 12:24 05.08.2022
838 Clouds 18 1016 88 6000 4.12 270 10:44 05.08.2022
839 Clouds 18 1014 81 7000 3.6 280 07:58 05.08.2022
840 Rain 18 1014 81 7000 1.54 190 06:41 05.08.2022
841 Clear 23 1015 71 10000 3.6 330 00:30 05.08.2022
842 Clear 24 1013 74 10000 1.03 0 22:29 04.08.2022
843 Clear 26 1013 69 10000 3.09 150 21:26 04.08.2022
844 Clear 27 1012 66 10000 1.03 0 20:43 04.08.2022
845 Clouds 29 1005 50 10000 0.45 170 19:40 04.08.2022
846 Rain 29 1007 46 10000 3.6 330 18:36 04.08.2022
847 Rain 30 1007 44 10000 5.14 330 18:18 04.08.2022
848 Clear 34 1007 31 10000 5.66 310 14:23 04.08.2022
849 Clear 35 1007 28 10000 2.06 0 12:57 04.08.2022
850 Clear 32 1013 40 10000 1.54 150 11:20 04.08.2022
851 Clear 21 1008 72 10000 2.06 160 07:54 04.08.2022
852 Clear 20 1007 73 10000 1.03 0 06:40 04.08.2022
853 Clear 22 1008 64 10000 1.54 170 02:35 04.08.2022
854 Clear 25 1009 55 10000 1.03 0 23:46 03.08.2022
855 Clear 26 1008 49 10000 1.54 60 22:59 03.08.2022
856 Clear 31 1008 32 10000 3.09 30 20:50 03.08.2022
857 Clear 33 1008 33 10000 3.09 20 19:54 03.08.2022
858 Clear 34 1008 31 10000 3.09 270 18:37 03.08.2022
859 Clear 34 1015 34 10000 2.57 0 16:26 03.08.2022
860 Clear 33 1015 35 10000 3.6 300 15:45 03.08.2022
861 Clear 31 1016 39 10000 3.09 0 13:24 03.08.2022
862 Clear 26 1016 57 10000 2.06 150 09:51 03.08.2022
863 Clear 18 1011 76 10000 0.51 0 06:29 03.08.2022
864 Clouds 20 1007 70 10000 1.59 142 04:22 03.08.2022
865 Clear 20 1011 72 10000 0.51 0 02:35 03.08.2022
866 Clear 22 1016 68 10000 2.06 60 23:54 02.08.2022
867 Clear 26 1015 52 10000 2.06 320 21:59 02.08.2022
868 Clear 26 1015 50 10000 2.06 320 21:41 02.08.2022
869 Clear 29 1010 37 10000 3.6 250 20:25 02.08.2022
870 Clear 31 1012 34 10000 4.12 260 16:52 02.08.2022
871 Clear 29 1017 40 10000 4.63 240 14:33 02.08.2022
872 Clear 24 1019 61 10000 2.57 160 10:44 02.08.2022
873 Clear 18 1014 79 10000 1.54 120 08:38 02.08.2022
874 Clouds 17 1010 80 10000 2.19 145 07:51 02.08.2022
875 Clear 15 1014 80 10000 1.03 0 04:57 02.08.2022
876 Clear 15 1019 80 10000 1.54 60 03:30 02.08.2022
877 Clear 19 1019 73 10000 2.06 360 23:26 01.08.2022
878 Clouds 21 1018 65 10000 2.06 360 21:53 01.08.2022
879 Clouds 23 1018 60 10000 3.09 350 20:34 01.08.2022
880 Clouds 24 1012 56 10000 4.63 360 19:22 01.08.2022
881 Clouds 25 1017 53 10000 4.12 290 17:22 01.08.2022
882 Clouds 25 1017 51 10000 5.14 290 16:49 01.08.2022
883 Clouds 25 1017 53 10000 4.63 340 15:48 01.08.2022
884 Clouds 25 1017 53 10000 4.12 310 15:28 01.08.2022
885 Clouds 24 1017 62 10000 4.12 280 13:39 01.08.2022
886 Clouds 22 1018 71 10000 2.57 290 11:38 01.08.2022
887 Clouds 20 1017 77 10000 2.57 310 09:38 01.08.2022
888 Clouds 20 1017 76 10000 5.14 290 08:20 01.08.2022
889 Clouds 20 1017 74 10000 4.63 290 04:44 01.08.2022
890 Clouds 20 1017 74 10000 4.12 280 02:31 01.08.2022
891 Clouds 22 1016 70 10000 5.66 280 22:54 31.07.2022
892 Clouds 22 1016 67 10000 5.66 280 22:36 31.07.2022
893 Clouds 24 1015 53 10000 8.23 260 20:49 31.07.2022
894 Clear 27 1010 50 10000 7.2 280 19:25 31.07.2022
895 Clear 27 1010 49 10000 7.2 310 17:44 31.07.2022
896 Clear 27 1016 47 10000 4.63 290 15:30 31.07.2022
897 Clear 25 1017 53 10000 3.6 300 13:31 31.07.2022
898 Rain 23 1017 60 10000 2.57 0 11:52 31.07.2022
899 Clear 21 1018 64 10000 2.57 280 09:28 31.07.2022
900 Clouds 19 1009 67 10000 1.31 189 06:43 31.07.2022
901 Clear 20 1013 62 10000 1.03 0 02:57 31.07.2022
902 Clear 22 1019 60 10000 0.51 0 23:35 30.07.2022
903 Clear 22 1019 57 10000 1.54 50 22:19 30.07.2022
904 Clear 23 1019 54 10000 1.54 360 21:47 30.07.2022
905 Clear 24 1013 44 10000 2.57 350 20:56 30.07.2022
906 Clear 26 1013 40 10000 3.09 340 19:58 30.07.2022
907 Clear 26 1013 37 10000 4.12 330 18:51 30.07.2022
908 Clear 27 1013 37 10000 4.63 330 17:42 30.07.2022
909 Clear 26 1019 40 10000 5.14 290 15:49 30.07.2022
910 Clear 25 1019 42 10000 4.12 310 15:21 30.07.2022
911 Clouds 24 1019 56 10000 3.6 0 12:59 30.07.2022
912 Clouds 22 1019 60 10000 3.6 280 11:55 30.07.2022
913 Clouds 19 1019 72 10000 3.6 320 10:31 30.07.2022
914 Clouds 20 1014 72 10000 3.09 290 09:47 30.07.2022
915 Clear 16 1018 78 10000 1.54 270 07:55 30.07.2022
916 Clear 16 1017 76 10000 0.51 0 02:57 30.07.2022
917 Clear 17 1017 72 10000 0.51 0 02:24 30.07.2022
918 Clear 20 1017 59 10000 1.03 0 22:41 29.07.2022
919 Clear 23 1012 49 10000 2.57 350 21:24 29.07.2022
920 Clear 24 1011 45 10000 3.6 340 20:39 29.07.2022
921 Clear 26 1010 40 10000 5.66 320 18:18 29.07.2022
922 Clear 25 1015 44 10000 4.63 330 15:35 29.07.2022
923 Clear 25 1016 46 10000 4.63 290 13:37 29.07.2022
924 Clear 23 1011 48 10000 2.57 340 11:28 29.07.2022
925 Rain 19 1011 59 10000 1.54 340 08:50 29.07.2022
926 Clear 17 1015 66 10000 1.54 350 08:18 29.07.2022
927 Rain 19 1010 60 10000 0.51 0 02:29 29.07.2022
928 Clear 21 1015 50 10000 4.63 60 23:18 28.07.2022
929 Clear 23 1015 46 10000 4.12 40 21:29 28.07.2022
930 Rain 23 1015 45 10000 4.63 20 20:34 28.07.2022
931 Clear 25 1010 39 10000 4.63 20 19:44 28.07.2022
932 Clear 25 1010 39 10000 4.63 20 19:25 28.07.2022
933 Clear 26 1015 37 10000 3.09 30 17:44 28.07.2022
934 Clear 26 1015 37 10000 2.57 60 16:59 28.07.2022
935 Rain 26 1015 39 10000 2.57 60 16:39 28.07.2022
936 Clear 24 1016 39 10000 1.54 0 13:47 28.07.2022
937 Clear 22 1017 46 10000 2.57 0 11:43 28.07.2022
938 Clear 12 1013 78 10000 1.03 0 06:59 28.07.2022
939 Clear 13 1013 75 10000 1.03 0 05:37 28.07.2022
940 Clear 13 1013 72 10000 1.54 120 05:18 28.07.2022
941 Clear 15 1019 63 10000 2.57 60 23:19 27.07.2022
942 Clear 19 1014 44 10000 1.54 20 21:30 27.07.2022
943 Clear 21 1013 38 10000 4.12 360 19:46 27.07.2022
944 Clear 22 1013 36 10000 3.09 350 18:49 27.07.2022
945 Clear 21 1019 42 10000 3.09 10 16:31 27.07.2022
946 Clear 21 1019 45 10000 4.63 360 15:51 27.07.2022
947 Clear 22 1019 37 10000 3.6 310 14:41 27.07.2022
948 Clear 20 1020 49 10000 5.66 340 13:34 27.07.2022
949 Clear 16 1020 70 10000 3.09 350 09:29 27.07.2022
950 Clear 15 1014 76 10000 2.06 340 07:47 27.07.2022
951 Clear 14 1019 75 10000 2.06 350 04:53 27.07.2022
952 Clouds 18 1018 73 10000 2.57 330 23:25 26.07.2022
953 Clouds 18 1017 69 10000 3.09 330 21:52 26.07.2022
954 Clouds 20 1017 65 10000 3.6 350 20:49 26.07.2022
955 Clouds 21 1017 63 10000 5.66 350 19:32 26.07.2022
956 Clouds 22 1012 60 10000 5.14 350 18:40 26.07.2022
957 Clouds 22 1011 62 10000 6.17 330 17:54 26.07.2022
958 Clouds 23 1017 63 10000 3.6 280 15:43 26.07.2022
959 Clouds 22 1012 59 10000 7.72 280 14:43 26.07.2022
960 Clouds 21 1016 68 10000 5.14 290 12:33 26.07.2022
961 Clouds 19 1011 75 10000 4.12 270 10:32 26.07.2022
962 Clouds 18 1015 75 10000 4.63 240 08:27 26.07.2022
963 Clouds 19 1014 64 10000 6.17 270 01:55 26.07.2022
964 Clear 20 1013 59 10000 4.63 280 00:21 26.07.2022
965 Clear 21 1013 54 10000 6.17 300 22:40 25.07.2022
966 Clear 23 1012 51 10000 6.69 290 21:44 25.07.2022
967 Clear 24 1007 49 10000 8.23 290 20:46 25.07.2022
968 Clear 25 1006 50 10000 7.2 290 20:24 25.07.2022
969 Clear 25 1006 46 10000 8.23 280 19:25 25.07.2022
970 Clear 26 1005 44 10000 9.26 290 17:56 25.07.2022
971 Rain 27 1005 46 10000 8.75 290 17:23 25.07.2022
972 Clear 26 1009 55 10000 4.63 330 13:36 25.07.2022
973 Rain 29 1004 42 10000 4.12 190 10:56 25.07.2022
974 Clear 24 1005 56 10000 2.06 140 08:22 25.07.2022
975 Clear 23 1008 59 10000 1.03 0 01:44 25.07.2022
976 Clear 24 1008 52 10000 4.12 120 23:46 24.07.2022
977 Clear 26 1008 49 10000 2.57 120 22:51 24.07.2022
978 Clear 26 1009 48 10000 2.57 110 22:24 24.07.2022
979 Clear 29 1008 42 10000 2.06 110 21:18 24.07.2022
980 Clear 30 1008 35 10000 3.09 120 20:45 24.07.2022
981 Clear 32 1009 31 10000 2.57 110 19:38 24.07.2022
982 Clear 33 1009 29 10000 1.54 340 18:30 24.07.2022
983 Clear 32 1017 35 10000 2.57 270 15:57 24.07.2022
984 Clear 31 1017 37 10000 2.57 0 15:33 24.07.2022
985 Clear 30 1018 40 10000 3.6 170 13:54 24.07.2022
986 Clear 28 1019 44 10000 1.54 0 12:52 24.07.2022
987 Clear 27 1019 45 10000 2.06 0 11:37 24.07.2022
988 Clear 25 1020 53 10000 2.06 180 10:48 24.07.2022
989 Clear 20 1015 70 10000 1.54 120 08:31 24.07.2022
990 Clear 18 1015 75 10000 1.54 90 07:47 24.07.2022
991 Clear 17 1015 79 10000 1.03 0 04:45 24.07.2022
992 Clear 19 1020 75 10000 1.03 0 23:51 23.07.2022
993 Clear 24 1014 50 10000 2.06 20 21:28 23.07.2022
994 Clear 25 1014 43 10000 3.6 10 19:59 23.07.2022
995 Clear 26 1014 41 10000 3.09 360 18:50 23.07.2022
996 Clear 27 1014 42 10000 4.12 330 17:28 23.07.2022
997 Clear 27 1014 42 10000 3.09 0 16:35 23.07.2022
998 Clear 26 1019 48 10000 3.09 300 15:22 23.07.2022
999 Clear 25 1019 49 10000 3.6 320 14:58 23.07.2022
1000 Clouds 25 1019 51 10000 3.09 0 14:28 23.07.2022
1001 Clouds 24 1019 56 10000 2.57 360 13:26 23.07.2022
1002 Clouds 21 1019 68 10000 2.57 340 10:49 23.07.2022
1003 Clouds 20 1019 70 10000 2.57 0 10:21 23.07.2022
1004 Clouds 18 1014 81 10000 2.06 340 08:50 23.07.2022
1005 Rain 17 1018 79 10000 1.54 350 03:40 23.07.2022
1006 Clear 18 1018 79 10000 3.6 360 01:58 23.07.2022
1007 Clear 20 1012 69 10000 1.54 20 23:19 22.07.2022
1008 Clear 22 1012 62 10000 3.09 360 20:57 22.07.2022
1009 Clear 22 1018 65 10000 2.57 30 19:47 22.07.2022
1010 Clouds 25 1009 45 10000 0.89 122 18:29 22.07.2022
1011 Clear 25 1014 50 10000 3.09 350 17:28 22.07.2022
1012 Clouds 23 1019 60 10000 2.06 40 14:57 22.07.2022
1013 Clouds 22 1016 65 10000 1.54 0 12:23 22.07.2022
1014 Clouds 18 1016 83 10000 1.03 0 09:43 22.07.2022
1015 Drizzle 17 1016 79 8000 1.03 0 09:18 22.07.2022
1016 Clouds 16 1021 79 10000 1.54 40 07:21 22.07.2022
1017 Clouds 17 1016 83 10000 4.12 320 03:59 22.07.2022
1018 Clouds 18 1021 79 10000 4.63 280 22:56 21.07.2022
1019 Clouds 18 1021 78 10000 4.63 280 21:35 21.07.2022
1020 Clouds 19 1020 80 10000 4.63 270 19:31 21.07.2022
1021 Clouds 19 1015 79 10000 5.14 280 18:28 21.07.2022
1022 Clouds 19 1015 80 10000 5.14 270 17:20 21.07.2022
1023 Mist 19 1015 81 3800 0.51 0 15:39 21.07.2022
1024 Rain 19 1015 81 3800 4.63 270 14:44 21.07.2022
1025 Rain 23 1014 60 10000 6.69 260 12:54 21.07.2022
1026 Clouds 22 1019 67 10000 5.14 230 11:42 21.07.2022
1027 Clouds 20 1014 76 10000 2.06 190 09:44 21.07.2022
1028 Clouds 19 1014 80 9000 3.09 220 08:53 21.07.2022
1029 Rain 19 1014 82 10000 2.57 150 07:50 21.07.2022
1030 Clouds 18 1014 84 10000 2.57 180 06:26 21.07.2022
1031 Rain 19 1013 82 10000 2.06 340 02:23 21.07.2022
1032 Rain 24 1018 63 10000 5.66 280 22:46 20.07.2022
1033 Rain 25 1013 59 10000 5.66 270 22:18 20.07.2022
1034 Clouds 26 1016 48 10000 2.57 30 20:46 20.07.2022
1035 Clouds 28 1016 43 10000 3.09 20 19:46 20.07.2022
1036 Rain 29 1016 42 10000 4.12 50 18:54 20.07.2022
1037 Clear 30 1017 38 10000 4.63 330 18:31 20.07.2022
1038 Clouds 30 1018 42 10000 4.12 340 17:25 20.07.2022
1039 Clouds 30 1018 42 10000 6.17 320 15:33 20.07.2022
1040 Clear 31 1018 39 10000 4.63 320 14:36 20.07.2022
1041 Clear 30 1018 42 10000 6.69 300 12:54 20.07.2022
1042 Clear 29 1014 44 10000 6.17 280 10:57 20.07.2022
1043 Clear 24 1009 41 10000 1.54 0 06:21 20.07.2022
1044 Clear 25 1009 36 10000 2.57 100 01:47 20.07.2022
1045 Clear 26 1009 35 10000 1.54 100 00:42 20.07.2022
1046 Clear 30 1009 26 10000 2.57 100 22:37 19.07.2022
1047 Clear 30 1009 25 10000 2.06 100 22:18 19.07.2022
1048 Clear 35 1014 19 10000 3.09 110 20:50 19.07.2022
1049 Clear 37 1009 13 10000 5.14 130 19:37 19.07.2022
1050 Clear 37 1009 14 10000 5.14 150 18:42 19.07.2022
1051 Clear 38 1010 14 10000 6.69 150 17:55 19.07.2022
1052 Clear 38 1016 16 10000 5.14 110 15:49 19.07.2022
1053 Clear 36 1017 19 10000 4.63 160 13:51 19.07.2022
1054 Clear 34 1013 25 10000 3.6 140 11:34 19.07.2022
1055 Clear 29 1014 31 10000 3.09 140 09:54 19.07.2022
1056 Clear 25 1019 45 10000 1.54 120 08:48 19.07.2022
1057 Clear 23 1014 46 10000 1.54 140 08:21 19.07.2022
1058 Clear 20 1014 60 10000 1.03 0 07:18 19.07.2022
1059 Clear 19 1014 62 10000 0.51 0 05:23 19.07.2022
1060 Clear 19 1014 65 10000 0.51 0 04:41 19.07.2022
1061 Clear 23 1015 50 10000 2.57 70 00:31 19.07.2022
1062 Clear 24 1015 47 10000 0.51 0 23:21 18.07.2022
1063 Clear 25 1015 44 10000 1.03 0 22:55 18.07.2022
1064 Clear 28 1014 35 10000 2.06 70 21:50 18.07.2022
1065 Clear 32 1014 26 10000 1.54 60 20:50 18.07.2022
1066 Clear 34 1015 19 10000 1.54 0 19:24 18.07.2022
1067 Clear 35 1016 17 10000 2.06 0 16:52 18.07.2022
1068 Clear 34 1021 22 10000 1.54 0 15:46 18.07.2022
1069 Clear 33 1022 23 10000 1.54 0 14:24 18.07.2022
1070 Clear 31 1023 27 10000 2.06 110 12:38 18.07.2022
1071 Clear 28 1023 36 10000 2.57 130 11:29 18.07.2022
1072 Clear 21 1019 45 10000 2.57 120 08:51 18.07.2022
1073 Clear 17 1019 63 10000 0.51 0 07:28 18.07.2022
1074 Clear 18 1025 55 10000 2.57 80 00:42 18.07.2022
1075 Clear 20 1025 53 10000 2.06 60 22:37 17.07.2022
1076 Clear 23 1024 42 10000 1.03 0 21:49 17.07.2022
1077 Clear 25 1024 37 10000 2.06 20 21:21 17.07.2022
1078 Clear 26 1024 33 10000 1.54 340 20:44 17.07.2022
1079 Clear 27 1019 28 10000 2.57 320 19:32 17.07.2022
1080 Clear 28 1020 29 10000 2.57 0 18:30 17.07.2022
1081 Clear 28 1020 27 10000 3.09 360 17:38 17.07.2022
1082 Clear 28 1021 25 10000 1.54 0 16:51 17.07.2022
1083 Clear 27 1026 30 10000 1.54 0 16:26 17.07.2022
1084 Clear 26 1027 30 10000 1.54 0 14:58 17.07.2022
1085 Clear 25 1027 37 10000 1.54 0 13:31 17.07.2022
1086 Clear 22 1027 44 10000 2.06 0 11:50 17.07.2022
1087 Clear 18 1027 64 10000 2.06 140 09:30 17.07.2022
1088 Clear 10 1027 82 10000 1.03 140 05:54 17.07.2022
1089 Clear 13 1027 76 10000 0.51 0 02:33 17.07.2022
1090 Clear 17 1026 57 10000 2.06 30 23:21 16.07.2022
1091 Clear 20 1025 48 10000 2.06 350 21:47 16.07.2022
1092 Clear 23 1019 34 10000 3.6 350 19:53 16.07.2022
1093 Clear 24 1019 33 10000 4.63 360 18:41 16.07.2022
1094 Clear 24 1019 32 10000 5.66 330 17:19 16.07.2022
1095 Clear 23 1024 44 10000 6.17 310 14:31 16.07.2022
1096 Clouds 21 1018 59 10000 3.6 320 11:54 16.07.2022
1097 Clouds 18 1023 68 10000 1.03 0 09:37 16.07.2022
1098 Clear 17 1017 66 10000 1.54 170 08:48 16.07.2022
1099 Clouds 16 1014 66 10000 2.9 295 08:29 16.07.2022
1100 Clear 14 1013 70 10000 1.1 239 05:59 16.07.2022
1101 Clear 14 1017 71 10000 0.51 0 03:31 16.07.2022
1102 Clear 16 1021 66 10000 2.06 60 23:52 15.07.2022
1103 Clear 17 1022 61 10000 1.03 0 22:44 15.07.2022
1104 Clear 21 1018 43 10000 1.03 0 21:31 15.07.2022
1105 Clear 22 1018 40 10000 2.57 20 20:32 15.07.2022
1106 Clear 23 1018 36 10000 3.09 360 18:46 15.07.2022
1107 Clear 23 1019 37 10000 4.63 340 17:51 15.07.2022
1108 Clear 22 1022 42 10000 4.63 340 16:46 15.07.2022
1109 Clear 21 1023 44 10000 3.6 350 13:58 15.07.2022
1110 Clear 20 1023 50 10000 4.12 360 12:22 15.07.2022
1111 Clouds 18 1023 54 10000 3.09 10 10:52 15.07.2022
1112 Clouds 15 1023 79 10000 1.54 350 07:47 15.07.2022
1113 Clouds 14 1022 76 10000 2.16 329 02:51 15.07.2022
1114 Clear 17 1021 69 10000 2.06 350 00:39 15.07.2022
1115 Clear 17 1021 66 10000 2.57 360 00:39 15.07.2022
1116 Clear 19 1020 57 10000 2.06 350 22:56 14.07.2022
1117 Clear 20 1020 56 10000 2.06 350 22:19 14.07.2022
1118 Clear 20 1020 51 10000 3.09 360 21:39 14.07.2022
1119 Clear 21 1019 50 10000 3.09 350 21:19 14.07.2022
1120 Clear 22 1019 45 10000 3.6 360 20:42 14.07.2022
1121 Clear 23 1016 40 10000 4.63 340 20:18 14.07.2022
1122 Clear 25 1016 38 10000 6.17 320 18:24 14.07.2022
1123 Clear 24 1019 40 10000 5.66 350 16:19 14.07.2022
1124 Clear 25 1019 39 10000 6.17 310 14:56 14.07.2022
1125 Clear 25 1019 37 10000 3.6 0 13:51 14.07.2022
1126 Clear 22 1019 50 10000 2.57 350 12:36 14.07.2022
1127 Clouds 21 1019 62 10000 3.6 320 11:28 14.07.2022
1128 Clouds 20 1020 70 10000 2.57 320 10:52 14.07.2022
1129 Rain 18 1020 77 10000 2.06 330 08:58 14.07.2022
1130 Clear 18 1020 78 10000 2.57 330 04:45 14.07.2022
1131 Clear 20 1020 72 10000 0.51 0 01:21 14.07.2022
1132 Clear 20 1020 70 10000 0.51 120 00:51 14.07.2022
1133 Clear 23 1020 58 10000 1.03 0 22:31 13.07.2022
1134 Clear 24 1020 52 10000 2.06 350 21:47 13.07.2022
1135 Clear 26 1017 46 10000 4.63 360 20:41 13.07.2022
1136 Clear 29 1016 39 10000 7.2 340 18:48 13.07.2022
1137 Clear 31 1016 33 10000 7.72 310 17:34 13.07.2022
1138 Clear 32 1016 30 10000 6.17 300 16:19 13.07.2022
1139 Clear 33 1016 28 10000 5.14 300 15:24 13.07.2022
1140 Clear 28 1021 41 10000 2.06 210 12:39 13.07.2022
1141 Clouds 26 1017 56 10000 2.06 160 10:45 13.07.2022
1142 Clear 25 1018 53 10000 3.09 150 09:57 13.07.2022
1143 Clouds 23 1018 58 10000 4.63 160 09:21 13.07.2022
1144 Clear 20 1018 68 10000 1.03 0 05:52 13.07.2022
1145 Clear 21 1020 66 10000 1.54 50 01:27 13.07.2022
1146 Clear 22 1023 65 10000 1.54 80 23:42 12.07.2022
1147 Clear 24 1023 58 10000 1.03 0 21:55 12.07.2022
1148 Clear 26 1020 46 10000 1.54 70 21:19 12.07.2022
1149 Clear 27 1019 40 10000 1.54 70 20:41 12.07.2022
1150 Clear 28 1020 34 10000 2.06 20 19:26 12.07.2022
1151 Clear 30 1020 30 10000 1.03 0 17:49 12.07.2022
1152 Clear 29 1024 38 10000 1.54 0 15:57 12.07.2022
1153 Clear 28 1025 41 10000 2.06 0 14:31 12.07.2022
1154 Clear 25 1025 55 10000 1.03 0 12:29 12.07.2022
1155 Clear 23 1025 62 10000 1.03 0 11:26 12.07.2022
1156 Clear 21 1022 69 10000 1.03 210 09:42 12.07.2022
1157 Clear 16 1022 83 10000 1.54 150 08:23 12.07.2022
1158 Clouds 14 1019 83 10000 0.7 150 06:59 12.07.2022
1159 Mist 13 1022 86 10000 0.51 0 05:42 12.07.2022
1160 Mist 14 1021 84 10000 1.54 140 02:52 12.07.2022
1161 Clear 16 1024 79 10000 1.54 80 23:42 11.07.2022
1162 Clear 18 1021 75 10000 1.03 0 22:31 11.07.2022
1163 Clouds 22 1020 62 10000 3.09 310 20:41 11.07.2022
1164 Clouds 22 1021 61 10000 2.06 360 19:50 11.07.2022
1165 Clouds 22 1021 64 10000 2.06 330 18:38 11.07.2022
1166 Clouds 21 1024 68 10000 3.09 320 17:55 11.07.2022
1167 Clouds 21 1024 68 10000 2.57 330 16:22 11.07.2022
1168 Clouds 20 1021 69 10000 3.6 330 14:49 11.07.2022
1169 Clouds 19 1024 74 10000 2.57 330 12:28 11.07.2022
1170 Clouds 18 1024 77 10000 3.09 330 10:54 11.07.2022
1171 Clouds 17 1024 79 10000 2.57 10 09:54 11.07.2022
1172 Clouds 17 1021 79 10000 2.06 330 08:36 11.07.2022
1173 Clouds 17 1021 80 10000 2.06 330 07:52 11.07.2022
1174 Clouds 17 1024 73 10000 1.03 0 00:54 11.07.2022
1175 Clouds 18 1021 73 10000 1.54 150 23:53 10.07.2022
1176 Clouds 19 1021 71 10000 0.51 110 22:34 10.07.2022
1177 Clouds 19 1021 69 10000 1.03 140 20:55 10.07.2022
1178 Rain 19 1021 68 10000 1.03 0 20:24 10.07.2022
1179 Clouds 20 1021 66 10000 1.54 170 19:28 10.07.2022
1180 Clouds 19 1022 68 10000 3.09 170 17:59 10.07.2022
1181 Clouds 20 1019 65 10000 3.27 337 16:59 10.07.2022
1182 Clouds 19 1023 68 10000 1.54 360 16:20 10.07.2022
1183 Clouds 18 1023 71 10000 2.06 350 14:44 10.07.2022
1184 Clouds 18 1023 68 10000 3.6 340 13:29 10.07.2022
1185 Clouds 16 1026 70 10000 4.63 340 11:39 10.07.2022
1186 Clouds 16 1026 70 10000 6.17 310 09:45 10.07.2022
1187 Clouds 16 1023 69 10000 2.57 350 08:43 10.07.2022
1188 Clouds 13 1026 80 10000 1.54 330 07:19 10.07.2022
1189 Clouds 16 1026 70 10000 4.63 340 23:50 09.07.2022
1190 Clear 18 1025 63 10000 5.66 350 22:26 09.07.2022
1191 Clear 18 1025 63 10000 5.66 350 22:26 09.07.2022
1192 Clear 19 1025 60 10000 4.12 350 21:47 09.07.2022
1193 Clouds 22 1024 53 10000 6.17 330 19:50 09.07.2022
1194 Clouds 23 1021 55 10000 4.63 350 18:28 09.07.2022
1195 Clouds 23 1022 62 10000 3.09 270 17:32 09.07.2022
1196 Clouds 22 1022 69 10000 5.14 280 16:36 09.07.2022
1197 Rain 23 1022 58 10000 4.63 300 15:39 09.07.2022
1198 Clouds 24 1026 55 10000 4.63 290 14:24 09.07.2022
1199 Clouds 24 1026 54 10000 4.12 290 13:48 09.07.2022
1200 Clouds 24 1027 56 10000 3.6 290 12:29 09.07.2022
1201 Clouds 21 1027 67 10000 2.57 330 10:42 09.07.2022
1202 Clouds 21 1028 69 10000 2.57 300 10:21 09.07.2022
1203 Clouds 16 1028 80 10000 0.51 0 07:45 09.07.2022
1204 Clouds 16 1028 80 10000 0.51 0 07:45 09.07.2022
1205 Clear 14 1028 80 10000 0.51 0 04:53 09.07.2022
1206 Clear 17 1029 76 10000 0.51 110 00:59 09.07.2022
1207 Clouds 19 1029 71 10000 0.51 0 22:53 08.07.2022
1208 Clear 22 1029 59 10000 1.54 30 21:34 08.07.2022
1209 Clear 23 1029 56 10000 2.06 350 20:40 08.07.2022
1210 Clear 24 1026 51 10000 3.09 350 19:48 08.07.2022
1211 Clouds 24 1027 50 10000 4.63 340 18:23 08.07.2022
1212 Clouds 24 1027 47 10000 3.6 320 16:40 08.07.2022
1213 Clouds 23 1031 50 10000 4.63 10 14:51 08.07.2022
1214 Clouds 23 1031 50 10000 4.63 10 14:51 08.07.2022
1215 Clouds 21 1031 51 10000 3.09 0 13:26 08.07.2022
1216 Clouds 20 1031 52 10000 3.09 300 11:42 08.07.2022
1217 Clouds 17 1031 67 10000 3.09 310 10:28 08.07.2022
1218 Clouds 15 1028 69 10000 2.06 360 08:27 08.07.2022
1219 Clouds 14 1030 77 10000 2.06 340 06:50 08.07.2022
1220 Clouds 15 1029 69 10000 4.63 330 01:31 08.07.2022
1221 Clouds 16 1028 65 10000 3.09 340 22:59 07.07.2022
1222 Clouds 16 1027 65 10000 3.6 340 22:34 07.07.2022
1223 Clouds 18 1025 58 10000 6.69 340 20:35 07.07.2022
1224 Clouds 21 1021 62 10000 6.17 330 18:20 07.07.2022
1225 Clouds 19 1024 73 10000 7.2 310 16:53 07.07.2022
1226 Clouds 19 1020 67 10000 7.2 320 14:35 07.07.2022
1227 Clouds 18 1022 72 10000 6.69 330 13:18 07.07.2022
1228 Clouds 18 1022 80 10000 6.69 320 12:24 07.07.2022
1229 Clouds 18 1022 80 10000 6.69 320 12:24 07.07.2022
1230 Clouds 18 1021 76 10000 8.75 320 11:45 07.07.2022
1231 Clouds 17 1021 77 10000 7.2 330 11:27 07.07.2022
1232 Clouds 17 1020 76 10000 9.77 310 10:42 07.07.2022
1233 Clouds 17 1020 77 10000 5.14 320 10:24 07.07.2022
1234 Clouds 17 1020 76 10000 4.63 260 06:58 07.07.2022
1235 Clouds 18 1022 67 10000 3.09 200 01:51 07.07.2022
1236 Clouds 18 1022 61 10000 2.55 274 23:36 06.07.2022
1237 Clear 18 1023 59 10000 1.03 0 23:18 06.07.2022
1238 Clear 19 1023 57 10000 1.03 0 22:53 06.07.2022
1239 Clear 19 1023 57 10000 1.03 0 22:34 06.07.2022
1240 Clear 21 1020 44 10000 4.63 300 20:54 06.07.2022
1241 Clear 22 1020 41 10000 3.6 310 19:35 06.07.2022
1242 Clear 22 1022 40 10000 4.63 320 17:32 06.07.2022
1243 Clear 20 1025 48 10000 3.09 280 15:59 06.07.2022
1244 Clouds 20 1026 48 10000 2.06 0 14:46 06.07.2022
1245 Clouds 18 1026 55 10000 4.63 280 12:35 06.07.2022
1246 Clouds 17 1026 60 10000 3.6 320 11:48 06.07.2022
1247 Clouds 16 1026 67 10000 3.6 360 10:18 06.07.2022
1248 Clouds 16 1026 66 10000 3.6 360 10:18 06.07.2022
1249 Clouds 13 1026 79 10000 2.57 320 07:46 06.07.2022
1250 Clouds 12 1026 80 10000 1.54 330 07:23 06.07.2022
1251 Clouds 13 1025 74 10000 4.63 320 03:24 06.07.2022
1252 Clear 18 1023 61 10000 3.09 340 22:45 05.07.2022
1253 Clear 20 1022 58 10000 5.66 340 21:39 05.07.2022
1254 Clear 21 1022 55 10000 5.14 330 20:39 05.07.2022
1255 Clear 22 1021 52 10000 5.66 330 19:41 05.07.2022
1256 Clear 22 1021 49 10000 5.14 340 19:22 05.07.2022
1257 Clear 24 1018 36 10000 3.6 330 17:47 05.07.2022
1258 Clear 24 1022 41 10000 4.12 290 16:54 05.07.2022
1259 Clear 24 1022 42 10000 5.14 300 15:25 05.07.2022
1260 Clear 23 1022 44 10000 4.63 350 14:28 05.07.2022
1261 Clear 22 1022 47 10000 4.12 310 12:43 05.07.2022
1262 Clouds 22 1022 51 10000 2.57 0 11:33 05.07.2022
1263 Clear 21 1022 55 10000 2.06 0 10:40 05.07.2022
1264 Clear 19 1022 65 10000 1.03 0 09:23 05.07.2022
1265 Clouds 15 1022 78 10000 1.54 80 07:47 05.07.2022
1266 Clear 13 1021 78 10000 0.51 0 04:51 05.07.2022
1267 Clear 14 1021 79 10000 1.03 60 04:24 05.07.2022
1268 Clear 17 1020 72 10000 1.54 60 00:26 05.07.2022
1269 Clear 18 1020 66 10000 1.54 60 23:31 04.07.2022
1270 Clear 20 1019 59 10000 1.54 10 22:27 04.07.2022
1271 Clear 21 1019 53 10000 1.54 360 21:46 04.07.2022
1272 Clear 23 1015 40 10000 2.57 360 20:53 04.07.2022
1273 Clear 24 1016 38 10000 3.09 360 20:34 04.07.2022
1274 Clear 24 1015 36 10000 4.12 340 19:55 04.07.2022
1275 Clear 25 1015 36 10000 4.63 350 19:35 04.07.2022
1276 Clear 25 1016 34 10000 4.12 290 17:58 04.07.2022
1277 Clear 24 1020 41 10000 2.57 280 15:58 04.07.2022
1278 Clear 25 1020 41 10000 2.57 280 15:33 04.07.2022
1279 Clear 22 1021 44 10000 3.09 310 13:29 04.07.2022
1280 Clear 22 1021 45 10000 3.09 0 12:30 04.07.2022
1281 Clear 20 1021 53 10000 2.06 0 10:34 04.07.2022
1282 Clear 19 1021 61 10000 2.06 190 09:53 04.07.2022
1283 Clear 17 1018 69 10000 1.54 130 08:24 04.07.2022
1284 Clear 12 1020 80 10000 0.51 0 04:57 04.07.2022
1285 Clear 16 1020 71 10000 2.57 350 00:42 04.07.2022
1286 Clear 18 1019 63 10000 4.63 330 22:59 03.07.2022
1287 Clear 22 1018 51 10000 6.17 310 20:59 03.07.2022
1288 Clear 22 1018 50 10000 6.17 310 20:41 03.07.2022
1289 Clear 24 1018 49 10000 6.17 310 19:41 03.07.2022
1290 Clear 24 1018 49 10000 6.17 310 19:23 03.07.2022
1291 Clear 25 1018 49 10000 7.72 290 17:45 03.07.2022
1292 Clear 26 1017 47 10000 5.66 310 15:55 03.07.2022
1293 Clear 26 1017 47 10000 5.14 310 15:24 03.07.2022
1294 Clear 26 1018 47 10000 4.12 290 14:32 03.07.2022
1295 Clear 25 1018 47 10000 3.09 0 13:48 03.07.2022
1296 Clear 24 1018 53 10000 2.57 0 12:35 03.07.2022
1297 Clear 23 1018 55 10000 2.57 250 11:39 03.07.2022
1298 Clear 22 1018 56 10000 1.54 0 10:39 03.07.2022
1299 Clear 21 1018 64 10000 2.57 270 09:59 03.07.2022
1300 Clear 16 1018 81 10000 0.51 0 07:37 03.07.2022
1301 Clear 15 1017 78 10000 0.51 0 05:22 03.07.2022
1302 Clear 19 1017 69 10000 0.51 0 00:24 03.07.2022
1303 Clear 22 1017 54 10000 2.57 100 22:36 02.07.2022
1304 Clear 24 1017 46 10000 2.06 110 21:38 02.07.2022
1305 Clear 26 1017 38 10000 4.12 140 20:20 02.07.2022
1306 Clear 27 1018 35 10000 4.63 150 19:49 02.07.2022
1307 Clear 27 1019 36 10000 5.14 130 17:58 02.07.2022
1308 Clear 27 1019 37 10000 5.14 130 17:37 02.07.2022
1309 Clear 26 1020 38 10000 3.09 0 15:32 02.07.2022
1310 Clear 24 1022 41 10000 3.6 220 12:49 02.07.2022
1311 Clouds 23 1023 47 10000 2.57 0 11:28 02.07.2022
1312 Clear 22 1023 51 10000 3.09 150 10:48 02.07.2022
1313 Clear 20 1023 58 10000 2.06 140 09:49 02.07.2022
1314 Clear 17 1023 74 10000 1.54 130 08:37 02.07.2022
1315 Clear 16 1023 77 10000 1.54 130 08:19 02.07.2022
1316 Clear 13 1023 78 10000 1.03 0 02:53 02.07.2022
1317 Clear 14 1022 76 10000 0.51 110 00:27 02.07.2022
1318 Clear 17 1021 66 10000 1.54 230 22:59 01.07.2022
1319 Clear 18 1021 59 10000 3.09 280 22:29 01.07.2022
1320 Clear 20 1020 52 10000 4.63 290 21:37 01.07.2022
1321 Clear 20 1020 48 10000 5.14 300 20:58 01.07.2022
1322 Clear 21 1020 47 10000 4.63 280 20:20 01.07.2022
1323 Clear 21 1019 46 10000 4.63 290 19:34 01.07.2022
1324 Clear 22 1019 48 10000 3.09 260 16:41 01.07.2022
1325 Clouds 21 1019 56 10000 4.63 280 14:29 01.07.2022
1326 Clouds 20 1019 60 10000 3.6 270 13:33 01.07.2022
1327 Clouds 17 1018 73 10000 4.63 240 10:54 01.07.2022
1328 Clouds 16 1018 76 10000 5.14 240 10:19 01.07.2022
1329 Clouds 13 1017 79 10000 2.06 210 06:31 01.07.2022
1330 Clouds 14 1015 79 10000 4.12 280 02:43 01.07.2022
1331 Rain 14 1016 78 10000 3.09 240 23:44 30.06.2022
1332 Rain 14 1014 79 10000 5.66 300 22:50 30.06.2022
1333 Clouds 14 1014 79 10000 5.66 270 22:31 30.06.2022
1334 Rain 15 1013 80 10000 6.69 300 21:53 30.06.2022
1335 Clouds 16 1013 77 10000 10.29 280 20:49 30.06.2022
1336 Clouds 16 1012 79 10000 8.75 280 20:21 30.06.2022
1337 Rain 17 1011 73 10000 9.77 280 19:48 30.06.2022
1338 Rain 24 1007 50 10000 3.6 140 18:54 30.06.2022
1339 Clear 30 1008 33 10000 3.6 120 17:56 30.06.2022
1340 Clear 30 1008 37 10000 3.6 130 17:18 30.06.2022
1341 Clear 30 1009 38 10000 3.09 130 16:20 30.06.2022
1342 Clear 28 1010 43 10000 1.54 0 14:20 30.06.2022
1343 Clear 28 1011 46 10000 2.57 10 13:21 30.06.2022
1344 Clear 27 1011 49 10000 1.03 0 12:34 30.06.2022
1345 Clear 27 1011 49 10000 1.03 0 12:34 30.06.2022
1346 Rain 26 1011 57 10000 1.54 0 11:21 30.06.2022
1347 Clear 24 1011 68 10000 2.06 160 09:51 30.06.2022
1348 Clear 24 1011 70 10000 2.06 150 09:26 30.06.2022
1349 Clear 19 1011 78 10000 1.54 110 07:41 30.06.2022
1350 Clear 17 1012 78 10000 2.06 140 05:46 30.06.2022
1351 Clear 19 1012 78 10000 1.54 80 00:26 30.06.2022
1352 Clear 21 1012 76 10000 1.03 70 22:58 29.06.2022
1353 Clear 22 1012 75 10000 1.03 70 22:37 29.06.2022
1354 Clear 25 1011 61 10000 1.54 60 21:31 29.06.2022
1355 Clear 26 1011 44 10000 1.54 70 20:33 29.06.2022
1356 Clear 26 1011 44 10000 1.54 70 20:33 29.06.2022
1357 Clear 28 1012 37 10000 1.03 0 19:34 29.06.2022
1358 Clear 28 1013 39 10000 1.54 0 17:40 29.06.2022
1359 Clear 28 1013 42 10000 2.57 40 16:35 29.06.2022
1360 Clear 25 1014 51 10000 2.06 90 14:50 29.06.2022
1361 Clear 23 1015 54 10000 1.54 110 12:39 29.06.2022
1362 Clear 19 1015 72 10000 1.54 150 10:37 29.06.2022
1363 Clear 18 1015 72 10000 1.54 90 09:32 29.06.2022
1364 Clouds 16 1015 76 10000 1.03 0 07:36 29.06.2022
1365 Clear 14 1016 82 10000 2.06 70 04:50 29.06.2022
1366 Clear 18 1017 70 10000 3.09 70 00:57 29.06.2022
1367 Clear 18 1017 69 10000 3.09 70 00:35 29.06.2022
1368 Clear 19 1017 67 10000 2.57 70 22:54 28.06.2022
1369 Clear 21 1017 63 10000 2.06 60 22:24 28.06.2022
1370 Clear 23 1017 52 10000 1.03 0 21:54 28.06.2022
1371 Clear 23 1017 45 10000 1.03 70 21:32 28.06.2022
1372 Clear 25 1018 39 10000 2.57 90 20:35 28.06.2022
1373 Clear 25 1018 38 10000 2.06 120 19:34 28.06.2022
1374 Clear 26 1018 37 10000 1.54 0 18:46 28.06.2022
1375 Clear 26 1019 38 10000 2.57 160 17:40 28.06.2022
1376 Clear 25 1020 41 10000 3.09 50 15:57 28.06.2022
1377 Clear 25 1020 41 10000 3.09 50 15:38 28.06.2022
1378 Clear 24 1021 41 10000 2.06 0 14:21 28.06.2022
1379 Clear 23 1021 43 10000 1.03 0 13:52 28.06.2022
1380 Clear 23 1022 52 10000 2.06 0 12:57 28.06.2022
1381 Clear 21 1023 62 10000 1.54 0 11:18 28.06.2022
1382 Clouds 17 1023 79 10000 2.06 140 09:30 28.06.2022
1383 Clouds 16 1023 82 10000 1.54 140 08:44 28.06.2022
1384 Fog 14 1023 79 8000 1.03 0 07:42 28.06.2022
1385 Fog 12 1023 79 600 0.51 0 06:56 28.06.2022
1386 Clear 13 1022 80 10000 1.03 0 01:32 28.06.2022
1387 Clear 14 1021 84 10000 1.03 0 23:41 27.06.2022
1388 Clouds 15 1021 81 10000 0.51 0 22:52 27.06.2022
1389 Clear 17 1020 76 10000 3.6 290 21:38 27.06.2022
1390 Clear 18 1020 77 10000 2.06 270 20:53 27.06.2022
1391 Clouds 17 1019 81 10000 2.57 330 19:36 27.06.2022
1392 Clouds 17 1019 88 10000 5.66 310 18:26 27.06.2022
1393 Clouds 20 1017 68 10000 1.54 220 16:36 27.06.2022
1394 Clouds 21 1017 71 10000 2.57 240 15:24 27.06.2022
1395 Rain 20 1017 76 10000 2.57 240 13:39 27.06.2022
1396 Rain 19 1016 77 10000 1.54 310 12:56 27.06.2022
1397 Clouds 18 1015 80 10000 0.51 0 10:41 27.06.2022
1398 Clouds 18 1015 81 10000 1.03 0 09:23 27.06.2022
1399 Rain 17 1014 80 10000 2.06 140 08:31 27.06.2022
1400 Clouds 17 1014 78 7000 0.51 0 07:38 27.06.2022
1401 Clear 16 1015 79 10000 1.03 0 04:21 27.06.2022
1402 Clouds 17 1015 83 10000 1.03 0 01:19 27.06.2022
1403 Clear 17 1015 78 10000 2.57 360 22:47 26.06.2022
1404 Clear 19 1015 75 10000 0.51 0 20:55 26.06.2022
1405 Clear 19 1015 73 10000 1.54 60 19:59 26.06.2022
1406 Clouds 19 1016 76 10000 1.54 20 18:32 26.06.2022
1407 Clear 19 1016 75 10000 2.06 340 17:37 26.06.2022
1408 Rain 20 1017 70 10000 2.06 340 15:31 26.06.2022
1409 Rain 20 1017 64 10000 1.54 280 13:55 26.06.2022
1410 Rain 21 1017 64 10000 1.54 310 13:23 26.06.2022
1411 Clouds 20 1017 72 10000 1.54 360 11:39 26.06.2022
1412 Clear 19 1016 75 10000 2.06 340 10:30 26.06.2022
1413 Clouds 18 1016 77 10000 2.57 340 09:45 26.06.2022
1414 Clouds 17 1014 78 10000 4.63 300 07:47 26.06.2022
1415 Clear 17 1013 81 10000 1.03 180 04:29 26.06.2022
1416 Rain 19 1013 80 10000 2.54 263 00:36 26.06.2022
1417 Clear 21 1011 69 10000 1.54 100 00:18 26.06.2022
1418 Clear 21 1011 72 10000 2.57 90 23:25 25.06.2022
1419 Clear 22 1011 69 10000 1.54 100 22:42 25.06.2022
1420 Clear 22 1011 69 10000 1.54 100 22:24 25.06.2022
1421 Clear 24 1011 62 10000 1.54 110 21:21 25.06.2022
1422 Clear 24 1011 54 10000 2.06 110 20:36 25.06.2022
1423 Clear 26 1011 52 10000 1.54 100 19:56 25.06.2022
1424 Clear 26 1011 49 10000 1.54 100 18:22 25.06.2022
1425 Clear 25 1011 47 10000 1.54 0 17:26 25.06.2022
1426 Clear 25 1012 50 10000 2.57 190 16:26 25.06.2022
1427 Clouds 25 1012 53 10000 3.09 150 14:29 25.06.2022
1428 Clouds 24 1013 58 10000 2.57 160 12:45 25.06.2022
1429 Clouds 23 1013 59 10000 4.63 180 11:55 25.06.2022
1430 Clear 21 1013 72 10000 3.6 180 09:24 25.06.2022
1431 Clear 20 1013 75 10000 3.09 180 08:49 25.06.2022
1432 Clear 19 1013 77 10000 3.09 130 08:20 25.06.2022
1433 Clear 16 1012 77 10000 2.06 130 06:34 25.06.2022
1434 Clear 18 1010 76 10000 3.09 170 00:45 25.06.2022
1435 Clouds 18 1010 74 10000 2.57 190 23:54 24.06.2022
1436 Clear 20 1009 77 10000 1.54 150 22:26 24.06.2022
1437 Clear 21 1009 73 10000 2.57 160 21:25 24.06.2022
1438 Clouds 21 1008 81 10000 1.03 0 20:23 24.06.2022
1439 Clouds 21 1008 67 10000 2.06 260 19:24 24.06.2022
1440 Rain 22 1007 76 8352 3.13 208 18:51 24.06.2022
1441 Rain 22 1007 68 10000 4.63 250 18:31 24.06.2022
1442 Rain 22 1007 69 10000 2.06 150 17:49 24.06.2022
1443 Clear 25 1007 63 10000 3.6 160 16:46 24.06.2022
1444 Clouds 24 1007 68 10000 1.54 0 14:32 24.06.2022
1445 Rain 23 1008 72 10000 2.06 0 13:59 24.06.2022
1446 Clouds 22 1008 72 10000 3.09 290 13:35 24.06.2022
1447 Rain 19 1008 79 9000 4.12 240 11:41 24.06.2022
1448 Rain 18 1007 80 4400 4.63 240 10:36 24.06.2022
1449 Rain 19 1007 78 10000 3.6 170 09:42 24.06.2022
1450 Clouds 19 1007 80 10000 2.57 120 08:54 24.06.2022
1451 Clouds 19 1007 80 10000 4.12 150 07:57 24.06.2022
1452 Clouds 19 1007 79 10000 3.09 130 06:44 24.06.2022
1453 Rain 19 1008 79 10000 3.09 130 06:22 24.06.2022
1454 Rain 19 1008 79 10000 4.12 160 04:46 24.06.2022
1455 Clear 23 1008 70 10000 0.51 0 23:32 23.06.2022
1456 Clear 23 1008 66 10000 1.54 80 22:43 23.06.2022
1457 Clear 25 1008 62 10000 0.8 28 21:22 23.06.2022
1458 Clear 26 1008 56 10000 0.81 28 20:37 23.06.2022
1459 Clear 29 1008 42 10000 4.12 150 19:53 23.06.2022
1460 Clear 31 1009 42 10000 4.63 120 18:27 23.06.2022
1461 Clear 31 1009 41 10000 4.63 170 17:34 23.06.2022
1462 Clear 31 1010 41 10000 3.09 120 16:29 23.06.2022
1463 Clear 31 1010 42 10000 3.6 150 15:26 23.06.2022
1464 Clear 31 1011 43 10000 4.63 120 14:36 23.06.2022
1465 Clear 27 1012 51 10000 4.12 150 11:42 23.06.2022
1466 Clear 26 1012 58 10000 3.6 140 10:41 23.06.2022
1467 Clear 24 1012 59 10000 3.6 130 09:19 23.06.2022
1468 Clear 18 1012 60 10000 2.06 100 04:48 23.06.2022
1469 Clear 20 1012 55 10000 4.12 70 00:27 23.06.2022
1470 Clear 20 1011 56 10000 4.12 60 23:59 22.06.2022
1471 Clear 22 1011 52 10000 3.6 60 23:18 22.06.2022
1472 Clear 22 1011 52 10000 3.6 60 23:18 22.06.2022
1473 Clear 25 1010 42 10000 4.12 40 21:44 22.06.2022
1474 Clear 27 1010 41 10000 4.12 40 20:52 22.06.2022
1475 Clear 27 1010 39 10000 3.09 40 20:19 22.06.2022
1476 Clear 28 1010 35 10000 1.54 50 19:30 22.06.2022
1477 Clear 29 1010 29 10000 2.06 60 17:40 22.06.2022
1478 Clear 29 1011 30 10000 1.54 0 16:41 22.06.2022
1479 Clear 28 1011 36 10000 2.06 0 15:29 22.06.2022
1480 Clear 27 1012 36 10000 2.06 0 14:51 22.06.2022
1481 Clear 26 1012 40 10000 1.54 0 13:48 22.06.2022
1482 Clear 26 1012 41 10000 2.06 0 13:24 22.06.2022
1483 Clear 24 1012 46 10000 2.06 0 12:18 22.06.2022
1484 Clear 24 1012 48 10000 1.03 0 11:45 22.06.2022
1485 Clear 22 1012 59 10000 1.03 0 10:46 22.06.2022
1486 Clear 18 1012 72 10000 2.06 160 09:40 22.06.2022
1487 Clear 12 1012 82 10000 1.54 60 06:55 22.06.2022
1488 Clear 14 1013 81 10000 0.51 0 02:39 22.06.2022
1489 Clear 16 1013 70 10000 1.03 0 00:57 22.06.2022
1490 Clear 16 1013 70 10000 1.03 0 00:57 22.06.2022
1491 Clear 19 1012 65 10000 2.57 50 22:53 21.06.2022
1492 Clear 21 1012 54 10000 1.54 50 21:21 21.06.2022
1493 Clear 23 1012 46 10000 1.03 0 19:30 21.06.2022
1494 Clear 22 1012 46 10000 1.03 0 19:30 21.06.2022
1495 Clear 23 1012 44 10000 2.57 70 17:56 21.06.2022
1496 Clear 24 1013 42 10000 2.57 20 16:49 21.06.2022
1497 Clear 21 1015 46 10000 3.09 110 12:23 21.06.2022
1498 Clear 19 1016 53 10000 1.54 0 10:47 21.06.2022
1499 Clear 17 1016 65 10000 1.54 0 09:39 21.06.2022
1500 Clear 13 1016 81 10000 2.06 60 07:56 21.06.2022
1501 Clear 9 1016 82 10000 1.54 100 05:33 21.06.2022
1502 Clear 13 1017 78 10000 0.51 0 00:35 21.06.2022
1503 Clear 17 1016 63 10000 1.54 20 22:22 20.06.2022
1504 Clear 18 1016 58 10000 2.06 350 21:41 20.06.2022
1505 Clear 20 1016 47 10000 4.63 330 20:30 20.06.2022
1506 Clear 21 1016 44 10000 5.14 330 19:37 20.06.2022
1507 Clear 21 1016 45 10000 5.66 320 18:44 20.06.2022
1508 Clear 21 1016 45 10000 3.6 330 17:50 20.06.2022
1509 Clouds 21 1016 51 10000 1.54 0 16:55 20.06.2022
1510 Clouds 20 1016 60 10000 3.6 200 15:52 20.06.2022
1511 Clouds 15 1016 77 10000 2.57 340 12:41 20.06.2022
1512 Clouds 13 1015 78 7000 2.57 300 10:32 20.06.2022
1513 Rain 13 1014 82 9000 3.6 320 09:30 20.06.2022
1514 Rain 13 1013 82 10000 1.03 0 08:44 20.06.2022
1515 Rain 14 1010 80 10000 3.09 0 05:35 20.06.2022
1516 Clear 15 1012 79 10000 3.09 350 01:44 20.06.2022
1517 Clear 16 1012 78 10000 3.09 340 00:26 20.06.2022
1518 Clear 17 1011 73 10000 4.63 350 22:53 19.06.2022
1519 Clear 18 1011 68 10000 4.63 340 21:57 19.06.2022
1520 Rain 19 1011 67 10000 4.63 340 21:39 19.06.2022
1521 Clear 20 1010 64 10000 4.06 3 20:39 19.06.2022
1522 Clear 22 1010 59 10000 2.57 340 19:47 19.06.2022
1523 Clear 22 1011 59 10000 5.14 360 18:46 19.06.2022
1524 Clear 22 1011 56 10000 5.66 320 18:26 19.06.2022
1525 Clear 23 1012 53 10000 6.69 310 17:22 19.06.2022
1526 Clear 23 1011 52 10000 7.72 310 16:35 19.06.2022
1527 Clear 23 1011 54 10000 7.72 310 15:41 19.06.2022
1528 Clear 23 1010 56 10000 4.63 300 14:57 19.06.2022
1529 Clear 23 1009 56 10000 2.57 310 14:20 19.06.2022
1530 Clear 22 1008 53 10000 5.14 110 13:23 19.06.2022
1531 Clear 21 1011 52 10000 4.63 330 11:38 19.06.2022
1532 Clear 19 1010 64 10000 6.17 310 10:31 19.06.2022
1533 Clear 18 1008 71 10000 3.6 260 08:49 19.06.2022
1534 Clouds 17 1009 73 10000 5.14 270 08:19 19.06.2022
1535 Clear 21 1006 66 10000 3.6 160 05:44 19.06.2022
1536 Clear 21 1007 79 10000 2.13 126 02:32 19.06.2022
1537 Clear 25 1009 55 10000 3.09 130 00:26 19.06.2022
1538 Clear 26 1010 58 10000 1.54 130 23:36 18.06.2022
1539 Clear 27 1011 58 10000 1.54 100 22:45 18.06.2022
1540 Clear 28 1011 46 10000 3.09 150 21:43 18.06.2022
1541 Clear 31 1011 37 10000 3.09 180 20:49 18.06.2022
1542 Clear 33 1012 33 10000 2.57 190 19:48 18.06.2022
1543 Clear 34 1013 31 10000 3.09 200 18:54 18.06.2022
1544 Clear 35 1013 30 10000 3.09 240 17:54 18.06.2022
1545 Clear 35 1014 31 10000 2.06 210 17:23 18.06.2022
1546 Clear 35 1015 29 10000 4.12 220 15:38 18.06.2022
1547 Clear 34 1016 33 10000 4.63 260 14:49 18.06.2022
1548 Clear 33 1017 34 10000 3.6 230 13:54 18.06.2022
1549 Clear 32 1017 40 10000 1.54 0 12:25 18.06.2022
1550 Haze 29 1018 47 4600 2.06 160 10:59 18.06.2022
1551 Clear 26 1019 54 10000 2.57 130 09:31 18.06.2022
1552 Clear 24 1019 56 10000 3.09 140 08:37 18.06.2022
1553 Clear 21 1019 63 10000 3.09 130 07:33 18.06.2022
1554 Clear 20 1019 66 10000 1.03 0 04:43 18.06.2022
1555 Clear 21 1020 61 10000 1.03 0 01:47 18.06.2022
1556 Clear 22 1020 60 10000 1.03 0 01:21 18.06.2022
1557 Clear 22 1020 60 10000 2.06 140 00:23 18.06.2022
1558 Clear 23 1020 58 10000 1.54 140 23:36 17.06.2022
1559 Clear 25 1020 48 10000 1.54 120 22:27 17.06.2022
1560 Clear 29 1020 36 10000 2.06 100 20:29 17.06.2022
1561 Clear 30 1021 32 10000 2.57 110 19:24 17.06.2022
1562 Clear 31 1021 28 10000 2.06 140 17:56 17.06.2022
1563 Clear 31 1022 30 10000 4.12 170 16:44 17.06.2022
1564 Clear 30 1022 30 10000 2.57 180 16:25 17.06.2022
1565 Clear 30 1022 33 10000 3.6 180 15:37 17.06.2022
1566 Rain 28 1023 33 10000 3.6 0 14:23 17.06.2022
1567 Rain 28 1024 34 10000 4.12 150 13:58 17.06.2022
1568 Rain 28 1024 34 10000 4.12 150 13:58 17.06.2022
1569 Clear 27 1024 36 10000 4.63 160 13:38 17.06.2022
1570 Clear 27 1024 36 10000 4.63 160 13:38 17.06.2022
1571 Clear 26 1024 40 10000 4.63 140 12:28 17.06.2022
1572 Clear 25 1024 42 10000 4.63 130 11:55 17.06.2022
1573 Clear 24 1024 45 10000 4.63 140 11:33 17.06.2022
1574 Clouds 21 1024 61 10000 2.57 140 09:36 17.06.2022
1575 Clear 17 1025 71 10000 2.06 140 08:26 17.06.2022
1576 Clear 14 1025 81 10000 1.03 0 06:45 17.06.2022
1577 Clear 13 1024 81 10000 1.54 170 04:19 17.06.2022
1578 Clear 15 1024 74 10000 0.51 0 01:56 17.06.2022
1579 Clear 17 1023 70 10000 2.57 70 00:24 17.06.2022
1580 Clear 19 1023 57 10000 2.57 60 22:42 16.06.2022
1581 Clear 22 1023 47 10000 2.06 20 21:23 16.06.2022
1582 Clear 22 1022 47 10000 2.57 30 20:55 16.06.2022
1583 Clear 23 1022 42 10000 4.12 20 20:35 16.06.2022
1584 Clear 24 1022 39 10000 3.6 20 19:41 16.06.2022
1585 Clear 25 1019 33 10000 4.63 360 18:26 16.06.2022
1586 Clear 25 1018 31 10000 5.14 360 17:43 16.06.2022
1587 Clear 25 1022 36 10000 5.66 330 16:35 16.06.2022
1588 Clear 24 1022 35 10000 4.63 360 15:22 16.06.2022
1589 Clear 24 1022 36 10000 5.14 330 14:37 16.06.2022
1590 Clear 23 1022 39 10000 5.66 330 13:22 16.06.2022
1591 Clear 22 1021 42 10000 4.63 320 12:36 16.06.2022
1592 Clear 22 1021 44 10000 6.69 330 11:51 16.06.2022
1593 Clear 22 1021 44 10000 6.69 330 11:51 16.06.2022
1594 Clear 21 1021 53 10000 4.12 310 10:56 16.06.2022
1595 Clear 20 1021 56 10000 3.6 320 10:20 16.06.2022
1596 Clear 18 1020 61 10000 2.06 330 09:21 16.06.2022
1597 Clear 17 1020 66 10000 3.09 320 08:30 16.06.2022
1598 Clear 15 1019 75 10000 2.57 350 07:26 16.06.2022
1599 Clear 16 1018 72 10000 2.57 360 04:50 16.06.2022
1600 Clear 17 1017 70 10000 2.06 360 02:21 16.06.2022
1601 Clear 17 1017 71 10000 1.03 0 01:42 16.06.2022
1602 Clear 18 1017 69 10000 0.51 0 01:21 16.06.2022
1603 Clear 19 1017 67 10000 1.54 60 23:47 15.06.2022
1604 Clear 19 1017 67 10000 1.54 60 23:47 15.06.2022
1605 Clear 22 1016 54 10000 1.54 80 22:38 15.06.2022
1606 Clear 23 1016 48 10000 2.06 360 21:22 15.06.2022
1607 Clear 25 1016 41 10000 3.6 360 20:44 15.06.2022
1608 Clear 25 1016 43 10000 3.6 360 20:44 15.06.2022
1609 Clear 27 1012 35 10000 3.09 350 20:25 15.06.2022
1610 Clear 27 1016 36 10000 3.09 330 19:30 15.06.2022
1611 Clear 28 1016 31 10000 2.06 0 17:56 15.06.2022
1612 Clear 29 1013 27 10000 2.06 0 17:32 15.06.2022
1613 Clear 27 1017 32 10000 2.57 0 15:38 15.06.2022
1614 Clear 27 1017 35 10000 2.57 290 14:26 15.06.2022
1615 Rain 25 1018 41 10000 2.06 0 12:54 15.06.2022
1616 Rain 24 1018 44 10000 1.54 0 12:28 15.06.2022
1617 Rain 21 1018 56 10000 1.03 0 10:27 15.06.2022
1618 Rain 20 1018 60 10000 0.51 0 09:53 15.06.2022
1619 Clear 18 1015 66 10000 0.51 0 08:50 15.06.2022
1620 Clear 12 1014 82 10000 0.51 0 06:42 15.06.2022
1621 Clear 11 1018 82 10000 1.03 0 04:47 15.06.2022
1622 Clear 13 1018 79 10000 1.03 0 02:28 15.06.2022
1623 Clear 15 1019 74 10000 0.51 140 00:54 15.06.2022
1624 Clear 16 1019 70 10000 3.09 60 23:55 14.06.2022
1625 Clear 16 1019 68 10000 2.57 60 23:37 14.06.2022
1626 Clear 19 1018 52 10000 2.57 50 22:28 14.06.2022
1627 Clear 21 1018 47 10000 1.03 0 21:42 14.06.2022
1628 Clear 22 1019 35 10000 2.06 40 20:57 14.06.2022
1629 Clear 22 1019 39 10000 2.06 40 20:34 14.06.2022
1630 Clear 24 1015 29 10000 2.57 10 19:25 14.06.2022
1631 Clear 24 1015 30 10000 2.06 350 18:32 14.06.2022
1632 Clear 23 1020 37 10000 3.09 0 16:50 14.06.2022
1633 Clear 23 1021 38 10000 2.06 240 15:52 14.06.2022
1634 Clear 22 1021 38 10000 2.06 240 15:34 14.06.2022
1635 Clear 22 1021 38 10000 2.06 240 15:34 14.06.2022
1636 Clear 22 1022 41 10000 2.57 260 14:53 14.06.2022
1637 Clear 21 1022 45 10000 2.57 0 13:57 14.06.2022
1638 Clear 20 1023 47 10000 2.06 0 12:58 14.06.2022
1639 Clear 19 1023 53 10000 1.54 0 11:54 14.06.2022
1640 Clear 17 1024 60 10000 2.06 290 10:51 14.06.2022
1641 Clear 16 1024 65 10000 1.54 0 10:25 14.06.2022
1642 Clear 15 1024 70 10000 1.03 0 09:18 14.06.2022
1643 Clear 13 1020 74 10000 1.03 0 08:24 14.06.2022
1644 Clear 8 1024 84 10000 1.03 60 06:20 14.06.2022
1645 Clear 9 1024 79 10000 0.51 0 03:45 14.06.2022
1646 Clear 11 1024 78 10000 0.51 130 01:37 14.06.2022
1647 Clear 12 1024 72 10000 2.57 360 00:21 14.06.2022
1648 Clear 15 1024 61 10000 2.06 350 22:45 13.06.2022
1649 Clear 16 1023 55 10000 2.57 350 22:22 13.06.2022
1650 Clear 17 1023 50 10000 3.6 340 21:26 13.06.2022
1651 Clear 19 1022 48 10000 5.14 320 19:59 13.06.2022
1652 Clear 20 1022 47 10000 4.63 330 18:54 13.06.2022
1653 Clear 20 1022 44 10000 5.14 330 17:56 13.06.2022
1654 Clear 20 1022 46 10000 7.2 340 17:24 13.06.2022
1655 Clear 20 1022 47 10000 7.2 320 16:31 13.06.2022
1656 Clear 20 1022 48 10000 5.66 300 14:51 13.06.2022
1657 Clear 20 1022 49 10000 5.66 300 14:31 13.06.2022
1658 Clouds 19 1023 57 10000 5.66 300 13:33 13.06.2022
1659 Clouds 19 1019 61 10000 4.12 330 12:23 13.06.2022
1660 Clouds 18 1022 70 10000 4.12 280 10:56 13.06.2022
1661 Clouds 17 1022 74 10000 3.09 250 10:26 13.06.2022
1662 Clouds 15 1021 78 10000 1.03 0 08:59 13.06.2022
1663 Clear 12 1021 81 10000 0.51 0 06:53 13.06.2022
1664 Clear 11 1020 82 10000 1.54 140 05:35 13.06.2022
1665 Clear 14 1020 75 10000 0.51 0 02:27 13.06.2022
1666 Clouds 14 1021 73 10000 0.51 0 01:36 13.06.2022
1667 Clouds 14 1021 73 10000 0.51 0 01:36 13.06.2022
1668 Clear 16 1021 65 10000 3.09 340 23:50 12.06.2022
1669 Clear 17 1020 62 10000 3.6 340 22:44 12.06.2022
1670 Clear 18 1020 58 10000 2.57 340 21:58 12.06.2022
1671 Clear 20 1020 53 10000 4.63 320 20:58 12.06.2022
1672 Clear 22 1020 46 10000 5.14 310 20:19 12.06.2022
1673 Clear 23 1020 44 10000 5.14 310 19:30 12.06.2022
1674 Clear 24 1017 39 10000 4.63 310 17:47 12.06.2022
1675 Clear 24 1021 42 10000 5.14 310 15:58 12.06.2022
1676 Clear 23 1022 40 10000 4.12 290 14:56 12.06.2022
1677 Clear 23 1022 44 10000 4.12 280 14:20 12.06.2022
1678 Clear 23 1022 43 10000 4.12 0 13:49 12.06.2022
1679 Clear 22 1023 42 10000 4.12 270 12:37 12.06.2022
1680 Clouds 20 1023 56 10000 3.6 280 11:37 12.06.2022
1681 Clear 19 1023 65 10000 2.57 290 10:22 12.06.2022
1682 Clear 18 1019 69 10000 2.57 270 08:55 12.06.2022
1683 Clear 17 1023 76 10000 0.51 0 08:36 12.06.2022
1684 Clear 17 1020 76 10000 0.51 0 07:32 12.06.2022
1685 Clouds 14 1023 79 10000 1.03 0 04:45 12.06.2022
1686 Clear 15 1023 81 10000 0.51 0 02:53 12.06.2022
1687 Clear 16 1022 77 10000 1.03 0 01:39 12.06.2022
1688 Clouds 17 1023 78 10000 0.51 120 00:58 12.06.2022
1689 Clouds 18 1022 76 10000 0.51 130 00:20 12.06.2022
1690 Clouds 18 1022 76 10000 0.51 130 00:20 12.06.2022
1691 Clear 18 1022 76 10000 0.51 0 23:44 11.06.2022
1692 Clear 21 1022 67 10000 2.06 350 22:38 11.06.2022
1693 Clouds 21 1022 63 10000 2.57 340 21:52 11.06.2022
1694 Clouds 23 1022 59 10000 3.09 330 20:36 11.06.2022
1695 Clouds 23 1022 59 10000 2.06 30 19:46 11.06.2022
1696 Clouds 23 1022 61 10000 2.06 30 19:46 11.06.2022
1697 Clouds 24 1022 58 10000 3.09 360 19:25 11.06.2022
1698 Clouds 25 1018 53 10000 3.09 360 18:33 11.06.2022
1699 Clouds 25 1018 52 10000 2.57 10 17:51 11.06.2022
1700 Clouds 25 1018 51 10000 4.12 340 17:27 11.06.2022
1701 Clouds 24 1022 60 10000 4.12 350 16:56 11.06.2022
1702 Clouds 24 1022 58 10000 4.12 320 16:29 11.06.2022
1703 Clouds 24 1022 60 10000 3.6 330 15:42 11.06.2022
1704 Clouds 24 1022 63 10000 3.09 340 13:53 11.06.2022
1705 Clouds 23 1023 63 10000 1.54 0 12:51 11.06.2022
1706 Haze 21 1023 68 4500 1.54 170 10:54 11.06.2022
1707 Clear 20 1023 74 10000 1.54 180 09:55 11.06.2022
1708 Clear 20 1023 76 10000 1.54 170 09:19 11.06.2022
1709 Clear 18 1022 77 10000 2.06 150 07:41 11.06.2022
1710 Clear 17 1022 78 10000 1.03 0 06:30 11.06.2022
1711 Clouds 18 1022 77 10000 2.06 150 04:49 11.06.2022
1712 Clear 19 1022 72 10000 2.57 150 01:53 11.06.2022
1713 Clear 19 1022 72 10000 2.57 150 01:33 11.06.2022
1714 Clear 19 1022 72 10000 3.09 160 00:20 11.06.2022
1715 Clear 20 1021 69 10000 3.09 160 22:32 10.06.2022
1716 Clouds 20 1021 68 10000 2.57 160 21:52 10.06.2022
1717 Clear 22 1021 59 10000 3.09 140 20:42 10.06.2022
1718 Clear 23 1021 58 10000 2.57 150 20:22 10.06.2022
1719 Clear 23 1021 54 10000 3.6 180 19:38 10.06.2022
1720 Clear 23 1021 54 10000 3.6 180 19:18 10.06.2022
1721 Clear 23 1021 54 10000 3.6 180 19:18 10.06.2022
1722 Clear 23 1021 54 10000 3.6 180 19:18 10.06.2022
1723 Clouds 24 1018 48 10000 3.6 170 18:19 10.06.2022
1724 Clouds 24 1018 49 10000 3.6 200 17:36 10.06.2022
1725 Clouds 24 1022 53 10000 3.09 180 16:55 10.06.2022
1726 Clouds 23 1022 55 10000 2.57 0 15:47 10.06.2022
1727 Clouds 23 1023 56 10000 1.54 0 15:19 10.06.2022
1728 Rain 22 1019 55 10000 2.57 230 13:44 10.06.2022
1729 Clouds 20 1023 63 10000 3.6 200 12:28 10.06.2022
1730 Clouds 19 1023 56 10000 3.6 240 11:40 10.06.2022
1731 Clouds 18 1023 74 10000 1.03 0 10:40 10.06.2022
1732 Clear 17 1023 77 10000 1.54 160 09:43 10.06.2022
1733 Clear 15 1020 81 10000 3.09 140 08:23 10.06.2022
1734 Clear 12 1019 86 10000 0.51 0 06:52 10.06.2022
1735 Clear 12 1019 86 10000 1.03 0 06:32 10.06.2022
1736 Clear 11 1019 85 10000 1.03 0 05:48 10.06.2022
1737 Clear 12 1018 84 10000 1.54 150 03:41 10.06.2022
1738 Clear 13 1022 79 10000 1.03 0 01:38 10.06.2022
1739 Clear 14 1018 81 10000 1.03 0 00:25 10.06.2022
1740 Clear 14 1021 83 10000 0.51 0 23:28 09.06.2022
1741 Clear 16 1020 75 10000 2.06 230 21:47 09.06.2022
1742 Clouds 17 1019 77 10000 2.57 230 21:29 09.06.2022
1743 Clouds 18 1019 72 10000 2.06 230 20:54 09.06.2022
1744 Clouds 19 1015 68 10000 2.57 340 19:59 09.06.2022
1745 Clear 19 1015 66 10000 4.12 310 18:49 09.06.2022
1746 Clear 19 1015 65 10000 4.12 300 18:21 09.06.2022
1747 Rain 18 1014 61 10000 4.63 330 16:48 09.06.2022
1748 Clouds 18 1013 68 10000 5.14 360 15:48 09.06.2022
1749 Clouds 19 1015 68 10000 6.17 300 14:35 09.06.2022
1750 Clouds 19 1015 70 10000 5.14 290 13:48 09.06.2022
1751 Clouds 18 1015 70 10000 5.66 280 13:27 09.06.2022
1752 Clouds 17 1011 74 10000 5.14 270 11:54 09.06.2022
1753 Clouds 17 1011 76 10000 5.66 280 11:18 09.06.2022
1754 Clouds 16 1010 79 10000 3.09 250 09:43 09.06.2022
1755 Clouds 15 1010 79 10000 3.6 250 09:23 09.06.2022
1756 Clouds 14 1012 85 10000 2.06 220 07:44 09.06.2022
1757 Clouds 13 1011 80 10000 2.57 240 06:28 09.06.2022
1758 Clouds 13 1009 84 10000 3.09 240 02:38 09.06.2022
1759 Clear 14 1009 82 10000 3.09 170 23:36 08.06.2022
1760 Clouds 15 1005 84 10000 1.54 180 22:58 08.06.2022
1761 Clear 15 1008 81 10000 1.54 230 22:26 08.06.2022
1762 Clouds 15 1008 82 10000 2.57 260 21:54 08.06.2022
1763 Rain 15 1008 82 10000 2.57 270 21:21 08.06.2022
1764 Rain 16 1007 82 10000 4.12 260 20:20 08.06.2022
1765 Rain 16 1007 82 10000 4.12 240 19:38 08.06.2022
1766 Clouds 16 1007 87 10000 2.57 190 18:43 08.06.2022
1767 Rain 16 1007 81 10000 4.12 150 16:54 08.06.2022
1768 Rain 17 1007 82 10000 3.09 170 15:44 08.06.2022
1769 Rain 17 1008 79 10000 5.14 210 13:51 08.06.2022
1770 Rain 20 1008 70 10000 4.63 170 12:20 08.06.2022
1771 Clouds 20 1008 70 10000 4.12 160 11:33 08.06.2022
1772 Clear 18 1005 83 10000 3.09 140 09:59 08.06.2022
1773 Clear 17 1009 80 10000 3.09 140 09:21 08.06.2022
1774 Clouds 16 1006 84 10000 2.57 130 08:26 08.06.2022
1775 Clear 14 1007 86 10000 1.54 110 05:55 08.06.2022
1776 Clear 14 1011 80 10000 2.57 0 03:55 08.06.2022
1777 Clouds 15 1013 82 10000 2.57 180 00:45 08.06.2022
1778 Rain 16 1009 85 10000 1.54 170 23:29 07.06.2022
1779 Rain 16 1009 85 10000 1.54 170 22:45 07.06.2022
1780 Rain 16 1009 85 10000 0.51 0 22:26 07.06.2022
1781 Rain 17 1009 85 10000 2.06 140 21:34 07.06.2022
1782 Rain 17 1009 84 10000 2.57 130 20:58 07.06.2022
1783 Rain 17 1009 85 10000 1.54 150 20:32 07.06.2022
1784 Clouds 17 1009 86 10000 2.57 150 19:38 07.06.2022
1785 Rain 19 1008 79 10000 1.03 0 18:24 07.06.2022
1786 Clouds 19 1013 79 10000 1.54 0 17:27 07.06.2022
1787 Clouds 19 1013 81 10000 1.03 0 16:43 07.06.2022
1788 Rain 18 1013 79 10000 2.57 290 15:54 07.06.2022
1789 Rain 18 1013 78 10000 3.09 270 15:26 07.06.2022
1790 Rain 18 1014 77 8000 5.66 270 14:52 07.06.2022
1791 Clouds 18 1014 77 8000 5.66 270 14:32 07.06.2022
1792 Clouds 20 1013 58 10000 3.09 190 13:32 07.06.2022
1793 Clouds 20 1014 59 10000 3.09 270 12:52 07.06.2022
1794 Rain 19 1014 61 10000 5.14 280 11:47 07.06.2022
1795 Clear 18 1014 60 10000 5.66 260 10:27 07.06.2022
1796 Clouds 16 1014 70 10000 3.6 190 08:51 07.06.2022
1797 Clear 15 1011 73 10000 3.6 190 07:34 07.06.2022
1798 Clouds 13 1010 76 10000 3.09 160 06:38 07.06.2022
1799 Clouds 13 1010 76 10000 3.09 160 06:38 07.06.2022
1800 Clear 13 1014 78 10000 2.57 200 04:20 07.06.2022
1801 Clear 15 1015 73 10000 3.09 220 01:27 07.06.2022
1802 Clear 15 1015 73 10000 3.09 220 01:27 07.06.2022
1803 Clouds 15 1015 79 10000 1.88 228 23:52 06.06.2022
1804 Clear 18 1015 59 10000 4.12 270 22:54 06.06.2022
1805 Clouds 17 1015 73 10000 2.78 249 22:29 06.06.2022
1806 Clouds 19 1015 61 10000 3.65 258 20:43 06.06.2022
1807 Clear 21 1010 46 10000 7.2 250 19:28 06.06.2022
1808 Clear 21 1011 43 10000 7.72 260 18:49 06.06.2022
1809 Clear 21 1014 47 10000 7.2 270 18:21 06.06.2022
1810 Clear 22 1011 41 10000 7.2 250 17:24 06.06.2022
1811 Clear 21 1015 48 10000 6.69 270 16:18 06.06.2022
1812 Clouds 22 1015 52 10000 5.66 240 15:23 06.06.2022
1813 Clear 20 1016 59 10000 2.06 210 14:29 06.06.2022
1814 Clouds 19 1012 65 10000 4.12 260 13:22 06.06.2022
1815 Rain 18 1016 65 10000 7.72 270 12:36 06.06.2022
1816 Rain 19 1015 57 10000 4.63 220 11:53 06.06.2022
1817 Clear 19 1016 60 10000 4.12 250 10:21 06.06.2022
1818 Clear 17 1016 65 10000 5.14 240 09:24 06.06.2022
1819 Clouds 17 1016 74 10000 3.6 220 08:31 06.06.2022
1820 Clouds 16 1015 80 10000 2.06 210 07:28 06.06.2022
1821 Clouds 16 1015 81 10000 1.54 200 05:18 06.06.2022
1822 Clouds 16 1015 81 10000 4.12 280 02:42 06.06.2022
1823 Clouds 17 1015 81 10000 3.09 210 00:58 06.06.2022
1824 Clouds 17 1015 81 10000 3.09 210 00:37 06.06.2022
1825 Clouds 17 1011 82 10000 3.09 240 23:33 05.06.2022
1826 Clouds 18 1009 80 10000 5.66 260 22:45 05.06.2022
1827 Clouds 18 1010 80 10000 5.66 260 22:45 05.06.2022
1828 Clouds 19 1009 79 10000 6.17 230 20:46 05.06.2022
1829 Clouds 19 1008 79 10000 6.69 240 19:41 05.06.2022
1830 Clouds 20 1008 82 10000 8.23 250 18:29 05.06.2022
1831 Clouds 20 1007 84 10000 6.17 140 17:54 05.06.2022
1832 Rain 20 1007 82 10000 6.17 130 17:25 05.06.2022
1833 Rain 20 1011 81 10000 5.66 130 16:51 05.06.2022
1834 Rain 20 1011 81 10000 5.66 130 16:32 05.06.2022
1835 Clouds 20 1012 79 10000 3.6 110 14:25 05.06.2022
1836 Mist 19 1010 85 3300 1.54 110 12:55 05.06.2022
1837 Mist 19 1010 85 3300 1.54 110 12:55 05.06.2022
1838 Rain 19 1010 84 6000 3.09 130 11:45 05.06.2022
1839 Rain 20 1014 69 10000 3.09 110 10:34 05.06.2022
1840 Rain 20 1013 70 10000 2.06 100 09:59 05.06.2022
1841 Clear 19 1010 68 10000 2.06 90 08:34 05.06.2022
1842 Clear 19 1012 70 10000 2.06 120 07:48 05.06.2022
1843 Clear 18 1011 70 10000 4.63 80 05:22 05.06.2022
1844 Clear 18 1013 70 10000 3.09 90 04:19 05.06.2022
1845 Clear 20 1014 66 10000 3.09 80 01:32 05.06.2022
1846 Clear 20 1014 66 10000 3.09 80 01:32 05.06.2022
1847 Clear 20 1014 63 10000 4.12 80 00:39 05.06.2022
1848 Clear 21 1018 63 10000 2.06 80 22:36 04.06.2022
1849 Clear 25 1014 50 10000 2.06 130 20:42 04.06.2022
1850 Clear 26 1017 47 10000 5.14 130 18:51 04.06.2022
1851 Clouds 27 1018 52 10000 2.57 40 16:47 04.06.2022
1852 Clouds 26 1018 54 10000 3.09 10 16:18 04.06.2022
1853 Clouds 25 1019 57 10000 1.54 0 14:54 04.06.2022
1854 Clear 24 1019 59 10000 1.03 0 13:37 04.06.2022
1855 Clear 21 1018 65 10000 1.54 330 11:22 04.06.2022
1856 Clear 19 1018 67 10000 2.57 350 10:49 04.06.2022
1857 Clear 18 1018 69 10000 1.03 0 09:45 04.06.2022
1858 Clear 17 1018 73 10000 1.03 0 08:43 04.06.2022
1859 Clear 16 1018 81 10000 1.03 0 07:51 04.06.2022
1860 Clear 15 1016 81 10000 1.03 0 05:38 04.06.2022
1861 Clouds 17 1017 96 10000 1.85 23 02:36 04.06.2022
1862 Clear 19 1016 62 10000 2.06 40 00:20 04.06.2022
1863 Clear 20 1016 55 10000 1.54 40 22:41 03.06.2022
1864 Clear 21 1015 52 10000 3.09 20 21:43 03.06.2022
1865 Clouds 22 1015 47 10000 1.61 55 20:38 03.06.2022
1866 Clear 24 1015 48 10000 4.12 40 19:19 03.06.2022
1867 Rain 26 1015 44 10000 1.03 0 16:54 03.06.2022
1868 Clear 26 1015 37 10000 1.54 0 15:40 03.06.2022
1869 Rain 25 1016 40 10000 1.54 60 13:51 03.06.2022
1870 Clear 22 1017 45 10000 2.06 90 11:51 03.06.2022
1871 Clear 19 1018 52 10000 1.54 0 09:54 03.06.2022
1872 Clear 18 1018 55 10000 2.06 130 09:29 03.06.2022
1873 Clear 18 1018 58 10000 2.06 130 09:29 03.06.2022
1874 Clear 14 1015 71 10000 0.51 0 07:43 03.06.2022
1875 Clear 11 1015 79 10000 1.54 160 06:46 03.06.2022
1876 Clear 10 1015 81 10000 2.06 170 06:27 03.06.2022
1877 Clear 12 1019 75 10000 1.03 0 02:50 03.06.2022
1878 Clear 15 1020 58 10000 4.12 60 23:39 02.06.2022
1879 Clear 18 1019 52 10000 2.06 50 21:58 02.06.2022
1880 Clear 20 1019 36 10000 2.87 49 20:38 02.06.2022
1881 Clear 22 1016 29 10000 1.03 0 19:55 02.06.2022
1882 Clear 22 1016 28 10000 1.03 0 19:37 02.06.2022
1883 Clear 22 1016 36 10000 2.57 0 18:39 02.06.2022
1884 Clear 21 1020 43 10000 3.09 100 16:28 02.06.2022
1885 Clear 20 1020 44 10000 2.06 340 15:47 02.06.2022
1886 Clouds 19 1021 46 10000 2.06 30 13:31 02.06.2022
1887 Clouds 19 1022 48 10000 2.06 90 12:49 02.06.2022
1888 Clouds 16 1022 63 10000 1.54 280 10:45 02.06.2022
1889 Clear 13 1022 78 10000 1.03 0 09:30 02.06.2022
1890 Clear 12 1018 79 10000 1.03 0 08:45 02.06.2022
1891 Clear 11 1018 79 10000 1.54 150 08:23 02.06.2022
1892 Clear 7 1021 83 10000 1.03 60 06:21 02.06.2022
1893 Clear 7 1020 85 10000 1.03 60 03:51 02.06.2022
1894 Clouds 9 1019 79 10000 1.03 60 01:33 02.06.2022
1895 Clear 11 1018 77 10000 0.51 0 23:22 01.06.2022
1896 Clear 13 1018 69 10000 1.03 20 22:18 01.06.2022
1897 Clear 15 1017 63 10000 2.06 350 21:24 01.06.2022
1898 Clear 16 1017 58 10000 4.63 320 20:39 01.06.2022
1899 Clouds 16 1013 55 10000 5.66 320 19:52 01.06.2022
1900 Clear 16 1016 60 10000 4.63 340 18:41 01.06.2022
1901 Clouds 17 1012 57 10000 5.66 330 17:38 01.06.2022
1902 Clear 18 1015 50 10000 6.17 260 15:56 01.06.2022
1903 Clear 18 1015 51 10000 4.63 290 14:50 01.06.2022
1904 Clouds 17 1015 55 10000 5.66 270 13:39 01.06.2022
1905 Clouds 16 1015 61 10000 5.14 260 11:32 01.06.2022
1906 Clear 14 1015 70 10000 2.57 240 09:34 01.06.2022
1907 Clear 12 1011 76 10000 1.54 220 08:28 01.06.2022
1908 Clear 10 1015 79 10000 0.51 190 07:21 01.06.2022
1909 Mist 9 1014 83 10000 2.06 140 04:58 01.06.2022
1910 Rain 12 1014 79 10000 1.03 0 23:56 31.05.2022
1911 Clear 12 1013 77 10000 2.06 70 22:51 31.05.2022
1912 Clouds 13 1013 74 10000 3.09 350 22:29 31.05.2022
1913 Clouds 14 1013 66 10000 2.06 360 21:45 31.05.2022
1914 Clear 17 1012 51 10000 2.57 340 20:44 31.05.2022
1915 Clear 19 1009 44 10000 2.57 10 19:52 31.05.2022
1916 Clear 19 1009 44 10000 4.12 320 18:45 31.05.2022
1917 Clear 19 1012 44 10000 2.06 0 17:49 31.05.2022
1918 Clear 20 1008 36 10000 3.09 280 16:48 31.05.2022
1919 Clear 18 1012 44 10000 1.54 210 15:40 31.05.2022
1920 Clear 17 1012 56 10000 1.03 0 13:38 31.05.2022
1921 Clouds 14 1013 72 10000 1.54 80 12:19 31.05.2022
1922 Rain 13 1010 66 10000 1.03 0 10:52 31.05.2022
1923 Clear 11 1013 79 10000 1.03 60 08:41 31.05.2022
1924 Rain 10 1007 74 10000 1.38 136 06:57 31.05.2022
1925 Clear 10 1010 74 10000 1.03 0 04:46 31.05.2022
1926 Clear 11 1011 69 10000 2.57 80 00:26 31.05.2022
1927 Clear 11 1011 70 10000 2.06 80 23:26 30.05.2022
1928 Clear 11 1011 68 10000 2.06 80 22:48 30.05.2022
1929 Clear 13 1010 61 10000 1.54 70 21:51 30.05.2022
1930 Clear 14 1010 57 10000 1.54 60 21:32 30.05.2022
1931 Clouds 16 1010 44 10000 2.06 30 19:57 30.05.2022
1932 Clear 16 1010 43 10000 1.54 230 18:39 30.05.2022
1933 Clear 16 1014 49 10000 2.06 20 17:24 30.05.2022
1934 Clear 16 1014 53 10000 2.57 360 16:40 30.05.2022
1935 Clear 16 1010 49 10000 2.06 350 14:23 30.05.2022
1936 Clouds 13 1010 63 10000 2.06 250 12:24 30.05.2022
1937 Clouds 12 1010 73 10000 1.54 200 10:41 30.05.2022
1938 Clouds 10 1013 82 10000 1.54 80 09:19 30.05.2022
1939 Clouds 9 1012 81 10000 0.51 0 07:18 30.05.2022
1940 Fog 8 1012 82 10000 1.03 0 05:48 30.05.2022
1941 Clouds 9 1013 83 10000 1.03 0 01:42 30.05.2022
1942 Clouds 10 1013 83 10000 1.03 0 22:57 29.05.2022
1943 Clouds 10 1013 83 10000 1.03 0 22:36 29.05.2022
1944 Clouds 11 1009 80 10000 2.06 230 20:55 29.05.2022
1945 Clouds 12 1010 79 10000 1.54 230 19:33 29.05.2022
1946 Clouds 12 1007 76 10000 3.29 347 18:53 29.05.2022
1947 Rain 13 1010 71 10000 3.6 30 17:31 29.05.2022
1948 Rain 13 1014 71 10000 4.12 270 15:48 29.05.2022
1949 Clouds 13 1014 72 10000 3.09 280 15:23 29.05.2022
1950 Rain 13 1014 72 10000 6.69 320 13:59 29.05.2022
1951 Clouds 12 1015 73 10000 4.12 300 11:42 29.05.2022
1952 Clouds 11 1012 73 10000 4.12 330 10:40 29.05.2022
1953 Clouds 10 1016 77 10000 3.09 310 09:31 29.05.2022
1954 Clear 7 1017 81 10000 1.72 262 06:24 29.05.2022
1955 Clouds 6 1017 84 10000 0 0 04:45 29.05.2022
1956 Clear 7 1017 80 10000 1.52 270 03:53 29.05.2022
1957 Clear 10 1018 66 10000 2.06 360 23:53 28.05.2022
1958 Clear 10 1018 66 10000 2.06 360 23:34 28.05.2022
1959 Clear 11 1018 60 10000 3.09 340 22:40 28.05.2022
1960 Clear 13 1018 56 10000 3.6 340 21:38 28.05.2022
1961 Clear 16 1018 44 10000 5.14 330 19:51 28.05.2022
1962 Clear 16 1019 43 10000 6.17 340 18:58 28.05.2022
1963 Clear 17 1019 43 10000 5.66 330 17:38 28.05.2022
1964 Clear 17 1019 42 10000 5.14 350 16:50 28.05.2022
1965 Clear 17 1020 43 10000 6.69 320 15:43 28.05.2022
1966 Clear 17 1021 45 10000 6.17 310 14:35 28.05.2022
1967 Clear 17 1021 45 10000 7.72 310 13:21 28.05.2022
1968 Clear 16 1021 50 10000 5.66 310 12:39 28.05.2022
1969 Clouds 15 1021 59 10000 5.14 310 11:23 28.05.2022
1970 Clouds 14 1021 64 10000 5.66 330 10:25 28.05.2022
1971 Clouds 14 1018 68 10000 5.66 310 09:22 28.05.2022
1972 Clear 11 1021 76 10000 5.66 300 07:23 28.05.2022
1973 Clouds 9 1021 77 10000 2.57 0 06:26 28.05.2022
1974 Clear 9 1021 81 10000 0.51 0 03:53 28.05.2022
1975 Clear 10 1023 70 10000 3.09 310 00:33 28.05.2022
1976 Clear 12 1023 64 10000 5.14 320 23:34 27.05.2022
1977 Clear 13 1022 60 10000 5.14 330 22:23 27.05.2022
1978 Clear 15 1021 53 10000 6.17 340 20:57 27.05.2022
1979 Clear 16 1018 46 10000 7.2 330 20:26 27.05.2022
1980 Clear 17 1018 43 10000 8.75 320 19:55 27.05.2022
1981 Clear 18 1018 40 10000 9.26 310 19:33 27.05.2022
1982 Clear 19 1017 42 10000 9.77 300 18:29 27.05.2022
1983 Clear 20 1017 42 10000 10.8 310 16:42 27.05.2022
1984 Clouds 19 1020 49 10000 9.77 300 15:44 27.05.2022
1985 Clouds 19 1020 58 10000 6.69 320 14:45 27.05.2022
1986 Clouds 18 1021 63 10000 6.69 270 13:35 27.05.2022
1987 Clouds 15 1021 82 10000 2.06 270 11:43 27.05.2022
1988 Clouds 14 1021 82 10000 2.06 250 11:25 27.05.2022
1989 Drizzle 14 1018 84 7000 2.06 320 10:35 27.05.2022
1990 Drizzle 13 1017 85 3300 4.12 340 09:42 27.05.2022
1991 Drizzle 13 1017 86 3400 6.69 260 08:48 27.05.2022
1992 Drizzle 14 1016 82 10000 8.23 260 06:58 27.05.2022
1993 Clouds 15 1021 75 10000 6.17 270 02:57 27.05.2022
1994 Clouds 16 1021 73 10000 9.26 290 00:54 27.05.2022
1995 Clouds 18 1021 65 10000 4.63 250 22:53 26.05.2022
1996 Clouds 19 1021 62 10000 6.69 270 21:45 26.05.2022
1997 Clouds 19 1021 62 10000 4.34 253 20:59 26.05.2022
1998 Clear 21 1021 54 10000 6.69 270 19:30 26.05.2022
1999 Clear 21 1021 52 10000 6.17 260 18:24 26.05.2022
2000 Clear 22 1018 46 10000 6.69 280 17:34 26.05.2022
2001 Clouds 21 1022 50 10000 7.2 280 15:58 26.05.2022
2002 Clouds 20 1022 50 10000 7.2 300 15:18 26.05.2022
2003 Clouds 19 1022 56 10000 6.69 260 13:56 26.05.2022
2004 Clouds 18 1022 65 10000 7.2 260 11:49 26.05.2022
2005 Clouds 17 1021 72 10000 6.69 270 10:39 26.05.2022
2006 Clouds 16 1021 75 10000 5.66 280 09:38 26.05.2022
2007 Clouds 16 1017 75 10000 4.63 250 08:38 26.05.2022
2008 Clouds 15 1016 74 10000 5.66 240 05:30 26.05.2022
2009 Clouds 16 1019 68 10000 6.69 260 02:19 26.05.2022
2010 Clear 16 1018 59 10000 3.09 240 23:50 25.05.2022
2011 Clear 17 1018 55 10000 6.17 250 22:51 25.05.2022
2012 Clear 17 1017 52 10000 6.69 250 21:41 25.05.2022
2013 Clear 18 1017 49 10000 6.69 270 20:49 25.05.2022
2014 Clear 19 1016 43 10000 7.2 270 19:42 25.05.2022
2015 Clear 19 1016 41 10000 7.2 270 18:47 25.05.2022
2016 Clear 20 1016 41 10000 7.72 250 16:58 25.05.2022
2017 Clear 20 1016 40 10000 6.69 250 16:27 25.05.2022
2018 Clear 20 1016 39 10000 7.2 260 15:36 25.05.2022
2019 Clear 20 1016 39 10000 7.2 260 15:36 25.05.2022
2020 Clear 20 1016 43 10000 6.69 250 14:50 25.05.2022
2021 Clear 19 1016 44 10000 6.69 250 14:32 25.05.2022
2022 Clear 19 1016 45 10000 4.12 260 13:23 25.05.2022
2023 Clear 18 1016 51 10000 4.46 256 11:50 25.05.2022
2024 Clear 16 1016 60 10000 4.63 210 10:41 25.05.2022
2025 Clouds 15 1016 69 10000 4.12 250 09:45 25.05.2022
2026 Clouds 12 1009 77 10000 0.45 148 07:42 25.05.2022
2027 Clouds 10 1014 79 10000 2.06 160 05:57 25.05.2022
2028 Clouds 11 1013 82 10000 1.03 0 02:44 25.05.2022
2029 Clear 12 1009 80 10000 2.06 130 23:52 24.05.2022
2030 Clouds 12 1012 78 10000 2.57 150 22:59 24.05.2022
2031 Rain 13 1011 76 8000 3.09 0 22:18 24.05.2022
2032 Rain 14 1011 72 10000 2.57 150 21:38 24.05.2022
2033 Rain 14 1010 71 10000 2.06 160 21:19 24.05.2022
2034 Clouds 17 1007 61 10000 4.63 280 19:28 24.05.2022
2035 Clouds 17 1006 60 10000 7.2 290 18:40 24.05.2022
2036 Clouds 17 1008 60 10000 6.17 240 16:40 24.05.2022
2037 Clouds 18 1008 54 10000 6.17 270 15:54 24.05.2022
2038 Clouds 18 1008 55 10000 5.14 230 14:45 24.05.2022
2039 Clouds 17 1008 60 10000 7.72 240 13:48 24.05.2022
2040 Clouds 16 1007 65 10000 7.2 260 12:35 24.05.2022
2041 Clear 14 1006 82 10000 3.09 230 10:18 24.05.2022
2042 Clouds 13 1002 82 10000 3.09 240 09:41 24.05.2022
2043 Rain 12 1002 84 10000 4.63 250 08:43 24.05.2022
2044 Rain 13 1003 82 10000 3.09 280 06:45 24.05.2022
2045 Clouds 14 1003 82 10000 1.03 140 03:48 24.05.2022
2046 Clouds 15 999 82 10000 4.12 250 01:49 24.05.2022
2047 Clouds 15 999 82 10000 4.63 260 01:18 24.05.2022
2048 Clouds 15 998 85 9000 9.26 270 22:50 23.05.2022
2049 Clouds 17 1001 79 10000 6.07 262 21:54 23.05.2022
2050 Rain 18 998 80 10000 4.12 180 20:59 23.05.2022
2051 Rain 19 994 83 10000 3.6 170 20:26 23.05.2022
2052 Clouds 20 994 85 10000 3.09 170 19:31 23.05.2022
2053 Clouds 19 994 85 9000 3.09 220 18:54 23.05.2022
2054 Mist 20 995 84 7000 4.12 230 18:27 23.05.2022
2055 Rain 21 994 82 10000 0.51 0 17:18 23.05.2022
2056 Rain 23 1000 64 10000 5.66 140 14:52 23.05.2022
2057 Clear 22 1002 56 10000 5.66 140 12:56 23.05.2022
2058 Clear 20 1003 61 10000 6.17 130 11:31 23.05.2022
2059 Rain 19 1000 61 10000 4.63 140 09:50 23.05.2022
2060 Clear 19 1000 60 10000 3.09 130 09:28 23.05.2022
2061 Rain 18 1001 61 10000 3.09 110 08:20 23.05.2022
2062 Clear 17 1002 62 10000 2.57 110 06:45 23.05.2022
2063 Clear 17 1003 64 10000 1.54 110 05:31 23.05.2022
2064 Clear 17 1009 67 10000 1.54 90 02:32 23.05.2022
2065 Clear 17 1010 66 10000 2.06 120 01:37 23.05.2022
2066 Clear 17 1010 63 10000 2.57 110 00:20 23.05.2022
2067 Clear 18 1010 58 10000 2.57 100 22:40 22.05.2022
2068 Clear 19 1010 63 10000 2.06 90 21:55 22.05.2022
2069 Clear 20 1011 49 10000 1.54 80 21:32 22.05.2022
2070 Clear 22 1011 38 10000 2.06 120 20:32 22.05.2022
2071 Clear 23 1011 37 10000 2.06 90 19:56 22.05.2022
2072 Clear 24 1008 29 10000 2.57 70 18:56 22.05.2022
2073 Clear 24 1012 33 10000 2.06 130 18:25 22.05.2022
2074 Clear 25 1009 29 10000 2.06 0 17:37 22.05.2022
2075 Clear 23 1013 39 10000 1.54 0 16:39 22.05.2022
2076 Clear 22 1015 43 10000 1.54 0 14:53 22.05.2022
2077 Clear 22 1015 44 10000 2.06 0 13:56 22.05.2022
2078 Clouds 21 1016 50 10000 1.54 0 12:52 22.05.2022
2079 Clear 19 1016 58 10000 1.54 230 11:52 22.05.2022
2080 Clear 18 1017 65 10000 1.03 0 10:24 22.05.2022
2081 Clear 16 1017 74 10000 1.54 160 09:19 22.05.2022
2082 Clear 12 1014 86 10000 0.51 0 07:22 22.05.2022
2083 Clear 11 1014 86 10000 0.51 0 06:40 22.05.2022
2084 Clear 12 1015 83 10000 0.51 0 03:20 22.05.2022
2085 Clear 12 1019 83 10000 1.03 0 00:48 22.05.2022
2086 Clear 14 1020 78 10000 0.51 0 23:56 21.05.2022
2087 Clear 14 1020 76 10000 0.51 0 23:22 21.05.2022
2088 Clear 16 1020 72 10000 1.03 50 21:59 21.05.2022
2089 Clear 17 1020 64 10000 1.54 30 21:30 21.05.2022
2090 Clear 18 1020 56 10000 2.06 340 20:29 21.05.2022
2091 Clear 19 1020 52 10000 3.6 330 19:43 21.05.2022
2092 Clear 20 1017 46 10000 4.12 300 18:45 21.05.2022
2093 Clear 21 1017 44 10000 5.14 300 16:57 21.05.2022
2094 Clouds 19 1022 55 10000 5.66 290 14:39 21.05.2022
2095 Clouds 19 1022 57 10000 6.69 260 13:55 21.05.2022
2096 Clouds 18 1022 59 10000 6.69 280 13:25 21.05.2022
2097 Clouds 17 1022 63 10000 6.17 270 12:38 21.05.2022
2098 Clouds 17 1018 63 10000 6.69 270 11:25 21.05.2022
2099 Clouds 15 1022 75 10000 4.63 270 10:21 21.05.2022
2100 Clouds 14 1018 73 10000 6.17 280 08:59 21.05.2022
2101 Clouds 14 1018 76 10000 6.17 280 08:38 21.05.2022
2102 Clear 12 1021 81 10000 3.75 241 06:20 21.05.2022
2103 Clouds 12 1021 81 10000 3.6 270 01:42 21.05.2022
2104 Clouds 14 1020 80 10000 8.23 280 23:35 20.05.2022
2105 Clouds 14 1019 80 10000 6.17 290 22:40 20.05.2022
2106 Clouds 15 1018 79 10000 9.26 280 21:58 20.05.2022
2107 Clouds 16 1017 78 10000 10.8 280 21:19 20.05.2022
2108 Clouds 16 1017 80 10000 5.1 266 20:47 20.05.2022
2109 Clouds 18 1015 90 10000 6.17 280 19:47 20.05.2022
2110 Rain 19 1014 85 10000 3.09 230 18:53 20.05.2022
2111 Rain 20 1013 88 10000 1.03 0 18:18 20.05.2022
2112 Clouds 22 1012 84 10000 5.37 173 16:23 20.05.2022
2113 Clouds 22 1014 77 10000 5.14 170 15:54 20.05.2022
2114 Rain 23 1011 78 10000 4.12 140 15:20 20.05.2022
2115 Clouds 25 1011 67 10000 3.6 130 14:27 20.05.2022
2116 Clouds 23 1018 72 10000 3.09 140 12:37 20.05.2022
2117 Clouds 21 1015 78 10000 3.09 150 10:47 20.05.2022
2118 Clouds 18 1017 84 7000 2.57 130 09:27 20.05.2022
2119 Clouds 17 1021 82 7000 1.03 0 08:27 20.05.2022
2120 Clouds 16 1018 84 6000 1.54 170 06:43 20.05.2022
2121 Clouds 16 1021 82 10000 1.54 30 05:40 20.05.2022
2122 Clouds 16 1022 80 10000 0.51 0 02:41 20.05.2022
2123 Clear 18 1017 86 10000 0.51 0 23:47 19.05.2022
2124 Clear 18 1017 86 10000 2.57 140 22:37 19.05.2022
2125 Clear 19 1017 84 10000 2.06 130 21:51 19.05.2022
2126 Clear 19 1017 84 10000 1.54 130 21:24 19.05.2022
2127 Clear 20 1016 81 10000 1.54 150 20:53 19.05.2022
2128 Clouds 20 1017 80 10000 2.57 280 19:57 19.05.2022
2129 Clouds 20 1017 80 10000 4.63 280 19:19 19.05.2022
2130 Thunderstorm 19 1015 84 10000 3.6 270 17:47 19.05.2022
2131 Rain 19 1015 83 10000 3.6 270 17:47 19.05.2022
2132 Rain 22 1018 60 10000 15.43 280 16:22 19.05.2022
2133 Clear 29 1017 46 10000 7.2 160 14:50 19.05.2022
2134 Clouds 28 1017 47 10000 6.17 140 14:21 19.05.2022
2135 Clouds 28 1017 47 10000 6.17 140 14:21 19.05.2022
2136 Clear 27 1018 47 10000 4.12 140 12:20 19.05.2022
2137 Clear 25 1015 51 10000 4.63 140 10:35 19.05.2022
2138 Clear 22 1015 58 10000 2.57 180 08:51 19.05.2022
2139 Clear 20 1015 63 10000 3.6 120 07:33 19.05.2022
2140 Clear 20 1014 63 10000 4.12 120 04:38 19.05.2022
2141 Clear 21 1015 60 10000 2.06 120 01:38 19.05.2022
2142 Clear 22 1015 55 10000 2.06 110 23:49 18.05.2022
2143 Clear 23 1015 51 10000 2.57 100 22:45 18.05.2022
2144 Clear 24 1019 46 10000 2.57 90 21:47 18.05.2022
2145 Clear 25 1019 49 10000 2.57 90 21:24 18.05.2022
2146 Clear 27 1016 38 10000 3.09 120 20:24 18.05.2022
2147 Clear 28 1019 36 10000 4.12 140 19:37 18.05.2022
2148 Clear 30 1016 32 10000 4.12 120 18:21 18.05.2022
2149 Clear 30 1020 33 10000 4.12 120 17:41 18.05.2022
2150 Clear 30 1016 31 10000 5.66 150 17:23 18.05.2022
2151 Clear 30 1020 34 10000 4.63 130 15:59 18.05.2022
2152 Clear 30 1020 35 10000 4.63 140 15:39 18.05.2022
2153 Clear 30 1021 35 10000 4.63 140 14:34 18.05.2022
2154 Clear 29 1021 37 10000 3.6 160 13:20 18.05.2022
2155 Clear 28 1021 41 10000 4.12 160 12:40 18.05.2022
2156 Clear 26 1022 50 10000 3.6 140 11:34 18.05.2022
2157 Clear 25 1022 54 10000 3.09 130 10:52 18.05.2022
2158 Clear 21 1018 65 10000 2.06 120 08:53 18.05.2022
2159 Clear 18 1018 74 10000 1.03 0 07:29 18.05.2022
2160 Clear 17 1017 76 10000 1.54 110 05:34 18.05.2022
2161 Clear 20 1020 65 10000 4.12 130 00:52 18.05.2022
2162 Clear 20 1016 63 10000 3.09 120 00:21 18.05.2022
2163 Clear 23 1019 54 10000 2.06 100 21:39 17.05.2022
2164 Clear 23 1015 51 10000 2.57 100 21:19 17.05.2022
2165 Clear 25 1015 45 10000 2.06 110 19:52 17.05.2022
2166 Clear 25 1015 44 10000 2.57 120 19:27 17.05.2022
2167 Clear 26 1015 43 10000 2.57 70 17:50 17.05.2022
2168 Clear 26 1016 39 10000 1.54 0 16:58 17.05.2022
2169 Clear 25 1020 47 10000 2.57 140 16:29 17.05.2022
2170 Clouds 25 1020 44 10000 3.09 0 15:24 17.05.2022
2171 Clear 24 1021 46 10000 2.06 0 14:30 17.05.2022
2172 Clear 24 1022 46 10000 1.54 200 13:32 17.05.2022
2173 Clear 21 1022 65 10000 2.06 0 11:37 17.05.2022
2174 Clear 18 1018 79 10000 1.54 120 09:27 17.05.2022
2175 Clear 15 1018 87 10000 2.06 150 08:25 17.05.2022
2176 Clouds 14 1015 85 10000 1.37 147 06:46 17.05.2022
2177 Mist 13 1017 87 10000 0.51 0 03:41 17.05.2022
2178 Clear 15 1016 82 10000 0.51 0 00:43 17.05.2022
2179 Clouds 17 1016 80 10000 0.51 0 22:43 16.05.2022
2180 Clouds 18 1019 78 10000 1.03 0 21:41 16.05.2022
2181 Clear 21 1015 67 10000 3.6 280 20:47 16.05.2022
2182 Clear 21 1015 67 10000 3.6 290 19:46 16.05.2022
2183 Clouds 21 1018 70 10000 5.66 280 18:20 16.05.2022
2184 Mist 20 1013 89 7000 7.72 270 15:53 16.05.2022
2185 Rain 23 1015 59 10000 1.03 0 14:26 16.05.2022
2186 Rain 25 1015 46 10000 1.54 0 13:23 16.05.2022
2187 Clouds 23 1012 56 10000 1.54 90 11:31 16.05.2022
2188 Clouds 19 1008 62 10000 1.67 178 09:47 16.05.2022
2189 Clear 16 1010 65 10000 2.06 100 06:58 16.05.2022
2190 Clear 16 1011 63 10000 1.54 130 04:41 16.05.2022
2191 Clear 19 1012 53 10000 2.57 90 23:44 15.05.2022
2192 Clear 20 1015 51 10000 2.57 90 22:34 15.05.2022
2193 Clear 21 1015 48 10000 2.57 90 21:47 15.05.2022
2194 Clear 23 1015 40 10000 2.57 120 20:59 15.05.2022
2195 Clear 25 1016 36 10000 2.06 130 19:56 15.05.2022
2196 Clear 26 1012 28 10000 3.6 160 17:52 15.05.2022
2197 Clear 27 1017 30 10000 2.57 130 16:35 15.05.2022
2198 Clear 26 1018 33 10000 3.09 0 14:18 15.05.2022
2199 Clear 25 1019 39 10000 3.09 160 13:23 15.05.2022
2200 Clear 23 1019 45 10000 3.09 110 11:55 15.05.2022
2201 Clear 20 1020 54 10000 2.57 120 10:35 15.05.2022
2202 Clear 16 1017 65 10000 2.06 180 08:52 15.05.2022
2203 Clear 11 1017 81 10000 1.03 0 06:59 15.05.2022
2204 Clear 10 1016 83 10000 1.54 50 06:38 15.05.2022
2205 Clear 12 1020 75 10000 1.54 110 02:24 15.05.2022
2206 Clear 14 1020 75 10000 2.57 70 23:56 14.05.2022
2207 Clear 15 1021 72 10000 3.09 70 23:34 14.05.2022
2208 Clear 17 1020 60 10000 1.54 50 21:45 14.05.2022
2209 Clear 19 1020 57 10000 1.54 50 21:19 14.05.2022
2210 Clear 22 1020 43 10000 3.09 10 19:40 14.05.2022
2211 Clear 22 1020 43 10000 3.09 10 19:40 14.05.2022
2212 Clear 22 1020 42 10000 3.09 320 19:20 14.05.2022
2213 Clear 23 1016 39 10000 3.6 350 18:51 14.05.2022
2214 Clear 23 1016 39 10000 3.6 350 18:51 14.05.2022
2215 Clear 23 1017 38 10000 3.09 360 17:43 14.05.2022
2216 Clear 22 1021 44 10000 1.54 90 15:55 14.05.2022
2217 Clear 21 1021 46 10000 2.57 300 14:38 14.05.2022
2218 Clear 20 1022 52 10000 1.54 0 12:51 14.05.2022
2219 Clear 18 1022 56 10000 1.54 0 11:42 14.05.2022
2220 Clear 17 1022 60 10000 1.54 0 10:39 14.05.2022
2221 Clear 15 1022 63 10000 2.06 270 10:18 14.05.2022
2222 Clear 14 1022 68 10000 3.09 300 09:19 14.05.2022
2223 Clouds 10 1022 84 10000 1.51 230 07:23 14.05.2022
2224 Clear 10 1021 83 10000 0.51 0 04:32 14.05.2022
2225 Clear 13 1021 76 10000 0.51 0 00:25 14.05.2022
2226 Clear 14 1021 72 10000 0.51 0 23:25 13.05.2022
2227 Clear 14 1021 68 10000 1.03 0 22:54 13.05.2022
2228 Clear 16 1021 64 10000 1.03 0 22:21 13.05.2022
2229 Clear 18 1020 51 10000 5.14 290 20:58 13.05.2022
2230 Clear 18 1020 51 10000 5.14 290 20:32 13.05.2022
2231 Clear 19 1020 48 10000 5.14 290 19:51 13.05.2022
2232 Clear 20 1020 46 10000 5.14 280 18:56 13.05.2022
2233 Clear 21 1017 39 10000 5.14 260 17:30 13.05.2022
2234 Clear 20 1020 44 10000 5.66 290 16:29 13.05.2022
2235 Clear 20 1021 44 10000 6.69 300 15:46 13.05.2022
2236 Clear 19 1021 48 10000 6.69 270 14:38 13.05.2022
2237 Clear 17 1021 51 10000 5.66 290 12:51 13.05.2022
2238 Clouds 17 1021 54 10000 7.2 260 11:54 13.05.2022
2239 Clear 15 1021 62 10000 5.14 260 09:55 13.05.2022
2240 Clear 14 1020 66 10000 4.12 250 09:29 13.05.2022
2241 Clouds 12 1020 69 10000 4.12 240 07:51 13.05.2022
2242 Clouds 11 1019 73 10000 3.6 230 07:18 13.05.2022
2243 Clouds 10 1019 82 10000 2.06 220 05:23 13.05.2022
2244 Clear 13 1019 73 10000 1.03 0 00:59 13.05.2022
2245 Clear 14 1019 67 10000 0 0 23:23 12.05.2022
2246 Clear 15 1019 63 10000 0.51 0 22:34 12.05.2022
2247 Clear 18 1018 52 10000 2.06 360 21:26 12.05.2022
2248 Clear 19 1017 48 10000 4.12 320 19:51 12.05.2022
2249 Clear 20 1018 46 10000 5.14 290 18:27 12.05.2022
2250 Clear 21 1018 44 10000 4.12 260 16:45 12.05.2022
2251 Clear 20 1019 44 10000 3.6 310 14:57 12.05.2022
2252 Clear 19 1019 47 10000 3.6 290 13:52 12.05.2022
2253 Clouds 18 1020 55 10000 2.57 0 12:29 12.05.2022
2254 Clouds 17 1019 61 10000 2.57 240 10:34 12.05.2022
2255 Clear 14 1019 73 10000 2.57 340 08:56 12.05.2022
2256 Clear 14 1018 74 10000 2.57 320 08:35 12.05.2022
2257 Clouds 12 1017 83 10000 1.54 360 07:25 12.05.2022
2258 Clouds 14 1015 77 10000 7.72 300 04:45 12.05.2022
2259 Clear 18 1012 60 10000 9.77 310 01:55 12.05.2022
2260 Clear 20 1011 49 10000 3.6 260 23:42 11.05.2022
2261 Clear 23 1010 43 10000 6.17 220 22:22 11.05.2022
2262 Clear 24 1010 41 10000 5.66 240 21:27 11.05.2022
2263 Clear 25 1009 38 10000 5.14 270 20:48 11.05.2022
2264 Clear 27 1009 29 10000 8.75 240 17:54 11.05.2022
2265 Clear 27 1009 29 10000 9.77 240 16:47 11.05.2022
2266 Clear 26 1010 42 10000 5.14 0 14:50 11.05.2022
2267 Clear 26 1010 44 10000 5.14 290 14:26 11.05.2022
2268 Clear 25 1011 45 10000 3.09 280 13:44 11.05.2022
2269 Clear 24 1012 50 10000 4.63 230 11:50 11.05.2022
2270 Clear 21 1012 58 10000 2.57 190 09:54 11.05.2022
2271 Clear 17 1009 69 10000 2.57 150 07:53 11.05.2022
2272 Clear 16 1013 70 10000 1.03 0 04:44 11.05.2022
2273 Clouds 17 1015 63 10000 1.14 273 00:41 11.05.2022
2274 Clouds 20 1016 77 10000 2.2 237 22:30 10.05.2022
2275 Clear 22 1015 43 10000 4.12 210 21:47 10.05.2022
2276 Clear 24 1015 38 10000 4.12 220 20:52 10.05.2022
2277 Clear 25 1015 40 10000 6.17 220 19:25 10.05.2022
2278 Clear 26 1015 38 10000 4.63 230 17:49 10.05.2022
2279 Clear 26 1016 38 10000 5.14 270 16:49 10.05.2022
2280 Clear 25 1017 35 10000 5.66 210 14:33 10.05.2022
2281 Clear 25 1019 39 10000 4.63 200 12:38 10.05.2022
2282 Clear 25 1019 46 10000 4.12 180 11:49 10.05.2022
2283 Clear 23 1019 52 10000 2.57 180 11:18 10.05.2022
2284 Clear 20 1016 59 10000 3.09 140 09:59 10.05.2022
2285 Clear 19 1016 62 10000 3.09 130 09:25 10.05.2022
2286 Clear 14 1016 74 10000 0.51 110 06:46 10.05.2022
2287 Clear 15 1017 74 10000 2.57 60 03:29 10.05.2022
2288 Clear 17 1018 65 10000 1.54 120 00:38 10.05.2022
2289 Clear 18 1018 59 10000 1.54 120 22:52 09.05.2022
2290 Clear 19 1022 64 10000 1.03 0 21:50 09.05.2022
2291 Clear 22 1022 52 10000 1.03 80 20:52 09.05.2022
2292 Clear 24 1022 40 10000 2.57 80 18:43 09.05.2022
2293 Clear 25 1019 34 10000 3.6 80 17:44 09.05.2022
2294 Clear 25 1023 38 10000 3.09 0 16:33 09.05.2022
2295 Clear 25 1023 40 10000 2.57 90 15:52 09.05.2022
2296 Clear 25 1024 38 10000 3.09 160 15:21 09.05.2022
2297 Clear 24 1024 43 10000 3.09 0 14:29 09.05.2022
2298 Clouds 24 1025 46 10000 2.57 0 13:49 09.05.2022
2299 Clear 21 1026 52 10000 2.57 0 12:21 09.05.2022
2300 Clear 20 1026 56 10000 3.6 160 11:32 09.05.2022
2301 Clear 18 1026 59 10000 2.57 140 10:42 09.05.2022
2302 Clear 15 1023 61 10000 1.03 0 08:45 09.05.2022
2303 Clear 11 1023 80 10000 1.54 130 07:54 09.05.2022
2304 Clear 9 1026 84 10000 3.09 70 03:36 09.05.2022
2305 Clear 13 1026 72 10000 1.03 0 23:37 08.05.2022
2306 Clear 13 1026 69 10000 1.03 0 22:56 08.05.2022
2307 Clear 15 1025 57 10000 2.57 360 21:55 08.05.2022
2308 Clear 18 1025 47 10000 4.12 360 20:35 08.05.2022
2309 Clear 19 1025 44 10000 4.63 20 19:45 08.05.2022
2310 Clear 19 1025 41 10000 5.14 350 18:54 08.05.2022
2311 Clear 20 1021 38 10000 5.14 360 18:18 08.05.2022
2312 Clouds 20 1025 46 10000 3.6 360 16:44 08.05.2022
2313 Clouds 19 1025 46 10000 3.09 0 15:40 08.05.2022
2314 Clouds 19 1026 49 10000 2.57 0 14:57 08.05.2022
2315 Clouds 16 1026 63 10000 4.12 320 12:33 08.05.2022
2316 Clouds 14 1026 77 10000 4.63 310 10:32 08.05.2022
2317 Clouds 13 1026 80 10000 2.57 310 09:58 08.05.2022
2318 Clouds 13 1026 80 10000 2.57 310 09:58 08.05.2022
2319 Clouds 12 1026 83 10000 2.57 320 09:31 08.05.2022
2320 Clouds 11 1025 91 7000 1.03 0 07:31 08.05.2022
2321 Clear 11 1024 91 10000 1.54 30 03:55 08.05.2022
2322 Clear 12 1024 87 10000 1.54 50 02:51 08.05.2022
2323 Clear 13 1024 82 10000 1.03 40 00:28 08.05.2022
2324 Clear 13 1024 81 10000 1.03 280 23:51 07.05.2022
2325 Clear 14 1023 77 10000 1.03 0 22:51 07.05.2022
2326 Clear 15 1023 77 10000 1.03 0 22:33 07.05.2022
2327 Clouds 16 1023 71 10000 2.57 30 21:34 07.05.2022
2328 Clouds 17 1022 64 10000 1.54 90 20:42 07.05.2022
2329 Clear 18 1022 60 10000 2.06 100 19:58 07.05.2022
2330 Clouds 20 1021 52 10000 3.04 307 17:43 07.05.2022
2331 Clear 22 1022 44 10000 2.06 30 15:51 07.05.2022
2332 Clear 22 1023 45 10000 1.54 0 14:20 07.05.2022
2333 Clear 18 1024 58 10000 1.03 0 10:57 07.05.2022
2334 Clear 15 1024 73 10000 1.54 160 09:22 07.05.2022
2335 Clouds 11 1017 84 10000 0.52 194 07:52 07.05.2022
2336 Mist 10 1020 86 7000 0.51 0 06:43 07.05.2022
2337 Clouds 10 1019 85 7000 0.51 0 05:22 07.05.2022
2338 Clear 11 1020 80 10000 0.51 0 02:21 07.05.2022
2339 Clear 13 1024 71 10000 0.51 0 23:38 06.05.2022
2340 Clear 15 1024 65 10000 1.54 20 22:32 06.05.2022
2341 Clear 16 1024 61 10000 1.54 40 21:44 06.05.2022
2342 Clear 19 1023 48 10000 3.09 340 20:35 06.05.2022
2343 Clear 21 1020 40 10000 3.6 330 19:40 06.05.2022
2344 Clear 21 1020 40 10000 4.12 310 19:00 06.05.2022
2345 Clear 21 1023 44 10000 5.14 340 18:23 06.05.2022
2346 Clear 21 1024 40 10000 2.06 350 16:53 06.05.2022
2347 Clear 20 1024 44 10000 4.12 340 15:42 06.05.2022
2348 Clear 20 1024 43 10000 1.03 0 14:53 06.05.2022
2349 Clear 19 1025 45 10000 2.06 0 13:26 06.05.2022
2350 Clear 19 1025 49 10000 2.06 0 12:40 06.05.2022
2351 Clear 18 1025 51 10000 1.54 250 11:45 06.05.2022
2352 Clear 16 1026 65 10000 1.03 0 10:30 06.05.2022
2353 Clear 14 1026 74 10000 1.03 0 09:46 06.05.2022
2354 Clear 12 1022 76 10000 2.06 150 08:43 06.05.2022
2355 Clear 7 1025 93 10000 0.51 0 06:50 06.05.2022
2356 Clear 8 1021 87 10000 1.03 70 05:37 06.05.2022
2357 Clear 10 1021 79 10000 1.03 0 02:51 06.05.2022
2358 Clear 11 1021 76 10000 0.51 0 01:31 06.05.2022
2359 Clear 13 1023 68 10000 2.57 60 22:32 05.05.2022
2360 Clear 15 1023 60 10000 1.54 50 21:31 05.05.2022
2361 Clear 18 1019 44 10000 3.6 30 20:26 05.05.2022
2362 Clear 19 1022 43 10000 5.14 20 18:35 05.05.2022
2363 Clear 19 1021 45 10000 3.09 340 16:35 05.05.2022
2364 Clear 18 1022 47 10000 2.06 0 14:53 05.05.2022
2365 Clouds 18 1022 48 10000 2.06 0 13:25 05.05.2022
2366 Clouds 17 1022 51 10000 2.06 0 12:53 05.05.2022
2367 Clouds 15 1022 63 10000 1.54 290 10:52 05.05.2022
2368 Clouds 13 1021 71 10000 1.03 0 09:40 05.05.2022
2369 Clouds 10 1017 79 10000 2.57 150 07:45 05.05.2022
2370 Clear 9 1016 80 10000 1.03 70 05:42 05.05.2022
2371 Clear 9 1019 82 10000 2.06 50 02:18 05.05.2022
2372 Clear 9 1019 78 10000 1.54 60 01:32 05.05.2022
2373 Clear 10 1018 69 10000 1.54 50 23:55 04.05.2022
2374 Clear 12 1018 59 10000 2.06 50 22:50 04.05.2022
2375 Clear 13 1018 60 10000 2.57 10 21:59 04.05.2022
2376 Clear 14 1018 53 10000 2.06 10 21:29 04.05.2022
2377 Clear 16 1017 45 10000 2.06 340 20:42 04.05.2022
2378 Clear 17 1017 41 10000 4.12 340 19:56 04.05.2022
2379 Clear 18 1013 36 10000 4.12 340 19:31 04.05.2022
2380 Clear 18 1017 39 10000 4.63 350 18:22 04.05.2022
2381 Clear 18 1017 38 10000 4.63 350 17:59 04.05.2022
2382 Clouds 18 1017 48 10000 4.12 330 16:29 04.05.2022
2383 Clouds 18 1017 52 10000 5.14 310 15:32 04.05.2022
2384 Clouds 17 1017 54 10000 3.09 300 14:38 04.05.2022
2385 Clear 17 1018 58 10000 3.6 290 14:18 04.05.2022
2386 Clear 16 1018 63 10000 3.6 310 12:34 04.05.2022
2387 Clear 13 1018 73 10000 3.09 270 11:25 04.05.2022
2388 Clear 11 1014 73 10000 3.09 280 09:50 04.05.2022
2389 Clear 10 1015 80 10000 1.54 250 08:56 04.05.2022
2390 Clear 8 1012 87 10000 1.54 200 07:33 04.05.2022
2391 Clear 8 1018 89 10000 1.03 0 04:34 04.05.2022
2392 Clear 9 1018 87 10000 0.51 0 02:33 04.05.2022
2393 Clear 13 1017 66 10000 2.57 30 22:59 03.05.2022
2394 Clear 14 1017 59 10000 1.54 350 21:50 03.05.2022
2395 Clear 15 1017 53 10000 2.06 350 21:31 03.05.2022
2396 Clear 16 1016 48 10000 3.09 340 20:46 03.05.2022
2397 Clear 18 1016 40 10000 5.66 310 19:32 03.05.2022
2398 Clear 19 1016 39 10000 5.14 330 18:43 03.05.2022
2399 Clear 19 1016 38 10000 5.14 310 17:22 03.05.2022
2400 Clear 19 1016 39 10000 5.14 310 16:19 03.05.2022
2401 Clear 18 1017 43 10000 6.17 300 14:25 03.05.2022
2402 Clear 17 1018 46 10000 4.12 300 12:42 03.05.2022
2403 Clear 16 1018 53 10000 3.6 300 11:39 03.05.2022
2404 Clear 14 1018 60 10000 2.57 300 10:49 03.05.2022
2405 Clear 10 1018 78 10000 2.57 330 08:29 03.05.2022
2406 Clear 8 1017 83 10000 2.57 330 06:45 03.05.2022
2407 Clear 10 1017 79 10000 2.06 360 02:48 03.05.2022
2408 Clear 13 1017 71 10000 2.57 330 23:32 02.05.2022
2409 Clear 15 1017 62 10000 2.06 10 22:32 02.05.2022
2410 Clear 15 1017 62 10000 2.57 10 21:48 02.05.2022
2411 Clear 15 1017 62 10000 2.57 10 21:48 02.05.2022
2412 Clear 18 1016 55 10000 2.06 20 19:59 02.05.2022
2413 Clouds 19 1016 47 10000 3.14 14 18:27 02.05.2022
2414 Clear 19 1016 47 10000 2.57 360 17:42 02.05.2022
2415 Clouds 19 1016 46 10000 3.6 310 16:47 02.05.2022
2416 Clear 19 1017 49 10000 3.6 350 15:52 02.05.2022
2417 Clouds 19 1017 50 10000 3.09 10 14:54 02.05.2022
2418 Clouds 18 1018 51 10000 1.54 0 13:45 02.05.2022
2419 Clear 16 1019 59 10000 1.54 0 11:51 02.05.2022
2420 Clear 13 1019 67 10000 1.54 310 10:18 02.05.2022
2421 Clear 10 1019 81 10000 0.51 0 08:44 02.05.2022
2422 Clear 8 1019 86 10000 0.51 0 07:30 02.05.2022
2423 Clear 10 1017 71 10000 0.51 0 01:27 02.05.2022
2424 Clouds 10 1021 75 10000 2.57 320 00:23 02.05.2022
2425 Clear 11 1021 72 10000 1.03 0 23:43 01.05.2022
2426 Clear 12 1021 67 10000 2.06 360 21:56 01.05.2022
2427 Clear 13 1021 61 10000 2.06 340 20:50 01.05.2022
2428 Clear 14 1020 56 10000 3.6 340 19:46 01.05.2022
2429 Clear 15 1020 55 10000 4.12 330 18:53 01.05.2022
2430 Clouds 15 1021 52 10000 3.09 340 17:57 01.05.2022
2431 Clear 15 1021 51 10000 4.63 300 16:55 01.05.2022
2432 Clouds 16 1021 50 10000 2.57 320 16:23 01.05.2022
2433 Clear 15 1022 50 10000 4.12 310 15:22 01.05.2022
2434 Clouds 15 1023 52 10000 4.12 330 13:23 01.05.2022
2435 Clear 12 1023 71 10000 1.03 0 10:50 01.05.2022
2436 Clouds 10 1017 78 10000 1.33 5 08:51 01.05.2022
2437 Clouds 8 1017 85 10000 0.69 315 07:42 01.05.2022
2438 Clear 8 1020 79 10000 0.51 0 02:51 01.05.2022
2439 Clear 10 1021 64 10000 2.57 350 22:58 30.04.2022
2440 Clear 11 1023 61 10000 2.57 350 21:35 30.04.2022
2441 Clear 12 1023 56 10000 3.09 340 20:36 30.04.2022
2442 Clear 13 1023 50 10000 3.6 320 19:36 30.04.2022
2443 Clear 14 1023 45 10000 3.6 30 17:44 30.04.2022
2444 Clear 14 1024 48 10000 5.14 340 16:37 30.04.2022
2445 Clouds 14 1024 50 10000 4.12 20 15:21 30.04.2022
2446 Clouds 14 1025 52 10000 4.12 350 14:34 30.04.2022
2447 Clouds 12 1026 58 10000 2.57 0 12:40 30.04.2022
2448 Clouds 11 1026 65 10000 3.6 350 11:33 30.04.2022
2449 Clouds 9 1026 69 10000 3.6 340 10:43 30.04.2022
2450 Clouds 8 1023 75 10000 3.6 360 08:59 30.04.2022
2451 Clouds 6 1025 84 10000 2.57 10 05:51 30.04.2022
2452 Clouds 9 1026 80 10000 1.54 360 01:51 30.04.2022
2453 Rain 11 1027 81 10000 1.54 360 23:37 29.04.2022
2454 Rain 11 1026 71 10000 3.09 340 22:31 29.04.2022
2455 Rain 12 1026 70 10000 3.09 340 22:31 29.04.2022
2456 Rain 13 1026 65 10000 3.6 360 21:27 29.04.2022
2457 Rain 13 1025 62 10000 5.14 350 20:40 29.04.2022
2458 Rain 14 1025 61 10000 3.6 350 19:43 29.04.2022
2459 Clear 15 1025 58 10000 5.66 320 17:54 29.04.2022
2460 Clear 16 1025 58 10000 6.17 310 17:21 29.04.2022
2461 Clear 16 1026 55 10000 3.09 330 14:57 29.04.2022
2462 Clear 16 1027 57 10000 3.09 330 14:20 29.04.2022
2463 Clear 15 1027 64 10000 1.03 0 12:48 29.04.2022
2464 Clear 13 1028 69 10000 1.03 0 11:40 29.04.2022
2465 Clear 10 1024 79 10000 2.06 150 08:46 29.04.2022
2466 Clear 7 1028 90 10000 1.03 180 07:27 29.04.2022
2467 Clear 8 1024 86 10000 2.06 70 06:38 29.04.2022
2468 Clear 8 1024 84 10000 1.03 80 04:52 29.04.2022
2469 Clear 10 1029 71 10000 1.03 0 00:39 29.04.2022
2470 Clear 11 1029 64 10000 3.09 70 23:27 28.04.2022
2471 Clear 12 1029 60 10000 3.6 60 22:41 28.04.2022
2472 Clear 13 1028 54 10000 1.54 20 21:47 28.04.2022
2473 Clear 14 1028 53 10000 2.06 50 21:19 28.04.2022
2474 Clear 17 1025 39 10000 2.57 320 20:25 28.04.2022
2475 Clear 17 1027 41 10000 3.09 320 19:41 28.04.2022
2476 Clear 18 1024 34 10000 2.57 300 19:22 28.04.2022
2477 Clear 19 1024 31 10000 3.09 310 18:36 28.04.2022
2478 Clear 19 1024 32 10000 3.6 300 17:24 28.04.2022
2479 Clear 18 1028 38 10000 3.09 330 16:41 28.04.2022
2480 Clear 18 1028 41 10000 3.6 0 16:19 28.04.2022
2481 Clear 18 1029 43 10000 4.63 310 15:29 28.04.2022
2482 Clear 18 1029 44 10000 4.63 300 14:36 28.04.2022
2483 Clear 16 1029 51 10000 2.57 290 12:55 28.04.2022
2484 Clear 15 1029 59 10000 2.06 0 11:59 28.04.2022
2485 Clear 13 1029 67 10000 1.03 0 10:47 28.04.2022
2486 Clear 11 1029 70 10000 0.51 0 10:26 28.04.2022
2487 Clear 9 1028 81 10000 1.54 160 08:44 28.04.2022
2488 Mist 6 1025 87 7000 0.51 0 07:37 28.04.2022
2489 Mist 6 1024 87 8000 1.03 0 06:33 28.04.2022
2490 Mist 5 1027 90 9000 1.03 0 05:39 28.04.2022
2491 Mist 6 1027 89 10000 1.54 80 04:40 28.04.2022
2492 Clear 9 1027 83 10000 0.51 0 00:36 28.04.2022
2493 Clear 11 1026 74 10000 1.54 60 22:49 27.04.2022
2494 Clear 12 1025 64 10000 2.06 10 21:57 27.04.2022
2495 Clear 13 1025 62 10000 2.57 360 21:27 27.04.2022
2496 Clear 14 1025 56 10000 2.57 350 20:43 27.04.2022
2497 Clear 16 1024 49 10000 4.63 310 19:39 27.04.2022
2498 Clear 16 1024 49 10000 4.63 310 19:39 27.04.2022
2499 Clear 16 1024 49 10000 4.63 310 19:39 27.04.2022
2500 Clear 17 1021 45 10000 4.63 310 19:19 27.04.2022
2501 Clear 17 1021 43 10000 4.12 300 18:35 27.04.2022
2502 Clear 17 1024 49 10000 4.12 320 17:26 27.04.2022
2503 Clear 16 1024 50 10000 2.57 280 15:56 27.04.2022
2504 Clouds 14 1025 61 10000 2.06 230 12:34 27.04.2022
2505 Clouds 13 1025 65 10000 1.03 0 11:23 27.04.2022
2506 Clouds 11 1025 71 10000 0.51 0 10:22 27.04.2022
2507 Clear 6 1024 92 10000 0.51 0 07:41 27.04.2022
2508 Fog 6 1023 92 3700 0.51 0 06:30 27.04.2022
2509 Fog 8 1019 91 6000 1.03 330 02:25 27.04.2022
2510 Mist 9 1018 90 5000 2.06 320 01:18 27.04.2022
2511 Mist 10 1018 93 3900 1.03 0 00:27 27.04.2022
2512 Mist 10 1018 93 4100 1.54 70 23:23 26.04.2022
2513 Mist 10 1017 94 3400 0.51 50 22:43 26.04.2022
2514 Mist 10 1017 94 5000 1.03 0 21:57 26.04.2022
2515 Mist 11 1016 92 9000 0.51 0 20:58 26.04.2022
2516 Clouds 11 1016 91 10000 1.03 0 20:36 26.04.2022
2517 Clouds 11 1016 91 10000 1.54 250 19:44 26.04.2022
2518 Clouds 11 1016 91 10000 2.57 250 19:24 26.04.2022
2519 Rain 11 1015 88 10000 2.57 280 18:20 26.04.2022
2520 Rain 11 1015 83 10000 2.06 210 17:34 26.04.2022
2521 Clouds 13 1017 72 10000 5.14 340 14:59 26.04.2022
2522 Clouds 11 1017 77 10000 5.66 330 13:38 26.04.2022
2523 Clouds 10 1016 85 10000 5.14 320 12:35 26.04.2022
2524 Clouds 9 1012 88 8000 4.63 320 10:57 26.04.2022
2525 Clouds 9 1015 91 10000 3.09 350 10:29 26.04.2022
2526 Clouds 8 1014 91 10000 2.06 330 08:32 26.04.2022
2527 Rain 8 1013 93 10000 0.51 0 04:39 26.04.2022
2528 Clouds 8 1013 92 10000 1.03 0 03:59 26.04.2022
2529 Clouds 9 1010 87 10000 2.06 310 00:46 26.04.2022
2530 Clouds 9 1013 88 10000 1.03 340 23:48 25.04.2022
2531 Clear 10 1009 82 10000 1.54 60 21:51 25.04.2022
2532 Clouds 10 1012 84 10000 2.06 70 21:23 25.04.2022
2533 Clouds 12 1011 73 10000 2.06 40 19:47 25.04.2022
2534 Clouds 13 1011 66 10000 1.54 20 18:31 25.04.2022
2535 Clouds 14 1008 64 10000 2.57 70 17:39 25.04.2022
2536 Clouds 13 1008 70 10000 5.14 230 16:35 25.04.2022
2537 Clouds 13 1011 60 10000 3.09 130 15:21 25.04.2022
2538 Clouds 13 1011 64 10000 2.57 130 14:23 25.04.2022
2539 Clouds 12 1010 75 10000 2.57 80 12:47 25.04.2022
2540 Clouds 11 1007 79 10000 1.03 0 10:42 25.04.2022
2541 Clouds 9 1009 89 10000 1.03 0 09:41 25.04.2022
2542 Clouds 8 1005 93 10000 3.09 120 07:38 25.04.2022
2543 Clear 8 1004 90 10000 3.6 80 05:54 25.04.2022
2544 Clouds 10 1004 85 10000 1.54 80 01:28 25.04.2022
2545 Rain 11 1003 85 10000 0.51 0 23:54 24.04.2022
2546 Rain 12 1003 80 10000 2.06 60 23:24 24.04.2022
2547 Rain 13 1005 58 10000 2.57 120 22:39 24.04.2022
2548 Clouds 13 1005 62 10000 1.54 180 21:55 24.04.2022
2549 Clouds 14 1004 53 10000 2.06 120 21:22 24.04.2022
2550 Clouds 15 1004 47 10000 2.57 90 20:44 24.04.2022
2551 Clouds 16 1003 47 10000 3.6 40 20:20 24.04.2022
2552 Clear 17 1003 42 10000 4.63 50 18:38 24.04.2022
2553 Clear 18 1002 42 10000 4.63 50 17:49 24.04.2022
2554 Clear 18 1002 41 10000 6.17 50 17:21 24.04.2022
2555 Clouds 18 1003 41 10000 3.95 41 16:51 24.04.2022
2556 Clear 18 1001 39 10000 5.14 40 16:25 24.04.2022
2557 Clear 18 1002 40 10000 4.63 30 15:39 24.04.2022
2558 Clear 18 1001 42 10000 4.63 60 14:33 24.04.2022
2559 Clear 18 1001 42 10000 4.63 50 13:27 24.04.2022
2560 Clear 17 1001 44 10000 5.14 60 12:55 24.04.2022
2561 Clouds 17 1001 45 10000 5.14 60 11:50 24.04.2022
2562 Clear 14 1001 53 10000 2.57 10 10:47 24.04.2022
2563 Clear 13 998 53 10000 1.54 0 09:43 24.04.2022
2564 Clouds 9 1002 69 10000 2.67 63 07:55 24.04.2022
2565 Clear 10 997 61 10000 2.06 60 05:45 24.04.2022
2566 Clear 12 997 53 10000 3.6 70 02:30 24.04.2022
2567 Clear 13 998 49 10000 3.6 70 00:45 24.04.2022
2568 Clear 14 998 49 10000 3.09 60 23:52 23.04.2022
2569 Clear 14 998 49 10000 3.09 60 23:25 23.04.2022
2570 Clear 15 999 52 10000 2.57 70 21:59 23.04.2022
2571 Clear 15 999 51 10000 2.06 70 21:38 23.04.2022
2572 Clear 16 999 50 10000 2.06 80 20:59 23.04.2022
2573 Clear 16 999 49 10000 2.06 80 19:56 23.04.2022
2574 Clouds 17 998 48 10000 3.6 100 19:20 23.04.2022
2575 Clouds 17 999 47 10000 3.6 110 18:54 23.04.2022
2576 Clouds 17 999 47 10000 5.14 100 18:32 23.04.2022
2577 Clouds 18 999 46 10000 5.66 100 17:46 23.04.2022
2578 Clouds 18 1003 46 10000 5.14 90 16:45 23.04.2022
2579 Clouds 18 1003 50 10000 6.17 90 15:43 23.04.2022
2580 Clouds 18 1004 48 10000 7.72 120 13:31 23.04.2022
2581 Clouds 16 1004 57 10000 6.17 120 11:29 23.04.2022
2582 Clear 13 1004 66 10000 6.17 100 09:41 23.04.2022
2583 Clear 10 1001 75 10000 3.09 80 07:52 23.04.2022
2584 Clear 10 1001 73 10000 2.06 90 03:57 23.04.2022
2585 Clear 11 1001 68 10000 3.6 90 02:36 23.04.2022
2586 Clear 13 1001 60 10000 3.6 70 23:34 22.04.2022
2587 Clear 13 1001 58 10000 3.09 80 22:43 22.04.2022
2588 Clear 14 1004 58 10000 4.12 80 21:58 22.04.2022
2589 Clear 14 1004 58 10000 4.12 80 21:39 22.04.2022
2590 Clear 15 1003 54 10000 5.66 70 20:34 22.04.2022
2591 Clear 17 1003 50 10000 6.69 60 19:26 22.04.2022
2592 Clear 17 1003 49 10000 4.12 80 18:56 22.04.2022
2593 Clear 17 1003 49 10000 5.66 60 18:24 22.04.2022
2594 Clear 17 1003 47 10000 3.09 60 16:57 22.04.2022
2595 Clear 18 1003 45 10000 5.14 50 15:59 22.04.2022
2596 Clear 18 1004 43 10000 4.63 60 15:24 22.04.2022
2597 Clouds 17 1004 47 10000 4.63 80 14:38 22.04.2022
2598 Clouds 16 1004 50 10000 4.12 80 13:41 22.04.2022
2599 Clouds 15 1005 53 10000 5.14 60 12:47 22.04.2022
2600 Clouds 14 1006 60 10000 5.14 80 11:23 22.04.2022
2601 Clouds 13 1006 63 10000 4.63 70 10:56 22.04.2022
2602 Clouds 13 1006 64 10000 4.63 70 10:34 22.04.2022
2603 Clouds 12 1006 72 10000 4.12 40 09:59 22.04.2022
2604 Clouds 11 1006 78 10000 1.54 20 09:22 22.04.2022
2605 Clear 10 1006 79 10000 1.54 310 08:48 22.04.2022
2606 Clouds 7 1001 85 10000 2.48 75 06:42 22.04.2022
2607 Clear 11 1005 68 10000 2.57 80 01:24 22.04.2022
2608 Clear 13 1005 61 10000 3.09 70 23:35 21.04.2022
2609 Clear 13 1009 60 10000 2.06 70 22:47 21.04.2022
2610 Clear 14 1009 55 10000 3.09 70 21:42 21.04.2022
2611 Clouds 15 1009 53 10000 4.63 70 20:32 21.04.2022
2612 Clear 16 1009 52 10000 4.12 80 19:24 21.04.2022
2613 Clear 16 1009 51 10000 5.14 80 18:32 21.04.2022
2614 Clear 17 1009 49 10000 3.6 70 17:20 21.04.2022
2615 Clear 17 1009 42 10000 3.6 90 16:19 21.04.2022
2616 Clear 17 1010 43 10000 3.6 70 15:19 21.04.2022
2617 Clear 16 1010 44 10000 4.12 70 14:29 21.04.2022
2618 Clear 16 1011 40 10000 3.6 60 13:22 21.04.2022
2619 Clear 16 1012 39 10000 3.09 60 12:29 21.04.2022
2620 Clear 13 1012 55 10000 2.06 70 10:19 21.04.2022
2621 Clear 10 1012 74 10000 0.51 100 08:50 21.04.2022
2622 Clear 6 1010 82 10000 0.51 0 06:46 21.04.2022
2623 Clear 8 1010 71 10000 3.09 70 04:34 21.04.2022
2624 Clear 9 1010 69 10000 2.06 50 03:23 21.04.2022
2625 Clear 10 1010 65 10000 1.54 50 02:45 21.04.2022
2626 Clear 10 1010 65 10000 1.54 50 02:45 21.04.2022
2627 Clear 11 1014 61 10000 3.6 80 00:35 21.04.2022
2628 Clear 12 1014 58 10000 3.6 80 23:46 20.04.2022
2629 Clear 12 1014 57 10000 3.09 80 23:21 20.04.2022
2630 Clear 12 1013 54 10000 2.57 70 22:45 20.04.2022
2631 Clear 13 1013 52 10000 3.09 70 22:18 20.04.2022
2632 Clear 14 1013 50 10000 5.14 40 21:23 20.04.2022
2633 Clear 16 1012 43 10000 5.66 40 20:22 20.04.2022
2634 Clouds 17 1013 43 10000 4.49 73 19:51 20.04.2022
2635 Clouds 18 1012 39 10000 4.76 68 18:52 20.04.2022
2636 Clear 19 1013 33 10000 3.6 50 17:53 20.04.2022
2637 Clear 18 1013 32 10000 2.57 0 16:40 20.04.2022
2638 Clear 18 1014 30 10000 3.09 0 15:50 20.04.2022
2639 Clear 16 1015 34 10000 4.12 100 13:41 20.04.2022
2640 Clear 15 1016 36 10000 5.66 70 11:43 20.04.2022
2641 Clear 14 1016 39 10000 3.6 110 10:56 20.04.2022
2642 Clear 12 1016 42 10000 3.09 100 09:46 20.04.2022
2643 Clear 9 1016 59 10000 3.09 80 08:59 20.04.2022
2644 Clear 9 1016 61 10000 2.57 80 08:20 20.04.2022
2645 Clear 7 1013 61 10000 3.09 80 06:56 20.04.2022
2646 Clear 8 1012 59 10000 1.54 100 03:34 20.04.2022
2647 Clear 12 1012 42 10000 3.6 80 00:22 20.04.2022
2648 Clear 12 1015 46 10000 3.09 80 23:35 19.04.2022
2649 Clear 13 1014 42 10000 3.09 80 22:24 19.04.2022
2650 Clear 14 1013 41 10000 4.63 60 21:55 19.04.2022
2651 Clear 15 1013 39 10000 5.66 50 21:22 19.04.2022
2652 Clear 16 1012 33 10000 5.66 40 20:41 19.04.2022
2653 Clear 17 1011 36 10000 6.17 40 19:52 19.04.2022
2654 Clear 19 1011 36 10000 6.17 50 18:47 19.04.2022
2655 Clear 20 1008 29 10000 4.63 40 17:32 19.04.2022
2656 Clear 20 1011 33 10000 3.6 0 16:43 19.04.2022
2657 Clear 20 1012 33 10000 2.57 0 16:22 19.04.2022
2658 Clear 19 1012 31 10000 2.57 0 14:48 19.04.2022
2659 Clear 19 1013 31 10000 3.09 0 13:49 19.04.2022
2660 Clear 18 1013 32 10000 1.54 0 12:50 19.04.2022
2661 Clear 17 1013 38 10000 2.06 0 12:20 19.04.2022
2662 Clear 14 1014 47 10000 1.03 0 10:46 19.04.2022
2663 Clear 11 1011 55 10000 1.03 0 09:19 19.04.2022
2664 Clear 6 1010 75 10000 2.06 60 05:56 19.04.2022
2665 Clear 7 1011 67 10000 1.54 190 03:26 19.04.2022
2666 Clear 10 1012 53 10000 1.03 0 00:55 19.04.2022
2667 Clear 11 1015 55 10000 2.57 60 23:31 18.04.2022
2668 Clear 14 1015 46 10000 1.03 0 21:30 18.04.2022
2669 Clear 15 1015 40 10000 2.06 260 20:56 18.04.2022
2670 Clear 16 1015 38 10000 2.06 260 20:32 18.04.2022
2671 Clear 18 1015 29 10000 3.6 240 19:54 18.04.2022
2672 Clear 20 1011 21 10000 2.06 40 18:57 18.04.2022
2673 Clear 20 1012 22 10000 3.6 10 17:58 18.04.2022
2674 Clear 20 1012 22 10000 3.6 10 17:36 18.04.2022
2675 Clear 20 1013 22 10000 2.06 0 17:18 18.04.2022
2676 Clear 20 1017 27 10000 1.54 0 16:32 18.04.2022
2677 Clear 19 1017 27 10000 2.06 70 15:18 18.04.2022
2678 Clear 18 1018 29 10000 3.6 100 13:42 18.04.2022
2679 Clear 17 1019 33 10000 2.06 170 12:34 18.04.2022
2680 Clear 15 1020 39 10000 3.09 140 11:35 18.04.2022
2681 Clear 13 1020 44 10000 4.12 140 10:32 18.04.2022
2682 Clear 11 1020 47 10000 1.54 150 09:31 18.04.2022
2683 Clear 8 1020 56 10000 1.03 0 08:28 18.04.2022
2684 Clear 7 1016 53 10000 1.54 140 05:51 18.04.2022
2685 Clear 9 1018 38 10000 2.57 120 01:34 18.04.2022
2686 Clear 12 1018 37 10000 2.06 110 22:43 17.04.2022
2687 Clear 13 1022 38 10000 2.06 120 21:50 17.04.2022
2688 Clear 14 1022 38 10000 1.54 120 21:27 17.04.2022
2689 Clear 15 1022 26 10000 2.06 130 20:50 17.04.2022
2690 Clear 17 1022 25 10000 3.09 140 19:52 17.04.2022
2691 Clear 18 1022 25 10000 2.57 100 18:32 17.04.2022
2692 Clear 19 1024 26 10000 3.09 130 16:33 17.04.2022
2693 Clear 18 1025 28 10000 3.6 130 15:32 17.04.2022
2694 Clear 17 1026 32 10000 4.63 140 14:28 17.04.2022
2695 Clear 16 1027 33 10000 4.63 100 13:20 17.04.2022
2696 Clear 14 1028 40 10000 3.6 110 12:29 17.04.2022
2697 Clear 12 1029 45 10000 5.66 150 10:48 17.04.2022
2698 Clear 11 1029 47 10000 5.14 140 10:29 17.04.2022
2699 Clear 10 1029 50 10000 4.63 130 09:50 17.04.2022
2700 Clear 8 1026 52 10000 1.54 110 08:54 17.04.2022
2701 Clear 7 1030 60 10000 2.57 120 08:27 17.04.2022
2702 Clear 5 1026 59 10000 0.51 0 05:20 17.04.2022
2703 Clear 8 1028 40 10000 2.57 120 01:40 17.04.2022
2704 Clear 9 1031 34 10000 1.54 120 23:59 16.04.2022
2705 Clear 10 1031 40 10000 2.57 80 22:56 16.04.2022
2706 Clear 11 1031 32 10000 2.06 90 21:44 16.04.2022
2707 Clear 13 1030 23 10000 3.09 110 20:54 16.04.2022
2708 Clear 16 1030 22 10000 4.12 70 19:21 16.04.2022
2709 Clear 17 1026 18 10000 4.63 100 18:33 16.04.2022
2710 Clear 18 1030 28 10000 4.63 90 16:44 16.04.2022
2711 Clear 17 1030 33 10000 4.12 110 15:46 16.04.2022
2712 Clear 17 1031 40 10000 4.63 80 14:57 16.04.2022
2713 Clear 16 1031 42 10000 4.12 0 14:30 16.04.2022
2714 Clouds 15 1031 45 10000 2.57 80 13:48 16.04.2022
2715 Clouds 14 1031 51 10000 3.6 80 12:35 16.04.2022
2716 Clouds 13 1031 58 10000 5.14 80 11:26 16.04.2022
2717 Clouds 11 1031 70 10000 5.14 50 10:25 16.04.2022
2718 Clear 10 1031 78 10000 3.6 50 09:32 16.04.2022
2719 Clear 9 1028 76 10000 3.09 60 08:42 16.04.2022
2720 Clear 5 1026 90 10000 2.57 70 07:21 16.04.2022
2721 Clear 6 1026 86 10000 2.57 70 04:54 16.04.2022
2722 Clear 8 1029 85 10000 1.03 30 00:40 16.04.2022
2723 Clear 8 1029 81 10000 1.54 50 23:45 15.04.2022
2724 Clear 9 1029 75 10000 1.03 30 22:48 15.04.2022
2725 Clear 10 1028 73 10000 3.09 50 22:28 15.04.2022
2726 Clear 11 1028 70 10000 3.6 40 21:20 15.04.2022
2727 Clouds 12 1028 67 10000 3.6 30 20:38 15.04.2022
2728 Clouds 13 1027 63 10000 5.14 20 19:43 15.04.2022
2729 Clouds 15 1024 55 10000 4.12 30 18:58 15.04.2022
2730 Clouds 16 1024 52 10000 4.63 30 18:26 15.04.2022
2731 Clouds 15 1023 53 10000 5.14 40 17:57 15.04.2022
2732 Clouds 16 1023 52 10000 4.63 40 17:24 15.04.2022
2733 Clouds 15 1026 57 10000 5.66 300 16:24 15.04.2022
2734 Clouds 15 1027 59 10000 4.63 300 15:45 15.04.2022
2735 Clouds 13 1027 63 10000 5.66 300 13:55 15.04.2022
2736 Clouds 12 1027 71 10000 4.63 300 12:52 15.04.2022
2737 Clouds 13 1023 66 10000 5.14 320 12:26 15.04.2022
2738 Clouds 13 1023 67 10000 4.63 320 11:51 15.04.2022
2739 Clouds 12 1023 74 10000 3.6 330 10:46 15.04.2022
2740 Clouds 11 1026 82 10000 3.09 310 10:20 15.04.2022
2741 Clear 10 1026 88 10000 2.06 320 09:22 15.04.2022
2742 Clear 9 1026 89 10000 1.03 0 08:49 15.04.2022
2743 Fog 7 1025 94 10000 0.51 0 06:51 15.04.2022
2744 Clear 8 1024 90 10000 1.03 0 04:49 15.04.2022
2745 Clear 12 1023 82 10000 1.54 360 00:51 15.04.2022
2746 Clouds 13 1023 76 10000 0.51 0 23:28 14.04.2022
2747 Clouds 13 1022 75 10000 1.03 350 22:46 14.04.2022
2748 Clouds 14 1022 70 10000 2.06 350 22:27 14.04.2022
2749 Clouds 15 1022 69 10000 1.54 360 21:53 14.04.2022
2750 Clouds 18 1021 59 10000 2.06 330 19:53 14.04.2022
2751 Clouds 19 1018 51 10000 3.6 320 19:22 14.04.2022
2752 Clouds 19 1017 52 10000 5.66 330 17:48 14.04.2022
2753 Clouds 19 1018 52 10000 4.63 330 17:27 14.04.2022
2754 Clouds 19 1020 55 10000 4.63 290 16:32 14.04.2022
2755 Clouds 19 1021 56 10000 2.57 0 14:20 14.04.2022
2756 Clouds 18 1021 61 10000 1.54 0 13:26 14.04.2022
2757 Clouds 17 1021 67 10000 3.09 290 12:38 14.04.2022
2758 Clouds 17 1022 70 10000 2.57 0 12:19 14.04.2022
2759 Clouds 15 1022 81 8000 1.03 0 11:21 14.04.2022
2760 Mist 14 1021 87 5000 1.03 0 10:36 14.04.2022
2761 Clouds 13 1021 92 6000 1.54 330 09:54 14.04.2022
2762 Rain 12 1018 93 8000 1.03 0 08:39 14.04.2022
2763 Rain 12 1016 87 10000 2.06 320 06:26 14.04.2022
2764 Clouds 13 1020 80 10000 2.57 320 02:45 14.04.2022
2765 Clouds 15 1019 74 10000 3.09 330 22:52 13.04.2022
2766 Clouds 16 1018 72 10000 2.57 340 21:44 13.04.2022
2767 Clouds 16 1018 68 10000 2.57 330 20:53 13.04.2022
2768 Clouds 17 1018 67 10000 3.6 330 20:22 13.04.2022
2769 Clouds 18 1017 66 10000 4.12 330 19:24 13.04.2022
2770 Clouds 19 1017 61 10000 4.63 320 18:19 13.04.2022
2771 Rain 19 1016 60 10000 5.14 320 17:23 13.04.2022
2772 Clear 20 1013 54 10000 4.63 320 16:33 13.04.2022
2773 Clear 20 1016 57 10000 4.12 330 15:35 13.04.2022
2774 Clear 20 1016 55 10000 3.09 300 14:50 13.04.2022
2775 Clear 20 1016 56 10000 2.57 280 14:19 13.04.2022
2776 Clear 20 1016 55 10000 3.6 280 13:19 13.04.2022
2777 Clear 19 1016 58 10000 2.06 260 12:25 13.04.2022
2778 Clear 19 1016 58 10000 2.06 260 12:25 13.04.2022
2779 Clear 17 1015 63 10000 1.03 0 10:49 13.04.2022
2780 Clear 15 1015 70 10000 1.03 0 09:44 13.04.2022
2781 Clear 13 1011 71 10000 0.51 0 08:43 13.04.2022
2782 Clear 11 1010 80 10000 1.03 0 06:52 13.04.2022
2783 Clear 11 1010 78 10000 0.51 0 06:26 13.04.2022
2784 Clear 11 1010 76 10000 0.51 0 05:36 13.04.2022
2785 Clear 16 1008 55 10000 1.54 0 00:22 13.04.2022
2786 Clear 16 1008 52 10000 2.57 120 23:45 12.04.2022
2787 Clear 17 1008 48 10000 1.54 170 22:19 12.04.2022
2788 Clear 18 1011 47 10000 4.12 160 21:29 12.04.2022
2789 Clear 18 1010 48 10000 3.09 170 20:41 12.04.2022
2790 Clear 21 1010 37 10000 5.66 150 19:50 12.04.2022
2791 Clear 22 1009 35 10000 7.2 150 19:31 12.04.2022
2792 Clear 22 1009 33 10000 7.72 140 18:31 12.04.2022
2793 Clear 23 1005 31 10000 7.72 140 17:30 12.04.2022
2794 Clear 23 1009 33 10000 6.69 140 16:23 12.04.2022
2795 Clear 23 1006 30 10000 7.2 160 15:33 12.04.2022
2796 Clear 22 1010 34 10000 7.2 130 14:29 12.04.2022
2797 Clear 21 1010 36 10000 6.17 130 13:37 12.04.2022
2798 Clear 19 1011 42 10000 5.66 140 12:52 12.04.2022
2799 Clear 18 1007 39 10000 7.72 140 11:47 12.04.2022
2800 Clear 16 1011 45 10000 6.69 130 11:20 12.04.2022
2801 Clear 12 1008 50 10000 5.14 130 09:24 12.04.2022
2802 Clear 10 1008 55 10000 3.6 120 07:59 12.04.2022
2803 Clear 10 1008 55 10000 3.09 110 06:32 12.04.2022
2804 Clear 10 1008 55 10000 3.09 110 06:32 12.04.2022
2805 Rain 10 1008 54 10000 3.09 110 05:35 12.04.2022
2806 Clear 11 1010 49 10000 3.09 100 00:59 12.04.2022
2807 Clear 11 1010 47 10000 2.57 100 22:53 11.04.2022
2808 Clear 12 1014 48 10000 2.57 110 21:49 11.04.2022
2809 Clear 13 1010 40 10000 2.06 110 21:18 11.04.2022
2810 Clear 14 1010 33 10000 2.06 110 20:30 11.04.2022
2811 Clear 15 1013 33 10000 3.6 120 19:56 11.04.2022
2812 Clear 16 1010 31 10000 4.63 120 19:21 11.04.2022
2813 Clear 16 1010 29 10000 4.12 110 18:48 11.04.2022
2814 Clear 17 1010 28 10000 5.14 120 17:57 11.04.2022
2815 Clear 17 1011 29 10000 5.14 140 16:57 11.04.2022
2816 Clear 17 1015 33 10000 5.66 120 16:20 11.04.2022
2817 Clear 15 1016 38 10000 4.12 140 14:35 11.04.2022
2818 Clear 14 1018 41 10000 5.66 150 12:54 11.04.2022
2819 Clear 14 1018 42 10000 5.66 150 12:35 11.04.2022
2820 Clear 12 1018 48 10000 6.69 130 11:42 11.04.2022
2821 Clear 11 1015 50 10000 5.14 140 10:34 11.04.2022
2822 Clear 7 1019 63 10000 3.09 120 09:22 11.04.2022
2823 Clear 4 1016 68 10000 2.06 100 07:19 11.04.2022
2824 Clear 4 1017 68 10000 1.03 0 02:32 11.04.2022
2825 Clear 5 1017 63 10000 2.06 80 22:54 10.04.2022
2826 Clear 6 1017 62 10000 2.06 70 22:26 10.04.2022
2827 Clear 7 1017 56 10000 0.51 0 21:35 10.04.2022
2828 Clear 10 1017 43 10000 1.03 0 20:33 10.04.2022
2829 Clear 11 1017 38 10000 1.54 320 19:45 10.04.2022
2830 Clear 11 1016 35 10000 3.09 260 19:25 10.04.2022
2831 Clear 11 1017 36 10000 3.6 330 18:45 10.04.2022
2832 Clear 12 1017 37 10000 4.63 320 17:56 10.04.2022
2833 Clear 12 1017 37 10000 4.63 320 17:56 10.04.2022
2834 Clear 12 1017 37 10000 4.63 320 17:37 10.04.2022
2835 Clear 11 1021 46 10000 4.63 290 16:33 10.04.2022
2836 Clouds 10 1021 50 10000 4.63 310 15:30 10.04.2022
2837 Clouds 11 1021 52 10000 3.6 280 14:25 10.04.2022
2838 Clouds 10 1018 49 10000 3.6 320 12:35 10.04.2022
2839 Clouds 10 1018 49 10000 3.6 320 12:35 10.04.2022
2840 Clouds 9 1018 53 10000 4.63 280 11:56 10.04.2022
2841 Clouds 8 1021 61 10000 5.66 300 11:29 10.04.2022
2842 Clouds 8 1021 64 10000 4.63 270 10:56 10.04.2022
2843 Clouds 7 1017 65 10000 2.06 250 09:59 10.04.2022
2844 Clouds 6 1020 76 10000 1.03 0 09:38 10.04.2022
2845 Clouds 3 1020 88 10000 1.03 0 08:23 10.04.2022
2846 Clouds 3 1016 84 10000 1.03 70 07:35 10.04.2022
2847 Clear 1 1019 89 10000 0.51 0 05:57 10.04.2022
2848 Clouds 2 1018 81 10000 2.06 190 02:34 10.04.2022
2849 Clear 3 1017 76 10000 4.12 280 00:29 10.04.2022
2850 Clear 4 1017 76 10000 3.6 280 23:49 09.04.2022
2851 Clear 5 1016 70 10000 6.69 290 22:48 09.04.2022
2852 Clouds 6 1017 72 10000 3.62 291 21:46 09.04.2022
2853 Clear 7 1014 50 10000 6.69 310 20:50 09.04.2022
2854 Clear 8 1011 47 10000 5.66 300 20:26 09.04.2022
2855 Clear 9 1010 46 10000 6.17 300 19:42 09.04.2022
2856 Clouds 9 1010 45 10000 6.69 290 19:18 09.04.2022
2857 Clouds 9 1010 48 10000 13.89 300 18:21 09.04.2022
2858 Rain 10 1007 43 10000 1.79 287 17:39 09.04.2022
2859 Rain 11 1009 40 10000 7.2 280 16:53 09.04.2022
2860 Clouds 11 1009 48 10000 6.69 280 15:58 09.04.2022
2861 Rain 9 1012 61 10000 4.12 260 15:39 09.04.2022
2862 Clouds 9 1013 62 10000 5.14 330 14:44 09.04.2022
2863 Clouds 10 1008 42 10000 12.35 280 14:23 09.04.2022
2864 Clouds 9 1012 55 10000 8.75 280 13:20 09.04.2022
2865 Clouds 10 1008 55 10000 8.75 290 12:50 09.04.2022
2866 Clouds 9 1008 60 10000 9.26 280 11:38 09.04.2022
2867 Clouds 7 1011 71 10000 8.75 280 10:21 09.04.2022
2868 Clouds 7 1008 71 10000 7.2 290 09:42 09.04.2022
2869 Clouds 6 1007 79 10000 6.69 270 08:56 09.04.2022
2870 Clouds 4 1008 79 10000 6.69 270 07:29 09.04.2022
2871 Clouds 4 1003 83 10000 5.66 300 02:53 09.04.2022
2872 Clouds 6 994 75 10000 0.45 263 00:25 09.04.2022
2873 Clouds 6 995 82 10000 1.54 200 22:57 08.04.2022
2874 Clouds 6 994 81 10000 2.06 180 21:32 08.04.2022
2875 Clouds 6 994 77 10000 2.06 190 20:40 08.04.2022
2876 Clouds 7 994 74 10000 2.57 190 19:32 08.04.2022
2877 Clouds 7 994 74 10000 3.09 190 18:31 08.04.2022
2878 Rain 7 994 75 10000 2.57 190 17:53 08.04.2022
2879 Rain 7 993 75 10000 2.57 210 17:26 08.04.2022
2880 Clouds 7 993 73 10000 3.09 220 16:51 08.04.2022
2881 Rain 8 993 71 10000 4.63 200 15:59 08.04.2022
2882 Rain 8 993 70 10000 5.14 200 15:27 08.04.2022
2883 Rain 8 997 70 10000 2.57 220 14:40 08.04.2022
2884 Clouds 8 994 67 10000 2.06 210 13:55 08.04.2022
2885 Clouds 8 998 70 10000 2.57 210 13:29 08.04.2022
2886 Rain 8 999 68 10000 2.06 210 12:32 08.04.2022
2887 Clouds 8 996 71 10000 3.09 260 10:55 08.04.2022
2888 Clouds 7 997 75 10000 2.06 270 09:41 08.04.2022
2889 Clouds 6 1000 81 10000 3.09 250 08:58 08.04.2022
2890 Clouds 5 997 83 10000 4.12 250 07:38 08.04.2022
2891 Clouds 6 997 83 10000 5.66 260 06:44 08.04.2022
2892 Clouds 7 994 81 10000 7.72 260 02:27 08.04.2022
2893 Clouds 7 992 85 10000 7.2 310 00:28 08.04.2022
2894 Clouds 8 990 79 10000 12.86 260 23:41 07.04.2022
2895 Clouds 9 990 60 10000 13.38 260 22:41 07.04.2022
2896 Clouds 9 989 63 10000 11.83 260 22:22 07.04.2022
2897 Clouds 9 989 69 10000 10.8 260 21:56 07.04.2022
2898 Clouds 9 988 63 10000 11.83 260 21:23 07.04.2022
2899 Clouds 10 988 57 10000 13.38 260 20:42 07.04.2022
2900 Clouds 11 986 50 10000 11.32 250 19:25 07.04.2022
2901 Clouds 11 984 62 10000 16.98 260 17:28 07.04.2022
2902 Clouds 13 984 46 10000 14.92 260 16:51 07.04.2022
2903 Clouds 13 987 49 10000 15.95 260 16:33 07.04.2022
2904 Clouds 13 987 49 10000 13.38 260 15:40 07.04.2022
2905 Clouds 12 985 76 10000 11.83 270 13:52 07.04.2022
2906 Clouds 11 985 87 2300 12.86 260 13:23 07.04.2022
2907 Clouds 13 985 79 10000 8.23 210 11:52 07.04.2022
2908 Clouds 12 982 80 10000 8.23 200 10:46 07.04.2022
2909 Clouds 10 990 80 10000 5.66 190 08:43 07.04.2022
2910 Clouds 11 988 76 10000 5.14 180 06:59 07.04.2022
2911 Clouds 11 990 73 10000 5.66 210 05:28 07.04.2022
2912 Clouds 11 992 72 10000 7.2 210 02:37 07.04.2022
2913 Clouds 11 993 75 10000 6.17 210 00:43 07.04.2022
2914 Clouds 11 995 72 10000 6.17 210 23:36 06.04.2022
2915 Clouds 11 995 72 10000 6.69 220 22:44 06.04.2022
2916 Clouds 11 995 72 10000 5.14 210 22:20 06.04.2022
2917 Clouds 12 996 64 10000 5.66 220 20:50 06.04.2022
2918 Clouds 12 995 64 10000 5.66 210 20:26 06.04.2022
2919 Clouds 12 996 64 10000 6.69 210 19:44 06.04.2022
2920 Clouds 12 997 65 10000 8.23 210 18:48 06.04.2022
2921 Clouds 12 997 66 10000 5.66 220 17:38 06.04.2022
2922 Clouds 12 997 68 10000 4.63 240 17:20 06.04.2022
2923 Clouds 12 998 66 10000 6.69 230 16:34 06.04.2022
2924 Clouds 12 999 63 10000 6.69 220 15:45 06.04.2022
2925 Clouds 11 1003 64 10000 7.2 220 13:57 06.04.2022
2926 Clouds 11 1001 61 10000 8.23 230 12:37 06.04.2022
2927 Clouds 11 1001 63 10000 7.72 250 11:48 06.04.2022
2928 Clouds 10 1001 66 10000 6.69 240 10:42 06.04.2022
2929 Clouds 10 1001 66 10000 6.69 240 10:18 06.04.2022
2930 Clouds 10 1001 69 10000 4.63 210 09:26 06.04.2022
2931 Clouds 10 1001 73 10000 4.12 210 08:26 06.04.2022
2932 Clouds 9 1005 76 10000 3.6 220 07:37 06.04.2022
2933 Clouds 10 1002 75 10000 5.14 240 02:57 06.04.2022
2934 Clouds 11 1003 75 10000 5.66 270 23:51 05.04.2022
2935 Clouds 12 1003 82 10000 3.6 240 22:28 05.04.2022
2936 Clouds 12 1003 86 10000 3.09 230 21:18 05.04.2022
2937 Clouds 12 1002 86 10000 6.17 260 20:25 05.04.2022
2938 Clouds 12 1006 85 10000 5.14 280 19:26 05.04.2022
2939 Clouds 12 1003 87 10000 6.17 280 17:52 05.04.2022
2940 Clouds 12 1003 87 10000 6.17 280 16:51 05.04.2022
2941 Clouds 12 1007 88 10000 5.66 280 15:53 05.04.2022
2942 Clouds 12 1007 87 10000 6.69 280 15:33 05.04.2022
2943 Rain 12 1007 86 10000 8.23 270 14:27 05.04.2022
2944 Clouds 11 1007 90 10000 8.23 270 12:56 05.04.2022
2945 Clouds 11 1004 91 10000 6.69 270 11:50 05.04.2022
2946 Clouds 11 1003 94 10000 5.14 260 11:32 05.04.2022
2947 Mist 10 1003 95 4000 6.17 240 09:52 05.04.2022
2948 Clouds 10 1003 95 6000 5.14 240 08:52 05.04.2022
2949 Mist 9 1002 95 4600 6.69 260 06:58 05.04.2022
2950 Clouds 8 1002 88 10000 7.72 240 01:51 05.04.2022
2951 Clouds 7 1003 83 10000 7.72 240 22:42 04.04.2022
2952 Clouds 7 1004 83 10000 7.72 240 22:22 04.04.2022
2953 Clouds 6 1004 84 10000 8.23 240 21:21 04.04.2022
2954 Clouds 6 1004 84 10000 8.23 240 21:21 04.04.2022
2955 Clouds 6 1004 81 10000 7.72 240 20:49 04.04.2022
2956 Clouds 6 1004 80 10000 5.66 230 19:57 04.04.2022
2957 Clouds 6 1004 80 10000 4.63 220 19:26 04.04.2022
2958 Clouds 6 1005 82 10000 6.17 230 18:33 04.04.2022
2959 Clouds 6 1006 83 10000 5.14 220 16:36 04.04.2022
2960 Clouds 5 1007 80 10000 9.26 240 15:44 04.04.2022
2961 Clouds 6 1007 78 10000 10.29 240 15:26 04.04.2022
2962 Clouds 6 1008 70 10000 8.75 230 14:46 04.04.2022
2963 Clouds 8 1008 54 10000 9.26 240 13:31 04.04.2022
2964 Clouds 7 1013 55 10000 9.77 230 11:56 04.04.2022
2965 Clouds 7 1014 57 10000 8.23 230 11:29 04.04.2022
2966 Clear 4 1012 69 10000 5.66 210 09:18 04.04.2022
2967 Clear 2 1015 82 10000 3.09 190 05:21 04.04.2022
2968 Clouds 3 1020 77 10000 2.57 220 01:36 04.04.2022
2969 Clouds 5 1021 71 10000 3.6 270 22:45 03.04.2022
2970 Clouds 5 1021 71 10000 4.12 310 21:47 03.04.2022
2971 Clouds 6 1021 65 10000 3.09 260 20:57 03.04.2022
2972 Clouds 7 1018 54 10000 4.12 300 19:51 03.04.2022
2973 Clouds 7 1018 51 10000 4.12 330 18:33 03.04.2022
2974 Clouds 8 1018 47 10000 5.14 330 17:48 03.04.2022
2975 Clouds 8 1018 46 10000 3.6 290 17:21 03.04.2022
2976 Clouds 7 1021 49 10000 3.09 0 16:42 03.04.2022
2977 Clouds 7 1022 50 10000 4.12 320 15:32 03.04.2022
2978 Clouds 7 1023 48 10000 3.09 320 13:58 03.04.2022
2979 Clouds 6 1023 49 10000 3.6 300 12:56 03.04.2022
2980 Clouds 4 1023 55 10000 2.57 270 11:33 03.04.2022
2981 Clear 1 1023 75 10000 2.57 330 09:41 03.04.2022
2982 Clear 0 1022 81 10000 0.51 0 08:52 03.04.2022
2983 Clear 0 1021 75 10000 1.03 0 05:45 03.04.2022
2984 Clear 0 1021 75 10000 1.03 0 05:45 03.04.2022
2985 Clear 1 1021 70 10000 3.6 30 02:55 03.04.2022
2986 Clear 2 1020 68 10000 1.54 360 23:27 02.04.2022
2987 Clear 2 1020 68 10000 1.54 360 22:43 02.04.2022
2988 Clouds 3 1019 66 10000 1.03 40 21:55 02.04.2022
2989 Clouds 3 1016 58 10000 1.03 0 21:19 02.04.2022
2990 Clouds 4 1015 56 10000 3.09 360 20:36 02.04.2022
2991 Clouds 5 1015 55 10000 3.09 50 18:47 02.04.2022
2992 Clouds 5 1014 56 10000 5.66 40 18:19 02.04.2022
2993 Clouds 5 1014 63 10000 4.12 10 17:23 02.04.2022
2994 Clouds 5 1014 57 10000 5.66 30 15:44 02.04.2022
2995 Clouds 4 1017 63 10000 5.66 30 15:19 02.04.2022
2996 Clouds 4 1016 62 10000 5.14 30 14:31 02.04.2022
2997 Clouds 4 1016 66 10000 5.14 10 13:34 02.04.2022
2998 Clouds 3 1013 67 10000 4.12 30 12:21 02.04.2022
2999 Clouds 2 1012 74 10000 3.09 360 10:31 02.04.2022
3000 Clouds 1 1010 83 6000 3.09 360 08:26 02.04.2022
3001 Clouds 1 1008 94 3000 2.57 350 05:24 02.04.2022
3002 Clouds 1 1008 95 4900 3.6 340 02:56 02.04.2022
3003 Clouds 1 1011 96 2500 3.09 340 23:54 01.04.2022
3004 Snow 1 1010 96 2500 3.6 330 22:51 01.04.2022
3005 Snow 1 1010 95 1600 3.09 330 21:27 01.04.2022
3006 Clouds 1 1007 93 1600 3.09 330 20:49 01.04.2022
3007 Clouds 1 1009 91 2000 3.09 340 19:50 01.04.2022
3008 Snow 1 1009 89 7000 4.12 10 19:26 01.04.2022
3009 Clouds 1 1008 88 7000 3.6 360 18:42 01.04.2022
3010 Clouds 2 1005 87 6000 4.63 20 17:45 01.04.2022
3011 Clouds 2 1007 83 8000 5.66 20 16:34 01.04.2022
3012 Clouds 2 1006 72 10000 6.17 10 15:19 01.04.2022
3013 Clouds 2 1006 73 10000 7.2 10 14:18 01.04.2022
3014 Clouds 2 1006 76 10000 7.2 20 13:32 01.04.2022
3015 Clouds 2 1005 76 10000 6.17 30 12:32 01.04.2022
3016 Clouds 2 1004 79 10000 6.17 30 11:18 01.04.2022
3017 Clouds 2 1004 79 10000 5.66 30 10:18 01.04.2022
3018 Clouds 2 999 83 10000 5.66 30 07:59 01.04.2022
3019 Clouds 2 1001 87 10000 4.63 30 06:30 01.04.2022
3020 Clouds 3 1000 89 10000 3.09 40 04:45 01.04.2022
3021 Mist 3 1000 93 5000 1.03 20 03:41 01.04.2022
3022 Drizzle 3 1000 93 4500 1.54 330 01:53 01.04.2022
3023 Clouds 3 997 95 10000 2.57 330 22:58 31.03.2022
3024 Clouds 3 996 93 10000 4.12 300 21:50 31.03.2022
3025 Clouds 3 996 93 10000 4.63 300 21:31 31.03.2022
3026 Clouds 4 996 93 9000 5.14 290 20:29 31.03.2022
3027 Clouds 4 995 91 9000 5.14 300 19:48 31.03.2022
3028 Clouds 5 995 90 4000 0.89 256 18:43 31.03.2022
3029 Clouds 6 995 87 5000 2.06 300 17:41 31.03.2022
3030 Clouds 5 998 87 6000 1.54 320 16:37 31.03.2022
3031 Clouds 6 998 86 8000 1.54 0 15:37 31.03.2022
3032 Clouds 6 998 87 10000 2.57 320 15:19 31.03.2022
3033 Clouds 7 995 84 10000 1.54 10 14:34 31.03.2022
3034 Clouds 6 999 86 10000 2.06 70 11:43 31.03.2022
3035 Clouds 6 995 85 10000 2.57 60 10:55 31.03.2022
3036 Clouds 6 995 86 10000 2.57 70 09:44 31.03.2022
3037 Clouds 6 995 89 10000 2.57 60 07:55 31.03.2022
3038 Clouds 7 996 86 10000 3.6 70 05:23 31.03.2022
3039 Clouds 9 1001 64 10000 3.09 60 23:43 30.03.2022
3040 Clear 9 1001 63 10000 4.12 40 22:32 30.03.2022
3041 Clear 10 1001 56 10000 3.6 30 21:39 30.03.2022
3042 Clear 11 1001 53 10000 3.6 30 20:53 30.03.2022
3043 Clear 11 1001 51 10000 5.14 30 20:20 30.03.2022
3044 Clear 11 1001 52 10000 5.14 30 20:20 30.03.2022
3045 Clear 12 1000 49 10000 4.63 20 19:19 30.03.2022
3046 Clear 13 1000 47 10000 4.63 360 18:19 30.03.2022
3047 Clear 13 1001 41 10000 2.06 360 17:45 30.03.2022
3048 Clear 14 1001 42 10000 4.12 30 16:56 30.03.2022
3049 Clear 14 1001 41 10000 4.12 30 16:32 30.03.2022
3050 Clear 13 1002 43 10000 3.09 0 15:24 30.03.2022
3051 Clouds 12 1003 49 10000 3.6 20 13:42 30.03.2022
3052 Clouds 12 1003 52 10000 3.09 70 12:47 30.03.2022
3053 Clouds 10 1004 60 10000 1.54 10 11:27 30.03.2022
3054 Clouds 10 1004 60 10000 1.54 10 11:27 30.03.2022
3055 Clear 8 1004 73 10000 0.51 0 10:23 30.03.2022
3056 Clear 7 1004 82 10000 0.51 0 09:23 30.03.2022
3057 Clear 7 1004 86 10000 1.54 340 07:32 30.03.2022
3058 Clouds 8 1005 82 10000 1.54 90 05:40 30.03.2022
3059 Clouds 9 1006 71 10000 0.51 0 03:52 30.03.2022
3060 Clear 9 1007 69 10000 1.03 0 00:41 30.03.2022
3061 Clear 11 1008 62 10000 2.57 60 22:25 29.03.2022
3062 Clear 11 1007 61 10000 2.06 30 21:44 29.03.2022
3063 Clear 11 1007 60 10000 3.09 20 20:53 29.03.2022
3064 Clear 12 1007 56 10000 4.63 30 20:18 29.03.2022
3065 Clear 13 1008 54 10000 4.63 30 18:55 29.03.2022
3066 Clear 14 1008 54 10000 5.14 20 18:19 29.03.2022
3067 Clear 15 1005 51 10000 6.17 320 17:35 29.03.2022
3068 Clear 15 1008 58 10000 4.12 320 16:56 29.03.2022
3069 Clear 16 1009 47 10000 2.06 0 15:57 29.03.2022
3070 Clear 16 1010 50 10000 3.09 50 14:52 29.03.2022
3071 Clear 15 1011 53 10000 1.54 0 13:58 29.03.2022
3072 Clear 14 1012 58 10000 2.06 150 12:51 29.03.2022
3073 Clear 13 1009 61 10000 2.57 140 11:43 29.03.2022
3074 Clear 10 1013 77 10000 1.54 50 10:30 29.03.2022
3075 Clear 9 1013 80 10000 1.54 50 09:42 29.03.2022
3076 Clear 8 1013 85 10000 0 0 06:58 29.03.2022
3077 Clear 9 1015 82 10000 1.54 60 04:41 29.03.2022
3078 Clear 10 1017 74 10000 1.03 0 00:35 29.03.2022
3079 Clear 12 1017 73 10000 1.03 40 23:23 28.03.2022
3080 Clear 12 1017 72 10000 2.57 340 22:52 28.03.2022
3081 Clear 12 1017 71 10000 2.57 340 22:26 28.03.2022
3082 Clear 14 1017 59 10000 1.54 340 20:56 28.03.2022
3083 Clear 15 1017 58 10000 3.6 330 20:21 28.03.2022
3084 Clear 16 1017 53 10000 4.63 320 19:41 28.03.2022
3085 Clear 17 1018 42 10000 4.63 320 18:56 28.03.2022
3086 Clear 18 1014 33 10000 6.69 310 18:37 28.03.2022
3087 Clear 19 1015 32 10000 5.66 310 17:39 28.03.2022
3088 Clear 20 1019 40 10000 3.6 290 16:20 28.03.2022
3089 Clear 19 1021 47 10000 2.06 350 14:29 28.03.2022
3090 Clear 18 1021 52 10000 3.09 280 13:58 28.03.2022
3091 Clear 16 1022 64 10000 1.03 0 12:20 28.03.2022
3092 Clear 16 1022 64 10000 1.03 0 12:20 28.03.2022
3093 Clear 14 1023 69 10000 1.03 0 11:24 28.03.2022
3094 Clear 10 1019 85 10000 2.06 160 09:43 28.03.2022
3095 Clear 9 1019 89 10000 1.54 150 09:19 28.03.2022
3096 Clear 7 1020 95 8000 0.51 0 08:22 28.03.2022
3097 Clear 7 1020 92 10000 0.51 70 07:28 28.03.2022
3098 Clear 8 1021 86 10000 0.51 0 03:44 28.03.2022
3099 Clear 11 1027 76 10000 0.51 0 23:30 27.03.2022
3100 Clear 12 1027 72 10000 1.54 50 22:24 27.03.2022
3101 Clear 12 1027 72 10000 1.54 50 22:24 27.03.2022
3102 Clear 13 1027 68 10000 1.54 30 21:41 27.03.2022
3103 Clear 14 1027 63 10000 2.57 340 20:54 27.03.2022
3104 Clear 17 1023 57 10000 3.6 330 19:48 27.03.2022
3105 Clouds 18 1023 56 10000 4.12 320 19:20 27.03.2022
3106 Clouds 19 1023 53 10000 3.6 320 18:27 27.03.2022
3107 Clouds 19 1023 51 10000 2.57 0 17:39 27.03.2022
3108 Clouds 18 1028 58 10000 2.06 0 16:28 27.03.2022
3109 Clouds 17 1029 59 10000 3.6 350 15:21 27.03.2022
3110 Clouds 16 1030 61 10000 3.09 280 13:55 27.03.2022
3111 Clouds 14 1031 69 10000 2.06 280 12:31 27.03.2022
3112 Clouds 12 1031 76 10000 1.54 290 10:57 27.03.2022
3113 Clear 8 1024 84 10000 1 24 08:51 27.03.2022
3114 Clear 7 1026 86 10000 0.51 0 05:54 27.03.2022
3115 Clear 9 1026 71 10000 1.54 60 00:48 27.03.2022
3116 Clear 10 1026 65 10000 0.51 0 23:42 26.03.2022
3117 Clear 11 1026 62 10000 0.51 0 22:36 26.03.2022
3118 Clear 12 1026 53 10000 1.03 20 21:34 26.03.2022
3119 Clear 13 1026 50 10000 1.54 30 20:57 26.03.2022
3120 Clear 16 1025 40 10000 4.12 30 19:21 26.03.2022
3121 Clear 18 1029 39 10000 6.17 30 17:54 26.03.2022
3122 Clear 18 1029 39 10000 6.17 30 17:33 26.03.2022
3123 Clear 19 1029 36 10000 4.63 30 16:27 26.03.2022
3124 Clear 19 1030 37 10000 5.66 40 15:20 26.03.2022
3125 Clear 18 1030 37 10000 2.57 0 13:53 26.03.2022
3126 Clear 18 1031 39 10000 3.6 290 12:59 26.03.2022
3127 Clear 15 1031 49 10000 2.57 260 11:41 26.03.2022
3128 Clear 15 1031 50 10000 2.57 260 11:41 26.03.2022
3129 Clear 15 1031 50 10000 2.57 260 11:41 26.03.2022
3130 Clear 13 1032 58 10000 1.54 260 10:28 26.03.2022
3131 Clear 8 1032 70 10000 0.51 0 08:35 26.03.2022
3132 Clear 4 1026 74 10000 0.51 0 05:54 26.03.2022
3133 Clear 5 1026 76 10000 1.54 60 05:22 26.03.2022
3134 Clear 10 1026 57 10000 1.03 0 00:28 26.03.2022
3135 Clear 12 1025 45 10000 2.57 60 21:49 25.03.2022
3136 Clear 12 1029 42 10000 3.6 40 20:46 25.03.2022
3137 Clear 14 1028 33 10000 3.6 30 19:38 25.03.2022
3138 Clear 16 1028 28 10000 4.12 30 18:47 25.03.2022
3139 Clear 17 1027 28 10000 3.6 50 17:47 25.03.2022
3140 Clear 18 1023 24 10000 1.54 100 17:27 25.03.2022
3141 Clear 18 1028 27 10000 4.12 40 16:18 25.03.2022
3142 Clear 18 1028 30 10000 2.06 0 14:26 25.03.2022
3143 Clear 17 1029 33 10000 4.12 30 13:24 25.03.2022
3144 Clear 13 1030 53 10000 1.03 0 10:26 25.03.2022
3145 Clear 10 1030 61 10000 1.54 150 09:28 25.03.2022
3146 Clear 6 1025 74 10000 0.51 0 08:24 25.03.2022
3147 Clear 4 1025 79 10000 0.51 140 07:28 25.03.2022
3148 Clear 2 1029 86 10000 1.54 70 06:24 25.03.2022
3149 Clear 7 1024 61 10000 2.57 50 01:18 25.03.2022
3150 Clear 9 1024 52 10000 2.06 70 22:53 24.03.2022
3151 Clear 10 1024 46 10000 2.06 60 21:52 24.03.2022
3152 Clear 12 1023 39 10000 1.03 40 20:37 24.03.2022
3153 Clear 13 1023 35 10000 1.54 340 19:47 24.03.2022
3154 Clear 17 1027 29 10000 3.6 290 17:50 24.03.2022
3155 Clear 18 1023 24 10000 3.6 300 17:23 24.03.2022
3156 Clear 18 1028 27 10000 3.6 290 15:45 24.03.2022
3157 Clear 18 1028 29 10000 1.54 0 14:50 24.03.2022
3158 Clear 18 1028 31 10000 2.06 0 14:19 24.03.2022
3159 Clear 17 1029 31 10000 4.12 280 13:24 24.03.2022
3160 Clear 15 1029 44 10000 2.06 280 11:52 24.03.2022
3161 Clear 12 1030 55 10000 1.03 0 10:18 24.03.2022
3162 Clear 8 1029 75 10000 0 0 08:49 24.03.2022
3163 Clear 2 1029 86 10000 1.03 0 06:55 24.03.2022
3164 Clear 5 1024 74 10000 1.03 60 03:59 24.03.2022
3165 Clear 9 1025 53 10000 1.54 60 23:21 23.03.2022
3166 Clear 10 1025 51 10000 2.57 70 21:53 23.03.2022
3167 Clear 11 1025 47 10000 1.03 0 21:20 23.03.2022
3168 Clear 14 1025 39 10000 1.54 0 19:46 23.03.2022
3169 Clear 16 1029 37 10000 2.06 340 18:59 23.03.2022
3170 Clear 18 1024 26 10000 3.09 310 17:39 23.03.2022
3171 Clear 19 1029 29 10000 3.6 340 16:53 23.03.2022
3172 Clear 19 1030 29 10000 2.06 0 14:57 23.03.2022
3173 Clear 19 1030 28 10000 2.06 0 14:38 23.03.2022
3174 Clear 18 1030 31 10000 1.54 0 13:22 23.03.2022
3175 Clear 14 1031 46 10000 2.06 150 10:20 23.03.2022
3176 Clear 4 1031 75 10000 1.03 0 07:56 23.03.2022
3177 Clear 4 1026 70 10000 0.51 0 05:40 23.03.2022
3178 Clear 7 1026 61 10000 1.03 0 01:41 23.03.2022
3179 Clear 8 1026 59 10000 2.06 70 00:24 23.03.2022
3180 Clear 10 1026 43 10000 1.03 0 21:33 22.03.2022
3181 Clear 12 1025 40 10000 0.51 0 20:55 22.03.2022
3182 Clear 14 1025 35 10000 1.54 60 19:59 22.03.2022
3183 Clear 15 1025 27 10000 1.54 130 19:25 22.03.2022
3184 Clear 17 1029 30 10000 2.57 150 18:45 22.03.2022
3185 Clear 18 1029 26 10000 3.09 160 17:42 22.03.2022
3186 Clear 19 1025 20 10000 2.06 170 16:35 22.03.2022
3187 Clear 19 1030 23 10000 4.12 50 15:40 22.03.2022
3188 Clear 19 1030 22 10000 3.09 0 15:19 22.03.2022
3189 Clear 19 1030 22 10000 2.06 0 14:42 22.03.2022
3190 Clear 18 1031 25 10000 4.63 150 13:42 22.03.2022
3191 Clear 16 1032 29 10000 2.06 180 11:53 22.03.2022
3192 Clear 15 1032 33 10000 3.6 140 10:53 22.03.2022
3193 Clear 12 1032 44 10000 2.06 120 09:21 22.03.2022
3194 Clear 7 1028 55 10000 1.03 0 07:30 22.03.2022
3195 Clear 8 1027 57 10000 3.09 90 03:55 22.03.2022
3196 Clear 10 1027 53 10000 2.06 110 00:46 22.03.2022
3197 Clear 12 1027 50 10000 2.57 110 22:48 21.03.2022
3198 Clear 13 1026 49 10000 3.09 120 21:30 21.03.2022
3199 Clear 14 1026 52 10000 2.57 110 20:44 21.03.2022
3200 Clear 14 1026 52 10000 2.06 100 20:23 21.03.2022
3201 Clear 15 1025 46 10000 2.06 110 19:45 21.03.2022
3202 Clear 17 1025 42 10000 2.06 110 18:48 21.03.2022
3203 Clear 18 1029 41 10000 3.09 120 17:36 21.03.2022
3204 Clear 18 1029 39 10000 2.57 160 16:59 21.03.2022
3205 Clear 19 1030 41 10000 2.57 140 16:33 21.03.2022
3206 Clear 19 1030 40 10000 3.6 150 15:43 21.03.2022
3207 Clear 19 1030 43 10000 3.6 130 14:37 21.03.2022
3208 Clear 17 1031 44 10000 3.09 130 13:20 21.03.2022
3209 Clear 15 1031 46 10000 4.63 150 11:59 21.03.2022
3210 Clear 14 1032 47 10000 3.6 140 11:28 21.03.2022
3211 Clear 11 1032 55 10000 3.6 130 09:51 21.03.2022
3212 Clear 7 1026 65 10000 2.57 100 07:39 21.03.2022
3213 Clear 7 1025 72 10000 3.09 110 06:29 21.03.2022
3214 Clear 7 1030 80 10000 2.06 70 02:23 21.03.2022
3215 Clear 9 1025 65 10000 2.06 70 22:57 20.03.2022
3216 Clear 9 1025 63 10000 2.06 60 22:29 20.03.2022
3217 Clear 10 1024 59 10000 0.51 0 21:40 20.03.2022
3218 Clouds 10 1029 59 10000 1.54 180 20:58 20.03.2022
3219 Clouds 10 1029 57 10000 1.54 180 20:36 20.03.2022
3220 Clear 10 1024 53 10000 1.54 190 19:55 20.03.2022
3221 Clear 11 1024 52 10000 1.54 190 19:24 20.03.2022
3222 Clouds 11 1023 53 10000 5.14 210 17:49 20.03.2022
3223 Clouds 11 1023 54 10000 4.63 210 17:27 20.03.2022
3224 Clouds 12 1023 58 10000 3.6 210 16:40 20.03.2022
3225 Clouds 11 1022 56 10000 8.23 160 14:53 20.03.2022
3226 Clouds 10 1026 49 10000 5.14 150 13:39 20.03.2022
3227 Clouds 11 1027 47 10000 8.23 140 12:20 20.03.2022
3228 Clear 8 1022 46 10000 8.75 140 10:38 20.03.2022
3229 Clear 6 1028 52 10000 5.14 80 08:35 20.03.2022
3230 Clear 4 1023 52 10000 3.6 80 06:55 20.03.2022
3231 Clear 5 1025 50 10000 2.06 80 03:59 20.03.2022
3232 Clear 6 1028 51 10000 4.63 70 00:59 20.03.2022
3233 Clear 6 1028 51 10000 4.63 70 00:35 20.03.2022
3234 Clear 7 1029 58 10000 2.57 70 22:56 19.03.2022
3235 Clear 8 1030 54 10000 4.63 70 21:27 19.03.2022
3236 Clear 9 1031 46 10000 5.66 70 20:19 19.03.2022
3237 Clear 10 1031 35 10000 5.14 70 18:44 19.03.2022
3238 Clear 11 1030 32 10000 8.23 70 18:23 19.03.2022
3239 Clear 12 1030 28 10000 7.72 80 17:35 19.03.2022
3240 Clear 13 1035 26 10000 5.66 80 15:43 19.03.2022
3241 Clear 14 1037 24 10000 6.17 60 14:30 19.03.2022
3242 Clear 13 1039 27 10000 7.2 80 12:58 19.03.2022
3243 Clear 14 1039 30 10000 7.2 80 12:38 19.03.2022
3244 Clear 13 1040 38 10000 6.17 80 11:51 19.03.2022
3245 Clouds 11 1041 56 10000 5.14 100 10:44 19.03.2022
3246 Clear 4 1037 81 10000 1.03 50 06:29 19.03.2022
3247 Clear 5 1038 74 10000 1.54 90 03:24 19.03.2022
3248 Clear 7 1038 69 10000 2.06 150 01:41 19.03.2022
3249 Clear 8 1039 64 10000 1.54 90 23:36 18.03.2022
3250 Clear 9 1039 61 10000 2.57 50 22:26 18.03.2022
3251 Clear 10 1038 59 10000 2.57 30 21:19 18.03.2022
3252 Clear 11 1042 53 10000 4.63 30 19:51 18.03.2022
3253 Clear 12 1037 44 10000 4.63 30 19:21 18.03.2022
3254 Clear 14 1041 38 10000 3.99 48 17:50 18.03.2022
3255 Clear 15 1040 33 10000 6.17 30 16:48 18.03.2022
3256 Clear 16 1041 25 10000 6.69 70 15:26 18.03.2022
3257 Clear 15 1041 29 10000 4.12 60 14:22 18.03.2022
3258 Clear 12 1042 42 10000 2.06 0 12:27 18.03.2022
3259 Clear 9 1042 66 10000 1.54 0 10:52 18.03.2022
3260 Clear 6 1042 88 10000 1.96 75 09:29 18.03.2022
3261 Fog 3 1037 94 8000 2.06 70 08:32 18.03.2022
3262 Clear 1 1036 92 10000 0.51 0 06:35 18.03.2022
3263 Clear 3 1034 91 10000 1.03 0 02:57 18.03.2022
3264 Clear 4 1033 86 10000 1.54 60 00:23 18.03.2022
3265 Clear 5 1033 84 10000 0.51 0 23:38 17.03.2022
3266 Clear 5 1032 82 10000 0.51 0 22:25 17.03.2022
3267 Clear 5 1036 84 10000 0.51 0 21:48 17.03.2022
3268 Clear 6 1036 83 10000 0.51 0 21:26 17.03.2022
3269 Clear 6 1035 79 10000 2.06 350 20:45 17.03.2022
3270 Clear 7 1034 77 10000 2.06 340 19:50 17.03.2022
3271 Clouds 8 1030 71 10000 2.06 340 19:32 17.03.2022
3272 Clouds 8 1029 70 10000 2.06 340 18:49 17.03.2022
3273 Clouds 10 1028 56 10000 4.12 330 17:18 17.03.2022
3274 Clouds 10 1031 65 10000 4.12 330 15:52 17.03.2022
3275 Clouds 11 1027 63 10000 4.63 330 15:33 17.03.2022
3276 Clouds 10 1027 67 10000 5.14 340 14:48 17.03.2022
3277 Clouds 10 1026 71 10000 5.14 320 13:21 17.03.2022
3278 Clouds 9 1026 76 10000 5.66 310 12:38 17.03.2022
3279 Clouds 9 1025 79 10000 5.14 330 11:30 17.03.2022
3280 Clouds 9 1024 81 10000 6.69 310 10:34 17.03.2022
3281 Clouds 9 1022 93 7000 6.69 290 08:41 17.03.2022
3282 Rain 9 1020 90 8000 2.06 190 07:57 17.03.2022
3283 Clouds 10 1018 74 10000 4.12 140 05:48 17.03.2022
3284 Clear 11 1021 69 10000 3.6 130 03:45 17.03.2022
3285 Clear 11 1016 66 10000 4.63 130 00:21 17.03.2022
3286 Clear 11 1017 66 10000 5.66 140 22:52 16.03.2022
3287 Clear 11 1016 66 10000 5.66 140 22:33 16.03.2022
3288 Clear 11 1016 65 10000 4.63 130 21:55 16.03.2022
3289 Clear 11 1017 65 10000 4.63 120 20:32 16.03.2022
3290 Clear 12 1017 63 10000 5.14 120 19:22 16.03.2022
3291 Clear 12 1017 62 10000 4.12 120 18:42 16.03.2022
3292 Clear 13 1017 59 10000 7.2 140 17:45 16.03.2022
3293 Clear 13 1017 58 10000 5.66 130 17:27 16.03.2022
3294 Clear 13 1018 58 10000 5.66 130 15:56 16.03.2022
3295 Clear 13 1018 56 10000 6.17 130 14:35 16.03.2022
3296 Clear 13 1024 61 10000 7.72 130 13:35 16.03.2022
3297 Clouds 12 1025 65 10000 8.75 140 12:18 16.03.2022
3298 Clouds 11 1020 67 10000 9.77 140 11:23 16.03.2022
3299 Clear 9 1020 77 10000 6.17 140 10:28 16.03.2022
3300 Clear 8 1020 79 10000 4.12 150 09:56 16.03.2022
3301 Clear 3 1021 95 10000 3.09 100 07:23 16.03.2022
3302 Clear 3 1020 94 10000 1.54 90 02:44 16.03.2022
3303 Clear 5 1020 90 10000 1.54 110 22:54 15.03.2022
3304 Clear 6 1020 89 10000 1.03 0 22:35 15.03.2022
3305 Clouds 7 1020 84 10000 1.54 130 20:55 15.03.2022
3306 Clouds 8 1019 83 10000 1.03 100 19:37 15.03.2022
3307 Clouds 9 1018 81 10000 3.6 70 17:42 15.03.2022
3308 Clouds 10 1018 82 10000 2.06 70 16:35 15.03.2022
3309 Clouds 10 1018 81 10000 1.03 0 15:28 15.03.2022
3310 Rain 9 1018 83 10000 1.54 130 14:52 15.03.2022
3311 Clouds 9 1019 78 10000 1.54 90 13:55 15.03.2022
3312 Clouds 9 1019 78 10000 2.06 110 13:21 15.03.2022
3313 Clouds 9 1020 71 10000 2.57 130 11:32 15.03.2022
3314 Clear 9 1021 72 10000 2.06 100 10:27 15.03.2022
3315 Clear 8 1021 77 10000 2.06 110 09:20 15.03.2022
3316 Clear 7 1022 78 10000 2.57 110 08:21 15.03.2022
3317 Clear 6 1022 81 10000 2.06 120 07:36 15.03.2022
3318 Clear 6 1023 83 10000 1.54 100 05:56 15.03.2022
3319 Clear 6 1024 84 10000 1.54 70 00:31 15.03.2022
3320 Clear 7 1025 81 10000 0.51 0 23:29 14.03.2022
3321 Clear 7 1025 80 10000 1.03 0 22:49 14.03.2022
3322 Clear 7 1024 79 10000 0.51 0 21:53 14.03.2022
3323 Clear 8 1024 76 10000 1.03 0 20:55 14.03.2022
3324 Clear 8 1024 74 10000 1.03 80 20:24 14.03.2022
3325 Clear 10 1024 66 10000 1.03 0 19:32 14.03.2022
3326 Clouds 13 1023 55 10000 3.6 280 17:58 14.03.2022
3327 Clouds 13 1023 54 10000 3.09 300 17:40 14.03.2022
3328 Clouds 13 1027 59 10000 4.63 290 16:33 14.03.2022
3329 Clouds 13 1022 57 10000 5.14 290 14:48 14.03.2022
3330 Clouds 12 1026 64 10000 6.17 250 13:57 14.03.2022
3331 Clouds 11 1025 78 10000 3.6 220 11:26 14.03.2022
3332 Clouds 9 1024 90 10000 3.09 210 09:57 14.03.2022
3333 Clouds 9 1024 92 10000 2.57 180 09:35 14.03.2022
3334 Clouds 9 1019 94 10000 2.57 180 08:58 14.03.2022
3335 Clouds 9 1019 94 10000 2.06 170 08:28 14.03.2022
3336 Clouds 8 1018 94 10000 3.6 190 06:47 14.03.2022
3337 Rain 10 1015 84 10000 3.09 170 03:27 14.03.2022
3338 Clouds 10 1013 71 10000 1.03 0 01:39 14.03.2022
3339 Clear 11 1013 69 10000 0.51 0 00:29 14.03.2022
3340 Clear 12 1012 58 10000 1.54 200 21:51 13.03.2022
3341 Clear 12 1016 58 10000 1.54 200 21:22 13.03.2022
3342 Clear 13 1015 55 10000 1.03 0 20:46 13.03.2022
3343 Clear 13 1015 51 10000 2.06 170 20:22 13.03.2022
3344 Clear 13 1015 50 10000 2.06 180 19:42 13.03.2022
3345 Clear 14 1014 48 10000 4.12 150 19:22 13.03.2022
3346 Clear 15 1014 39 10000 4.63 130 18:45 13.03.2022
3347 Clear 15 1009 35 10000 3.09 120 18:26 13.03.2022
3348 Clear 16 1014 37 10000 4.12 130 17:38 13.03.2022
3349 Clear 17 1013 36 10000 4.63 130 16:46 13.03.2022
3350 Clear 17 1008 33 10000 5.66 130 16:25 13.03.2022
3351 Clear 18 1013 36 10000 6.17 140 15:42 13.03.2022
3352 Clear 17 1013 35 10000 6.17 140 14:41 13.03.2022
3353 Clear 16 1014 37 10000 5.66 130 13:29 13.03.2022
3354 Clear 14 1015 36 10000 4.12 110 12:25 13.03.2022
3355 Clear 13 1015 37 10000 4.63 130 11:44 13.03.2022
3356 Clear 11 1011 33 10000 4.63 130 10:50 13.03.2022
3357 Clear 10 1011 33 10000 4.63 140 10:29 13.03.2022
3358 Clear 9 1011 34 10000 3.6 120 09:42 13.03.2022
3359 Clear 8 1011 38 10000 4.12 110 08:50 13.03.2022
3360 Clear 7 1011 38 10000 4.12 120 08:31 13.03.2022
3361 Clear 7 1011 40 10000 4.12 110 07:34 13.03.2022
3362 Clear 6 1011 48 10000 3.6 110 04:59 13.03.2022
3363 Clear 8 1012 62 10000 2.06 100 01:48 13.03.2022
3364 Clear 9 1013 62 10000 2.06 100 23:28 12.03.2022
3365 Clear 10 1012 59 10000 3.6 130 21:43 12.03.2022
3366 Clear 11 1013 57 10000 3.6 130 20:20 12.03.2022
3367 Clouds 12 1009 54 10000 0.89 123 19:46 12.03.2022
3368 Clouds 13 1012 49 10000 5.14 140 18:44 12.03.2022
3369 Clouds 13 1012 49 10000 5.66 140 18:19 12.03.2022
3370 Clouds 15 1018 49 10000 5.66 160 16:32 12.03.2022
3371 Clouds 15 1018 50 10000 6.17 160 15:52 12.03.2022
3372 Clouds 15 1018 50 10000 5.14 140 15:22 12.03.2022
3373 Clouds 15 1013 48 10000 3.6 170 13:54 12.03.2022
3374 Clouds 14 1019 56 10000 4.12 180 12:33 12.03.2022
3375 Clouds 13 1019 58 10000 4.63 180 11:55 12.03.2022
3376 Clouds 13 1019 58 10000 4.63 180 11:34 12.03.2022
3377 Clear 12 1018 55 10000 5.14 150 10:32 12.03.2022
3378 Clear 11 1018 54 10000 5.66 140 09:44 12.03.2022
3379 Clouds 9 1013 47 10000 3.09 130 08:24 12.03.2022
3380 Clouds 8 1013 39 10000 6.17 130 06:44 12.03.2022
3381 Clear 10 1011 29 10000 6.69 130 01:44 12.03.2022
3382 Clear 10 1011 23 10000 4.63 130 23:46 11.03.2022
3383 Clear 10 1011 28 10000 5.66 120 22:36 11.03.2022
3384 Clear 10 1011 32 10000 4.12 120 21:26 11.03.2022
3385 Clear 11 1011 32 10000 5.14 120 20:51 11.03.2022
3386 Clear 11 1011 33 10000 5.66 120 20:28 11.03.2022
3387 Clear 11 1011 34 10000 4.63 120 19:36 11.03.2022
3388 Clear 12 1010 33 10000 6.69 130 18:43 11.03.2022
3389 Clear 13 1010 31 10000 8.23 130 17:26 11.03.2022
3390 Clear 14 1009 30 10000 8.23 130 16:27 11.03.2022
3391 Clear 14 1015 34 10000 8.23 120 15:52 11.03.2022
3392 Clear 13 1016 36 10000 8.23 120 14:18 11.03.2022
3393 Clear 11 1017 39 10000 6.17 130 12:43 11.03.2022
3394 Clear 11 1017 41 10000 6.69 130 12:20 11.03.2022
3395 Clear 9 1018 44 10000 6.69 120 11:40 11.03.2022
3396 Clear 8 1014 45 10000 6.17 130 09:39 11.03.2022
3397 Clear 6 1014 51 10000 4.63 120 08:40 11.03.2022
3398 Clear 5 1014 53 10000 5.66 120 07:49 11.03.2022
3399 Clear 5 1014 53 10000 5.66 120 07:28 11.03.2022
3400 Clear 6 1014 48 10000 5.14 120 05:42 11.03.2022
3401 Clear 7 1015 40 10000 3.6 100 02:56 11.03.2022
3402 Clear 9 1016 37 10000 3.6 100 22:56 10.03.2022
3403 Clear 9 1016 33 10000 3.6 100 22:28 10.03.2022
3404 Clear 10 1016 33 10000 2.57 100 21:27 10.03.2022
3405 Clear 10 1017 29 10000 2.06 100 20:49 10.03.2022
3406 Clear 12 1021 28 10000 3.6 120 19:23 10.03.2022
3407 Clear 13 1021 28 10000 4.12 110 18:40 10.03.2022
3408 Clear 16 1022 25 10000 6.17 140 16:54 10.03.2022
3409 Clear 16 1022 27 10000 4.63 130 15:49 10.03.2022
3410 Clear 16 1023 27 10000 4.63 140 14:24 10.03.2022
3411 Clear 15 1024 28 10000 7.2 140 12:53 10.03.2022
3412 Clear 13 1025 34 10000 6.17 130 11:42 10.03.2022
3413 Clear 10 1025 38 10000 6.17 140 10:50 10.03.2022
3414 Clear 5 1021 51 10000 1.54 110 08:55 10.03.2022
3415 Clear 1 1025 69 10000 1.03 0 06:58 10.03.2022
3416 Clear 3 1024 57 10000 2.06 100 03:52 10.03.2022
3417 Clear 4 1025 52 10000 2.06 100 01:40 10.03.2022
3418 Clear 5 1024 41 10000 2.57 110 22:46 09.03.2022
3419 Clear 6 1024 37 10000 3.09 120 21:49 09.03.2022
3420 Clear 7 1023 35 10000 2.57 130 21:24 09.03.2022
3421 Clear 9 1023 34 10000 2.57 100 19:42 09.03.2022
3422 Clear 11 1022 27 10000 3.09 120 18:25 09.03.2022
3423 Clear 13 1022 25 10000 5.14 150 17:26 09.03.2022
3424 Clear 14 1022 24 10000 5.14 150 16:30 09.03.2022
3425 Clear 14 1023 24 10000 4.12 150 14:56 09.03.2022
3426 Clear 13 1023 27 10000 4.63 130 13:52 09.03.2022
3427 Clear 12 1023 31 10000 4.63 160 12:39 09.03.2022
3428 Clear 11 1024 35 10000 5.66 140 11:53 09.03.2022
3429 Clear 10 1024 37 10000 5.66 140 11:35 09.03.2022
3430 Clear 6 1024 44 10000 5.66 130 09:50 09.03.2022
3431 Clear 3 1023 51 10000 3.09 110 08:49 09.03.2022
3432 Clear 1 1023 57 10000 2.57 100 07:27 09.03.2022
3433 Clear 2 1019 51 10000 3.6 100 01:54 09.03.2022
3434 Clear 3 1018 49 10000 2.57 100 00:28 09.03.2022
3435 Clear 3 1018 42 10000 2.06 100 22:47 08.03.2022
3436 Clear 5 1017 41 10000 2.57 100 21:55 08.03.2022
3437 Clear 5 1017 39 10000 2.57 90 21:22 08.03.2022
3438 Clear 6 1017 37 10000 3.09 120 20:29 08.03.2022
3439 Clear 7 1021 36 10000 3.6 120 19:31 08.03.2022
3440 Clear 8 1021 34 10000 3.6 120 18:44 08.03.2022
3441 Clear 10 1016 30 10000 5.66 140 17:26 08.03.2022
3442 Clear 11 1021 31 10000 8.23 150 15:19 08.03.2022
3443 Clear 10 1021 32 10000 8.75 150 14:18 08.03.2022
3444 Clear 9 1022 36 10000 10.29 140 12:43 08.03.2022
3445 Clear 8 1022 38 10000 11.32 150 11:45 08.03.2022
3446 Clear 6 1023 43 10000 8.75 140 10:41 08.03.2022
3447 Clear 5 1023 51 10000 4.63 120 09:37 08.03.2022
3448 Clear 1 1018 57 10000 3.09 90 06:43 08.03.2022
3449 Clear 1 1019 59 10000 2.57 80 04:47 08.03.2022
3450 Clear 2 1020 52 10000 1.03 120 23:36 07.03.2022
3451 Clear 2 1020 49 10000 1.54 100 21:54 07.03.2022
3452 Clear 3 1020 47 10000 2.06 90 21:31 07.03.2022
3453 Clear 4 1020 41 10000 1.54 110 20:44 07.03.2022
3454 Clear 4 1020 36 10000 2.06 110 19:55 07.03.2022
3455 Clear 5 1020 34 10000 2.57 110 19:31 07.03.2022
3456 Clear 6 1020 31 10000 3.09 120 18:42 07.03.2022
3457 Clear 7 1024 35 10000 3.6 90 17:48 07.03.2022
3458 Clear 8 1020 31 10000 4.63 100 16:55 07.03.2022
3459 Clear 8 1024 34 10000 5.66 100 15:35 07.03.2022
3460 Clouds 7 1025 41 10000 3.6 120 13:51 07.03.2022
3461 Clouds 5 1027 45 10000 4.63 80 12:27 07.03.2022
3462 Clouds 3 1027 52 10000 3.09 70 10:38 07.03.2022
3463 Clouds 0 1023 61 10000 2.57 60 08:57 07.03.2022
3464 Clouds -2 1022 65 10000 2.06 100 04:43 07.03.2022
3465 Clear 0 1022 56 10000 1.54 50 00:22 07.03.2022
3466 Clear 0 1022 55 10000 2.06 50 23:35 06.03.2022
3467 Clear 1 1022 53 10000 2.06 60 22:42 06.03.2022
3468 Clear 1 1022 53 10000 2.57 30 21:58 06.03.2022
3469 Clear 2 1021 53 10000 3.6 40 20:49 06.03.2022
3470 Clear 3 1021 51 10000 3.09 30 20:22 06.03.2022
3471 Clear 3 1024 50 10000 4.12 30 19:21 06.03.2022
3472 Clear 5 1020 43 10000 6.69 40 18:23 06.03.2022
3473 Clear 6 1019 39 10000 6.69 30 17:21 06.03.2022
3474 Clear 7 1023 41 10000 5.66 30 16:42 06.03.2022
3475 Clear 8 1023 40 10000 4.12 30 15:54 06.03.2022
3476 Clear 8 1024 39 10000 4.12 50 14:49 06.03.2022
3477 Clear 7 1024 41 10000 2.06 40 14:31 06.03.2022
3478 Clouds 7 1024 46 10000 1.54 0 13:30 06.03.2022
3479 Clouds 6 1025 55 10000 2.06 300 12:35 06.03.2022
3480 Clear 5 1025 59 10000 2.06 290 11:18 06.03.2022
3481 Clear 3 1025 64 10000 1.03 0 10:28 06.03.2022
3482 Clear -1 1020 72 10000 1.03 0 08:30 06.03.2022
3483 Clear -1 1020 74 10000 0.51 0 07:45 06.03.2022
3484 Clear -1 1019 72 10000 0.51 0 06:19 06.03.2022
3485 Clear 1 1018 60 10000 1.03 0 00:55 06.03.2022
3486 Clear 1 1018 60 10000 1.03 0 00:33 06.03.2022
3487 Clear 1 1018 60 10000 1.03 0 00:33 06.03.2022
3488 Clear 2 1018 54 10000 2.57 90 23:26 05.03.2022
3489 Clear 3 1018 53 10000 1.54 90 22:57 05.03.2022
3490 Clear 3 1018 51 10000 1.54 100 22:23 05.03.2022
3491 Clear 3 1017 46 10000 2.57 120 21:23 05.03.2022
3492 Clear 5 1016 41 10000 2.06 100 19:53 05.03.2022
3493 Clear 6 1016 37 10000 2.06 90 18:56 05.03.2022
3494 Clear 8 1016 33 10000 2.57 100 18:34 05.03.2022
3495 Clear 9 1020 34 10000 4.12 180 16:57 05.03.2022
3496 Clear 10 1020 33 10000 4.12 140 15:43 05.03.2022
3497 Clear 10 1020 36 10000 3.6 150 14:52 05.03.2022
3498 Clear 10 1020 37 10000 3.6 150 14:34 05.03.2022
3499 Clear 9 1021 44 10000 5.14 140 13:34 05.03.2022
3500 Clear 7 1021 57 10000 5.66 140 11:55 05.03.2022
3501 Clear 6 1022 60 10000 6.17 150 11:20 05.03.2022
3502 Clear 4 1026 61 10000 5.14 140 10:23 05.03.2022
3503 Clear 2 1021 71 10000 3.6 120 09:28 05.03.2022
3504 Clear -1 1026 76 10000 3.6 120 07:59 05.03.2022
3505 Clear 0 1025 76 10000 2.06 110 05:47 05.03.2022
3506 Clear 0 1025 75 10000 2.06 100 04:38 05.03.2022
3507 Clear 3 1026 57 10000 2.57 110 23:39 04.03.2022
3508 Clear 3 1025 50 10000 2.06 120 22:44 04.03.2022
3509 Clear 4 1025 47 10000 3.09 120 22:23 04.03.2022
3510 Clear 4 1025 44 10000 3.09 120 21:39 04.03.2022
3511 Clear 5 1020 48 10000 3.6 120 20:32 04.03.2022
3512 Clear 6 1020 44 10000 2.57 140 19:36 04.03.2022
3513 Clear 7 1019 40 10000 1.54 160 18:47 04.03.2022
3514 Clear 8 1019 40 10000 2.06 170 18:27 04.03.2022
3515 Clear 11 1024 30 10000 1.03 0 17:29 04.03.2022
3516 Clear 11 1020 32 10000 2.57 70 15:48 04.03.2022
3517 Clear 11 1020 35 10000 2.06 110 14:45 04.03.2022
3518 Clear 10 1020 40 10000 2.06 0 13:34 04.03.2022
3519 Clear 8 1021 50 10000 2.57 130 11:59 04.03.2022
3520 Clear 7 1021 52 10000 2.57 130 11:28 04.03.2022
3521 Clear 5 1021 59 10000 3.6 110 10:23 04.03.2022
3522 Clear 2 1021 72 10000 2.57 110 09:27 04.03.2022
3523 Clear 0 1026 75 10000 2.06 150 07:47 04.03.2022
3524 Clear 0 1025 73 10000 2.06 140 05:44 04.03.2022
3525 Clear 2 1025 59 10000 1.54 110 01:23 04.03.2022
3526 Clear 4 1024 52 10000 3.09 80 23:31 03.03.2022
3527 Clear 5 1024 46 10000 3.09 70 22:18 03.03.2022
3528 Clear 5 1024 44 10000 2.57 90 21:36 03.03.2022
3529 Clear 6 1023 40 10000 2.57 100 20:32 03.03.2022
3530 Clear 8 1022 34 10000 1.54 120 19:22 03.03.2022
3531 Clear 11 1022 25 10000 1.54 100 18:25 03.03.2022
3532 Clear 12 1017 26 10000 3.09 70 17:31 03.03.2022
3533 Clear 13 1017 26 10000 3.09 130 16:41 03.03.2022
3534 Clear 13 1017 28 10000 3.09 90 15:44 03.03.2022
3535 Clear 12 1017 30 10000 3.09 100 14:44 03.03.2022
3536 Clear 12 1017 31 10000 3.09 0 14:26 03.03.2022
3537 Clear 10 1018 40 10000 4.12 150 12:35 03.03.2022
3538 Clear 8 1019 46 10000 4.12 150 11:26 03.03.2022
3539 Clear 7 1019 52 10000 4.63 110 10:38 03.03.2022
3540 Clear 2 1024 59 10000 3.09 110 08:43 03.03.2022
3541 Clear 0 1024 67 10000 1.03 0 06:58 03.03.2022
3542 Clear 0 1024 64 10000 1.54 90 05:44 03.03.2022
3543 Clear 3 1026 55 10000 3.09 90 00:30 03.03.2022
3544 Clear 3 1026 53 10000 2.06 90 23:28 02.03.2022
3545 Clear 4 1026 49 10000 1.54 110 22:44 02.03.2022
3546 Clear 5 1026 45 10000 2.06 110 21:23 02.03.2022
3547 Clear 5 1026 46 10000 2.06 110 21:23 02.03.2022
3548 Clear 6 1026 41 10000 3.09 130 20:30 02.03.2022
3549 Clear 6 1021 43 10000 3.09 140 19:45 02.03.2022
3550 Clear 7 1026 38 10000 2.06 140 19:26 02.03.2022
3551 Clear 8 1021 32 10000 1.54 150 18:39 02.03.2022
3552 Clear 8 1021 32 10000 1.54 150 18:39 02.03.2022
3553 Clear 8 1021 32 10000 1.54 150 18:39 02.03.2022
3554 Clear 8 1021 32 10000 1.54 150 18:39 02.03.2022
3555 Clear 10 1021 31 10000 2.06 70 17:45 02.03.2022
3556 Clear 11 1021 28 10000 3.6 60 16:59 02.03.2022
3557 Clear 12 1021 28 10000 3.6 60 16:41 02.03.2022
3558 Clear 12 1022 30 10000 3.09 70 14:42 02.03.2022
3559 Clear 11 1023 32 10000 3.6 70 13:24 02.03.2022
3560 Clear 10 1023 33 10000 2.57 120 12:41 02.03.2022
3561 Clear 9 1024 38 10000 3.6 150 11:40 02.03.2022
3562 Clear 9 1024 40 10000 2.57 160 11:21 02.03.2022
3563 Clear 5 1025 55 10000 1.54 80 09:41 02.03.2022
3564 Clear 3 1030 62 10000 1.54 160 08:52 02.03.2022
3565 Clear 3 1030 57 10000 1.54 110 07:28 02.03.2022
3566 Clear 3 1029 57 10000 1.54 120 06:40 02.03.2022
3567 Clear 4 1031 48 10000 2.06 100 01:32 02.03.2022
3568 Clear 5 1032 47 10000 2.06 70 23:49 01.03.2022
3569 Clear 5 1032 48 10000 2.57 80 22:45 01.03.2022
3570 Clear 5 1032 46 10000 2.06 100 21:58 01.03.2022
3571 Clear 5 1033 45 10000 2.06 110 21:24 01.03.2022
3572 Clear 6 1032 44 10000 2.57 120 20:30 01.03.2022
3573 Clear 7 1032 42 10000 3.09 120 19:44 01.03.2022
3574 Clear 8 1032 41 10000 2.57 110 18:50 01.03.2022
3575 Clear 8 1032 41 10000 2.06 110 18:21 01.03.2022
3576 Clear 9 1032 39 10000 3.09 120 17:30 01.03.2022
3577 Clear 10 1032 36 10000 3.6 140 16:35 01.03.2022
3578 Clear 10 1032 35 10000 3.6 130 15:42 01.03.2022
3579 Clear 10 1028 37 10000 2.06 140 14:41 01.03.2022
3580 Clear 10 1029 38 10000 2.57 130 14:23 01.03.2022
3581 Clear 9 1034 36 10000 0.45 165 13:25 01.03.2022
3582 Clear 8 1034 39 10000 4.12 150 12:34 01.03.2022
3583 Clear 6 1034 47 10000 5.66 140 10:37 01.03.2022
3584 Clear 4 1034 53 10000 4.63 130 09:18 01.03.2022
3585 Clear 2 1034 60 10000 3.09 120 07:54 01.03.2022
3586 Clear 2 1034 62 10000 3.09 120 06:27 01.03.2022
3587 Clear 2 1034 58 10000 1.54 110 02:45 01.03.2022
3588 Clear 4 1034 57 10000 2.06 90 00:39 01.03.2022
3589 Clear 4 1034 55 10000 1.03 0 23:33 28.02.2022
3590 Clear 5 1034 51 10000 2.06 100 22:28 28.02.2022
3591 Clear 6 1035 49 10000 2.06 130 21:41 28.02.2022
3592 Clear 6 1034 42 10000 4.12 130 20:32 28.02.2022
3593 Clear 7 1029 44 10000 3.6 120 19:42 28.02.2022
3594 Clear 8 1034 37 10000 3.6 130 18:49 28.02.2022
3595 Clear 10 1030 38 10000 3.6 130 17:33 28.02.2022
3596 Clear 11 1034 34 10000 5.14 130 16:54 28.02.2022
3597 Clear 11 1030 38 10000 4.63 130 15:59 28.02.2022
3598 Clear 11 1031 38 10000 4.12 140 14:32 28.02.2022
3599 Clear 11 1031 40 10000 4.63 130 13:52 28.02.2022
3600 Clear 11 1031 40 10000 4.63 130 13:52 28.02.2022
3601 Clear 10 1031 41 10000 6.17 140 13:18 28.02.2022
3602 Clear 8 1032 47 10000 6.69 140 11:59 28.02.2022
3603 Clear 7 1032 52 10000 5.14 140 11:19 28.02.2022
3604 Clear 5 1031 57 10000 4.63 150 10:22 28.02.2022
3605 Clear 4 1032 64 10000 2.57 140 09:44 28.02.2022
3606 Clear 2 1041 69 10000 0.45 327 08:54 28.02.2022
3607 Clear 0 1036 72 10000 1.54 140 07:59 28.02.2022
3608 Clear 1 1036 68 10000 1.54 110 05:54 28.02.2022
3609 Clear 2 1036 65 10000 3.09 100 04:30 28.02.2022
3610 Clear 3 1036 64 10000 3.09 110 00:53 28.02.2022
3611 Clear 4 1037 59 10000 3.6 100 22:53 27.02.2022
3612 Clear 4 1036 59 10000 3.09 110 22:32 27.02.2022
3613 Clear 5 1036 56 10000 2.57 120 21:42 27.02.2022
3614 Clear 6 1036 53 10000 4.12 120 20:50 27.02.2022
3615 Clear 6 1036 53 10000 3.6 120 20:18 27.02.2022
3616 Clear 6 1036 52 10000 3.6 120 19:49 27.02.2022
3617 Clear 6 1036 51 10000 3.6 120 19:22 27.02.2022
3618 Clear 7 1036 48 10000 4.12 120 18:37 27.02.2022
3619 Clear 8 1036 44 10000 5.14 130 17:52 27.02.2022
3620 Clear 10 1031 45 10000 5.66 130 16:30 27.02.2022
3621 Clear 10 1031 41 10000 5.66 130 15:24 27.02.2022
3622 Clouds 8 1032 51 10000 9.77 140 12:43 27.02.2022
3623 Clouds 8 1032 51 10000 9.77 140 12:25 27.02.2022
3624 Clear 5 1032 62 10000 5.66 130 10:37 27.02.2022
3625 Clear 4 1037 67 10000 3.09 110 09:58 27.02.2022
3626 Clear 3 1032 73 10000 3.6 100 09:24 27.02.2022
3627 Clear 2 1037 77 10000 3.6 100 08:51 27.02.2022
3628 Clear 0 1037 82 10000 2.06 90 06:42 27.02.2022
3629 Clear 1 1037 81 10000 2.57 90 04:26 27.02.2022
3630 Clear 1 1038 80 10000 2.57 90 00:34 27.02.2022
3631 Clear 2 1038 81 10000 1.03 0 22:50 26.02.2022
3632 Clear 2 1038 78 10000 3.09 70 21:38 26.02.2022
3633 Clear 3 1038 77 10000 2.06 80 20:48 26.02.2022
3634 Clear 4 1038 72 10000 2.06 100 19:59 26.02.2022
3635 Clear 4 1038 71 10000 2.06 100 19:59 26.02.2022
3636 Clear 4 1038 70 10000 2.06 100 19:37 26.02.2022
3637 Clear 6 1038 65 10000 1.54 110 18:46 26.02.2022
3638 Clear 7 1038 59 10000 3.09 130 17:42 26.02.2022
3639 Clouds 8 1038 56 10000 2.57 80 16:48 26.02.2022
3640 Clouds 8 1034 58 10000 2.57 0 15:49 26.02.2022
3641 Clouds 8 1034 58 10000 0.51 0 15:22 26.02.2022
3642 Clouds 8 1035 60 10000 3.09 130 14:53 26.02.2022
3643 Clouds 8 1035 62 10000 3.09 100 14:33 26.02.2022
3644 Clouds 6 1035 73 10000 1.03 0 13:19 26.02.2022
3645 Clouds 5 1036 81 10000 2.57 40 12:23 26.02.2022
3646 Clouds 4 1036 85 9000 1.54 100 11:28 26.02.2022
3647 Clouds 4 1036 88 8000 1.54 100 10:40 26.02.2022
3648 Mist 2 1040 94 4500 0.51 0 08:53 26.02.2022
3649 Clouds 1 1038 94 8000 2.06 60 06:51 26.02.2022
3650 Clear 2 1037 90 10000 0.51 0 00:56 26.02.2022
3651 Clouds 3 1030 86 10000 3.09 320 22:55 25.02.2022
3652 Clouds 4 1029 84 10000 2.57 320 21:43 25.02.2022
3653 Clouds 4 1029 84 10000 2.57 330 21:25 25.02.2022
3654 Clouds 4 1033 84 10000 2.06 310 20:33 25.02.2022
3655 Clouds 5 1032 83 10000 5.14 310 19:18 25.02.2022
3656 Clouds 6 1030 83 10000 3.09 260 17:30 25.02.2022
3657 Clouds 6 1033 84 10000 0.45 164 16:35 25.02.2022
3658 Clouds 6 1029 84 10000 5.66 270 15:48 25.02.2022
3659 Rain 6 1028 83 10000 7.2 310 15:22 25.02.2022
3660 Rain 6 1028 76 9000 9.77 270 14:42 25.02.2022
3661 Clouds 7 1022 69 10000 8.23 260 13:58 25.02.2022
3662 Clouds 7 1027 70 10000 9.26 270 13:20 25.02.2022
3663 Clouds 5 1027 78 10000 9.26 260 11:28 25.02.2022
3664 Clouds 5 1026 79 10000 8.75 260 10:48 25.02.2022
3665 Clouds 5 1026 78 10000 5.66 230 10:22 25.02.2022
3666 Clouds 4 1026 78 10000 4.63 190 09:31 25.02.2022
3667 Clouds 3 1029 80 10000 5.37 244 07:44 25.02.2022
3668 Clear 2 1024 82 10000 3.6 210 06:19 25.02.2022
3669 Clear 2 1024 81 10000 3.09 210 05:36 25.02.2022
3670 Clouds 3 1022 84 10000 5.66 280 00:31 25.02.2022
3671 Clouds 3 1024 91 10000 2.24 268 22:29 24.02.2022
3672 Clouds 3 1019 92 8000 7.2 290 21:43 24.02.2022
3673 Clouds 3 1023 90 10000 0.45 28 21:43 24.02.2022
3674 Clouds 3 1019 87 10000 3.09 230 21:21 24.02.2022
3675 Clouds 4 1018 85 10000 3.6 270 20:42 24.02.2022
3676 Clouds 5 1017 86 10000 4.63 250 19:29 24.02.2022
3677 Rain 4 1016 87 10000 5.66 250 18:20 24.02.2022
3678 Clouds 4 1016 89 10000 8.23 280 17:51 24.02.2022
3679 Clouds 5 1015 88 5000 13.38 300 17:18 24.02.2022
3680 Clouds 11 1011 56 10000 9.77 220 16:25 24.02.2022
3681 Clouds 12 1008 56 10000 8.75 240 15:41 24.02.2022
3682 Clouds 11 1008 59 10000 9.77 250 14:44 24.02.2022
3683 Clouds 11 1014 67 10000 6.69 200 13:56 24.02.2022
3684 Clouds 11 1014 72 10000 6.69 210 13:35 24.02.2022
3685 Clouds 9 1016 74 10000 3.09 160 11:32 24.02.2022
3686 Clear 9 1017 70 10000 3.09 190 10:31 24.02.2022
3687 Clear 8 1014 75 10000 3.6 180 08:43 24.02.2022
3688 Clouds 8 1019 69 10000 3.6 190 06:45 24.02.2022
3689 Clouds 8 1020 69 10000 4.63 180 05:40 24.02.2022
3690 Clear 8 1020 68 10000 4.63 170 00:31 24.02.2022
3691 Clear 8 1021 66 10000 3.6 140 22:22 23.02.2022
3692 Clear 8 1022 66 10000 3.6 190 20:45 23.02.2022
3693 Clear 8 1027 60 10000 2.57 170 20:26 23.02.2022
3694 Clouds 8 1027 59 10000 3.6 190 19:35 23.02.2022
3695 Clouds 10 1022 57 10000 4.12 210 18:26 23.02.2022
3696 Clouds 12 1024 53 10000 4.63 170 16:28 23.02.2022
3697 Clouds 12 1026 56 10000 6.17 270 13:58 23.02.2022
3698 Clouds 11 1027 64 10000 5.14 230 12:36 23.02.2022
3699 Clouds 9 1027 74 10000 3.09 220 11:23 23.02.2022
3700 Clear 7 1027 83 10000 2.06 180 10:23 23.02.2022
3701 Clear 4 1032 89 10000 1.54 140 08:55 23.02.2022
3702 Fog 4 1031 89 10000 1.03 0 07:55 23.02.2022
3703 Clear 6 1023 83 10000 4.12 280 03:29 23.02.2022
3704 Clear 7 1021 84 10000 1.54 260 00:18 23.02.2022
3705 Clouds 7 1026 82 10000 4.12 290 23:34 22.02.2022
3706 Clouds 8 1024 83 10000 5.14 320 22:28 22.02.2022
3707 Clouds 8 1023 84 10000 11.32 330 21:48 22.02.2022
3708 Clouds 9 1022 85 10000 9.26 260 21:24 22.02.2022
3709 Clouds 10 1021 88 10000 9.77 260 20:49 22.02.2022
3710 Clouds 10 1020 85 10000 9.26 240 20:29 22.02.2022
3711 Clouds 10 1020 83 10000 8.23 250 19:34 22.02.2022
3712 Clouds 10 1020 80 10000 6.17 230 18:58 22.02.2022
3713 Clouds 10 1021 79 10000 5.66 210 17:36 22.02.2022
3714 Clouds 10 1020 80 10000 6.17 220 17:18 22.02.2022
3715 Clouds 9 1021 81 10000 6.17 210 16:36 22.02.2022
3716 Clouds 9 1021 86 10000 5.14 220 15:37 22.02.2022
3717 Clouds 9 1022 81 8000 4.63 220 14:43 22.02.2022
3718 Clouds 9 1019 73 10000 3.6 200 11:54 22.02.2022
3719 Clouds 7 1020 85 10000 3.09 210 10:28 22.02.2022
3720 Clouds 4 1025 87 10000 3.6 270 07:48 22.02.2022
3721 Clouds 4 1025 86 10000 4.63 270 07:25 22.02.2022
3722 Clouds 6 1022 78 10000 7.2 290 02:52 22.02.2022
3723 Clouds 6 1021 76 10000 7.72 290 00:48 22.02.2022
3724 Clouds 7 1018 80 10000 10.29 290 22:41 21.02.2022
3725 Clouds 7 1016 81 10000 8.75 280 21:30 21.02.2022
3726 Clouds 7 1015 78 10000 7.72 280 20:34 21.02.2022
3727 Clouds 7 1012 72 10000 12.35 300 18:42 21.02.2022
3728 Clouds 7 1007 84 10000 11.32 290 16:50 21.02.2022
3729 Clouds 6 1004 83 10000 11.32 250 14:52 21.02.2022
3730 Clouds 6 1004 83 10000 10.29 240 14:21 21.02.2022
3731 Clouds 6 1005 76 10000 12.86 250 12:59 21.02.2022
3732 Clouds 6 1006 71 10000 11.32 240 12:23 21.02.2022
3733 Clouds 6 1002 62 10000 10.8 250 10:51 21.02.2022
3734 Clouds 5 1007 63 10000 9.77 250 09:30 21.02.2022
3735 Clouds 5 1007 63 10000 9.77 250 09:30 21.02.2022
3736 Clouds 6 1005 82 10000 10.8 270 02:58 21.02.2022
3737 Clouds 11 997 76 10000 11.32 220 23:32 20.02.2022
3738 Rain 11 999 73 10000 10.29 220 22:20 20.02.2022
3739 Clouds 12 1004 70 10000 8.23 220 21:42 20.02.2022
3740 Clouds 11 1006 74 10000 9.26 220 20:53 20.02.2022
3741 Clouds 11 1006 74 10000 8.75 220 20:23 20.02.2022
3742 Clouds 11 1004 77 10000 8.23 230 19:30 20.02.2022
3743 Clouds 11 1009 81 10000 7.72 220 18:49 20.02.2022
3744 Clouds 10 1005 84 10000 7.2 220 18:31 20.02.2022
3745 Rain 10 1009 82 10000 7.2 220 17:47 20.02.2022
3746 Clouds 11 1012 77 10000 7.2 230 15:31 20.02.2022
3747 Clouds 11 1013 76 10000 7.72 230 14:41 20.02.2022
3748 Clouds 11 1014 76 10000 7.72 230 13:23 20.02.2022
3749 Clouds 10 1010 80 10000 7.72 230 12:22 20.02.2022
3750 Clouds 9 1015 89 10000 5.66 210 10:21 20.02.2022
3751 Rain 8 1015 90 10000 5.14 190 09:53 20.02.2022
3752 Clouds 6 1016 83 10000 4.12 150 07:45 20.02.2022
3753 Clouds 8 1013 75 10000 2.24 248 00:54 20.02.2022
3754 Clouds 7 1013 75 10000 11.83 230 00:29 20.02.2022
3755 Clouds 6 1013 72 10000 8.23 210 22:44 19.02.2022
3756 Clouds 6 1014 72 10000 7.2 210 22:21 19.02.2022
3757 Clouds 6 1015 64 10000 8.75 190 20:51 19.02.2022
3758 Clear 7 1016 55 10000 6.69 200 19:48 19.02.2022
3759 Clear 7 1017 55 10000 5.14 190 19:25 19.02.2022
3760 Clouds 8 1018 55 10000 5.66 210 18:32 19.02.2022
3761 Clouds 8 1014 56 10000 5.14 210 17:33 19.02.2022
3762 Clouds 8 1015 52 10000 8.23 230 16:22 19.02.2022
3763 Clouds 9 1015 48 10000 9.77 250 14:56 19.02.2022
3764 Clouds 9 1015 51 10000 9.77 250 14:37 19.02.2022
3765 Clouds 8 1016 50 10000 9.77 260 12:50 19.02.2022
3766 Clouds 8 1016 59 10000 10.29 250 11:37 19.02.2022
3767 Clouds 6 1015 64 10000 9.26 250 09:45 19.02.2022
3768 Clouds 5 1017 59 10000 11.32 260 06:54 19.02.2022
3769 Clouds 6 1013 60 10000 12.35 260 02:52 19.02.2022
3770 Clear 8 1009 52 10000 14.92 250 23:28 18.02.2022
3771 Clouds 8 1007 50 10000 13.38 260 21:49 18.02.2022
3772 Clouds 9 1006 50 10000 13.89 260 20:42 18.02.2022
3773 Clouds 10 1005 46 10000 15.95 270 19:52 18.02.2022
3774 Clouds 10 1003 46 10000 15.43 240 18:50 18.02.2022
3775 Clouds 11 1001 52 10000 15.95 240 18:20 18.02.2022
3776 Clouds 11 1001 55 10000 18.01 250 17:38 18.02.2022
3777 Clouds 14 1000 68 10000 10.8 220 14:50 18.02.2022
3778 Clouds 14 1000 68 10000 10.8 220 14:50 18.02.2022
3779 Clouds 14 1002 68 10000 10.29 220 13:55 18.02.2022
3780 Clouds 13 1003 72 10000 7.72 210 12:53 18.02.2022
3781 Clouds 13 1004 76 10000 6.17 200 12:32 18.02.2022
3782 Clouds 11 1005 83 10000 4.63 160 11:22 18.02.2022
3783 Rain 10 1007 83 10000 5.14 170 10:23 18.02.2022
3784 Clear 8 1012 75 10000 5.14 150 06:56 18.02.2022
3785 Clear 8 1014 77 10000 4.63 160 05:39 18.02.2022
3786 Clouds 7 1017 79 10000 5.66 250 23:31 17.02.2022
3787 Clear 9 1017 58 10000 5.66 230 21:45 17.02.2022
3788 Clear 9 1017 59 10000 4.12 220 21:19 17.02.2022
3789 Clouds 9 1017 55 10000 3.09 240 20:37 17.02.2022
3790 Clouds 9 1017 49 10000 7.2 290 19:48 17.02.2022
3791 Clouds 9 1017 54 10000 8.23 290 18:44 17.02.2022
3792 Clouds 10 1015 51 10000 10.8 280 17:50 17.02.2022
3793 Clouds 11 1014 51 10000 12.35 280 16:29 17.02.2022
3794 Clouds 11 1008 58 10000 11.83 270 15:38 17.02.2022
3795 Clouds 11 1007 53 10000 11.83 280 14:26 17.02.2022
3796 Clouds 11 1012 46 10000 12.86 280 12:38 17.02.2022
3797 Clouds 11 1005 61 10000 11.83 280 11:23 17.02.2022
3798 Clouds 11 1005 61 10000 11.83 280 11:23 17.02.2022
3799 Clouds 10 1008 72 10000 11.83 280 08:52 17.02.2022
3800 Clouds 13 1000 81 10000 12.86 260 02:26 17.02.2022
3801 Clouds 14 995 82 10000 11.32 250 23:21 16.02.2022
3802 Rain 14 1000 85 10000 10.29 230 21:40 16.02.2022
3803 Clouds 13 1001 80 10000 7.2 230 19:57 16.02.2022
3804 Clouds 13 1002 79 10000 5.14 220 18:39 16.02.2022
3805 Clouds 13 1003 71 10000 9.26 250 17:53 16.02.2022
3806 Clouds 14 1004 75 10000 7.2 260 15:40 16.02.2022
3807 Clouds 14 1003 73 10000 6.69 260 15:19 16.02.2022
3808 Clouds 13 1004 79 10000 5.66 230 13:28 16.02.2022
3809 Clouds 12 1005 81 10000 6.69 230 12:19 16.02.2022
3810 Clouds 11 1004 81 10000 7.2 240 11:28 16.02.2022
3811 Clouds 11 1004 82 10000 7.2 220 10:34 16.02.2022
3812 Rain 10 1005 82 10000 5.66 180 08:20 16.02.2022
3813 Rain 9 1007 86 10000 5.66 180 06:29 16.02.2022
3814 Clouds 8 1012 80 10000 5.66 200 23:45 15.02.2022
3815 Clouds 8 1009 78 10000 6.69 200 22:30 15.02.2022
3816 Clouds 8 1009 75 10000 6.69 200 21:47 15.02.2022
3817 Clouds 8 1010 73 10000 6.69 200 21:27 15.02.2022
3818 Clouds 8 1010 69 10000 6.69 200 20:56 15.02.2022
3819 Clouds 9 1015 61 10000 5.66 190 19:59 15.02.2022
3820 Clouds 9 1015 59 10000 5.66 190 19:21 15.02.2022
3821 Clear 9 1015 56 10000 6.17 210 18:23 15.02.2022
3822 Clear 9 1015 55 10000 5.14 200 17:50 15.02.2022
3823 Clouds 9 1011 55 10000 4.63 210 17:19 15.02.2022
3824 Clouds 10 1012 54 10000 7.2 230 15:30 15.02.2022
3825 Clouds 9 1013 66 10000 6.17 250 13:28 15.02.2022
3826 Clouds 8 1013 72 10000 5.66 260 12:53 15.02.2022
3827 Clouds 7 1013 79 10000 6.69 250 11:40 15.02.2022
3828 Clouds 7 1017 84 10000 4.12 240 09:52 15.02.2022
3829 Clouds 6 1015 83 10000 4.63 270 06:59 15.02.2022
3830 Clouds 7 1014 80 10000 3.6 270 05:32 15.02.2022
3831 Clear 7 1012 76 10000 4.12 200 23:34 14.02.2022
3832 Clear 7 1011 72 10000 4.12 200 21:55 14.02.2022
3833 Clear 7 1006 76 10000 3.6 200 20:51 14.02.2022
3834 Clouds 8 1006 71 10000 3.09 200 19:45 14.02.2022
3835 Clouds 8 1006 71 10000 3.09 200 19:45 14.02.2022
3836 Clouds 9 1005 69 10000 3.6 190 19:26 14.02.2022
3837 Clouds 10 1004 64 10000 3.6 220 18:23 14.02.2022
3838 Clouds 11 1009 57 10000 6.69 230 17:27 14.02.2022
3839 Clouds 11 1009 53 10000 6.69 230 16:26 14.02.2022
3840 Clouds 12 1003 59 10000 8.75 260 14:43 14.02.2022
3841 Clouds 12 1008 62 10000 7.2 250 13:34 14.02.2022
3842 Clouds 11 1008 65 10000 8.23 250 12:58 14.02.2022
3843 Clouds 11 1002 72 10000 8.23 210 11:56 14.02.2022
3844 Clouds 11 1002 71 10000 8.23 210 11:37 14.02.2022
3845 Clouds 11 1006 70 10000 6.17 180 09:37 14.02.2022
3846 Clear 9 1006 68 10000 7.2 160 07:37 14.02.2022
3847 Clear 9 1006 67 10000 1.34 272 07:19 14.02.2022
3848 Clear 8 1011 63 10000 6.69 140 22:48 13.02.2022
3849 Clear 8 1011 63 10000 6.69 140 22:29 13.02.2022
3850 Clear 8 1011 63 10000 6.17 140 21:48 13.02.2022
3851 Clear 8 1012 63 10000 7.2 130 21:20 13.02.2022
3852 Clear 8 1012 62 10000 5.14 140 20:27 13.02.2022
3853 Clear 9 1013 62 10000 0.89 95 18:58 13.02.2022
3854 Clear 9 1013 62 10000 6.17 140 18:40 13.02.2022
3855 Clear 10 1014 57 10000 7.2 160 17:22 13.02.2022
3856 Clear 11 1011 58 10000 6.69 170 15:51 13.02.2022
3857 Clear 11 1012 55 10000 6.69 180 14:50 13.02.2022
3858 Clear 10 1018 47 10000 5.14 160 13:29 13.02.2022
3859 Clouds 9 1015 55 10000 5.66 160 12:42 13.02.2022
3860 Clear 5 1021 57 10000 3.6 140 10:44 13.02.2022
3861 Clear 4 1021 64 10000 4.12 130 10:25 13.02.2022
3862 Clear 1 1022 73 10000 4.63 120 08:57 13.02.2022
3863 Clear 1 1025 74 10000 3.09 110 02:50 13.02.2022
3864 Clear 2 1026 72 10000 2.57 130 00:33 13.02.2022
3865 Clear 2 1027 73 10000 2.57 120 22:56 12.02.2022
3866 Clear 2 1027 72 10000 3.6 130 22:32 12.02.2022
3867 Clear 3 1028 67 10000 2.57 110 21:18 12.02.2022
3868 Clear 3 1028 63 10000 3.6 130 20:25 12.02.2022
3869 Clear 4 1029 57 10000 5.66 150 18:54 12.02.2022
3870 Clear 5 1024 59 10000 5.66 140 18:36 12.02.2022
3871 Clear 6 1029 54 10000 5.14 150 17:55 12.02.2022
3872 Clear 7 1029 52 10000 5.66 140 16:54 12.02.2022
3873 Clear 7 1030 51 10000 5.14 140 16:18 12.02.2022
3874 Clear 7 1026 54 10000 5.14 150 15:32 12.02.2022
3875 Clear 7 1032 51 10000 7.72 180 14:30 12.02.2022
3876 Clear 5 1029 63 10000 5.14 150 12:55 12.02.2022
3877 Clear 2 1036 76 10000 4.63 140 10:35 12.02.2022
3878 Clear 0 1036 81 10000 3.09 130 09:38 12.02.2022
3879 Clear -1 1037 86 10000 2.06 120 08:48 12.02.2022
3880 Clear -2 1037 86 10000 1.03 0 07:50 12.02.2022
3881 Clear -1 1038 83 10000 0.51 0 05:33 12.02.2022
3882 Clear -1 1042 83 10000 1.7 140 03:32 12.02.2022
3883 Clear 0 1043 82 10000 1.62 147 02:18 12.02.2022
3884 Clear 1 1040 71 10000 0.51 0 22:28 11.02.2022
3885 Clear 1 1039 70 10000 1.03 0 21:47 11.02.2022
3886 Clear 3 1039 62 10000 0.51 0 20:39 11.02.2022
3887 Clear 3 1033 62 10000 1.54 10 19:40 11.02.2022
3888 Clear 4 1033 61 10000 2.06 340 19:20 11.02.2022
3889 Clear 6 1038 50 10000 5.14 320 17:48 11.02.2022
3890 Clouds 6 1032 53 10000 6.69 310 17:22 11.02.2022
3891 Clouds 7 1031 52 10000 5.66 320 15:56 11.02.2022
3892 Clouds 7 1030 55 10000 7.2 310 14:43 11.02.2022
3893 Clouds 7 1030 57 10000 9.26 330 14:21 11.02.2022
3894 Clouds 6 1030 57 10000 9.77 320 13:57 11.02.2022
3895 Clouds 6 1030 61 10000 9.77 320 13:39 11.02.2022
3896 Clouds 6 1029 75 10000 8.75 300 11:42 11.02.2022
3897 Clouds 5 1032 81 10000 8.23 280 09:58 11.02.2022
3898 Clouds 4 1031 84 10000 6.17 270 08:49 11.02.2022
3899 Clouds 4 1030 85 10000 7.72 270 08:26 11.02.2022
3900 Clouds 4 1029 86 10000 6.69 270 07:18 11.02.2022
3901 Clouds 3 1028 93 10000 4.12 230 02:26 11.02.2022
3902 Rain 3 1027 91 10000 3.6 300 00:52 11.02.2022
3903 Rain 4 1027 91 10000 3.09 320 22:53 10.02.2022
3904 Rain 4 1027 90 10000 5.14 300 21:50 10.02.2022
3905 Rain 5 1021 91 10000 3.09 360 21:18 10.02.2022
3906 Rain 6 1026 92 9000 2.57 310 20:38 10.02.2022
3907 Rain 6 1026 91 10000 1.54 310 19:26 10.02.2022
3908 Rain 7 1026 91 10000 1.03 0 18:47 10.02.2022
3909 Clouds 7 1026 91 10000 2.06 270 17:27 10.02.2022
3910 Clouds 7 1026 91 10000 3.6 250 16:55 10.02.2022
3911 Drizzle 8 1025 91 10000 4.63 280 15:59 10.02.2022
3912 Drizzle 8 1025 90 10000 4.63 280 15:33 10.02.2022
3913 Rain 8 1025 89 10000 2.57 240 14:49 10.02.2022
3914 Drizzle 8 1025 88 10000 4.12 290 14:26 10.02.2022
3915 Clouds 8 1025 85 10000 2.06 230 13:30 10.02.2022
3916 Clouds 8 1025 82 10000 3.09 220 12:51 10.02.2022
3917 Clouds 8 1025 85 10000 2.06 220 11:34 10.02.2022
3918 Clouds 7 1025 88 10000 2.57 210 10:56 10.02.2022
3919 Clouds 6 1025 88 10000 1.54 160 10:18 10.02.2022
3920 Clouds 6 1025 91 10000 2.57 150 09:25 10.02.2022
3921 Clouds 5 1024 93 10000 2.57 150 07:36 10.02.2022
3922 Clear 4 1024 94 10000 4.12 150 05:51 10.02.2022
3923 Clear 5 1027 94 10000 2.06 0 01:52 10.02.2022
3924 Clear 5 1027 92 10000 1.03 70 00:50 10.02.2022
3925 Clear 5 1027 92 10000 2.06 60 00:29 10.02.2022
3926 Clouds 6 1028 89 10000 2.06 120 23:26 09.02.2022
3927 Clouds 6 1029 88 10000 0.51 0 22:37 09.02.2022
3928 Clouds 6 1029 88 10000 1.54 150 21:52 09.02.2022
3929 Clouds 7 1029 89 10000 0.51 0 21:30 09.02.2022
3930 Clouds 7 1033 84 10000 2.06 207 20:51 09.02.2022
3931 Clouds 7 1029 85 10000 0.51 0 20:31 09.02.2022
3932 Clouds 7 1029 82 10000 1.03 0 19:56 09.02.2022
3933 Clouds 8 1029 79 10000 1.54 120 19:32 09.02.2022
3934 Clouds 10 1029 73 10000 1.54 90 17:38 09.02.2022
3935 Clouds 11 1030 72 10000 1.54 360 16:53 09.02.2022
3936 Clouds 11 1030 72 10000 1.03 350 15:52 09.02.2022
3937 Clouds 11 1030 74 10000 1.54 250 14:42 09.02.2022
3938 Clouds 10 1032 77 10000 5.66 250 12:28 09.02.2022
3939 Clouds 9 1032 81 10000 4.63 260 10:55 09.02.2022
3940 Clouds 9 1027 82 10000 4.63 260 10:30 09.02.2022
3941 Clouds 9 1032 77 10000 6.17 240 09:40 09.02.2022
3942 Clouds 9 1032 76 10000 3.6 210 09:19 09.02.2022
3943 Clouds 9 1032 74 10000 3.09 190 07:55 09.02.2022
3944 Clouds 9 1032 80 10000 4.63 210 05:30 09.02.2022
3945 Clouds 9 1032 81 10000 2.06 220 03:50 09.02.2022
3946 Clouds 9 1033 80 10000 3.09 230 01:27 09.02.2022
3947 Clouds 10 1034 79 10000 4.12 250 23:34 08.02.2022
3948 Clouds 10 1034 80 10000 3.6 250 22:50 08.02.2022
3949 Clouds 10 1034 79 10000 4.12 250 22:22 08.02.2022
3950 Clouds 10 1034 79 10000 4.12 250 22:22 08.02.2022
3951 Clouds 10 1034 79 10000 4.63 250 21:50 08.02.2022
3952 Clouds 10 1034 80 10000 4.63 240 21:21 08.02.2022
3953 Clouds 10 1034 80 10000 4.12 250 20:45 08.02.2022
3954 Clouds 10 1034 80 10000 3.6 250 19:52 08.02.2022
3955 Clouds 10 1034 79 10000 5.66 240 18:52 08.02.2022
3956 Clouds 10 1033 82 10000 3.6 260 17:50 08.02.2022
3957 Clouds 11 1033 75 10000 6.17 270 16:35 08.02.2022
3958 Clouds 11 1032 71 10000 5.66 250 15:39 08.02.2022
3959 Clouds 11 1033 74 10000 6.69 260 14:56 08.02.2022
3960 Clouds 10 1033 78 10000 5.66 240 13:29 08.02.2022
3961 Clouds 10 1033 82 10000 6.69 240 12:18 08.02.2022
3962 Clouds 9 1033 89 10000 5.66 250 10:45 08.02.2022
3963 Clouds 8 1033 94 10000 5.14 250 09:46 08.02.2022
3964 Clouds 7 1032 93 6000 2.57 210 08:27 08.02.2022
3965 Clouds 6 1033 90 10000 3.6 170 05:45 08.02.2022
3966 Clouds 6 1032 90 10000 4.12 150 04:40 08.02.2022
3967 Clouds 6 1032 88 10000 2.57 160 04:21 08.02.2022
3968 Clouds 6 1033 86 6000 3.6 190 03:36 08.02.2022
3969 Clouds 6 1033 84 10000 2.57 190 03:18 08.02.2022
3970 Clouds 6 1033 83 10000 2.57 190 03:18 08.02.2022
3971 Clouds 6 1033 82 10000 3.09 170 02:59 08.02.2022
3972 Clouds 6 1033 81 10000 3.09 170 02:36 08.02.2022
3973 Clouds 6 1033 79 10000 3.09 190 02:18 08.02.2022
3974 Clouds 6 1033 74 10000 3.6 210 01:44 08.02.2022
3975 Clouds 6 1033 72 10000 2.57 200 01:24 08.02.2022
3976 Clear 6 1033 72 10000 3.09 200 00:55 08.02.2022
3977 Clear 6 1033 72 10000 2.57 200 00:19 08.02.2022
3978 Clear 6 1033 70 10000 3.6 230 23:42 07.02.2022
3979 Clear 5 1028 72 10000 3.6 230 23:18 07.02.2022
3980 Clear 5 1028 72 10000 3.09 240 22:59 07.02.2022
3981 Clear 5 1028 73 10000 5.14 260 22:18 07.02.2022
3982 Clear 5 1028 72 10000 3.6 240 21:49 07.02.2022
3983 Clear 6 1033 69 10000 3.6 230 21:27 07.02.2022
3984 Clear 6 1033 70 10000 4.12 250 20:41 07.02.2022
3985 Clear 6 1033 70 10000 3.09 230 20:18 07.02.2022
3986 Clear 5 1033 71 10000 3.09 220 19:46 07.02.2022
3987 Clouds 6 1032 68 10000 5.14 260 18:24 07.02.2022
3988 Clouds 7 1032 65 10000 6.69 270 16:53 07.02.2022
3989 Clouds 8 1031 64 10000 5.66 270 16:24 07.02.2022
3990 Clouds 8 1032 65 10000 7.72 280 15:48 07.02.2022
3991 Clouds 7 1030 73 10000 6.69 280 13:39 07.02.2022
3992 Clouds 7 1030 74 10000 8.23 290 13:21 07.02.2022
3993 Clouds 6 1024 79 10000 7.2 290 11:58 07.02.2022
3994 Clouds 6 1024 80 10000 7.2 290 11:38 07.02.2022
3995 Clouds 5 1027 80 10000 1.34 153 10:54 07.02.2022
3996 Clouds 5 1027 80 10000 1.79 244 10:36 07.02.2022
3997 Clouds 4 1026 80 10000 1.79 279 09:53 07.02.2022
3998 Clouds 4 1026 81 10000 0.89 301 09:18 07.02.2022
3999 Clouds 4 1025 80 10000 1.34 253 08:44 07.02.2022
4000 Clouds 4 1023 79 10000 0.89 264 07:34 07.02.2022
4001 Clouds 3 1022 84 10000 1.34 291 06:34 07.02.2022
4002 Clouds 3 1018 85 10000 0.89 295 04:22 07.02.2022
4003 Rain 4 1012 83 10000 1.34 177 01:29 07.02.2022
4004 Clouds 5 1010 84 10000 1.79 289 23:51 06.02.2022
4005 Clouds 5 1009 89 10000 0.89 255 23:19 06.02.2022
4006 Rain 5 1008 89 10000 1.79 283 22:39 06.02.2022
4007 Clouds 5 1008 91 10000 0.89 270 21:37 06.02.2022
4008 Rain 4 1008 90 10000 0.89 297 21:18 06.02.2022
4009 Thunderstorm 4 1008 89 4000 1.79 326 20:48 06.02.2022
4010 Rain 5 1007 86 10000 1.79 293 20:21 06.02.2022
4011 Clouds 7 1006 86 10000 4.12 230 18:54 06.02.2022
4012 Clouds 6 1007 88 10000 0.89 242 18:28 06.02.2022
4013 Clouds 6 1007 90 10000 0.89 254 17:30 06.02.2022
4014 Rain 6 1008 88 10000 0.89 288 16:51 06.02.2022
4015 Clouds 6 1007 89 10000 0.45 239 16:20 06.02.2022
4016 Rain 6 1007 89 10000 0.89 283 15:47 06.02.2022
4017 Rain 7 1007 87 6000 0.89 257 15:24 06.02.2022
4018 Rain 8 1005 86 10000 1.79 313 14:19 06.02.2022
4019 Rain 7 1007 85 10000 0.45 37 13:21 06.02.2022
4020 Rain 8 1009 79 10000 0.89 90 12:27 06.02.2022
4021 Rain 8 995 80 10000 0.45 103 10:33 06.02.2022
4022 Rain 7 1008 80 10000 7.72 220 09:48 06.02.2022
4023 Rain 8 998 80 10000 0.89 235 08:41 06.02.2022
4024 Rain 7 998 80 10000 1.79 261 07:31 06.02.2022
4025 Rain 7 1012 81 10000 8.23 220 05:28 06.02.2022
4026 Clouds 7 1003 75 10000 6.17 220 02:25 06.02.2022
4027 Rain 7 1005 69 10000 0.89 280 00:49 06.02.2022
4028 Clouds 7 1005 67 10000 0.89 46 00:22 06.02.2022
4029 Clouds 7 1007 64 10000 7.2 220 21:48 05.02.2022
4030 Clouds 7 1007 66 10000 0.45 204 20:48 05.02.2022
4031 Clouds 6 1008 67 10000 0.45 126 20:23 05.02.2022
4032 Clouds 6 1008 65 10000 0.45 4 19:44 05.02.2022
4033 Clouds 7 1009 63 10000 0.89 14 18:45 05.02.2022
4034 Clouds 7 1009 60 10000 0.89 116 17:36 05.02.2022
4035 Clouds 8 1009 57 10000 0.45 269 16:24 05.02.2022
4036 Clouds 8 1021 63 10000 7.2 260 15:31 05.02.2022
4037 Clouds 7 1021 65 10000 8.23 250 13:55 05.02.2022
4038 Clouds 6 1022 73 10000 8.23 240 12:46 05.02.2022
4039 Clouds 6 1022 76 10000 5.66 240 11:47 05.02.2022
4040 Clouds 5 1010 79 10000 0.89 274 10:44 05.02.2022
4041 Clouds 4 1010 81 10000 0.45 128 09:51 05.02.2022
4042 Clouds 4 1010 81 10000 5.14 250 08:51 05.02.2022
4043 Clouds 3 1009 79 10000 4.63 250 07:32 05.02.2022
4044 Clouds 3 1008 79 10000 0.45 265 06:55 05.02.2022
4045 Clouds 4 1006 81 10000 0.45 198 02:43 05.02.2022
4046 Clouds 4 1006 84 10000 0.45 188 01:18 05.02.2022
4047 Clouds 4 1005 83 10000 5.66 290 00:39 05.02.2022
4048 Clouds 4 1004 82 10000 0.89 280 23:33 04.02.2022
4049 Clouds 4 1004 82 10000 5.14 260 22:55 04.02.2022
4050 Clouds 4 1003 83 10000 5.14 270 21:36 04.02.2022
4051 Clouds 4 1003 82 10000 0.89 273 21:18 04.02.2022
4052 Clouds 4 1002 85 10000 0.89 308 20:46 04.02.2022
4053 Clouds 5 999 81 10000 0.89 314 19:30 04.02.2022
4054 Rain 9 1007 71 10000 7.72 200 16:56 04.02.2022
4055 Clouds 9 996 66 10000 0.45 243 15:38 04.02.2022
4056 Clouds 9 997 71 10000 0.89 141 14:51 04.02.2022
4057 Clouds 9 999 70 10000 5.14 200 12:43 04.02.2022
4058 Clouds 9 1011 76 10000 6.17 210 11:47 04.02.2022
4059 Clouds 9 1011 81 10000 5.66 190 11:22 04.02.2022
4060 Clouds 8 1000 84 10000 3.6 190 10:32 04.02.2022
4061 Clouds 7 1002 81 10000 2.57 190 08:34 04.02.2022
4062 Clouds 7 1002 79 10000 0.45 275 05:19 04.02.2022
4063 Clouds 7 1002 85 10000 0.45 194 02:40 04.02.2022
4064 Clouds 7 1003 86 10000 0.89 115 00:31 04.02.2022
4065 Clouds 7 1003 85 10000 4.63 230 23:21 03.02.2022
4066 Clouds 7 1003 84 10000 3.6 230 22:26 03.02.2022
4067 Clouds 7 1003 84 10000 4.63 230 21:47 03.02.2022
4068 Clouds 7 1003 81 10000 3.09 220 20:27 03.02.2022
4069 Clouds 7 1003 81 10000 3.09 230 19:59 03.02.2022
4070 Clouds 7 1003 80 10000 3.6 230 19:26 03.02.2022
4071 Clouds 7 1003 80 10000 3.09 220 18:28 03.02.2022
4072 Clouds 7 1003 81 10000 4.63 250 17:32 03.02.2022
4073 Clouds 7 1003 84 10000 3.6 260 16:24 03.02.2022
4074 Clouds 8 1004 82 10000 0.89 300 14:28 03.02.2022
4075 Clouds 8 1005 81 10000 0.89 259 12:40 03.02.2022
4076 Clouds 8 1006 92 10000 2.57 170 10:36 03.02.2022
4077 Clouds 8 1007 94 6000 2.57 140 08:35 03.02.2022
4078 Drizzle 8 1009 93 8000 2.57 210 03:57 03.02.2022
4079 Mist 8 1010 92 3200 2.57 160 00:30 03.02.2022
4080 Drizzle 8 1011 90 6000 1.03 0 23:36 02.02.2022
4081 Drizzle 8 1011 86 10000 1.54 190 21:54 02.02.2022
4082 Clouds 8 1010 86 10000 1.54 220 21:30 02.02.2022
4083 Clouds 7 1010 85 10000 1.54 170 20:40 02.02.2022
4084 Clouds 7 1010 83 10000 1.03 0 19:58 02.02.2022
4085 Clouds 7 1010 82 10000 0.51 0 19:27 02.02.2022
4086 Clouds 8 1010 78 10000 1.03 0 18:39 02.02.2022
4087 Clouds 9 1010 72 10000 0.45 264 17:44 02.02.2022
4088 Clouds 9 1010 72 10000 4.63 300 17:19 02.02.2022
4089 Clouds 10 1010 67 10000 7.2 290 16:41 02.02.2022
4090 Clouds 9 1008 76 10000 0.89 51 12:57 02.02.2022
4091 Clouds 9 1008 76 10000 0.45 307 12:20 02.02.2022
4092 Clouds 9 1008 76 10000 0.89 58 11:33 02.02.2022
4093 Clouds 8 1007 79 10000 0.45 281 09:47 02.02.2022
4094 Clouds 8 1006 78 10000 1.34 260 07:35 02.02.2022
4095 Clouds 8 1002 85 10000 1.34 1 22:52 01.02.2022
4096 Clouds 9 1002 87 10000 0.45 289 21:50 01.02.2022
4097 Drizzle 9 1001 89 10000 1.34 101 19:58 01.02.2022
4098 Clouds 8 1001 93 10000 0.89 300 17:43 01.02.2022
4099 Clouds 8 1001 93 4000 1.79 273 16:39 01.02.2022
4100 Clouds 8 1001 93 6000 1.79 273 16:39 01.02.2022
4101 Clouds 7 1002 92 3500 0.89 62 14:24 01.02.2022
4102 Clouds 6 1004 87 10000 0.89 224 12:43 01.02.2022
4103 Clouds 5 1005 90 10000 4.63 220 11:30 01.02.2022
4104 Rain 3 1009 85 10000 0.89 266 04:53 01.02.2022
4105 Clouds 4 1007 86 10000 0.89 190 23:41 31.01.2022
4106 Clouds 5 1007 89 10000 7.72 320 23:21 31.01.2022
4107 Rain 5 1006 88 10000 0.45 100 21:42 31.01.2022
4108 Clouds 5 1005 89 10000 0.89 277 21:19 31.01.2022
4109 Clouds 5 1004 89 10000 0.45 185 20:32 31.01.2022
4110 Drizzle 5 1002 92 10000 0.89 122 19:35 31.01.2022
4111 Drizzle 5 1001 92 7000 1.34 44 18:26 31.01.2022
4112 Mist 5 1001 94 4200 3.13 214 17:41 31.01.2022
4113 Clouds 5 1000 93 4300 1.79 276 16:38 31.01.2022
4114 Drizzle 5 999 91 4600 3.58 252 15:43 31.01.2022
4115 Rain 5 998 89 8000 1.79 217 14:22 31.01.2022
4116 Clouds 5 997 89 10000 2.68 289 12:39 31.01.2022
4117 Rain 5 996 89 10000 1.79 290 11:56 31.01.2022
4118 Rain 5 996 86 10000 3.13 276 10:50 31.01.2022
4119 Rain 5 996 85 10000 1.79 283 10:32 31.01.2022
4120 Clouds 5 997 87 10000 0.89 275 09:27 31.01.2022
4121 Rain 5 996 85 10000 3.58 270 08:51 31.01.2022
4122 Rain 6 996 79 10000 2.24 262 08:20 31.01.2022
4123 Clouds 5 997 90 10000 1.79 293 06:18 31.01.2022
4124 Clouds 5 1001 74 10000 5.66 170 03:33 31.01.2022
4125 Clouds 4 1010 75 10000 3.09 210 23:19 30.01.2022
4126 Clouds 4 1012 77 10000 3.09 210 22:29 30.01.2022
4127 Clouds 4 1013 79 10000 0.45 266 21:42 30.01.2022
4128 Clouds 4 1014 77 10000 2.06 200 21:19 30.01.2022
4129 Clouds 4 1014 76 10000 1.54 210 20:49 30.01.2022
4130 Clouds 4 1014 74 10000 0.51 0 20:29 30.01.2022
4131 Clouds 4 1015 73 10000 2.06 200 19:52 30.01.2022
4132 Clouds 5 1027 72 10000 3.09 260 18:44 30.01.2022
4133 Clouds 5 1027 70 10000 3.6 270 18:20 30.01.2022
4134 Clouds 6 1016 62 10000 0.45 198 17:28 30.01.2022
4135 Clouds 7 1017 59 10000 6.17 300 16:40 30.01.2022
4136 Clouds 7 1028 61 10000 5.14 300 16:22 30.01.2022
4137 Clouds 7 1028 61 10000 7.2 310 15:51 30.01.2022
4138 Clouds 8 1017 57 10000 6.69 320 15:32 30.01.2022
4139 Clouds 8 1018 57 10000 6.17 310 14:46 30.01.2022
4140 Clouds 7 1029 64 10000 10.29 310 12:54 30.01.2022
4141 Clouds 7 1029 67 10000 10.29 310 12:33 30.01.2022
4142 Clouds 6 1029 76 10000 7.2 300 10:38 30.01.2022
4143 Clouds 5 1029 78 10000 6.17 290 09:56 30.01.2022
4144 Clouds 5 1018 76 10000 1.34 306 09:21 30.01.2022
4145 Clouds 5 1017 76 10000 0.89 266 07:56 30.01.2022
4146 Clouds 6 1015 78 10000 0.89 276 02:43 30.01.2022
4147 Clouds 7 1015 76 10000 0.89 281 01:50 30.01.2022
4148 Clouds 9 1014 75 10000 0.89 279 23:30 29.01.2022
4149 Clear 9 1013 75 10000 1.34 23 22:37 29.01.2022
4150 Clouds 10 1012 84 9000 0.89 176 21:27 29.01.2022
4151 Rain 10 1012 87 10000 0.89 293 20:48 29.01.2022
4152 Clouds 11 1011 84 10000 1.34 289 19:47 29.01.2022
4153 Clouds 11 1011 85 10000 1.34 292 19:25 29.01.2022
4154 Drizzle 10 1011 88 10000 0.45 190 18:32 29.01.2022
4155 Drizzle 10 1011 88 10000 1.79 329 17:41 29.01.2022
4156 Clouds 11 1011 81 10000 1.34 276 16:42 29.01.2022
4157 Clouds 11 1011 80 10000 0.89 88 14:52 29.01.2022
4158 Clouds 10 1012 83 10000 8.75 260 13:46 29.01.2022
4159 Clouds 10 1013 83 10000 0.45 261 13:26 29.01.2022
4160 Clouds 10 1013 79 10000 0.45 219 12:42 29.01.2022
4161 Clouds 9 1014 83 10000 0.45 184 11:38 29.01.2022
4162 Clouds 8 1015 86 10000 3.6 210 10:25 29.01.2022
4163 Drizzle 7 1015 91 4600 0.89 263 07:57 29.01.2022
4164 Clouds 6 1019 82 10000 4.12 200 01:37 29.01.2022
4165 Clouds 6 1020 82 10000 4.63 220 00:31 29.01.2022
4166 Clouds 5 1021 84 10000 0.45 116 23:22 28.01.2022
4167 Clouds 5 1021 83 10000 3.09 200 22:42 28.01.2022
4168 Clouds 5 1022 84 10000 0.45 237 22:18 28.01.2022
4169 Clear 5 1022 83 10000 2.06 190 20:40 28.01.2022
4170 Clear 5 1022 82 10000 4.12 280 19:53 28.01.2022
4171 Clouds 5 1023 79 10000 1.34 270 18:51 28.01.2022
4172 Clouds 6 1034 79 10000 2.06 250 17:52 28.01.2022
4173 Clouds 7 1034 71 10000 4.12 280 15:46 28.01.2022
4174 Clouds 8 1023 65 10000 1.34 263 14:20 28.01.2022
4175 Clouds 7 1035 77 10000 5.66 310 12:40 28.01.2022
4176 Clouds 6 1034 84 10000 3.6 310 11:38 28.01.2022
4177 Clouds 6 1034 83 10000 6.17 310 11:38 28.01.2022
4178 Clouds 5 1034 89 10000 2.57 320 10:26 28.01.2022
4179 Clouds 4 1034 89 10000 1.03 0 09:45 28.01.2022
4180 Clouds 4 1021 84 10000 0.89 279 07:40 28.01.2022
4181 Clear 4 1031 86 10000 5.14 290 05:30 28.01.2022
4182 Clear 5 1019 82 10000 0.89 282 03:48 28.01.2022
4183 Clouds 5 1029 83 10000 6.69 290 02:24 28.01.2022
4184 Clouds 6 1017 83 10000 1.34 319 01:35 28.01.2022
4185 Clouds 6 1016 82 10000 1.79 261 00:33 28.01.2022
4186 Clouds 7 1014 83 10000 0.89 306 21:58 27.01.2022
4187 Clouds 7 1014 84 10000 0.45 294 21:34 27.01.2022
4188 Clouds 7 1014 84 10000 0.45 294 21:34 27.01.2022
4189 Clouds 7 1014 86 10000 1.34 7 20:58 27.01.2022
4190 Clouds 8 1013 92 10000 0.89 274 19:36 27.01.2022
4191 Clouds 8 1012 93 10000 1.79 269 18:18 27.01.2022
4192 Clouds 7 1012 93 10000 7.2 270 16:45 27.01.2022
4193 Clouds 6 1012 93 10000 6.69 260 13:48 27.01.2022
4194 Mist 6 1012 93 2500 0.89 252 12:48 27.01.2022
4195 Clouds 6 1013 86 8000 0.89 282 11:24 27.01.2022
4196 Clouds 6 1014 79 10000 0.89 172 09:47 27.01.2022
4197 Clouds 5 1014 79 10000 3.6 160 08:39 27.01.2022
4198 Clouds 4 1015 80 10000 5.14 180 07:23 27.01.2022
4199 Clouds 2 1018 80 10000 0.45 172 03:19 27.01.2022
4200 Clouds 3 1019 80 10000 4.12 220 00:23 27.01.2022
4201 Drizzle 3 1019 83 10000 0.89 314 22:27 26.01.2022
4202 Clouds 3 1020 82 10000 1.34 270 21:44 26.01.2022
4203 Clouds 3 1020 84 10000 5.14 230 20:43 26.01.2022
4204 Clouds 3 1020 84 10000 0.45 253 20:24 26.01.2022
4205 Clouds 3 1020 83 9000 4.63 230 19:30 26.01.2022
4206 Clouds 3 1020 83 8000 3.6 230 18:46 26.01.2022
4207 Clouds 3 1021 84 8000 0.45 137 17:53 26.01.2022
4208 Clouds 3 1021 84 8000 4.63 240 17:32 26.01.2022
4209 Clouds 3 1021 83 8000 0.89 258 16:47 26.01.2022
4210 Clouds 3 1021 83 8000 0.45 84 15:56 26.01.2022
4211 Drizzle 3 1021 83 9000 0.45 250 14:32 26.01.2022
4212 Drizzle 3 1022 85 3800 4.12 240 12:18 26.01.2022
4213 Drizzle 2 1022 80 6000 3.09 270 10:50 26.01.2022
4214 Clouds 2 1021 79 7000 5.14 280 09:52 26.01.2022
4215 Clouds 2 1021 80 7000 4.63 280 08:47 26.01.2022
4216 Clouds 2 1021 80 9000 4.63 300 06:36 26.01.2022
4217 Clouds 3 1021 83 9000 1.54 60 00:21 26.01.2022
4218 Clouds 3 1021 83 10000 1.54 70 23:37 25.01.2022
4219 Clouds 3 1022 81 10000 1.54 100 22:48 25.01.2022
4220 Clouds 2 1022 82 10000 1.54 90 22:18 25.01.2022
4221 Clouds 3 1021 83 10000 2.57 70 21:27 25.01.2022
4222 Clouds 3 1022 82 10000 0.45 90 20:45 25.01.2022
4223 Clouds 3 1021 82 10000 0.45 90 19:54 25.01.2022
4224 Clouds 3 1021 82 10000 1.54 80 19:23 25.01.2022
4225 Clouds 3 1021 81 10000 1.54 90 17:56 25.01.2022
4226 Clouds 3 1022 80 10000 1.54 80 17:20 25.01.2022
4227 Clouds 3 1022 80 10000 2.57 80 16:34 25.01.2022
4228 Clouds 3 1022 80 10000 2.06 50 15:39 25.01.2022
4229 Clouds 4 1022 80 10000 1.54 60 15:19 25.01.2022
4230 Clouds 4 1022 81 10000 1.54 30 14:51 25.01.2022
4231 Clouds 3 1023 82 10000 0.51 0 12:20 25.01.2022
4232 Clouds 2 1033 86 10000 2.06 60 09:25 25.01.2022
4233 Clouds 2 1033 85 10000 1.54 70 07:52 25.01.2022
4234 Clouds 2 1022 85 10000 1.54 80 07:21 25.01.2022
4235 Clouds 3 1022 85 10000 2.57 180 05:23 25.01.2022
4236 Clouds 3 1022 83 10000 3.6 160 00:35 25.01.2022
4237 Clouds 3 1023 83 10000 0.45 78 23:36 24.01.2022
4238 Clouds 3 1023 83 10000 3.09 120 23:18 24.01.2022
4239 Clouds 4 1023 82 10000 2.57 120 22:42 24.01.2022
4240 Clear 4 1023 81 10000 3.6 140 22:23 24.01.2022
4241 Clouds 4 1023 82 10000 3.6 130 21:42 24.01.2022
4242 Clouds 4 1023 82 10000 2.57 140 21:24 24.01.2022
4243 Clouds 4 1023 81 10000 0.45 31 20:27 24.01.2022
4244 Clouds 4 1022 81 10000 2.06 120 19:38 24.01.2022
4245 Clouds 4 1022 81 10000 0.45 349 18:50 24.01.2022
4246 Clouds 4 1028 79 10000 0.45 54 17:39 24.01.2022
4247 Clouds 5 1028 78 10000 0.45 54 17:21 24.01.2022
4248 Clouds 5 1028 78 10000 0.45 54 16:31 24.01.2022
4249 Clouds 5 1028 78 10000 0.45 54 15:35 24.01.2022
4250 Clouds 6 1028 78 10000 0.45 54 13:59 24.01.2022
4251 Clouds 5 1028 78 10000 0.45 54 12:34 24.01.2022
4252 Clouds 5 1029 79 10000 0.45 54 11:41 24.01.2022
4253 Clouds 3 1029 84 10000 0.45 54 10:19 24.01.2022
4254 Clouds 3 1028 85 10000 0.45 54 09:45 24.01.2022
4255 Clouds 1 1034 86 10000 1.54 90 08:18 24.01.2022
4256 Clouds 4 1035 82 10000 2.06 130 02:26 24.01.2022
4257 Clouds 4 1029 78 10000 0.45 54 01:26 24.01.2022
4258 Clouds 4 1029 78 10000 0.45 54 00:31 24.01.2022
4259 Clouds 5 1024 76 10000 0.45 54 23:40 23.01.2022
4260 Clouds 5 1029 75 10000 0.45 54 22:20 23.01.2022
4261 Clouds 5 1029 75 10000 0.45 54 21:40 23.01.2022
4262 Clouds 5 1029 75 10000 0.45 54 21:20 23.01.2022
4263 Clouds 5 1029 75 10000 0.45 54 20:23 23.01.2022
4264 Clouds 5 1029 77 10000 0.45 54 18:56 23.01.2022
4265 Clouds 6 1029 77 10000 0.45 54 18:24 23.01.2022
4266 Clouds 6 1029 80 10000 0.45 54 17:19 23.01.2022
4267 Clouds 6 1029 81 9000 0.45 54 15:59 23.01.2022
4268 Clouds 6 1029 83 8000 0.45 54 14:52 23.01.2022
4269 Clouds 6 1029 82 6000 0.45 54 14:18 23.01.2022
4270 Mist 6 1029 86 4500 0.45 54 12:46 23.01.2022
4271 Mist 6 1029 86 4000 0.45 54 12:21 23.01.2022
4272 Mist 5 1029 87 2900 0.45 54 11:27 23.01.2022
4273 Mist 5 1029 88 2600 0.45 54 10:58 23.01.2022
4274 Mist 5 1029 88 2600 0.45 54 10:25 23.01.2022
4275 Mist 5 1029 84 2800 0.45 54 09:33 23.01.2022
4276 Mist 5 1029 84 2800 0.45 54 08:50 23.01.2022
4277 Mist 5 1029 84 2800 0.45 54 08:50 23.01.2022
4278 Mist 5 1028 84 5000 0.45 54 04:41 23.01.2022
4279 Clouds 5 1029 86 10000 0.45 54 01:43 23.01.2022
4280 Clouds 5 1029 85 10000 0.45 54 00:56 23.01.2022
4281 Clouds 5 1029 83 10000 0.45 54 00:22 23.01.2022
4282 Clouds 5 1029 85 8000 0.45 54 23:19 22.01.2022
4283 Clouds 5 1029 86 7000 0.45 54 22:34 22.01.2022
4284 Clouds 5 1029 85 7000 0.45 54 22:34 22.01.2022
4285 Drizzle 5 1029 86 6000 0.45 54 21:18 22.01.2022
4286 Drizzle 5 1029 88 5000 0.45 54 19:46 22.01.2022
4287 Drizzle 6 1028 88 4500 0.45 54 18:45 22.01.2022
4288 Drizzle 6 1028 88 3300 0.45 54 17:56 22.01.2022
4289 Drizzle 6 1028 88 3300 0.45 54 17:35 22.01.2022
4290 Drizzle 6 1028 88 5000 0.45 54 16:55 22.01.2022
4291 Drizzle 6 1028 87 7000 0.45 54 15:49 22.01.2022
4292 Drizzle 6 1028 87 6000 0.45 54 14:57 22.01.2022
4293 Drizzle 6 1028 87 6000 0.45 54 13:39 22.01.2022
4294 Mist 6 1028 89 2500 0.45 54 12:48 22.01.2022
4295 Drizzle 6 1028 89 3500 0.45 54 12:28 22.01.2022
4296 Drizzle 5 1028 88 2800 0.45 54 10:56 22.01.2022
4297 Drizzle 5 1028 89 2800 0.45 54 10:28 22.01.2022
4298 Mist 5 1028 86 1800 0.45 54 09:57 22.01.2022
4299 Drizzle 5 1028 86 2000 0.45 54 08:51 22.01.2022
4300 Mist 5 1028 86 2200 0.45 54 07:34 22.01.2022
4301 Drizzle 4 1028 87 10000 0.45 54 04:52 22.01.2022
4302 Drizzle 4 1028 87 10000 0.45 54 04:52 22.01.2022
4303 Drizzle 4 1028 84 10000 0.45 54 01:34 22.01.2022
4304 Drizzle 4 1028 83 10000 0.45 54 23:38 21.01.2022
4305 Clouds 5 1028 85 10000 0.45 54 22:27 21.01.2022
4306 Drizzle 5 1028 84 10000 0.45 54 20:22 21.01.2022
4307 Clouds 5 1028 87 8000 0.45 54 18:39 21.01.2022
4308 Clouds 5 1028 86 5000 0.45 54 17:28 21.01.2022
4309 Clouds 5 1028 83 10000 0.45 54 15:42 21.01.2022
4310 Clouds 5 1028 79 10000 0.45 54 13:37 21.01.2022
4311 Clouds 5 1024 78 10000 0.45 54 12:38 21.01.2022
4312 Clouds 3 1034 88 10000 3.6 310 11:28 21.01.2022
4313 Clouds 2 1034 87 10000 3.6 310 10:19 21.01.2022
4314 Clouds 1 1033 90 10000 2.57 270 08:24 21.01.2022
4315 Clouds 1 1033 89 10000 2.57 320 06:57 21.01.2022
4316 Clouds 1 1031 89 10000 2.57 310 23:40 20.01.2022
4317 Clouds 1 1031 87 10000 2.57 320 22:41 20.01.2022
4318 Clouds 2 1030 86 10000 6.17 310 21:43 20.01.2022
4319 Clouds 2 1030 88 10000 4.12 310 20:53 20.01.2022
4320 Clouds 2 1029 85 10000 7.72 310 19:20 20.01.2022
4321 Clouds 2 1029 83 10000 6.17 300 18:51 20.01.2022
4322 Clouds 3 1028 77 10000 6.69 320 17:30 20.01.2022
4323 Clouds 4 1025 80 10000 0.45 54 15:44 20.01.2022
4324 Clouds 4 1025 72 10000 0.45 54 15:24 20.01.2022
4325 Clouds 4 1025 71 10000 0.45 54 13:42 20.01.2022
4326 Clouds 4 1025 71 10000 0.45 54 12:35 20.01.2022
4327 Clouds 4 1027 75 10000 6.17 310 11:57 20.01.2022
4328 Clouds 4 1025 80 10000 0.89 285 10:47 20.01.2022
4329 Clouds 3 1024 85 10000 5.66 310 09:42 20.01.2022
4330 Clouds 4 1022 87 10000 8.75 310 08:34 20.01.2022
4331 Clear 4 1021 89 10000 0.89 273 05:38 20.01.2022
4332 Clouds 5 1023 90 10000 5.66 300 23:42 19.01.2022
4333 Clouds 6 1020 93 10000 0.89 278 22:37 19.01.2022
4334 Clouds 5 1019 94 10000 0.89 261 21:24 19.01.2022
4335 Clouds 5 1019 92 6000 0.89 267 20:51 19.01.2022
4336 Clouds 5 1019 91 10000 1.34 209 20:22 19.01.2022
4337 Clouds 4 1019 89 9000 0.45 278 18:48 19.01.2022
4338 Clouds 4 1019 85 10000 0.45 88 17:50 19.01.2022
4339 Clouds 4 1020 81 10000 3.6 220 16:59 19.01.2022
4340 Clouds 5 1021 75 10000 0.89 226 14:43 19.01.2022
4341 Clouds 5 1023 77 10000 0.45 147 12:53 19.01.2022
4342 Clouds 5 1024 77 10000 0.89 235 11:54 19.01.2022
4343 Clouds 4 1024 77 10000 2.06 230 10:52 19.01.2022
4344 Clouds 4 1027 82 10000 1.54 200 09:35 19.01.2022
4345 Clouds 3 1028 81 10000 3.6 160 07:34 19.01.2022
4346 Clouds 3 1029 85 10000 4.12 140 05:19 19.01.2022
4347 Clouds 4 1032 83 10000 2.06 90 23:53 18.01.2022
4348 Clouds 4 1032 82 10000 1.54 100 23:18 18.01.2022
4349 Clouds 6 1035 78 10000 2.06 110 21:43 18.01.2022
4350 Clouds 7 1036 77 10000 2.06 130 20:21 18.01.2022
4351 Clouds 7 1036 79 10000 1.54 110 19:39 18.01.2022
4352 Clouds 7 1036 80 10000 1.54 110 19:21 18.01.2022
4353 Clouds 7 1034 76 10000 1.54 110 18:18 18.01.2022
4354 Clouds 7 1037 80 10000 1.54 70 17:31 18.01.2022
4355 Clouds 8 1035 76 10000 1.03 0 16:18 18.01.2022
4356 Clouds 8 1037 82 10000 1.03 0 15:25 18.01.2022
4357 Clouds 8 1038 84 10000 0.51 0 14:22 18.01.2022
4358 Clouds 7 1039 92 10000 1.03 0 11:31 18.01.2022
4359 Clouds 6 1038 94 10000 0.51 220 09:59 18.01.2022
4360 Clouds 6 1036 92 10000 1.54 350 08:29 18.01.2022
4361 Clouds 6 1036 92 10000 1.54 330 07:43 18.01.2022
4362 Clouds 7 1037 92 10000 2.57 310 00:39 18.01.2022
4363 Clouds 7 1035 90 10000 2.57 300 22:40 17.01.2022
4364 Clouds 7 1036 90 10000 2.57 330 21:42 17.01.2022
4365 Clouds 7 1033 90 10000 5.14 330 20:44 17.01.2022
4366 Clouds 7 1032 93 10000 0.89 267 18:51 17.01.2022
4367 Clouds 7 1032 92 4800 0.89 291 18:25 17.01.2022
4368 Clouds 7 1032 92 6000 0.89 299 17:22 17.01.2022
4369 Clouds 7 1031 93 4000 0.89 304 15:58 17.01.2022
4370 Clouds 7 1031 92 4500 0.89 272 14:58 17.01.2022
4371 Clouds 7 1031 91 5000 1.34 290 14:31 17.01.2022
4372 Clouds 7 1031 90 7000 1.79 320 13:18 17.01.2022
4373 Rain 7 1031 88 10000 1.34 266 12:22 17.01.2022
4374 Clouds 6 1031 85 10000 0.89 307 10:53 17.01.2022
4375 Clouds 6 1030 85 10000 0.89 259 09:53 17.01.2022
4376 Clouds 5 1030 86 10000 0.89 287 08:44 17.01.2022
4377 Clouds 5 1030 89 10000 0.45 268 07:20 17.01.2022
4378 Clouds 5 1028 92 10000 1.79 274 01:52 17.01.2022
4379 Clouds 5 1028 91 10000 0.45 255 23:44 16.01.2022
4380 Clouds 5 1027 89 10000 0.45 253 21:21 16.01.2022
4381 Clouds 5 1026 88 10000 1.79 278 20:28 16.01.2022
4382 Clouds 5 1025 87 10000 0.89 24 18:46 16.01.2022
4383 Clouds 5 1025 84 10000 0.89 136 17:50 16.01.2022
4384 Clouds 5 1024 83 10000 0.45 272 16:54 16.01.2022
4385 Clouds 5 1024 81 10000 0.89 265 15:43 16.01.2022
4386 Clouds 5 1023 80 10000 1.79 265 14:29 16.01.2022
4387 Clouds 5 1025 83 10000 5.14 270 13:33 16.01.2022
4388 Clouds 5 1023 81 10000 0.89 302 12:22 16.01.2022
4389 Clouds 4 1023 85 10000 0.45 148 11:29 16.01.2022
4390 Clouds 4 1023 86 10000 0.89 276 10:28 16.01.2022
4391 Clouds 4 1022 85 10000 0.45 275 09:58 16.01.2022
4392 Clouds 4 1022 85 10000 0.45 274 09:38 16.01.2022
4393 Clouds 3 1022 85 10000 3.6 210 09:19 16.01.2022
4394 Clouds 3 1021 87 10000 3.09 190 07:19 16.01.2022
4395 Clouds 2 1022 91 10000 0.89 243 00:35 16.01.2022
4396 Clouds 2 1022 91 10000 4.12 130 22:53 15.01.2022
4397 Clouds 2 1022 93 10000 0.45 90 21:22 15.01.2022
4398 Clouds 2 1023 93 10000 4.63 120 20:45 15.01.2022
4399 Clouds 2 1024 93 10000 0.89 132 20:22 15.01.2022
4400 Clouds 2 1024 93 10000 4.12 130 19:27 15.01.2022
4401 Clouds 3 1024 91 10000 4.63 140 18:20 15.01.2022
4402 Clouds 3 1024 91 10000 0.89 343 16:49 15.01.2022
4403 Clouds 3 1027 93 10000 4.63 120 14:38 15.01.2022
4404 Clouds 3 1029 92 10000 3.6 130 12:52 15.01.2022
4405 Clouds 3 1027 91 10000 3.6 140 11:32 15.01.2022
4406 Clouds 1 1028 93 10000 3.09 120 09:46 15.01.2022
4407 Clouds 2 1029 93 7000 3.09 140 05:18 15.01.2022
4408 Clouds 3 1031 91 10000 1.54 90 23:32 14.01.2022
4409 Clouds 3 1032 89 10000 1.54 70 21:19 14.01.2022
4410 Clouds 3 1032 89 10000 1.54 70 20:37 14.01.2022
4411 Clouds 4 1032 91 10000 0.51 0 19:55 14.01.2022
4412 Clouds 4 1033 91 9000 1.03 0 18:43 14.01.2022
4413 Clouds 4 1033 90 9000 1.54 150 17:52 14.01.2022
4414 Clouds 4 1033 90 9000 1.54 70 16:43 14.01.2022
4415 Clouds 4 1033 90 9000 1.54 70 16:43 14.01.2022
4416 Clouds 4 1033 89 6000 2.06 30 15:33 14.01.2022
4417 Mist 4 1033 90 4500 2.57 340 14:29 14.01.2022
4418 Clouds 5 1034 83 10000 0.51 0 12:59 14.01.2022
4419 Clear 4 1034 90 10000 1.03 0 11:53 14.01.2022
4420 Clear 2 1036 93 10000 0.51 0 10:40 14.01.2022
4421 Clear 0 1032 92 10000 1 205 08:53 14.01.2022
4422 Clear 0 1033 92 10000 0.69 193 07:35 14.01.2022
4423 Clear 0 1036 90 10000 1.03 70 02:28 14.01.2022
4424 Clouds 0 1036 90 10000 0.51 0 00:33 14.01.2022
4425 Clear 1 1037 87 10000 1.03 160 21:55 13.01.2022
4426 Clear 2 1037 85 10000 2.57 70 21:30 13.01.2022
4427 Clear 3 1037 84 10000 1.03 0 20:27 13.01.2022
4428 Clear 3 1037 82 10000 0.51 0 19:30 13.01.2022
4429 Clear 3 1037 80 10000 1.54 90 18:50 13.01.2022
4430 Clear 6 1037 69 10000 1.03 0 16:58 13.01.2022
4431 Clear 6 1038 70 10000 1.54 160 15:49 13.01.2022
4432 Clear 7 1038 68 10000 1.03 0 15:26 13.01.2022
4433 Clouds 5 1040 78 10000 2.06 160 13:42 13.01.2022
4434 Clouds 3 1040 88 9000 2.57 100 11:43 13.01.2022
4435 Clouds 1 1040 88 6000 3.6 160 09:37 13.01.2022
4436 Clouds 1 1039 87 8000 0.45 263 08:54 13.01.2022
4437 Clouds 1 1039 87 8000 1.54 140 08:22 13.01.2022
4438 Clouds 2 1039 85 8000 1.03 0 07:21 13.01.2022
4439 Clouds 2 1039 86 8000 1.54 260 05:56 13.01.2022
4440 Clouds 2 1039 86 9000 1.54 190 05:18 13.01.2022
4441 Clouds 3 1039 89 10000 2.06 0 01:46 13.01.2022
4442 Clouds 3 1040 89 10000 1.03 100 23:54 12.01.2022
4443 Clouds 3 1039 89 10000 1.54 120 23:34 12.01.2022
4444 Clouds 3 1039 88 10000 1.03 100 22:56 12.01.2022
4445 Clouds 3 1042 89 10000 1.03 0 21:56 12.01.2022
4446 Clouds 3 1039 88 10000 1.54 70 21:21 12.01.2022
4447 Clouds 3 1039 88 10000 1.03 0 20:56 12.01.2022
4448 Clouds 3 1038 91 6000 0.51 0 19:28 12.01.2022
4449 Clouds 3 1038 91 7000 0.51 0 18:28 12.01.2022
4450 Clouds 4 1037 89 10000 0.51 0 16:59 12.01.2022
4451 Clouds 4 1037 88 10000 0.51 0 15:58 12.01.2022
4452 Clouds 4 1037 85 10000 1.03 0 14:47 12.01.2022
4453 Clouds 3 1037 84 10000 0.51 0 12:58 12.01.2022
4454 Clouds 2 1037 86 10000 1.54 140 09:59 12.01.2022
4455 Clouds 1 1035 87 10000 3.09 150 08:37 12.01.2022
4456 Clouds 1 1035 87 10000 1.03 140 07:34 12.01.2022
4457 Clear 1 1035 87 10000 0.51 100 06:49 12.01.2022
4458 Clear 0 1034 90 10000 0.45 105 23:31 11.01.2022
4459 Clear 0 1034 89 10000 1.54 110 22:49 11.01.2022
4460 Clouds 1 1032 87 10000 1.55 152 22:22 11.01.2022
4461 Clear 1 1033 86 10000 2.06 130 20:51 11.01.2022
4462 Clear 1 1033 85 10000 1.03 0 19:48 11.01.2022
4463 Clear 2 1032 83 10000 3.09 140 18:31 11.01.2022
4464 Clear 3 1032 79 10000 2.57 130 17:24 11.01.2022
4465 Clear 4 1032 78 10000 2.06 130 16:37 11.01.2022
4466 Clear 5 1032 77 10000 2.57 150 15:39 11.01.2022
4467 Clear 5 1032 80 10000 0.45 81 14:42 11.01.2022
4468 Clear 5 1032 80 10000 2.57 160 13:55 11.01.2022
4469 Clear 5 1032 75 10000 2.57 160 13:35 11.01.2022
4470 Clouds 4 1032 87 10000 3.09 160 12:43 11.01.2022
4471 Clouds 2 1032 90 10000 0.89 253 11:45 11.01.2022
4472 Mist -1 1031 93 2200 3.09 120 09:39 11.01.2022
4473 Clouds -1 1030 94 8000 2.57 130 07:18 11.01.2022
4474 Mist 0 1028 93 5000 0.45 79 00:33 11.01.2022
4475 Mist 0 1028 94 2500 3.09 110 23:44 10.01.2022
4476 Fog 0 1028 94 800 0.45 49 23:24 10.01.2022
4477 Fog 0 1028 93 800 0.45 91 22:19 10.01.2022
4478 Fog 0 1028 93 800 0.45 91 22:19 10.01.2022
4479 Clouds 0 1027 93 10000 3.09 150 21:54 10.01.2022
4480 Clear 1 1027 91 10000 0.45 183 21:21 10.01.2022
4481 Clear 1 1027 90 10000 2.57 100 20:57 10.01.2022
4482 Clear 1 1026 89 10000 2.06 90 20:28 10.01.2022
4483 Clear 1 1026 89 10000 1.54 110 19:44 10.01.2022
4484 Clear 1 1025 89 10000 2.57 150 19:21 10.01.2022
4485 Clear 2 1025 87 10000 1.03 0 18:50 10.01.2022
4486 Clear 2 1025 86 10000 0.51 120 18:31 10.01.2022
4487 Clouds 5 1023 78 10000 0.51 120 16:42 10.01.2022
4488 Clouds 6 1022 76 10000 1.03 250 15:49 10.01.2022
4489 Clouds 6 1021 74 10000 0.45 102 14:34 10.01.2022
4490 Clear 5 1020 87 10000 0.45 100 12:22 10.01.2022
4491 Clouds 3 1019 92 10000 1.54 150 11:25 10.01.2022
4492 Clouds 2 1018 93 10000 2.57 60 10:21 10.01.2022
4493 Clouds 1 1016 93 10000 0.51 0 08:22 10.01.2022
4494 Clouds 0 1012 93 10000 0.51 0 05:50 10.01.2022
4495 Clouds 2 1009 88 10000 0.51 0 01:33 10.01.2022
4496 Clouds 2 1008 88 10000 1.03 0 00:36 10.01.2022
4497 Clouds 3 1007 88 10000 0.51 0 23:54 09.01.2022
4498 Clouds 3 1008 87 10000 1.54 170 22:43 09.01.2022
4499 Clouds 3 1008 87 10000 1.54 200 21:47 09.01.2022
4500 Clouds 4 1005 85 10000 1.03 0 21:25 09.01.2022
4501 Clouds 4 1005 85 10000 1.03 0 21:25 09.01.2022
4502 Clouds 3 1005 85 10000 1.54 0 20:58 09.01.2022
4503 Clouds 3 1005 85 10000 1.54 0 20:39 09.01.2022
4504 Clouds 4 1004 84 10000 2.06 230 20:21 09.01.2022
4505 Clouds 4 1003 82 10000 2.06 260 19:38 09.01.2022
4506 Clouds 4 1003 82 10000 2.06 260 19:18 09.01.2022
4507 Clouds 5 1003 81 10000 3.6 270 18:37 09.01.2022
4508 Clouds 5 1002 79 10000 4.12 260 17:48 09.01.2022
4509 Clouds 5 1004 82 10000 4.12 270 17:29 09.01.2022
4510 Clouds 5 1003 83 10000 4.12 260 16:43 09.01.2022
4511 Rain 6 1001 78 10000 0.89 306 15:42 09.01.2022
4512 Rain 6 1001 78 10000 0.89 306 15:42 09.01.2022
4513 Clouds 6 1000 79 10000 6.17 270 14:58 09.01.2022
4514 Clouds 6 1000 80 10000 0.45 274 14:24 09.01.2022
4515 Clouds 6 1000 82 10000 0.45 262 13:48 09.01.2022
4516 Clouds 6 999 81 10000 0.89 257 11:58 09.01.2022
4517 Clouds 5 998 81 10000 0.89 255 11:28 09.01.2022
4518 Clouds 5 997 82 10000 0.45 274 09:55 09.01.2022
4519 Clouds 5 996 81 10000 0.89 264 09:20 09.01.2022
4520 Clouds 5 994 84 10000 1.34 296 07:54 09.01.2022
4521 Rain 5 987 88 10000 0.45 100 01:30 09.01.2022
4522 Rain 5 988 88 10000 0.89 136 00:50 09.01.2022
4523 Rain 5 989 87 10000 0.89 329 23:36 08.01.2022
4524 Rain 5 991 87 10000 1.34 112 22:56 08.01.2022
4525 Rain 5 993 84 10000 0.89 68 21:32 08.01.2022
4526 Rain 4 995 85 10000 1.79 83 20:44 08.01.2022
4527 Rain 4 996 85 10000 0.45 333 20:23 08.01.2022
4528 Rain 4 996 87 10000 0.89 115 19:46 08.01.2022
4529 Clouds 3 1001 91 10000 5.66 150 17:49 08.01.2022
4530 Snow 3 1003 92 10000 0.45 111 16:57 08.01.2022
4531 Rain 4 1005 77 10000 0.89 30 15:37 08.01.2022
4532 Rain 4 1007 74 10000 0.89 321 14:38 08.01.2022
4533 Clouds 3 1012 85 10000 3.6 180 12:36 08.01.2022
4534 Clouds 2 1013 91 10000 2.57 170 10:49 08.01.2022
4535 Clouds 2 1011 91 10000 0.45 263 10:24 08.01.2022
4536 Clouds 1 1011 91 6000 1.54 160 09:34 08.01.2022
4537 Clouds 1 1010 89 10000 1.54 240 07:18 08.01.2022
4538 Clouds 3 1010 90 10000 2.06 180 02:33 08.01.2022
4539 Clouds 3 1008 85 10000 3.6 190 00:41 08.01.2022
4540 Clouds 3 1008 84 10000 2.57 140 22:40 07.01.2022
4541 Clouds 3 1009 84 10000 3.09 190 20:56 07.01.2022
4542 Clouds 3 1009 83 10000 0.45 258 19:56 07.01.2022
4543 Clouds 3 1009 83 10000 0.45 258 19:56 07.01.2022
4544 Clouds 4 1009 81 10000 3.6 210 18:58 07.01.2022
4545 Clouds 4 1011 84 10000 3.6 210 18:38 07.01.2022
4546 Clouds 4 1011 85 10000 5.14 210 17:25 07.01.2022
4547 Rain 5 1011 85 10000 5.66 220 16:23 07.01.2022
4548 Clouds 6 1010 77 10000 5.14 230 13:53 07.01.2022
4549 Clouds 6 1012 81 10000 5.66 210 13:22 07.01.2022
4550 Clouds 5 1012 84 10000 2.57 160 12:49 07.01.2022
4551 Rain 4 1011 85 10000 0.45 5 09:37 07.01.2022
4552 Clouds 3 1014 85 10000 5.14 140 02:56 07.01.2022
4553 Clouds 2 1015 87 10000 0.89 84 01:54 07.01.2022
4554 Clouds 2 1016 86 10000 3.6 170 01:28 07.01.2022
4555 Clouds 2 1014 85 10000 4.26 192 00:58 07.01.2022
4556 Clouds 2 1014 85 10000 4.26 192 00:58 07.01.2022
4557 Clouds 2 1015 86 10000 0.89 93 23:53 06.01.2022
4558 Clouds 2 1016 87 10000 2.88 176 21:28 06.01.2022
4559 Clear 2 1018 89 10000 3.09 160 20:22 06.01.2022
4560 Clouds 2 1018 88 10000 3.09 150 19:45 06.01.2022
4561 Clear 3 1018 88 10000 2.57 170 18:34 06.01.2022
4562 Clouds 3 1020 88 10000 2.57 150 17:41 06.01.2022
4563 Clouds 4 1020 86 10000 1.03 120 16:52 06.01.2022
4564 Clouds 6 1017 82 10000 1.03 0 15:48 06.01.2022
4565 Clouds 6 1017 83 10000 1.54 130 15:26 06.01.2022
4566 Clouds 6 1018 84 10000 0.51 0 14:54 06.01.2022
4567 Clouds 5 1020 86 10000 0.51 0 14:18 06.01.2022
4568 Clouds 5 1018 86 10000 2.06 290 12:56 06.01.2022
4569 Clouds 4 1020 90 10000 0.51 0 11:43 06.01.2022
4570 Clouds 4 1020 92 10000 0.51 0 11:23 06.01.2022
4571 Clouds 2 1016 90 10000 2.06 260 08:59 06.01.2022
4572 Clouds 4 1012 92 10000 4.63 290 01:52 06.01.2022
4573 Clouds 5 1011 92 6000 0.45 293 23:40 05.01.2022
4574 Clouds 5 1011 92 6000 0.89 270 23:19 05.01.2022
4575 Clouds 5 1010 91 10000 6.69 280 22:40 05.01.2022
4576 Clouds 5 1010 91 10000 1.34 281 21:54 05.01.2022
4577 Clouds 5 1010 91 10000 1.34 274 21:22 05.01.2022
4578 Clouds 5 1009 89 10000 1.34 299 20:21 05.01.2022
4579 Clouds 5 1008 89 10000 0.45 290 19:27 05.01.2022
4580 Clouds 5 1007 85 10000 1.79 275 17:50 05.01.2022
4581 Clouds 5 1006 83 10000 1.79 301 16:56 05.01.2022
4582 Clouds 5 1005 77 10000 1.79 298 15:46 05.01.2022
4583 Clouds 5 1004 77 10000 0.89 231 14:50 05.01.2022
4584 Clouds 5 1006 80 10000 9.26 260 13:33 05.01.2022
4585 Clouds 4 1006 80 10000 9.77 250 11:59 05.01.2022
4586 Clouds 2 1002 84 10000 0.89 260 08:21 05.01.2022
4587 Clouds 2 1002 87 10000 0.45 250 06:37 05.01.2022
4588 Clouds 2 1002 88 10000 0.45 250 06:37 05.01.2022
4589 Rain 3 998 91 10000 0.89 99 01:20 05.01.2022
4590 Clouds 5 996 91 10000 4.63 330 23:41 04.01.2022
4591 Rain 5 996 93 10000 2.57 310 23:19 04.01.2022
4592 Clouds 6 996 93 10000 1.54 200 21:36 04.01.2022
4593 Clouds 6 996 93 10000 1.03 0 20:41 04.01.2022
4594 Clouds 7 996 93 6000 0.89 255 18:35 04.01.2022
4595 Rain 7 995 89 10000 0.89 289 17:19 04.01.2022
4596 Clouds 8 997 91 10000 5.14 240 16:31 04.01.2022
4597 Clouds 8 995 91 10000 3.6 230 15:20 04.01.2022
4598 Clouds 8 995 92 10000 3.09 240 14:37 04.01.2022
4599 Clouds 8 995 94 10000 2.57 230 13:55 04.01.2022
4600 Rain 7 995 95 10000 0.45 90 12:20 04.01.2022
4601 Clouds 7 995 96 9000 1.03 130 10:21 04.01.2022
4602 Rain 7 995 96 10000 1.54 150 08:49 04.01.2022
4603 Rain 7 996 94 10000 2.57 170 06:28 04.01.2022
4604 Rain 8 1002 92 10000 0.45 220 00:42 04.01.2022
4605 Rain 8 1005 94 10000 3.6 210 23:54 03.01.2022
4606 Rain 9 1004 94 10000 2.06 150 22:22 03.01.2022
4607 Clouds 9 1004 94 10000 2.06 170 21:39 03.01.2022
4608 Clouds 9 1005 94 10000 2.06 190 20:41 03.01.2022
4609 Clouds 9 1006 91 10000 2.57 270 18:55 03.01.2022
4610 Clouds 9 1006 90 10000 4.12 180 18:31 03.01.2022
4611 Clouds 9 1007 89 10000 2.57 180 17:21 03.01.2022
4612 Clouds 9 1008 87 10000 2.06 200 16:53 03.01.2022
4613 Clouds 10 1012 78 10000 4.12 210 14:31 03.01.2022
4614 Clouds 11 1011 73 10000 0.89 274 12:53 03.01.2022
4615 Clouds 11 1011 75 10000 0.45 291 11:50 03.01.2022
4616 Clouds 11 1011 76 10000 4.12 220 11:22 03.01.2022
4617 Clouds 10 1012 79 10000 4.12 220 09:29 03.01.2022
4618 Clouds 10 1012 75 10000 4.12 220 07:55 03.01.2022
4619 Clouds 10 1012 76 10000 0.89 306 04:23 03.01.2022
4620 Rain 11 1010 89 10000 1.34 276 23:44 02.01.2022
4621 Clouds 10 1009 90 10000 7.2 280 22:57 02.01.2022
4622 Clouds 11 1010 84 10000 1.34 275 22:22 02.01.2022
4623 Clouds 11 1010 90 10000 4.63 200 21:26 02.01.2022
4624 Clouds 11 1010 88 10000 2.57 220 20:30 02.01.2022
4625 Rain 11 1011 83 10000 5.14 220 19:49 02.01.2022
4626 Rain 12 1013 79 10000 4.12 200 19:25 02.01.2022
4627 Clouds 13 1011 75 10000 0.45 98 18:31 02.01.2022
4628 Clouds 13 1012 75 10000 3.6 220 17:43 02.01.2022
4629 Clouds 13 1012 74 10000 0.89 270 17:21 02.01.2022
4630 Clouds 13 1012 73 10000 0.89 261 16:33 02.01.2022
4631 Clouds 13 1012 73 10000 0.89 235 15:49 02.01.2022
4632 Clouds 13 1012 73 10000 0.89 235 15:49 02.01.2022
4633 Clouds 13 1012 70 10000 7.2 260 13:58 02.01.2022
4634 Clouds 14 1012 75 10000 0.45 281 12:34 02.01.2022
4635 Clouds 13 1012 77 10000 3.6 180 11:56 02.01.2022
4636 Clouds 12 1012 80 10000 3.6 140 10:56 02.01.2022
4637 Clouds 11 1012 83 10000 3.09 130 10:26 02.01.2022
4638 Clouds 11 1014 90 10000 4.63 140 08:22 02.01.2022
4639 Clear 11 1017 88 10000 0.45 294 02:58 02.01.2022
4640 Clear 10 1018 91 10000 0.45 44 23:56 01.01.2022
4641 Clear 10 1019 91 10000 0.45 32 23:36 01.01.2022
4642 Clear 11 1019 90 10000 3.6 130 22:44 01.01.2022
4643 Clear 11 1019 90 10000 0.89 299 22:18 01.01.2022
4644 Clear 11 1020 88 10000 0.45 189 21:43 01.01.2022
4645 Clear 11 1020 88 10000 0.45 349 20:51 01.01.2022
4646 Clear 11 1020 88 10000 0.45 326 19:55 01.01.2022
4647 Clear 12 1021 87 10000 3.09 120 18:58 01.01.2022
4648 Clear 12 1021 85 10000 2.57 120 17:56 01.01.2022
4649 Clear 13 1022 80 10000 3.6 130 16:35 01.01.2022
4650 Clouds 14 1022 78 10000 0.89 229 15:57 01.01.2022
4651 Clouds 15 1022 73 10000 1.79 42 14:56 01.01.2022
4652 Clouds 14 1024 75 10000 5.66 170 13:42 01.01.2022
4653 Clouds 14 1025 76 10000 5.14 180 12:43 01.01.2022
4654 Clouds 14 1026 77 10000 4.63 180 11:47 01.01.2022
4655 Clouds 13 1026 78 10000 4.12 180 11:20 01.01.2022
4656 Clouds 13 1026 77 10000 3.6 190 09:49 01.01.2022
4657 Clouds 13 1026 77 10000 4.12 210 09:21 01.01.2022
4658 Clouds 13 1025 78 10000 4.12 210 08:24 01.01.2022
4659 Clouds 13 1025 79 10000 3.6 210 07:41 01.01.2022
4660 Clouds 13 1023 80 10000 2.57 200 06:45 01.01.2022
4661 Clouds 13 1025 85 10000 2.57 220 05:26 01.01.2022
4662 Clouds 13 1025 85 10000 3.09 240 04:37 01.01.2022
4663 Clouds 13 1022 86 10000 0.45 265 00:53 01.01.2022
4664 Clouds 14 1022 85 10000 1.79 248 23:22 31.12.2021
4665 Clouds 13 1021 85 10000 4.63 280 21:52 31.12.2021
4666 Clouds 14 1020 81 10000 0.89 273 20:33 31.12.2021
4667 Clouds 14 1019 81 10000 1.34 271 19:30 31.12.2021
4668 Clouds 14 1021 77 10000 7.72 260 18:35 31.12.2021
4669 Clouds 14 1020 78 10000 6.17 270 17:38 31.12.2021
4670 Clouds 14 1020 76 10000 4.12 270 17:18 31.12.2021
4671 Clear 15 1019 75 10000 1.54 260 16:25 31.12.2021
4672 Clear 15 1017 71 10000 0.45 268 15:57 31.12.2021
4673 Clear 15 1016 72 10000 2.57 200 15:28 31.12.2021
4674 Clear 15 1016 72 10000 0.45 264 14:52 31.12.2021
4675 Clear 15 1017 73 10000 2.06 190 14:29 31.12.2021
4676 Clear 14 1017 76 10000 2.06 160 13:36 31.12.2021
4677 Rain 14 1017 76 10000 3.6 170 12:45 31.12.2021
4678 Clear 13 1018 78 10000 4.63 170 11:51 31.12.2021
4679 Clear 13 1017 79 10000 0.45 93 11:30 31.12.2021
4680 Clear 13 1018 81 10000 0.89 315 10:38 31.12.2021
4681 Clear 12 1018 83 10000 0.45 160 09:55 31.12.2021
4682 Clouds 12 1017 84 10000 0.45 62 09:33 31.12.2021
4683 Clouds 12 1017 83 10000 4.63 200 08:43 31.12.2021
4684 Clouds 13 1019 84 10000 5.66 200 07:31 31.12.2021
4685 Clouds 14 1020 84 10000 6.69 250 23:32 30.12.2021
4686 Clouds 14 1018 83 10000 0.89 257 22:38 30.12.2021
4687 Clouds 14 1018 83 10000 6.17 250 22:20 30.12.2021
4688 Clouds 14 1017 83 10000 4.63 240 21:37 30.12.2021
4689 Clouds 14 1017 83 10000 4.63 240 21:37 30.12.2021
4690 Clouds 14 1017 83 10000 0.45 253 20:48 30.12.2021
4691 Clouds 14 1017 83 10000 3.09 220 20:28 30.12.2021
4692 Clouds 14 1017 84 10000 3.09 220 19:48 30.12.2021
4693 Clouds 14 1017 85 10000 0.45 255 18:51 30.12.2021
4694 Clouds 14 1016 83 10000 0.45 260 18:20 30.12.2021
4695 Clouds 15 1015 79 10000 0.45 288 16:34 30.12.2021
4696 Clouds 15 1015 79 10000 0.89 259 15:52 30.12.2021
4697 Clouds 15 1015 78 10000 7.2 250 14:41 30.12.2021
4698 Clouds 15 1016 81 10000 6.17 240 14:19 30.12.2021
4699 Clouds 15 1017 83 10000 4.63 230 13:23 30.12.2021
4700 Clouds 15 1015 86 10000 3.6 230 11:34 30.12.2021
4701 Clouds 14 1014 90 10000 4.63 250 10:27 30.12.2021
4702 Clouds 14 1013 91 10000 0.89 275 09:27 30.12.2021
4703 Clouds 13 1012 96 10000 4.12 170 06:55 30.12.2021
4704 Drizzle 12 1011 90 10000 3.09 200 04:42 30.12.2021
4705 Drizzle 12 1011 88 10000 2.57 180 03:40 30.12.2021
4706 Clouds 12 1010 86 10000 0.45 196 01:56 30.12.2021
4707 Clouds 13 1009 92 10000 0.89 252 23:37 29.12.2021
4708 Drizzle 13 1007 97 10000 5.66 270 22:33 29.12.2021
4709 Drizzle 13 1006 96 10000 0.89 250 21:55 29.12.2021
4710 Drizzle 12 1005 97 8000 0.89 276 20:56 29.12.2021
4711 Clouds 11 1005 97 5000 3.6 170 20:26 29.12.2021
4712 Clouds 11 1004 98 6000 4.63 160 19:31 29.12.2021
4713 Clouds 10 1004 96 6000 4.63 150 18:36 29.12.2021
4714 Clouds 9 1004 94 10000 0.89 66 17:42 29.12.2021
4715 Clouds 9 1005 93 7000 0.45 83 17:23 29.12.2021
4716 Rain 10 1005 88 10000 3.6 120 16:21 29.12.2021
4717 Clouds 10 1005 83 10000 4.12 160 15:21 29.12.2021
4718 Clouds 10 1008 82 10000 2.57 220 12:57 29.12.2021
4719 Clouds 10 1008 84 10000 3.09 220 12:33 29.12.2021
4720 Clouds 9 1006 84 10000 4.63 230 11:23 29.12.2021
4721 Clouds 9 1005 90 10000 0.45 101 09:35 29.12.2021
4722 Drizzle 9 1004 93 10000 0.45 263 07:45 29.12.2021
4723 Drizzle 9 1003 93 10000 0.45 277 06:33 29.12.2021
4724 Clouds 9 1003 90 10000 0.45 264 05:56 29.12.2021
4725 Clouds 9 1002 91 10000 0.45 264 05:27 29.12.2021
4726 Drizzle 9 998 94 10000 1.34 298 00:45 29.12.2021
4727 Drizzle 9 996 95 10000 1.79 255 23:59 28.12.2021
4728 Drizzle 9 995 95 10000 1.79 261 22:57 28.12.2021
4729 Clouds 9 994 96 8000 1.34 264 22:25 28.12.2021
4730 Clouds 9 994 97 6000 3.09 280 21:56 28.12.2021
4731 Clouds 9 994 96 6000 0.89 274 21:35 28.12.2021
4732 Clouds 9 993 94 10000 0.89 273 20:32 28.12.2021
4733 Rain 8 991 88 10000 4.63 210 18:56 28.12.2021
4734 Clouds 8 991 87 10000 0.89 304 18:29 28.12.2021
4735 Rain 9 991 81 10000 0.89 202 17:48 28.12.2021
4736 Rain 10 991 73 10000 6.69 260 16:29 28.12.2021
4737 Clouds 11 991 70 10000 0.89 288 15:45 28.12.2021
4738 Clouds 11 991 74 10000 0.89 229 15:19 28.12.2021
4739 Clouds 10 991 83 10000 0.89 235 14:45 28.12.2021
4740 Clouds 10 991 93 10000 5.66 190 14:20 28.12.2021
4741 Clouds 10 990 94 8000 0.45 34 13:42 28.12.2021
4742 Clouds 10 991 93 10000 0.45 110 13:24 28.12.2021
4743 Clouds 10 991 94 10000 0.45 63 12:39 28.12.2021
4744 Clouds 9 992 95 10000 0.45 247 11:27 28.12.2021
4745 Clouds 9 992 95 10000 4.63 130 07:41 28.12.2021
4746 Clouds 9 993 97 10000 0.45 27 06:41 28.12.2021
4747 Clouds 8 996 96 10000 3.6 140 23:43 27.12.2021
4748 Clouds 8 996 95 10000 0.89 352 22:58 27.12.2021
4749 Clouds 8 997 94 10000 0.89 4 21:33 27.12.2021
4750 Clouds 8 997 94 10000 5.14 130 20:57 27.12.2021
4751 Clouds 7 997 93 10000 5.14 130 19:58 27.12.2021
4752 Clouds 8 997 91 10000 0.45 46 19:39 27.12.2021
4753 Clouds 8 997 91 10000 2.57 110 18:23 27.12.2021
4754 Clouds 8 997 90 10000 4.12 120 17:46 27.12.2021
4755 Clouds 8 997 91 10000 3.09 120 16:40 27.12.2021
4756 Clouds 8 997 91 10000 3.09 130 15:52 27.12.2021
4757 Clouds 8 997 88 10000 4.63 140 14:32 27.12.2021
4758 Clouds 8 997 89 10000 0.45 337 13:39 27.12.2021
4759 Clouds 7 998 91 10000 3.6 130 12:36 27.12.2021
4760 Clouds 6 999 94 10000 0.45 282 10:31 27.12.2021
4761 Clouds 5 999 94 10000 3.6 110 09:47 27.12.2021
4762 Clouds 5 999 94 10000 3.09 110 07:50 27.12.2021
4763 Clouds 5 1000 94 10000 3.09 130 07:29 27.12.2021
4764 Clouds 4 1001 94 10000 3.6 130 02:21 27.12.2021
4765 Rain 3 1002 91 10000 0.45 312 23:58 26.12.2021
4766 Clouds 3 1002 91 10000 4.12 120 23:38 26.12.2021
4767 Clouds 3 1002 88 10000 0.45 89 22:34 26.12.2021
4768 Clouds 3 1003 87 10000 0.45 124 20:59 26.12.2021
4769 Clouds 3 1003 86 10000 4.63 120 19:49 26.12.2021
4770 Clouds 3 1003 84 10000 0.89 71 18:24 26.12.2021
4771 Clouds 3 1003 85 10000 0.89 85 17:30 26.12.2021
4772 Clouds 4 1004 82 10000 0.45 68 14:32 26.12.2021
4773 Clouds 4 1004 82 10000 0.89 47 13:43 26.12.2021
4774 Clouds 3 1004 83 10000 0.45 80 13:20 26.12.2021
4775 Clouds 3 1004 87 10000 4.12 120 12:33 26.12.2021
4776 Clouds 2 1005 82 10000 0.45 110 10:44 26.12.2021
4777 Clouds 2 1005 79 10000 0.45 46 09:29 26.12.2021
4778 Clouds 2 1005 79 10000 0.89 322 08:44 26.12.2021
4779 Clouds 1 1005 79 10000 0.45 91 07:59 26.12.2021
4780 Clouds 1 1006 78 10000 2.57 110 01:36 26.12.2021
4781 Clouds 1 1006 78 10000 0.45 80 00:20 26.12.2021
4782 Clouds 1 1006 78 10000 2.57 90 23:28 25.12.2021
4783 Clouds 1 1006 78 10000 3.09 100 22:29 25.12.2021
4784 Clouds 1 1006 77 10000 2.06 100 21:25 25.12.2021
4785 Clouds 1 1006 77 10000 2.57 80 19:46 25.12.2021
4786 Snow 1 1006 75 10000 3.09 100 19:18 25.12.2021
4787 Clouds 2 1007 77 10000 3.09 100 18:26 25.12.2021
4788 Clouds 2 1006 79 10000 0.45 91 16:49 25.12.2021
4789 Clouds 2 1007 83 10000 4.12 80 15:30 25.12.2021
4790 Clouds 3 1005 83 10000 4.63 80 14:22 25.12.2021
4791 Clouds 3 1005 89 10000 4.12 80 12:21 25.12.2021
4792 Clouds 3 1004 93 10000 4.63 70 10:38 25.12.2021
4793 Clouds 3 1004 94 10000 4.12 70 09:48 25.12.2021
4794 Clouds 4 1002 94 10000 0.45 149 07:27 25.12.2021
4795 Clouds 7 1002 92 10000 0.51 0 01:40 25.12.2021
4796 Clouds 7 1002 91 10000 1.54 240 00:21 25.12.2021
4797 Clouds 8 1002 89 10000 0.45 270 21:59 24.12.2021
4798 Clouds 8 1002 87 10000 0.89 272 19:27 24.12.2021
4799 Clear 8 1002 86 10000 1.54 280 18:56 24.12.2021
4800 Clouds 9 1002 83 10000 0.45 260 16:49 24.12.2021
4801 Clouds 10 1002 81 10000 0.89 284 15:52 24.12.2021
4802 Clouds 10 1002 81 10000 4.63 270 15:32 24.12.2021
4803 Clouds 10 1004 80 10000 6.17 270 14:35 24.12.2021
4804 Clouds 10 1002 79 10000 0.45 305 13:59 24.12.2021
4805 Clouds 10 1002 80 10000 0.89 273 13:32 24.12.2021
4806 Clouds 10 1003 81 10000 6.69 270 12:47 24.12.2021
4807 Clouds 10 1003 82 10000 1.34 263 11:47 24.12.2021
4808 Clouds 9 1003 83 10000 0.89 277 11:24 24.12.2021
4809 Clouds 9 1003 84 10000 5.66 260 10:45 24.12.2021
4810 Clouds 9 1004 85 10000 6.69 270 09:25 24.12.2021
4811 Clouds 9 1003 86 10000 0.45 77 08:19 24.12.2021
4812 Clouds 9 1003 86 10000 7.72 260 07:44 24.12.2021
4813 Clouds 9 1004 92 10000 1.34 268 01:30 24.12.2021
4814 Clouds 8 1004 92 10000 1.54 150 23:55 23.12.2021
4815 Clouds 7 1004 93 10000 4.63 180 22:56 23.12.2021
4816 Clouds 7 1004 92 10000 4.63 180 22:37 23.12.2021
4817 Rain 7 1005 90 10000 5.14 160 22:18 23.12.2021
4818 Clouds 6 1006 87 10000 2.57 130 20:56 23.12.2021
4819 Clouds 6 1006 84 10000 3.6 150 19:47 23.12.2021
4820 Clouds 6 1006 81 10000 3.6 150 18:34 23.12.2021
4821 Clouds 5 1006 81 10000 4.12 140 17:56 23.12.2021
4822 Clouds 5 1006 79 10000 5.66 150 16:43 23.12.2021
4823 Clouds 5 1006 77 10000 4.63 130 16:23 23.12.2021
4824 Clouds 5 1007 74 10000 0.89 251 15:31 23.12.2021
4825 Clear 5 1007 72 10000 4.63 130 14:49 23.12.2021
4826 Clear 4 1007 71 10000 0.45 73 14:30 23.12.2021
4827 Clear 3 1009 70 10000 0.89 333 12:53 23.12.2021
4828 Clear 1 1011 77 10000 0.45 27 10:44 23.12.2021
4829 Clear 0 1011 79 10000 3.6 130 09:42 23.12.2021
4830 Clear 0 1011 79 10000 0.89 108 08:59 23.12.2021
4831 Clear -1 1012 79 10000 5.66 130 06:55 23.12.2021
4832 Clear 0 1014 77 10000 4.63 130 04:30 23.12.2021
4833 Clear -1 1018 78 10000 0.89 69 23:20 22.12.2021
4834 Clear -1 1018 77 10000 0.45 75 22:42 22.12.2021
4835 Clear -1 1018 77 10000 0.45 52 21:56 22.12.2021
4836 Clear 0 1019 76 10000 3.6 120 21:29 22.12.2021
4837 Clear 0 1019 76 10000 0.45 89 20:47 22.12.2021
4838 Clear 0 1019 76 10000 4.63 130 20:26 22.12.2021
4839 Clear 0 1019 75 10000 5.14 130 19:28 22.12.2021
4840 Clear 0 1020 73 10000 0.45 99 17:50 22.12.2021
4841 Clear 1 1021 71 10000 0.89 122 16:40 22.12.2021
4842 Clear 2 1021 68 10000 3.09 120 15:42 22.12.2021
4843 Clear 2 1022 72 10000 4.63 130 13:37 22.12.2021
4844 Clear 1 1023 73 10000 4.12 120 12:41 22.12.2021
4845 Clear -1 1024 84 10000 0.45 206 10:36 22.12.2021
4846 Clear -2 1024 86 10000 2.06 100 09:39 22.12.2021
4847 Clear -3 1024 85 10000 2.06 110 07:31 22.12.2021
4848 Clear -3 1024 86 10000 2.06 100 05:50 22.12.2021
4849 Clear -2 1024 85 10000 1.54 90 05:27 22.12.2021
4850 Clear -2 1024 87 10000 2.06 90 04:52 22.12.2021
4851 Clear -3 1024 86 10000 1.54 100 04:30 22.12.2021
4852 Clear -3 1024 86 10000 1.54 100 04:30 22.12.2021
4853 Clear -3 1024 88 10000 2.06 90 03:33 22.12.2021
4854 Clear -2 1024 87 10000 2.06 90 00:57 22.12.2021
4855 Clear -2 1024 88 10000 2.57 110 23:33 21.12.2021
4856 Clear -2 1024 87 10000 1.03 0 22:29 21.12.2021
4857 Clear -2 1024 87 10000 1.03 0 21:51 21.12.2021
4858 Clear -2 1024 87 10000 1.03 0 21:24 21.12.2021
4859 Clear -1 1024 84 10000 0.51 0 20:23 21.12.2021
4860 Clear -1 1024 84 10000 1.03 0 19:46 21.12.2021
4861 Clear -1 1024 83 10000 1.03 0 19:26 21.12.2021
4862 Clear 0 1023 80 10000 2.06 60 18:22 21.12.2021
4863 Clear 0 1023 77 10000 1.03 0 17:51 21.12.2021
4864 Clear 2 1023 70 10000 1.54 80 16:39 21.12.2021
4865 Clear 3 1023 67 10000 1.03 0 15:29 21.12.2021
4866 Clear 3 1023 68 10000 0.45 130 13:51 21.12.2021
4867 Clear 3 1026 76 10000 1.03 0 13:32 21.12.2021
4868 Clear 2 1024 80 10000 0.45 192 12:20 21.12.2021
4869 Clear -1 1026 85 10000 2.06 150 10:37 21.12.2021
4870 Clear -3 1027 92 10000 0.51 0 09:35 21.12.2021
4871 Clear -3 1024 90 10000 0.51 0 08:30 21.12.2021
4872 Clear -3 1026 90 10000 1.1 108 07:32 21.12.2021
4873 Clear -3 1026 91 10000 1.03 140 06:56 21.12.2021
4874 Clear -2 1025 89 10000 1.03 0 03:22 21.12.2021
4875 Clear -2 1025 88 10000 1.03 0 01:18 21.12.2021
4876 Clear -1 1025 84 10000 0.51 0 23:34 20.12.2021
4877 Clear 0 1025 82 10000 0.51 0 22:35 20.12.2021
4878 Clear 0 1025 81 10000 0.51 0 21:48 20.12.2021
4879 Clear 0 1025 79 10000 2.57 60 21:24 20.12.2021
4880 Clear 0 1026 81 10000 3.6 60 20:50 20.12.2021
4881 Clear 1 1025 78 10000 4.12 60 19:55 20.12.2021
4882 Clear 1 1025 78 10000 4.12 60 19:55 20.12.2021
4883 Clear 1 1025 78 10000 4.12 60 19:36 20.12.2021
4884 Clear 1 1025 76 10000 2.06 70 19:18 20.12.2021
4885 Clear 2 1025 71 10000 2.57 60 18:28 20.12.2021
4886 Clear 3 1025 67 10000 1.54 60 17:49 20.12.2021
4887 Clouds 5 1025 56 10000 2.06 80 16:45 20.12.2021
4888 Clouds 6 1025 51 10000 0.45 103 15:55 20.12.2021
4889 Clouds 7 1025 52 10000 2.06 80 15:31 20.12.2021
4890 Clouds 7 1027 63 10000 3.6 80 13:31 20.12.2021
4891 Clouds 6 1026 76 10000 3.09 60 11:47 20.12.2021
4892 Clouds 5 1025 83 10000 2.57 60 10:35 20.12.2021
4893 Clouds 5 1027 85 10000 2.06 60 09:38 20.12.2021
4894 Clouds 5 1025 81 10000 1.03 70 08:44 20.12.2021
4895 Clouds 5 1024 82 10000 1.54 360 08:00 20.12.2021
4896 Clouds 6 1024 83 10000 1.54 30 07:32 20.12.2021
4897 Clouds 6 1024 87 10000 2.06 350 06:32 20.12.2021
4898 Clouds 6 1024 86 10000 2.06 360 06:32 20.12.2021
4899 Clouds 6 1025 94 10000 3.09 310 00:19 20.12.2021
4900 Drizzle 6 1025 94 9000 0.45 136 22:56 19.12.2021
4901 Drizzle 6 1026 94 9000 2.57 330 22:24 19.12.2021
4902 Drizzle 6 1025 93 10000 0.89 258 21:32 19.12.2021
4903 Drizzle 6 1025 93 10000 3.09 300 20:36 19.12.2021
4904 Drizzle 6 1025 92 10000 3.6 300 19:53 19.12.2021
4905 Drizzle 6 1025 92 10000 3.6 300 19:34 19.12.2021
4906 Drizzle 6 1026 91 10000 3.6 320 18:35 19.12.2021
4907 Drizzle 6 1026 89 10000 4.12 310 17:53 19.12.2021
4908 Drizzle 6 1026 89 10000 0.45 283 17:28 19.12.2021
4909 Drizzle 6 1027 87 10000 3.6 320 16:27 19.12.2021
4910 Clouds 6 1029 90 10000 4.63 320 15:52 19.12.2021
4911 Clouds 7 1027 87 10000 0.45 45 15:24 19.12.2021
4912 Clouds 7 1027 88 10000 0.89 121 14:45 19.12.2021
4913 Drizzle 7 1028 89 10000 3.6 310 13:26 19.12.2021
4914 Drizzle 7 1029 89 10000 1.79 272 12:52 19.12.2021
4915 Clouds 7 1029 91 10000 3.6 300 12:28 19.12.2021
4916 Drizzle 6 1030 91 10000 1.34 281 11:33 19.12.2021
4917 Clouds 6 1030 92 10000 0.89 276 10:48 19.12.2021
4918 Clouds 6 1030 94 10000 3.6 320 10:21 19.12.2021
4919 Clouds 6 1030 95 10000 0.89 256 08:46 19.12.2021
4920 Drizzle 6 1031 95 4500 0.45 275 06:30 19.12.2021
4921 Drizzle 6 1033 96 8000 0.89 270 01:45 19.12.2021
4922 Clouds 6 1034 97 10000 1.54 350 00:54 19.12.2021
4923 Drizzle 6 1034 96 10000 1.54 360 22:51 18.12.2021
4924 Drizzle 6 1034 96 8000 2.57 360 22:24 18.12.2021
4925 Drizzle 6 1035 97 3200 1.54 360 21:43 18.12.2021
4926 Drizzle 6 1035 97 1200 1.54 280 21:22 18.12.2021
4927 Drizzle 6 1035 96 1200 1.03 0 20:25 18.12.2021
4928 Drizzle 6 1035 97 1600 1.03 0 19:35 18.12.2021
4929 Drizzle 6 1035 76 2200 0.51 170 18:24 18.12.2021
4930 Drizzle 6 1035 97 2500 1.03 210 17:49 18.12.2021
4931 Drizzle 6 1035 97 2200 1.54 220 16:36 18.12.2021
4932 Drizzle 6 1035 97 2200 1.03 220 16:18 18.12.2021
4933 Drizzle 6 1036 95 2800 1.54 180 14:54 18.12.2021
4934 Drizzle 6 1036 95 1600 1.54 210 13:45 18.12.2021
4935 Clouds 6 1035 96 10000 0.45 314 11:57 18.12.2021
4936 Mist 5 1038 95 2200 1.03 160 09:54 18.12.2021
4937 Clouds 5 1036 95 10000 0.41 222 09:31 18.12.2021
4938 Mist 5 1037 96 2000 1.54 160 08:36 18.12.2021
4939 Mist 5 1037 95 4500 2.06 160 07:24 18.12.2021
4940 Clouds 5 1037 95 10000 0.51 0 01:45 18.12.2021
4941 Clouds 5 1037 92 10000 0.51 0 23:49 17.12.2021
4942 Clouds 5 1038 92 10000 2.57 70 22:39 17.12.2021
4943 Clouds 6 1037 91 10000 2.57 50 21:31 17.12.2021
4944 Clouds 6 1037 89 10000 2.57 70 20:43 17.12.2021
4945 Clouds 7 1037 88 10000 2.06 60 19:56 17.12.2021
4946 Clouds 8 1037 88 10000 2.06 20 18:40 17.12.2021
4947 Clouds 8 1039 89 10000 1.54 40 17:59 17.12.2021
4948 Clouds 9 1039 92 7000 1.03 0 16:53 17.12.2021
4949 Clouds 9 1039 93 7000 0.51 0 16:28 17.12.2021
4950 Clouds 9 1039 93 7000 1.03 0 15:49 17.12.2021
4951 Drizzle 9 1039 94 6000 0.51 0 14:43 17.12.2021
4952 Drizzle 9 1037 93 6000 0.51 0 13:55 17.12.2021
4953 Clouds 9 1039 94 10000 1.54 260 12:37 17.12.2021
4954 Drizzle 8 1040 91 8000 1.03 0 10:42 17.12.2021
4955 Drizzle 8 1039 91 8000 0.51 0 10:42 17.12.2021
4956 Clouds 8 1039 91 10000 0.51 0 09:47 17.12.2021
4957 Clouds 8 1039 93 8000 0.51 0 08:43 17.12.2021
4958 Clouds 8 1039 93 10000 1.03 0 08:18 17.12.2021
4959 Clouds 8 1039 92 10000 1.03 60 04:57 17.12.2021
4960 Drizzle 9 1038 93 9000 1.03 100 00:57 17.12.2021
4961 Clouds 9 1037 92 8000 1.54 90 22:44 16.12.2021
4962 Clouds 9 1039 94 8000 1.03 80 22:22 16.12.2021
4963 Clouds 9 1037 93 6000 0.51 0 21:43 16.12.2021
4964 Clouds 9 1037 92 6000 1.03 30 20:42 16.12.2021
4965 Clouds 9 1037 92 6000 1.03 360 20:21 16.12.2021
4966 Mist 9 1036 92 4000 1.54 30 19:30 16.12.2021
4967 Mist 9 1036 92 5000 1.03 0 18:33 16.12.2021
4968 Mist 10 1036 91 4000 1.03 350 17:46 16.12.2021
4969 Mist 10 1036 90 5000 1.03 340 16:24 16.12.2021
4970 Clouds 10 1036 88 8000 1.54 350 15:50 16.12.2021
4971 Clouds 10 1035 88 8000 1.03 0 13:46 16.12.2021
4972 Clouds 10 1035 89 8000 0.89 270 12:26 16.12.2021
4973 Clouds 9 1038 95 7000 1.03 0 11:19 16.12.2021
4974 Clouds 8 1037 94 6000 0.51 0 10:39 16.12.2021
4975 Fog 7 1037 93 7000 0.51 0 09:43 16.12.2021
4976 Clouds 8 1033 93 10000 1.03 0 06:51 16.12.2021
4977 Clouds 8 1033 93 10000 0.51 0 06:18 16.12.2021
4978 Clouds 9 1032 91 10000 1.03 0 23:58 15.12.2021
4979 Clouds 9 1034 92 10000 1.03 0 23:18 15.12.2021
4980 Clouds 9 1034 92 10000 0.51 110 22:21 15.12.2021
4981 Clouds 9 1033 92 10000 1.03 0 21:44 15.12.2021
4982 Clouds 9 1033 92 10000 0.51 0 21:24 15.12.2021
4983 Clouds 9 1033 92 10000 0.51 0 19:54 15.12.2021
4984 Clouds 9 1033 90 10000 0.51 140 19:18 15.12.2021
4985 Clouds 9 1032 89 10000 2.06 250 18:20 15.12.2021
4986 Clouds 9 1032 91 10000 1.54 240 17:45 15.12.2021
4987 Clouds 10 1030 89 10000 2.57 300 17:21 15.12.2021
4988 Clouds 10 1029 88 10000 0.89 267 15:49 15.12.2021
4989 Clouds 10 1029 87 10000 1.03 160 15:31 15.12.2021
4990 Clouds 10 1031 89 10000 1.03 0 14:59 15.12.2021
4991 Clouds 10 1031 91 10000 1.54 160 13:48 15.12.2021
4992 Clouds 9 1032 93 10000 2.57 160 11:52 15.12.2021
4993 Clouds 9 1030 91 10000 2.57 150 10:22 15.12.2021
4994 Clouds 8 1029 91 10000 2.57 190 08:27 15.12.2021
4995 Clouds 8 1030 90 10000 1.54 180 05:54 15.12.2021
4996 Drizzle 8 1028 91 10000 1.54 140 00:45 15.12.2021
4997 Clouds 8 1028 90 10000 2.06 130 23:32 14.12.2021
4998 Clouds 8 1028 90 10000 2.06 120 22:45 14.12.2021
4999 Drizzle 8 1027 89 10000 3.09 170 21:47 14.12.2021
5000 Drizzle 8 1027 87 10000 1.54 50 20:23 14.12.2021
5001 Clouds 9 1027 87 10000 2.06 150 19:39 14.12.2021
5002 Clouds 9 1027 87 10000 2.06 140 18:42 14.12.2021
5003 Clouds 9 1026 86 10000 1.03 150 17:57 14.12.2021
5004 Clouds 9 1026 85 10000 1.54 160 16:58 14.12.2021
5005 Clouds 9 1026 85 10000 1.54 160 16:35 14.12.2021
5006 Clouds 9 1026 83 10000 1.03 0 14:39 14.12.2021
5007 Clouds 9 1026 83 10000 1.03 0 13:24 14.12.2021
5008 Clouds 8 1026 87 10000 1.03 0 11:56 14.12.2021
5009 Clouds 8 1028 89 10000 1.54 280 11:22 14.12.2021
5010 Clouds 8 1026 90 10000 3.09 280 09:55 14.12.2021
5011 Clouds 7 1025 90 10000 3.09 280 09:22 14.12.2021
5012 Clouds 7 1027 91 10000 1.54 260 08:23 14.12.2021
5013 Clouds 7 1027 91 10000 1.54 260 08:23 14.12.2021
5014 Clouds 7 1027 88 10000 3.09 280 07:42 14.12.2021
5015 Clouds 7 1027 90 10000 3.6 170 01:46 14.12.2021
5016 Clouds 8 1028 87 10000 3.09 170 22:49 13.12.2021
5017 Clouds 8 1028 85 10000 3.6 170 21:51 13.12.2021
5018 Clouds 8 1028 87 10000 2.57 180 20:59 13.12.2021
5019 Clouds 8 1028 86 10000 2.57 0 20:31 13.12.2021
5020 Clouds 8 1028 85 10000 2.06 160 19:52 13.12.2021
5021 Clouds 9 1028 81 10000 2.57 220 17:56 13.12.2021
5022 Clouds 9 1028 82 10000 3.09 200 17:23 13.12.2021
5023 Clouds 9 1028 82 10000 3.09 200 17:23 13.12.2021
5024 Clouds 10 1028 84 10000 2.06 220 15:49 13.12.2021
5025 Clouds 10 1026 83 10000 2.06 190 15:19 13.12.2021
5026 Clouds 10 1028 87 10000 2.06 170 13:38 13.12.2021
5027 Clouds 10 1026 88 10000 3.09 150 12:42 13.12.2021
5028 Clouds 9 1028 91 10000 2.57 160 11:54 13.12.2021
5029 Clouds 9 1028 92 10000 2.57 150 11:35 13.12.2021
5030 Clouds 9 1026 95 10000 2.57 150 10:43 13.12.2021
5031 Clouds 8 1025 93 10000 2.57 140 08:57 13.12.2021
5032 Clouds 8 1025 95 10000 2.57 150 07:38 13.12.2021
5033 Clouds 8 1025 96 10000 3.09 150 05:35 13.12.2021
5034 Clouds 9 1024 96 10000 3.09 150 00:43 13.12.2021
5035 Drizzle 9 1023 97 7000 2.06 160 22:22 12.12.2021
5036 Drizzle 9 1023 97 4800 3.09 160 21:35 12.12.2021
5037 Drizzle 8 1023 97 4500 3.6 160 19:47 12.12.2021
5038 Drizzle 8 1022 96 3500 3.09 160 18:35 12.12.2021
5039 Drizzle 8 1022 95 3500 3.09 160 17:31 12.12.2021
5040 Drizzle 8 1022 95 3800 3.09 160 16:27 12.12.2021
5041 Drizzle 8 1021 95 9000 3.09 160 15:45 12.12.2021
5042 Drizzle 8 1021 95 5000 3.6 160 15:25 12.12.2021
5043 Drizzle 8 1021 95 4000 4.12 160 14:34 12.12.2021
5044 Clouds 7 1021 92 10000 5.14 160 13:26 12.12.2021
5045 Clouds 7 1021 93 10000 5.66 160 12:30 12.12.2021
5046 Clouds 7 1021 95 10000 5.14 150 11:44 12.12.2021
5047 Clouds 6 1021 95 10000 4.63 150 11:20 12.12.2021
5048 Drizzle 6 1021 95 10000 3.6 150 10:22 12.12.2021
5049 Drizzle 5 1021 96 10000 3.6 140 09:38 12.12.2021
5050 Clouds 5 1021 96 6000 0.89 50 08:33 12.12.2021
5051 Clouds 4 1021 86 10000 0.45 240 06:19 12.12.2021
5052 Rain 4 1020 86 10000 0.89 3 04:56 12.12.2021
5053 Clear 4 1021 84 10000 4.12 130 03:57 12.12.2021
5054 Clear 3 1021 85 10000 3.6 160 23:47 11.12.2021
5055 Clouds 3 1020 86 10000 2.57 170 22:23 11.12.2021
5056 Clouds 3 1020 86 10000 3.6 210 21:52 11.12.2021
5057 Clouds 4 1020 86 10000 2.57 200 21:18 11.12.2021
5058 Clouds 5 1020 91 10000 1.03 240 19:30 11.12.2021
5059 Clouds 5 1020 92 10000 2.06 280 18:53 11.12.2021
5060 Clouds 5 1018 90 10000 1.03 0 18:26 11.12.2021
5061 Clouds 5 1017 90 10000 0.45 314 17:24 11.12.2021
5062 Clouds 6 1017 90 10000 3.6 300 15:55 11.12.2021
5063 Clouds 6 1015 89 10000 0.89 254 15:35 11.12.2021
5064 Clouds 5 1014 95 9000 3.6 160 13:21 11.12.2021
5065 Drizzle 4 1013 93 6000 2.57 160 11:46 11.12.2021
5066 Clouds 3 1012 91 9000 1.03 150 09:57 11.12.2021
5067 Clouds 3 1012 91 9000 1.03 150 09:33 11.12.2021
5068 Clouds 2 1004 92 10000 0.45 266 02:41 11.12.2021
5069 Clouds 1 1001 89 10000 0.51 0 00:42 11.12.2021
5070 Clouds 2 999 88 10000 1.54 330 23:24 10.12.2021
5071 Clouds 3 998 88 10000 1.03 0 22:26 10.12.2021
5072 Clouds 3 997 88 10000 0.51 0 21:37 10.12.2021
5073 Clouds 3 994 88 10000 1.03 80 19:23 10.12.2021
5074 Clouds 3 994 87 10000 1.03 0 18:57 10.12.2021
5075 Clouds 3 992 85 10000 2.57 120 17:21 10.12.2021
5076 Clouds 3 991 82 10000 3.09 110 16:32 10.12.2021
5077 Clouds 4 990 79 10000 3.6 120 15:42 10.12.2021
5078 Clouds 4 990 79 10000 3.6 120 15:23 10.12.2021
5079 Clouds 4 990 70 10000 5.14 130 13:53 10.12.2021
5080 Rain 5 990 70 10000 0.89 15 13:31 10.12.2021
5081 Clouds 4 990 70 10000 0.89 244 12:47 10.12.2021
5082 Clouds 4 990 74 10000 0.89 233 11:34 10.12.2021
5083 Clouds 4 991 77 10000 0.89 20 10:50 10.12.2021
5084 Clouds 4 991 80 10000 0.89 184 09:33 10.12.2021
5085 Clouds 3 991 82 10000 0.89 358 07:24 10.12.2021
5086 Clouds 4 994 82 10000 0.45 94 04:32 10.12.2021
5087 Clouds 4 997 85 10000 0.89 331 02:29 10.12.2021
5088 Clouds 4 1000 87 10000 4.63 160 23:39 09.12.2021
5089 Clouds 4 1001 85 10000 0.45 295 22:41 09.12.2021
5090 Clouds 4 1001 84 10000 3.6 170 22:21 09.12.2021
5091 Clouds 4 1002 85 10000 4.12 170 21:39 09.12.2021
5092 Clouds 5 1002 86 10000 0.45 309 20:34 09.12.2021
5093 Clouds 4 1002 87 10000 0.89 68 19:38 09.12.2021
5094 Clouds 4 1002 88 10000 3.6 150 19:19 09.12.2021
5095 Clouds 4 1002 86 10000 3.09 180 18:18 09.12.2021
5096 Clouds 5 1002 85 10000 3.09 160 17:47 09.12.2021
5097 Clouds 5 1002 84 10000 2.06 170 17:24 09.12.2021
5098 Clouds 5 1002 83 10000 2.57 210 16:36 09.12.2021
5099 Clouds 5 1002 77 10000 0.45 202 15:18 09.12.2021
5100 Clouds 5 1003 77 10000 0.45 196 14:30 09.12.2021
5101 Clouds 5 1003 80 10000 0.89 212 12:48 09.12.2021
5102 Clouds 5 1003 84 10000 0.89 217 11:51 09.12.2021
5103 Clouds 2 1003 92 10000 0.45 96 10:28 09.12.2021
5104 Clear 1 1002 89 10000 1.54 140 07:34 09.12.2021
5105 Clouds 2 1001 87 10000 3.6 150 03:58 09.12.2021
5106 Clouds 3 1001 85 10000 3.09 160 00:26 09.12.2021
5107 Clouds 3 1001 85 10000 1.54 120 23:37 08.12.2021
5108 Clouds 3 1000 83 10000 0.45 120 22:57 08.12.2021
5109 Clouds 4 1000 83 10000 2.57 190 22:36 08.12.2021
5110 Clouds 4 1000 83 10000 2.57 150 21:38 08.12.2021
5111 Clouds 4 999 83 10000 2.06 130 20:58 08.12.2021
5112 Clouds 4 998 83 10000 1.03 0 19:57 08.12.2021
5113 Clouds 4 999 81 10000 2.57 110 19:29 08.12.2021
5114 Clouds 5 998 78 10000 3.09 160 18:28 08.12.2021
5115 Clouds 5 997 75 10000 2.57 160 17:24 08.12.2021
5116 Clouds 7 997 72 10000 2.57 180 15:45 08.12.2021
5117 Clouds 7 997 71 10000 0.45 307 15:23 08.12.2021
5118 Clouds 7 996 72 10000 0.45 246 13:40 08.12.2021
5119 Clouds 6 996 83 10000 4.12 140 10:45 08.12.2021
5120 Clouds 5 995 85 10000 4.12 150 10:23 08.12.2021
5121 Clouds 5 995 87 10000 4.12 160 08:54 08.12.2021
5122 Clouds 5 995 88 10000 0.45 54 06:52 08.12.2021
5123 Rain 5 994 71 10000 0.89 31 01:21 08.12.2021
5124 Rain 5 995 70 10000 1.34 323 23:31 07.12.2021
5125 Clouds 5 998 77 10000 0.89 28 21:26 07.12.2021
5126 Clouds 5 999 76 10000 0.45 293 20:30 07.12.2021
5127 Clear 5 1000 77 10000 7.2 140 19:48 07.12.2021
5128 Clear 4 1002 76 10000 4.63 120 18:39 07.12.2021
5129 Clouds 4 1004 74 10000 0.45 95 17:27 07.12.2021
5130 Clouds 4 1004 74 10000 4.12 140 16:57 07.12.2021
5131 Clouds 5 1005 73 10000 0.45 112 16:28 07.12.2021
5132 Clouds 6 1007 68 10000 1.34 87 14:50 07.12.2021
5133 Clouds 6 1008 69 10000 0.45 214 13:49 07.12.2021
5134 Clouds 6 1010 76 10000 5.66 220 12:46 07.12.2021
5135 Clouds 5 1009 85 10000 3.09 210 11:25 07.12.2021
5136 Clouds 4 1009 90 10000 0.45 236 09:55 07.12.2021
5137 Clouds 4 1008 89 10000 0.89 277 07:55 07.12.2021
5138 Clouds 4 1006 91 10000 1.34 276 05:55 07.12.2021
5139 Clouds 4 1006 91 10000 1.34 276 05:30 07.12.2021
5140 Clouds 2 1002 92 10000 0.45 16 23:45 06.12.2021
5141 Clouds 3 1005 85 10000 0.45 52 22:44 06.12.2021
5142 Rain 3 1005 82 10000 0.89 188 22:22 06.12.2021
5143 Clear 4 1006 79 10000 0.45 60 21:46 06.12.2021
5144 Clouds 4 1007 79 10000 0.89 57 20:33 06.12.2021
5145 Clouds 4 1009 77 10000 4.63 170 19:27 06.12.2021
5146 Clouds 4 1009 78 10000 0.89 96 18:59 06.12.2021
5147 Clouds 4 1009 79 10000 5.14 160 18:23 06.12.2021
5148 Clouds 4 1011 82 10000 4.12 170 17:40 06.12.2021
5149 Clouds 4 1010 76 10000 0.89 284 16:22 06.12.2021
5150 Clouds 5 1013 80 10000 5.14 200 15:38 06.12.2021
5151 Clouds 6 1011 81 10000 3.09 190 13:46 06.12.2021
5152 Clouds 5 1013 85 10000 3.09 190 13:46 06.12.2021
5153 Clouds 5 1014 89 10000 2.57 170 12:39 06.12.2021
5154 Clouds 3 1013 94 10000 0.45 247 10:38 06.12.2021
5155 Rain 2 1013 92 9000 2.57 150 08:46 06.12.2021
5156 Clear 2 1011 95 10000 1.03 0 06:39 06.12.2021
5157 Clouds 4 1007 88 10000 2.57 70 22:54 05.12.2021
5158 Clouds 4 1006 87 10000 1.54 50 21:51 05.12.2021
5159 Clouds 4 1006 86 10000 1.54 110 21:19 05.12.2021
5160 Clouds 4 1007 86 10000 2.06 80 20:19 05.12.2021
5161 Clouds 5 1007 84 10000 2.06 140 19:33 05.12.2021
5162 Clouds 5 1004 78 10000 2.06 120 18:47 05.12.2021
5163 Clouds 5 1003 78 10000 2.57 130 18:19 05.12.2021
5164 Clouds 5 1003 77 10000 2.06 110 17:48 05.12.2021
5165 Clouds 6 1002 74 10000 1.54 110 16:48 05.12.2021
5166 Clouds 6 1002 73 10000 1.54 110 16:26 05.12.2021
5167 Clouds 6 1001 72 10000 3.09 130 15:48 05.12.2021
5168 Clouds 6 1000 73 10000 0.45 110 14:41 05.12.2021
5169 Clouds 6 1000 74 10000 2.57 180 14:23 05.12.2021
5170 Clouds 6 1000 77 10000 0.45 1 13:22 05.12.2021
5171 Clouds 6 1000 80 10000 4.63 150 12:40 05.12.2021
5172 Clouds 6 1000 81 10000 0.45 22 12:18 05.12.2021
5173 Clouds 5 1000 85 10000 0.45 227 11:30 05.12.2021
5174 Clouds 4 999 82 10000 0.45 95 10:18 05.12.2021
5175 Clouds 3 999 84 10000 0.89 73 08:29 05.12.2021
5176 Clouds 4 1000 87 10000 4.12 180 03:39 05.12.2021
5177 Clear 4 998 87 10000 3.09 160 00:48 05.12.2021
5178 Clouds 5 997 88 10000 0.45 253 22:18 04.12.2021
5179 Clouds 5 996 89 10000 0.45 274 21:18 04.12.2021
5180 Clouds 5 996 91 10000 7.72 270 20:27 04.12.2021
5181 Clouds 6 995 93 10000 0.89 267 19:32 04.12.2021
5182 Clouds 5 994 94 10000 0.89 268 18:22 04.12.2021
5183 Clouds 5 994 94 10000 0.45 279 17:42 04.12.2021
5184 Clouds 5 993 95 10000 0.89 269 17:20 04.12.2021
5185 Drizzle 5 993 94 4800 0.45 90 16:42 04.12.2021
5186 Clouds 5 992 92 5000 2.57 160 16:24 04.12.2021
5187 Clouds 5 997 86 10000 4.12 130 11:56 04.12.2021
5188 Clouds 5 997 87 10000 4.12 130 11:33 04.12.2021
5189 Clouds 5 996 88 10000 0.45 68 10:57 04.12.2021
5190 Clouds 4 996 91 10000 3.6 130 08:53 04.12.2021
5191 Clouds 4 996 91 10000 3.09 120 08:28 04.12.2021
5192 Clouds 4 997 91 10000 3.09 130 04:43 04.12.2021
5193 Clouds 5 1000 83 10000 0.89 295 00:49 04.12.2021
5194 Clouds 5 1001 83 10000 0.45 257 23:33 03.12.2021
5195 Clouds 5 1002 81 10000 4.63 180 22:53 03.12.2021
5196 Clouds 4 1002 82 10000 0.89 112 21:54 03.12.2021
5197 Clouds 5 1003 83 10000 1.34 75 21:22 03.12.2021
5198 Clouds 4 1003 85 10000 0.89 343 20:42 03.12.2021
5199 Clouds 4 1004 82 10000 4.63 180 19:28 03.12.2021
5200 Clouds 4 1005 82 10000 0.89 319 18:23 03.12.2021
5201 Clouds 4 1005 81 10000 0.89 307 17:31 03.12.2021
5202 Clouds 5 1008 70 10000 0.89 236 13:40 03.12.2021
5203 Clouds 5 1008 71 10000 0.45 281 12:44 03.12.2021
5204 Clouds 4 1010 77 10000 5.14 190 11:23 03.12.2021
5205 Clouds 2 1010 90 10000 3.09 180 09:22 03.12.2021
5206 Clouds 3 1010 90 10000 3.09 190 08:20 03.12.2021
5207 Clouds 2 1009 89 10000 0.45 90 06:44 03.12.2021
5208 Clouds 0 1009 93 7000 1.54 160 01:43 03.12.2021
5209 Clouds 0 1009 91 10000 1.03 0 00:34 03.12.2021
5210 Clouds 1 1009 90 10000 3.09 300 23:40 02.12.2021
5211 Clouds 2 1007 85 10000 2.06 340 21:42 02.12.2021
5212 Clouds 2 1007 84 10000 0.45 256 20:48 02.12.2021
5213 Clouds 2 1008 83 10000 3.6 330 20:29 02.12.2021
5214 Clouds 3 1005 84 10000 5.14 350 19:23 02.12.2021
5215 Clouds 3 1005 83 10000 7.2 290 17:36 02.12.2021
5216 Clouds 4 1001 81 10000 0.89 263 15:42 02.12.2021
5217 Clouds 4 1000 79 10000 0.45 301 14:57 02.12.2021
5218 Clouds 4 999 80 10000 1.79 268 13:54 02.12.2021
5219 Clouds 4 1000 81 10000 0.89 271 12:52 02.12.2021
5220 Clouds 4 1000 81 10000 0.89 271 12:52 02.12.2021
5221 Clouds 4 999 86 10000 1.34 279 11:55 02.12.2021
5222 Rain 4 998 88 10000 2.24 248 09:34 02.12.2021
5223 Rain 4 997 88 10000 0.89 261 08:35 02.12.2021
5224 Rain 5 996 91 10000 1.34 271 03:39 02.12.2021
5225 Clouds 5 998 91 10000 4.12 260 00:52 02.12.2021
5226 Clouds 6 995 90 10000 0.89 263 23:19 01.12.2021
5227 Clouds 6 997 90 10000 5.14 270 22:23 01.12.2021
5228 Clouds 6 994 90 10000 0.45 281 20:36 01.12.2021
5229 Rain 7 993 86 10000 1.79 265 19:54 01.12.2021
5230 Rain 7 994 86 10000 9.77 260 19:28 01.12.2021
5231 Clouds 8 993 83 10000 7.72 260 17:45 01.12.2021
5232 Clouds 8 993 82 10000 6.17 260 16:42 01.12.2021
5233 Clouds 9 990 86 10000 1.79 243 14:52 01.12.2021
5234 Clouds 9 992 89 10000 5.66 230 13:45 01.12.2021
5235 Rain 10 990 80 10000 8.75 230 12:50 01.12.2021
5236 Rain 10 992 78 10000 1.34 240 10:42 01.12.2021
5237 Clouds 9 993 76 10000 0.89 340 09:20 01.12.2021
5238 Clouds 9 994 79 10000 6.17 190 08:29 01.12.2021
5239 Clouds 9 995 81 10000 0.45 11 07:33 01.12.2021
5240 Rain 9 996 81 10000 0.89 6 06:59 01.12.2021
5241 Clouds 9 1000 83 10000 0.45 334 03:46 01.12.2021
5242 Rain 9 1003 90 10000 4.63 210 00:59 01.12.2021
5243 Clouds 9 1004 95 10000 4.12 180 23:55 30.11.2021
5244 Clouds 9 1004 96 10000 3.09 190 23:26 30.11.2021
5245 Clouds 9 1005 95 8000 0.89 265 21:40 30.11.2021
5246 Clouds 9 1006 95 10000 0.45 264 20:46 30.11.2021
5247 Clouds 9 1006 95 10000 7.2 270 20:19 30.11.2021
5248 Clouds 9 1006 95 10000 0.89 280 19:38 30.11.2021
5249 Clouds 9 1006 95 10000 1.34 296 18:38 30.11.2021
5250 Rain 9 1005 95 8000 0.89 270 17:21 30.11.2021
5251 Clouds 9 1005 95 10000 0.45 277 15:44 30.11.2021
5252 Drizzle 9 1005 95 6000 1.34 263 14:23 30.11.2021
5253 Clouds 8 1004 95 6000 3.13 282 13:28 30.11.2021
5254 Clouds 8 1004 95 4000 0.89 262 12:52 30.11.2021
5255 Clouds 8 1004 94 10000 1.34 270 11:52 30.11.2021
5256 Clouds 8 1005 94 9000 1.34 272 11:25 30.11.2021
5257 Drizzle 7 1005 94 5000 1.79 324 10:35 30.11.2021
5258 Clouds 6 1005 96 5000 0.45 259 08:54 30.11.2021
5259 Clouds 6 1005 96 7000 0.45 292 08:31 30.11.2021
5260 Clouds 5 1005 96 7000 5.14 230 07:48 30.11.2021
5261 Clouds 5 1006 94 6000 0.89 251 06:32 30.11.2021
5262 Rain 4 1010 84 10000 1.79 292 01:46 30.11.2021
5263 Rain 4 1012 87 10000 7.2 260 01:26 30.11.2021
5264 Clouds 4 1011 90 10000 0.89 259 23:25 29.11.2021
5265 Clouds 4 1011 91 10000 0.89 259 22:59 29.11.2021
5266 Clouds 4 1010 92 10000 0.89 271 22:36 29.11.2021
5267 Clouds 4 1010 92 10000 0.45 273 21:46 29.11.2021
5268 Clouds 4 1010 91 10000 0.89 283 21:19 29.11.2021
5269 Clouds 4 1010 90 10000 0.45 270 20:44 29.11.2021
5270 Clouds 4 1010 91 10000 0.45 278 19:57 29.11.2021
5271 Clouds 4 1009 91 10000 0.89 287 19:38 29.11.2021
5272 Clouds 4 1009 89 10000 0.89 273 18:58 29.11.2021
5273 Clouds 2 1011 90 10000 1.81 250 18:39 29.11.2021
5274 Clouds 3 1010 89 10000 2.12 299 17:21 29.11.2021
5275 Clouds 3 1010 89 10000 2.14 299 16:40 29.11.2021
5276 Clouds 4 1009 86 10000 2.72 298 16:22 29.11.2021
5277 Clouds 4 1009 84 10000 3.2 284 14:45 29.11.2021
5278 Clouds 3 1008 93 7682 3.97 279 13:52 29.11.2021
5279 Clouds 3 1008 92 3071 4.54 280 12:56 29.11.2021
5280 Rain 5 1007 68 10000 5.01 281 11:54 29.11.2021
5281 Clouds 4 1007 71 10000 4.29 276 10:59 29.11.2021
5282 Clouds 2 1007 77 10000 3.94 273 09:57 29.11.2021
5283 Clouds 1 1005 93 10000 1.03 0 07:21 29.11.2021
5284 Clouds 0 1004 93 10000 2.57 260 05:48 29.11.2021
5285 Clouds 2 1002 87 10000 4.12 310 00:46 29.11.2021
5286 Clouds 2 1001 87 10000 3.6 320 23:47 28.11.2021
5287 Clouds 2 1001 87 10000 4.12 320 23:29 28.11.2021
5288 Clouds 3 1000 87 10000 4.12 320 21:57 28.11.2021
5289 Clouds 3 1000 87 10000 4.12 320 21:38 28.11.2021
5290 Clouds 3 1000 87 10000 2.57 320 20:36 28.11.2021
5291 Clouds 3 999 87 10000 1.54 220 19:37 28.11.2021
5292 Clouds 3 999 87 10000 0.51 0 18:40 28.11.2021
5293 Clouds 3 998 87 10000 1.54 360 17:58 28.11.2021
5294 Clouds 3 998 87 10000 1.54 340 17:34 28.11.2021
5295 Clouds 4 998 81 10000 2.06 330 16:47 28.11.2021
5296 Clouds 4 998 81 10000 4.12 320 16:27 28.11.2021
5297 Clouds 4 997 81 10000 3.09 310 15:48 28.11.2021
5298 Clouds 4 997 81 10000 2.57 320 14:55 28.11.2021
5299 Clouds 4 997 81 10000 2.57 320 14:28 28.11.2021
5300 Clouds 4 997 81 10000 2.06 310 12:54 28.11.2021
5301 Clouds 4 997 81 10000 1.03 0 11:38 28.11.2021
5302 Clouds 3 997 87 10000 1.54 60 10:31 28.11.2021
5303 Clouds 2 996 93 10000 1.03 0 09:51 28.11.2021
5304 Clouds 2 996 87 10000 1.03 70 09:30 28.11.2021
5305 Clouds 2 994 80 10000 2.57 130 00:52 28.11.2021
5306 Clouds 1 994 86 10000 3.09 120 21:54 27.11.2021
5307 Clear 1 993 75 10000 0.51 0 19:50 27.11.2021
5308 Clear 1 993 80 10000 1.54 120 18:26 27.11.2021
5309 Clouds 4 992 70 10000 3.6 210 16:19 27.11.2021
5310 Clouds 6 991 65 10000 5.14 220 14:51 27.11.2021
5311 Clouds 6 991 65 10000 4.63 230 13:39 27.11.2021
5312 Clouds 5 990 75 10000 5.14 220 12:19 27.11.2021
5313 Clouds 2 989 93 10000 2.06 150 10:27 27.11.2021
5314 Clouds 2 988 93 10000 1.54 140 09:18 27.11.2021
5315 Clouds 3 987 87 10000 1.54 270 07:43 27.11.2021
5316 Clouds 4 985 87 10000 3.6 180 04:53 27.11.2021
5317 Clouds 4 985 75 10000 6.17 190 00:26 27.11.2021
5318 Clouds 4 986 81 10000 6.17 200 22:52 26.11.2021
5319 Clouds 4 987 81 10000 5.66 190 22:24 26.11.2021
5320 Clouds 4 987 81 10000 6.17 190 21:34 26.11.2021
5321 Rain 5 988 70 10000 6.69 190 20:42 26.11.2021
5322 Rain 5 988 70 10000 6.69 190 19:56 26.11.2021
5323 Rain 5 989 70 10000 6.17 180 19:27 26.11.2021
5324 Clouds 4 990 75 10000 5.66 170 17:55 26.11.2021
5325 Rain 4 991 75 10000 7.2 170 17:21 26.11.2021
5326 Rain 5 993 70 10000 5.66 190 15:46 26.11.2021
5327 Rain 5 994 76 10000 0.89 174 13:35 26.11.2021
5328 Rain 5 999 92 10000 3.09 170 11:58 26.11.2021
5329 Clouds 5 998 93 10000 2.57 190 10:37 26.11.2021
5330 Drizzle 4 999 92 10000 4.63 230 08:57 26.11.2021
5331 Drizzle 5 999 90 10000 3.6 210 08:21 26.11.2021
5332 Rain 4 1000 92 10000 0.45 95 07:26 26.11.2021
5333 Clouds 4 1003 88 10000 2.57 210 06:26 26.11.2021
5334 Clouds 4 1004 91 10000 3.09 190 03:59 26.11.2021
5335 Mist 4 1008 94 4000 1.54 180 01:55 26.11.2021
5336 Mist 4 1010 91 4500 1.54 350 23:18 25.11.2021
5337 Clouds 5 1010 90 8000 1.03 0 21:26 25.11.2021
5338 Clouds 5 1011 87 8000 2.06 250 20:27 25.11.2021
5339 Clouds 4 1010 85 10000 2.06 270 18:47 25.11.2021
5340 Clouds 5 1008 84 10000 1.03 190 17:48 25.11.2021
5341 Clouds 5 1008 84 10000 1.54 200 17:25 25.11.2021
5342 Clouds 5 1009 80 10000 2.57 250 16:33 25.11.2021
5343 Clouds 5 1010 77 10000 1.03 0 15:33 25.11.2021
5344 Clouds 6 1009 73 10000 2.06 280 13:50 25.11.2021
5345 Clouds 5 1012 80 10000 2.57 230 12:28 25.11.2021
5346 Clouds 4 1012 83 10000 2.06 220 11:51 25.11.2021
5347 Clouds 2 1010 90 10000 2.06 140 09:41 25.11.2021
5348 Clouds 2 1010 90 10000 0.51 0 06:22 25.11.2021
5349 Clouds 2 1011 92 10000 1.54 60 02:52 25.11.2021
5350 Clouds 1 1013 90 10000 1.03 0 23:32 24.11.2021
5351 Clouds 1 1014 89 10000 1.03 0 22:26 24.11.2021
5352 Clouds 1 1014 88 10000 0.51 0 21:44 24.11.2021
5353 Clouds 2 1014 88 10000 1.03 0 20:56 24.11.2021
5354 Clouds 2 1015 86 10000 0.51 0 20:26 24.11.2021
5355 Clouds 4 1016 78 10000 1.03 0 18:37 24.11.2021
5356 Clouds 4 1016 77 10000 1.03 0 18:18 24.11.2021
5357 Clouds 7 1019 70 10000 4.12 150 16:19 24.11.2021
5358 Clouds 7 1018 66 10000 0.45 159 14:54 24.11.2021
5359 Clouds 8 1018 67 10000 3.09 150 14:20 24.11.2021
5360 Clouds 8 1019 67 10000 0.89 305 14:20 24.11.2021
5361 Clouds 7 1022 78 10000 3.6 150 12:50 24.11.2021
5362 Clouds 6 1024 91 10000 1.03 0 11:22 24.11.2021
5363 Clouds 6 1022 92 8000 1.03 0 10:50 24.11.2021
5364 Clouds 6 1024 93 6000 0.51 0 10:27 24.11.2021
5365 Mist 5 1023 93 4500 1.03 0 07:59 24.11.2021
5366 Mist 5 1023 94 4500 0.51 0 06:59 24.11.2021
5367 Mist 5 1025 94 5000 0 0 03:59 24.11.2021
5368 Clouds 5 1026 94 6000 1.03 40 01:30 24.11.2021
5369 Mist 5 1027 94 5000 1.54 70 23:30 23.11.2021
5370 Clouds 5 1027 93 7000 1.03 0 22:34 23.11.2021
5371 Clouds 5 1027 95 7000 1.54 100 21:45 23.11.2021
5372 Clouds 5 1027 94 10000 1.54 70 20:21 23.11.2021
5373 Clouds 5 1027 94 10000 2.06 160 19:22 23.11.2021
5374 Clouds 5 1028 93 10000 2.06 140 18:33 23.11.2021
5375 Mist 5 1028 91 4500 0.51 0 17:23 23.11.2021
5376 Clouds 6 1028 89 10000 0.51 0 16:35 23.11.2021
5377 Clouds 6 1028 87 10000 0.45 90 15:26 23.11.2021
5378 Drizzle 6 1028 86 6000 0.51 0 14:44 23.11.2021
5379 Clouds 5 1029 89 10000 1.03 0 12:53 23.11.2021
5380 Clouds 3 1029 92 10000 1.03 0 10:28 23.11.2021
5381 Clouds 2 1027 91 10000 0.74 212 09:46 23.11.2021
5382 Clouds 1 1027 94 10000 1.03 195 07:56 23.11.2021
5383 Clear -1 1028 94 10000 0.51 0 04:53 23.11.2021
5384 Clear 0 1027 93 10000 0.56 199 03:29 23.11.2021
5385 Clear 0 1028 90 10000 2.06 60 23:38 22.11.2021
5386 Clear 0 1028 88 10000 1.03 0 22:58 22.11.2021
5387 Clear 0 1028 88 10000 1.54 140 22:30 22.11.2021
5388 Clear 0 1028 88 10000 1.54 140 22:30 22.11.2021
5389 Clear 1 1027 86 10000 2.57 60 21:44 22.11.2021
5390 Clear 1 1029 86 10000 2.57 60 21:19 22.11.2021
5391 Clear 2 1027 82 10000 1.54 50 20:26 22.11.2021
5392 Clear 3 1028 81 10000 1.03 350 19:20 22.11.2021
5393 Clear 3 1028 78 10000 2.06 350 18:40 22.11.2021
5394 Clear 4 1027 75 10000 3.09 20 17:48 22.11.2021
5395 Clouds 6 1027 68 10000 4.63 10 16:31 22.11.2021
5396 Clouds 7 1024 64 10000 0.89 105 15:29 22.11.2021
5397 Clouds 6 1025 73 10000 5.14 30 12:48 22.11.2021
5398 Clouds 6 1025 79 10000 3.6 20 11:34 22.11.2021
5399 Clouds 5 1024 89 10000 3.09 340 10:22 22.11.2021
5400 Clouds 5 1023 91 10000 3.09 350 08:43 22.11.2021
5401 Clouds 5 1022 94 10000 2.57 340 08:23 22.11.2021
5402 Fog 3 1015 96 5000 0.51 0 01:36 22.11.2021
5403 Clear 5 1014 94 10000 2.06 340 23:21 21.11.2021
5404 Clear 5 1014 94 10000 2.06 340 22:43 21.11.2021
5405 Clouds 6 1012 92 10000 1.54 320 20:55 21.11.2021
5406 Clouds 7 1012 92 10000 1.54 320 20:34 21.11.2021
5407 Clouds 7 1014 94 10000 2.06 350 19:35 21.11.2021
5408 Clouds 7 1012 94 10000 1.03 320 17:57 21.11.2021
5409 Clouds 8 1012 96 10000 1.03 320 17:36 21.11.2021
5410 Clouds 9 1010 93 9000 0.45 90 14:56 21.11.2021
5411 Clouds 9 1010 94 9000 2.06 320 14:38 21.11.2021
5412 Clouds 9 1010 95 8000 2.57 320 13:23 21.11.2021
5413 Mist 8 1010 95 4500 2.57 290 12:27 21.11.2021
5414 Drizzle 8 1010 96 4000 3.6 270 11:38 21.11.2021
5415 Drizzle 8 1010 95 2200 0.45 264 10:19 21.11.2021
5416 Drizzle 8 1010 92 6000 0.89 270 09:47 21.11.2021
5417 Drizzle 7 1010 93 10000 1.03 0 08:33 21.11.2021
5418 Drizzle 7 1010 93 9000 0.45 272 07:53 21.11.2021
5419 Drizzle 7 1010 93 8000 1.54 260 07:33 21.11.2021
5420 Drizzle 7 1011 93 9000 1.54 230 05:43 21.11.2021
5421 Drizzle 7 1011 93 10000 1.54 180 04:35 21.11.2021
5422 Clouds 7 1013 95 9000 2.06 150 02:57 21.11.2021
5423 Clouds 7 1013 95 8000 2.06 170 02:33 21.11.2021
5424 Drizzle 7 1014 93 8000 2.06 160 00:51 21.11.2021
5425 Clouds 7 1015 91 10000 0.51 0 23:22 20.11.2021
5426 Clouds 7 1016 90 10000 1.03 0 21:39 20.11.2021
5427 Clouds 7 1015 90 10000 1.55 245 20:39 20.11.2021
5428 Clouds 8 1018 82 10000 1.54 130 18:46 20.11.2021
5429 Clouds 8 1018 82 10000 1.54 130 18:46 20.11.2021
5430 Clouds 8 1018 81 10000 1.54 150 18:25 20.11.2021
5431 Clouds 9 1019 77 10000 1.54 200 17:22 20.11.2021
5432 Clouds 10 1020 77 10000 2.06 230 16:41 20.11.2021
5433 Clouds 10 1021 75 10000 1.54 240 14:40 20.11.2021
5434 Clouds 10 1022 76 10000 2.06 230 14:21 20.11.2021
5435 Clouds 11 1024 79 10000 3.6 220 11:56 20.11.2021
5436 Clouds 10 1025 82 10000 2.57 210 10:35 20.11.2021
5437 Clouds 10 1027 82 10000 3.09 200 09:29 20.11.2021
5438 Clouds 10 1027 85 10000 2.06 220 07:22 20.11.2021
5439 Clouds 10 1028 89 10000 1.54 230 05:26 20.11.2021
5440 Clouds 10 1028 89 10000 1.54 220 04:50 20.11.2021
5441 Clouds 10 1029 91 10000 2.06 250 01:48 20.11.2021
5442 Clouds 10 1030 91 10000 0.51 0 00:40 20.11.2021
5443 Clouds 11 1030 90 10000 1.54 320 22:58 19.11.2021
5444 Clouds 11 1028 91 10000 1.54 320 21:58 19.11.2021
5445 Clouds 11 1028 90 10000 3.09 270 20:58 19.11.2021
5446 Clouds 11 1028 90 10000 3.09 270 20:36 19.11.2021
5447 Clouds 11 1028 90 10000 3.09 260 19:50 19.11.2021
5448 Clouds 11 1028 90 10000 0.45 267 18:54 19.11.2021
5449 Clouds 11 1028 90 10000 3.09 270 18:23 19.11.2021
5450 Clouds 11 1027 91 10000 3.09 250 17:31 19.11.2021
5451 Clouds 12 1027 91 10000 4.12 270 15:51 19.11.2021
5452 Drizzle 11 1028 92 10000 0.45 269 13:55 19.11.2021
5453 Drizzle 10 1028 95 10000 0.45 290 10:28 19.11.2021
5454 Drizzle 10 1028 95 10000 0.45 290 10:28 19.11.2021
5455 Drizzle 10 1028 95 10000 0.45 91 09:38 19.11.2021
5456 Drizzle 10 1028 96 8000 2.57 210 08:24 19.11.2021
5457 Drizzle 10 1028 96 3800 4.12 250 04:53 19.11.2021
5458 Clouds 10 1028 89 10000 4.12 250 02:40 19.11.2021
5459 Drizzle 9 1030 90 10000 1.03 0 23:52 18.11.2021
5460 Clouds 10 1028 86 10000 3.09 160 22:21 18.11.2021
5461 Clouds 10 1028 82 10000 3.09 200 20:50 18.11.2021
5462 Clouds 10 1028 81 10000 3.09 190 20:32 18.11.2021
5463 Clouds 9 1028 80 10000 3.09 190 19:58 18.11.2021
5464 Clouds 9 1028 80 10000 3.09 190 19:35 18.11.2021
5465 Clouds 9 1027 81 10000 2.57 200 18:34 18.11.2021
5466 Clouds 9 1027 79 10000 2.06 220 17:51 18.11.2021
5467 Clouds 10 1027 74 10000 3.6 250 16:45 18.11.2021
5468 Clouds 11 1027 71 10000 5.14 260 15:51 18.11.2021
5469 Clouds 11 1027 71 10000 5.66 260 14:18 18.11.2021
5470 Clouds 10 1030 84 10000 3.09 210 12:34 18.11.2021
5471 Clear 9 1030 88 10000 2.57 170 11:43 18.11.2021
5472 Clear 9 1028 88 10000 2.57 170 11:25 18.11.2021
5473 Clear 7 1027 94 10000 3.6 160 10:21 18.11.2021
5474 Clear 5 1027 94 10000 3.09 160 07:42 18.11.2021
5475 Clear 5 1026 94 10000 2.06 160 06:20 18.11.2021
5476 Clear 5 1026 94 10000 1.03 0 05:41 18.11.2021
5477 Clouds 6 1025 96 10000 0.51 210 01:25 18.11.2021
5478 Clouds 7 1024 94 10000 1.54 230 23:27 17.11.2021
5479 Clouds 7 1024 95 10000 2.06 250 22:39 17.11.2021
5480 Clouds 7 1024 94 10000 2.06 250 22:18 17.11.2021
5481 Clouds 7 1026 93 10000 2.06 250 21:35 17.11.2021
5482 Clouds 8 1024 93 10000 2.06 270 19:31 17.11.2021
5483 Drizzle 9 1021 94 10000 2.57 290 17:35 17.11.2021
5484 Drizzle 9 1020 93 10000 0.89 286 15:55 17.11.2021
5485 Drizzle 8 1020 91 10000 2.57 160 13:18 17.11.2021
5486 Drizzle 8 1020 90 10000 3.09 160 12:36 17.11.2021
5487 Clouds 7 1019 89 10000 3.09 150 10:54 17.11.2021
5488 Clouds 7 1019 92 10000 3.09 140 09:38 17.11.2021
5489 Drizzle 6 1019 92 9000 1.03 0 07:56 17.11.2021
5490 Drizzle 6 1019 92 9000 1.03 0 07:37 17.11.2021
5491 Clouds 5 1020 91 10000 1.54 200 02:49 17.11.2021
5492 Clouds 5 1021 92 10000 2.06 220 00:34 17.11.2021
5493 Clouds 5 1021 91 10000 1.54 220 22:32 16.11.2021
5494 Clouds 6 1021 87 10000 1.54 220 20:19 16.11.2021
5495 Clouds 6 1021 87 10000 2.06 220 19:41 16.11.2021
5496 Clouds 6 1019 85 10000 1.54 220 18:52 16.11.2021
5497 Clouds 6 1019 85 10000 1.54 170 18:29 16.11.2021
5498 Clouds 6 1021 90 10000 2.06 240 17:26 16.11.2021
5499 Clouds 7 1019 89 10000 1.54 170 16:21 16.11.2021
5500 Clouds 6 1019 89 10000 0.51 160 15:44 16.11.2021
5501 Drizzle 7 1020 92 10000 0.45 94 13:49 16.11.2021
5502 Drizzle 6 1021 90 10000 1.03 340 10:39 16.11.2021
5503 Clouds 6 1022 87 10000 1.03 340 09:42 16.11.2021
5504 Clouds 6 1023 87 10000 1.54 50 08:23 16.11.2021
5505 Clouds 6 1023 89 10000 1.03 0 07:30 16.11.2021
5506 Clouds 6 1025 86 10000 0.51 30 23:54 15.11.2021
5507 Clouds 6 1023 85 10000 1.54 120 22:43 15.11.2021
5508 Clouds 6 1025 86 10000 0.51 0 22:20 15.11.2021
5509 Clouds 7 1025 86 10000 1.03 0 21:51 15.11.2021
5510 Clouds 7 1025 85 10000 0.51 120 21:25 15.11.2021
5511 Clouds 7 1024 85 10000 1.03 0 19:41 15.11.2021
5512 Clouds 7 1022 83 10000 2.57 80 17:50 15.11.2021
5513 Clouds 7 1022 83 10000 2.06 130 16:19 15.11.2021
5514 Clouds 7 1022 83 10000 3.09 120 15:40 15.11.2021
5515 Clouds 7 1024 83 10000 2.57 80 15:20 15.11.2021
5516 Clouds 8 1025 82 10000 3.09 60 12:47 15.11.2021
5517 Clouds 8 1025 84 10000 1.03 0 10:54 15.11.2021
5518 Clouds 8 1025 84 10000 1.03 50 09:26 15.11.2021
5519 Clouds 8 1025 84 10000 2.06 90 07:45 15.11.2021
5520 Clouds 7 1025 90 10000 1.03 50 04:46 15.11.2021
5521 Clouds 7 1024 89 10000 1.54 90 23:37 14.11.2021
5522 Clouds 7 1024 90 10000 2.06 60 22:34 14.11.2021
5523 Clouds 8 1021 89 10000 1.6 67 19:53 14.11.2021
5524 Clouds 8 1021 88 10000 1.65 66 19:18 14.11.2021
5525 Clouds 8 1022 87 10000 0.51 0 18:54 14.11.2021
5526 Clouds 9 1021 85 10000 1.65 66 18:36 14.11.2021
5527 Clouds 9 1022 84 10000 0.51 40 18:18 14.11.2021
5528 Clouds 9 1023 83 10000 1.03 40 17:55 14.11.2021
5529 Clouds 9 1023 83 10000 1.03 40 17:37 14.11.2021
5530 Clouds 9 1023 82 10000 1.54 40 17:19 14.11.2021
5531 Clouds 10 1023 80 10000 2.06 40 16:46 14.11.2021
5532 Clouds 10 1023 80 10000 3.09 30 16:20 14.11.2021
5533 Clouds 10 1022 80 10000 3.09 10 15:23 14.11.2021
5534 Clouds 10 1020 78 10000 2.57 20 14:49 14.11.2021
5535 Clouds 10 1020 77 10000 4.12 30 14:28 14.11.2021
5536 Clouds 10 1020 77 10000 0.45 90 13:54 14.11.2021
5537 Clouds 10 1020 77 10000 3.09 50 13:35 14.11.2021
5538 Clouds 10 1020 82 10000 3.09 30 12:27 14.11.2021
5539 Clouds 9 1020 84 10000 3.6 40 11:41 14.11.2021
5540 Clouds 9 1021 88 10000 4.12 50 10:41 14.11.2021
5541 Clouds 8 1019 93 10000 1.54 60 09:48 14.11.2021
5542 Clouds 8 1018 95 10000 2.57 60 08:54 14.11.2021
5543 Clouds 8 1016 95 10000 1.16 94 07:19 14.11.2021
5544 Clouds 9 1013 95 10000 2.06 80 00:26 14.11.2021
5545 Clouds 9 1013 95 10000 2.06 90 22:26 13.11.2021
5546 Clouds 9 1013 97 10000 1.54 80 21:56 13.11.2021
5547 Clouds 9 1012 97 10000 2.06 80 21:22 13.11.2021
5548 Clouds 10 1012 96 10000 1.54 80 19:47 13.11.2021
5549 Clouds 10 1011 96 10000 1.03 80 18:33 13.11.2021
5550 Clouds 10 1011 96 2900 3.09 130 17:55 13.11.2021
5551 Clouds 10 1011 95 10000 2.06 130 16:37 13.11.2021
5552 Rain 10 1010 95 10000 0.45 313 15:34 13.11.2021
5553 Clouds 10 1010 95 10000 3.6 130 14:30 13.11.2021
5554 Clouds 10 1010 95 8000 3.6 150 13:32 13.11.2021
5555 Clouds 10 1010 95 10000 3.6 130 12:28 13.11.2021
5556 Clouds 10 1010 95 10000 3.6 150 11:38 13.11.2021
5557 Rain 9 1010 96 10000 3.09 140 10:45 13.11.2021
5558 Rain 9 1010 98 10000 3.6 140 10:22 13.11.2021
5559 Rain 8 1010 96 10000 3.6 130 09:38 13.11.2021
5560 Clouds 8 1010 97 6000 4.12 140 08:56 13.11.2021
5561 Clouds 8 1010 97 6000 4.12 140 08:31 13.11.2021
5562 Mist 7 1009 93 4500 0.45 235 05:59 13.11.2021
5563 Clouds 7 1010 85 10000 0.89 25 04:30 13.11.2021
5564 Clouds 6 1011 81 10000 0.45 41 01:54 13.11.2021
5565 Clouds 5 1012 86 10000 0.45 346 22:59 12.11.2021
5566 Clear 5 1013 87 10000 4.12 130 21:50 12.11.2021
5567 Clear 5 1012 88 10000 0.89 219 20:18 12.11.2021
5568 Clear 6 1013 85 10000 0.45 133 19:28 12.11.2021
5569 Clear 6 1013 84 10000 3.6 130 18:46 12.11.2021
5570 Clear 8 1013 78 10000 0.89 303 16:40 12.11.2021
5571 Clear 9 1014 73 10000 0.45 251 15:34 12.11.2021
5572 Clear 9 1015 72 10000 0.89 344 13:21 12.11.2021
5573 Clouds 5 1017 93 10000 0.89 31 10:58 12.11.2021
5574 Clouds 4 1017 95 8000 0.45 62 09:45 12.11.2021
5575 Clouds 4 1018 97 7000 0.45 116 08:44 12.11.2021
5576 Clouds 2 1019 96 7000 2.06 140 05:54 12.11.2021
5577 Clear 2 1022 94 6000 1.03 0 23:43 11.11.2021
5578 Clear 3 1022 94 8000 0.51 0 22:46 11.11.2021
5579 Clear 4 1022 94 10000 1.03 0 21:29 11.11.2021
5580 Clear 4 1022 95 10000 1.03 0 20:48 11.11.2021
5581 Clear 5 1023 91 9000 0.51 0 19:30 11.11.2021
5582 Clear 6 1022 89 10000 0.51 130 18:25 11.11.2021
5583 Clear 7 1022 85 10000 1.54 40 17:37 11.11.2021
5584 Clear 9 1024 76 10000 1.03 0 15:20 11.11.2021
5585 Clear 9 1022 82 10000 1.03 0 14:38 11.11.2021
5586 Clear 9 1022 84 10000 1.03 0 14:19 11.11.2021
5587 Clear 9 1023 85 10000 0.51 0 13:35 11.11.2021
5588 Clouds 8 1025 55 10000 0.82 169 12:23 11.11.2021
5589 Fog 2 1026 93 350 1.54 150 09:55 11.11.2021
5590 Clouds 0 1025 100 10000 2.57 140 08:47 11.11.2021
5591 Clouds 0 1021 95 10000 1.22 148 06:55 11.11.2021
5592 Clear 1 1023 95 10000 1.54 80 00:38 11.11.2021
5593 Clear 2 1023 93 10000 1.54 130 22:42 10.11.2021
5594 Clear 3 1023 93 10000 1.03 0 21:53 10.11.2021
5595 Clear 3 1023 92 10000 0.51 0 20:56 10.11.2021
5596 Clear 4 1023 89 10000 1.54 70 20:18 10.11.2021
5597 Clear 4 1023 88 10000 0.51 0 19:39 10.11.2021
5598 Clear 7 1022 77 10000 0 0 17:28 10.11.2021
5599 Clear 10 1022 71 10000 1.54 150 15:47 10.11.2021
5600 Clear 10 1022 70 10000 2.06 140 14:25 10.11.2021
5601 Clear 10 1022 70 10000 0.45 221 14:25 10.11.2021
5602 Clear 10 1023 68 10000 2.06 150 13:38 10.11.2021
5603 Clear 9 1023 78 10000 2.57 190 12:31 10.11.2021
5604 Clear 3 1023 94 10000 2.06 140 09:29 10.11.2021
5605 Clouds 3 1021 95 10000 0.45 282 08:42 10.11.2021
5606 Clouds 3 1021 95 10000 0.45 282 08:42 10.11.2021
5607 Clear 1 1023 93 10000 2.06 130 06:59 10.11.2021
5608 Clear 2 1023 93 10000 1.03 0 05:58 10.11.2021
5609 Clear 2 1023 94 10000 0.45 297 04:58 10.11.2021
5610 Clear 5 1024 85 10000 0.51 0 22:41 09.11.2021
5611 Clear 6 1024 83 10000 2.06 110 20:51 09.11.2021
5612 Clear 6 1024 81 10000 2.06 90 19:51 09.11.2021
5613 Clear 8 1024 76 10000 2.06 120 18:58 09.11.2021
5614 Clear 10 1024 64 10000 2.57 130 17:24 09.11.2021
5615 Clear 12 1026 59 10000 3.09 140 15:38 09.11.2021
5616 Clouds 13 1025 56 10000 3.09 160 13:55 09.11.2021
5617 Clear 12 1028 68 10000 3.09 180 12:50 09.11.2021
5618 Clear 11 1028 80 10000 3.09 140 11:34 09.11.2021
5619 Clear 8 1026 89 10000 3.09 150 10:42 09.11.2021
5620 Clear 5 1026 95 10000 0.51 0 09:24 09.11.2021
5621 Clear 4 1025 94 10000 0.51 0 08:18 09.11.2021
5622 Clouds 4 1024 95 10000 1.03 0 05:23 09.11.2021
5623 Clouds 5 1024 92 10000 0.51 0 02:19 09.11.2021
5624 Clouds 6 1024 90 10000 0.51 0 01:39 09.11.2021
5625 Clouds 7 1024 86 10000 1.03 60 23:35 08.11.2021
5626 Clouds 8 1024 85 10000 1.03 150 22:48 08.11.2021
5627 Clouds 8 1025 87 10000 1.54 150 21:46 08.11.2021
5628 Clouds 9 1025 86 10000 1.54 170 20:47 08.11.2021
5629 Clouds 9 1025 85 10000 0.51 0 19:48 08.11.2021
5630 Clouds 10 1021 79 10000 1.03 100 17:55 08.11.2021
5631 Clouds 11 1021 74 10000 1.03 320 15:59 08.11.2021
5632 Clouds 11 1021 73 10000 0.89 292 14:57 08.11.2021
5633 Clouds 11 1021 74 10000 2.06 320 14:37 08.11.2021
5634 Clouds 11 1023 77 10000 1.54 270 13:24 08.11.2021
5635 Clouds 10 1023 84 10000 1.03 0 11:56 08.11.2021
5636 Clouds 9 1021 87 10000 1.03 0 10:50 08.11.2021
5637 Clouds 8 1021 89 10000 1.54 150 09:37 08.11.2021
5638 Clouds 8 1022 92 10000 2.06 170 08:53 08.11.2021
5639 Clouds 7 1021 90 10000 2.06 160 07:28 08.11.2021
5640 Clouds 7 1019 91 10000 0.51 0 03:48 08.11.2021
5641 Clouds 7 1019 89 10000 0 0 03:26 08.11.2021
5642 Clouds 7 1018 87 10000 0.45 268 23:46 07.11.2021
5643 Clouds 8 1017 84 10000 0.89 278 21:48 07.11.2021
5644 Clouds 8 1018 83 10000 4.12 270 20:54 07.11.2021
5645 Clouds 9 1018 77 10000 5.14 270 19:30 07.11.2021
5646 Clouds 10 1015 74 10000 0.45 283 18:22 07.11.2021
5647 Clouds 10 1014 70 10000 0.89 297 16:54 07.11.2021
5648 Clouds 11 1014 68 10000 0.89 302 15:48 07.11.2021
5649 Clouds 12 1016 73 10000 7.72 280 14:29 07.11.2021
5650 Clouds 12 1014 71 10000 0.45 275 13:35 07.11.2021
5651 Clouds 11 1017 80 10000 5.66 280 11:43 07.11.2021
5652 Clouds 11 1014 90 10000 0.45 278 09:52 07.11.2021
5653 Clouds 10 1014 84 10000 0.89 285 07:54 07.11.2021
5654 Clouds 10 1017 76 10000 5.14 210 02:41 07.11.2021
5655 Clouds 10 1020 76 10000 4.12 220 23:38 06.11.2021
5656 Clouds 10 1020 76 10000 4.12 200 22:48 06.11.2021
5657 Clouds 10 1021 75 10000 4.63 210 21:33 06.11.2021
5658 Clouds 10 1021 75 10000 4.12 210 20:52 06.11.2021
5659 Clouds 10 1025 77 10000 4.12 200 18:56 06.11.2021
5660 Clouds 11 1025 71 10000 2.57 200 16:47 06.11.2021
5661 Clouds 11 1025 71 10000 2.57 200 16:47 06.11.2021
5662 Clouds 12 1027 68 10000 4.63 200 15:21 06.11.2021
5663 Clouds 12 1028 71 10000 5.14 220 13:38 06.11.2021
5664 Clouds 11 1029 77 10000 3.6 0 12:29 06.11.2021
5665 Clear 7 1027 96 10000 3.6 150 09:39 06.11.2021
5666 Clear 5 1027 99 10000 2.06 150 07:57 06.11.2021
5667 Clouds 6 1026 97 10000 1.03 170 03:20 06.11.2021
5668 Clouds 7 1028 94 10000 0.51 0 23:38 05.11.2021
5669 Clouds 8 1028 93 10000 1.54 250 22:50 05.11.2021
5670 Clouds 8 1025 93 10000 0.45 270 21:54 05.11.2021
5671 Clouds 9 1027 90 10000 3.09 290 20:20 05.11.2021
5672 Clouds 9 1024 90 10000 3.6 280 19:49 05.11.2021
5673 Clouds 10 1023 88 10000 2.06 240 18:41 05.11.2021
5674 Clouds 11 1022 87 10000 2.57 170 17:31 05.11.2021
5675 Clouds 11 1021 84 10000 2.06 150 15:48 05.11.2021
5676 Clouds 11 1021 84 10000 0.51 0 13:58 05.11.2021
5677 Drizzle 10 1021 91 8000 0.45 270 11:42 05.11.2021
5678 Clouds 7 1018 93 6000 1.54 300 08:41 05.11.2021
5679 Clouds 7 1017 94 7000 0.89 266 07:39 05.11.2021
5680 Clouds 7 1018 95 10000 1.54 320 05:33 05.11.2021
5681 Clouds 7 1013 96 10000 0.51 0 02:27 05.11.2021
5682 Clouds 7 1010 95 10000 1.3 257 00:53 05.11.2021
5683 Clouds 7 1010 94 10000 1.54 40 23:25 04.11.2021
5684 Clouds 7 1010 94 10000 0.51 0 22:20 04.11.2021
5685 Clouds 7 1009 93 10000 1.03 0 21:44 04.11.2021
5686 Clouds 8 1009 93 10000 2.57 240 21:19 04.11.2021
5687 Clouds 8 1009 92 10000 1.03 310 20:23 04.11.2021
5688 Clouds 8 1008 91 10000 1.54 320 19:48 04.11.2021
5689 Clouds 8 1008 90 10000 3.09 290 19:20 04.11.2021
5690 Clouds 8 1007 90 10000 0.89 285 18:21 04.11.2021
5691 Clouds 8 1006 88 10000 0.45 276 17:26 04.11.2021
5692 Clouds 8 1006 88 10000 0.45 276 17:26 04.11.2021
5693 Clouds 9 1005 89 8000 0.89 291 15:35 04.11.2021
5694 Clouds 9 1004 89 6000 0.89 282 13:45 04.11.2021
5695 Clouds 6 1003 95 6000 0.45 270 09:50 04.11.2021
5696 Mist 6 1002 94 5000 0.89 272 08:31 04.11.2021
5697 Mist 6 1001 94 5000 0.45 206 07:35 04.11.2021
5698 Mist 6 1001 94 5000 4.63 310 06:38 04.11.2021
5699 Clouds 7 1002 94 6000 3.09 330 22:54 03.11.2021
5700 Clouds 7 1001 94 9000 2.06 330 21:57 03.11.2021
5701 Clouds 7 1001 94 9000 2.06 330 21:35 03.11.2021
5702 Clouds 7 1001 93 10000 2.57 330 20:39 03.11.2021
5703 Clouds 7 1001 93 10000 2.57 330 20:39 03.11.2021
5704 Clouds 7 1001 93 10000 1.54 300 20:19 03.11.2021
5705 Clouds 7 998 93 10000 2.06 340 19:19 03.11.2021
5706 Rain 7 998 93 10000 3.09 340 18:26 03.11.2021
5707 Clouds 7 1000 94 10000 3.09 360 17:41 03.11.2021
5708 Clouds 8 997 91 10000 2.57 350 16:42 03.11.2021
5709 Clouds 8 999 93 10000 3.6 20 15:47 03.11.2021
5710 Clouds 8 999 94 10000 3.09 20 15:29 03.11.2021
5711 Rain 8 997 94 8000 2.06 30 13:18 03.11.2021
5712 Rain 7 998 93 10000 3.09 60 11:34 03.11.2021
5713 Rain 7 997 93 10000 4.12 60 10:49 03.11.2021
5714 Rain 6 998 94 10000 3.09 80 09:40 03.11.2021
5715 Rain 6 998 95 10000 1.03 0 08:49 03.11.2021
5716 Rain 5 998 95 10000 1.54 110 07:40 03.11.2021
5717 Clouds 5 998 95 9000 1.54 90 06:30 03.11.2021
5718 Clouds 5 998 96 10000 3.09 90 04:22 03.11.2021
5719 Clear 4 999 95 10000 0.51 0 00:55 03.11.2021
5720 Clouds 6 999 94 10000 1.54 150 22:52 02.11.2021
5721 Clouds 6 999 93 10000 0.51 0 21:47 02.11.2021
5722 Clouds 7 999 93 10000 2.57 210 20:36 02.11.2021
5723 Clouds 8 999 94 10000 2.57 160 19:56 02.11.2021
5724 Clouds 8 999 92 10000 2.06 210 19:27 02.11.2021
5725 Rain 8 998 93 10000 1.03 0 18:35 02.11.2021
5726 Clouds 9 997 95 10000 2.57 170 17:44 02.11.2021
5727 Rain 9 997 92 10000 2.06 120 16:47 02.11.2021
5728 Clouds 10 997 92 10000 2.57 150 15:50 02.11.2021
5729 Clouds 10 997 88 10000 0.45 61 14:56 02.11.2021
5730 Clouds 10 997 86 10000 0.45 90 13:29 02.11.2021
5731 Clouds 10 998 87 10000 0.45 254 12:52 02.11.2021
5732 Rain 9 998 86 10000 2.57 160 11:39 02.11.2021
5733 Rain 9 998 83 10000 3.09 140 10:59 02.11.2021
5734 Rain 9 998 83 10000 0.45 316 10:32 02.11.2021
5735 Clouds 8 998 86 10000 2.06 130 09:45 02.11.2021
5736 Clouds 6 997 90 10000 1.54 120 07:46 02.11.2021
5737 Clouds 6 998 90 10000 3.6 160 05:42 02.11.2021
5738 Clouds 7 998 86 10000 3.09 150 03:24 02.11.2021
5739 Clear 8 998 87 10000 2.57 110 00:19 02.11.2021
5740 Clouds 9 996 81 10000 3.04 176 21:57 01.11.2021
5741 Clear 10 999 77 10000 3.6 150 20:45 01.11.2021
5742 Clear 10 998 75 10000 3.6 160 20:19 01.11.2021
5743 Clear 9 1002 77 10000 3.6 170 19:42 01.11.2021
5744 Clear 10 998 71 10000 3.09 170 18:50 01.11.2021
5745 Clouds 11 1001 67 10000 3.6 210 17:49 01.11.2021
5746 Clouds 13 1001 61 10000 4.63 210 16:57 01.11.2021
5747 Clouds 13 1001 59 10000 4.63 210 16:25 01.11.2021
5748 Clouds 14 1000 57 10000 5.66 230 15:39 01.11.2021
5749 Clouds 14 1000 56 10000 5.66 230 15:19 01.11.2021
5750 Clouds 15 1001 54 10000 6.69 220 14:38 01.11.2021
5751 Clouds 14 1001 55 10000 6.69 220 14:19 01.11.2021
5752 Clouds 14 1001 61 10000 6.17 220 12:41 01.11.2021
5753 Clouds 13 1001 69 10000 6.69 210 11:39 01.11.2021
5754 Clouds 12 999 78 10000 0.45 327 10:20 01.11.2021
5755 Clouds 9 998 83 10000 0.89 36 08:20 01.11.2021
5756 Clear 9 998 85 10000 2.57 140 07:46 01.11.2021
5757 Clear 9 997 93 10000 2.57 180 03:55 01.11.2021
5758 Clear 10 1001 94 10000 3.6 160 01:44 01.11.2021
5759 Clouds 11 998 96 10000 2.57 150 23:52 31.10.2021
5760 Rain 16 995 80 10000 1.79 277 20:58 31.10.2021
5761 Clouds 17 994 82 10000 0.89 334 19:49 31.10.2021
5762 Clear 17 995 79 10000 0.45 309 18:43 31.10.2021
5763 Clear 17 996 78 10000 0.89 58 18:20 31.10.2021
5764 Clouds 17 997 80 10000 0.45 306 16:41 31.10.2021
5765 Clouds 17 998 81 10000 5.14 130 14:53 31.10.2021
5766 Clouds 16 1001 83 10000 4.63 140 12:56 31.10.2021
5767 Clouds 15 1002 86 10000 4.63 140 11:44 31.10.2021
5768 Clouds 13 1003 91 10000 4.12 140 10:48 31.10.2021
5769 Clear 11 1004 94 10000 4.63 140 09:26 31.10.2021
5770 Clear 10 1004 95 10000 4.63 140 08:45 31.10.2021
5771 Clouds 11 1005 94 10000 2.06 170 02:54 31.10.2021
5772 Rain 13 1003 90 10000 1.03 0 23:42 30.10.2021
5773 Rain 13 1002 83 10000 0.45 296 21:36 30.10.2021
5774 Clouds 13 1001 83 10000 0.89 337 21:18 30.10.2021
5775 Clouds 13 1001 81 10000 5.14 130 19:35 30.10.2021
5776 Clouds 14 1000 80 10000 1.34 284 17:43 30.10.2021
5777 Clouds 14 1000 73 10000 0.89 305 15:34 30.10.2021
5778 Rain 13 1000 72 10000 0.89 303 13:58 30.10.2021
5779 Rain 13 1000 71 10000 0.89 282 13:38 30.10.2021
5780 Rain 13 1000 72 10000 1.79 326 13:19 30.10.2021
5781 Rain 13 1001 73 10000 0.89 13 11:49 30.10.2021
5782 Rain 13 1002 72 10000 0.89 298 10:34 30.10.2021
5783 Clear 12 1002 74 10000 6.69 150 08:55 30.10.2021
5784 Clear 12 1002 73 10000 5.14 130 07:55 30.10.2021
5785 Rain 12 1003 75 10000 6.69 130 05:46 30.10.2021
5786 Clear 12 1005 74 10000 0.45 301 02:26 30.10.2021
5787 Clear 13 1006 71 10000 0.45 318 23:20 29.10.2021
5788 Clear 14 1006 71 10000 0.45 320 22:33 29.10.2021
5789 Clear 14 1005 69 10000 1.34 77 20:55 29.10.2021
5790 Clear 15 1005 68 10000 1.34 325 20:31 29.10.2021
5791 Clear 15 1005 69 10000 0.89 292 19:18 29.10.2021
5792 Clear 18 1005 59 10000 5.66 160 17:28 29.10.2021
5793 Clear 17 1005 61 10000 1.34 304 15:26 29.10.2021
5794 Clear 14 1007 73 10000 1.34 301 12:30 29.10.2021
5795 Clear 11 1008 82 10000 0.45 284 10:46 29.10.2021
5796 Clear 10 1008 85 10000 4.12 120 09:45 29.10.2021
5797 Clear 9 1010 93 10000 0.45 80 02:22 29.10.2021
5798 Clear 9 1011 90 10000 0.89 65 00:30 29.10.2021
5799 Clear 9 1012 90 10000 0.89 231 22:27 28.10.2021
5800 Clear 10 1012 88 10000 4.63 120 20:59 28.10.2021
5801 Clear 11 1013 85 10000 0.89 278 19:52 28.10.2021
5802 Clear 11 1013 85 10000 0.89 278 19:52 28.10.2021
5803 Clear 12 1013 80 10000 5.66 130 18:46 28.10.2021
5804 Clear 15 1013 71 10000 0.89 307 17:38 28.10.2021
5805 Clear 16 1013 68 10000 0.89 333 16:38 28.10.2021
5806 Clear 16 1014 66 10000 0.45 276 14:42 28.10.2021
5807 Clear 15 1018 74 10000 5.14 140 13:33 28.10.2021
5808 Clear 14 1018 78 10000 5.14 140 12:50 28.10.2021
5809 Clear 13 1016 82 10000 0.89 312 11:49 28.10.2021
5810 Clear 10 1016 93 10000 0.45 305 10:38 28.10.2021
5811 Clear 9 1017 93 10000 4.63 130 09:37 28.10.2021
5812 Clouds 8 1017 95 9000 5.14 130 08:36 28.10.2021
5813 Mist 9 1017 95 4500 0.89 260 07:41 28.10.2021
5814 Clear 9 1019 94 10000 0.45 286 02:33 28.10.2021
5815 Clear 10 1020 88 10000 2.06 130 22:54 27.10.2021
5816 Clear 11 1020 89 10000 2.57 130 22:26 27.10.2021
5817 Clear 11 1020 85 10000 2.06 140 21:32 27.10.2021
5818 Clear 12 1020 83 10000 2.06 140 20:46 27.10.2021
5819 Clouds 13 1020 81 10000 2.57 170 19:48 27.10.2021
5820 Clouds 14 1020 76 10000 0.45 114 18:56 27.10.2021
5821 Clouds 14 1020 74 10000 0.45 278 18:36 27.10.2021
5822 Clouds 17 1024 67 10000 3.6 190 16:25 27.10.2021
5823 Clouds 18 1024 66 10000 4.63 190 15:28 27.10.2021
5824 Clouds 17 1024 70 10000 4.63 190 14:28 27.10.2021
5825 Clouds 14 1022 81 10000 0.89 272 11:18 27.10.2021
5826 Clouds 13 1022 83 10000 0.45 110 10:56 27.10.2021
5827 Clouds 12 1022 88 10000 3.6 180 09:28 27.10.2021
5828 Clouds 11 1021 91 10000 4.12 170 07:47 27.10.2021
5829 Clouds 12 1021 88 10000 3.6 170 06:34 27.10.2021
5830 Clouds 12 1021 84 10000 3.6 160 01:29 27.10.2021
5831 Clouds 12 1021 84 10000 3.6 160 00:55 27.10.2021
5832 Clouds 12 1021 84 10000 0.45 75 23:56 26.10.2021
5833 Clear 11 1021 82 10000 3.09 180 22:55 26.10.2021
5834 Clear 11 1021 80 10000 3.09 180 22:29 26.10.2021
5835 Clouds 11 1021 78 10000 3.09 180 21:51 26.10.2021
5836 Clear 12 1023 75 10000 3.6 210 20:26 26.10.2021
5837 Clouds 13 1023 73 10000 4.12 240 19:26 26.10.2021
5838 Clouds 14 1022 69 10000 4.12 250 18:32 26.10.2021
5839 Clouds 16 1021 62 10000 6.17 230 15:54 26.10.2021
5840 Clouds 16 1022 68 10000 5.66 270 14:18 26.10.2021
5841 Clouds 13 1022 84 10000 3.09 210 11:33 26.10.2021
5842 Clouds 11 1018 92 10000 2.57 170 09:29 26.10.2021
5843 Clouds 11 1017 91 10000 2.57 160 07:24 26.10.2021
5844 Rain 11 1016 89 10000 2.57 170 03:37 26.10.2021
5845 Clouds 11 1019 87 10000 3.09 200 23:49 25.10.2021
5846 Clouds 12 1016 86 10000 3.6 210 22:39 25.10.2021
5847 Clouds 11 1019 87 10000 5.14 220 22:18 25.10.2021
5848 Clouds 12 1016 88 10000 1.54 70 21:26 25.10.2021
5849 Clouds 12 1016 86 10000 3.09 250 19:45 25.10.2021
5850 Clouds 12 1016 85 10000 2.57 240 19:25 25.10.2021
5851 Rain 12 1017 81 10000 2.06 180 18:53 25.10.2021
5852 Rain 14 1017 69 10000 2.06 200 17:48 25.10.2021
5853 Clear 16 1015 57 10000 0.45 14 15:41 25.10.2021
5854 Clear 16 1019 61 10000 4.12 190 14:20 25.10.2021
5855 Clear 12 1020 73 10000 4.63 170 12:24 25.10.2021
5856 Clear 7 1018 87 10000 0.45 350 10:20 25.10.2021
5857 Clear 5 1017 92 10000 2.57 130 08:28 25.10.2021
5858 Clear 5 1017 91 10000 2.57 130 05:59 25.10.2021
5859 Clear 7 1018 83 10000 2.57 120 00:54 25.10.2021
5860 Clear 7 1018 83 10000 2.57 120 00:35 25.10.2021
5861 Clear 8 1018 82 10000 3.09 130 23:46 24.10.2021
5862 Clear 8 1018 80 10000 2.06 110 22:44 24.10.2021
5863 Clear 8 1018 80 10000 0.45 313 22:21 24.10.2021
5864 Clear 9 1018 77 10000 3.09 130 21:41 24.10.2021
5865 Clear 10 1019 73 10000 0.45 352 20:45 24.10.2021
5866 Clear 10 1019 71 10000 4.63 130 20:23 24.10.2021
5867 Clear 12 1018 64 10000 0.89 162 18:52 24.10.2021
5868 Clear 13 1019 58 10000 0.89 355 17:55 24.10.2021
5869 Clear 15 1022 56 10000 6.17 150 16:52 24.10.2021
5870 Clear 14 1023 55 10000 6.69 150 15:37 24.10.2021
5871 Clear 12 1024 63 10000 5.66 130 13:49 24.10.2021
5872 Clear 11 1024 68 10000 5.14 120 12:41 24.10.2021
5873 Clear 9 1022 71 10000 0.45 11 11:40 24.10.2021
5874 Clear 7 1023 80 10000 4.12 120 10:43 24.10.2021
5875 Clear 5 1024 89 10000 0.45 14 09:38 24.10.2021
5876 Clear 4 1024 91 10000 2.57 120 05:35 24.10.2021
5877 Clear 6 1026 88 10000 2.06 100 00:40 24.10.2021
5878 Clear 7 1026 86 10000 2.06 120 23:32 23.10.2021
5879 Clear 8 1026 83 10000 1.54 100 21:50 23.10.2021
5880 Clouds 9 1026 79 10000 1.54 80 19:47 23.10.2021
5881 Clouds 10 1026 79 10000 1.54 150 18:48 23.10.2021
5882 Clouds 11 1026 75 10000 1.54 120 18:21 23.10.2021
5883 Clouds 12 1026 73 10000 2.06 90 17:42 23.10.2021
5884 Clouds 13 1026 74 10000 1.54 90 16:20 23.10.2021
5885 Clouds 12 1026 79 10000 1.03 0 13:58 23.10.2021
5886 Clouds 8 1022 93 10000 0.45 277 03:33 23.10.2021
5887 Clouds 9 1020 91 10000 0.45 274 23:45 22.10.2021
5888 Clear 9 1020 90 10000 2.06 280 22:44 22.10.2021
5889 Rain 10 1017 78 10000 1.79 274 19:51 22.10.2021
5890 Clouds 11 1016 69 10000 0.89 277 18:40 22.10.2021
5891 Clouds 12 1015 66 10000 1.79 267 17:36 22.10.2021
5892 Clouds 12 1014 63 10000 0.89 301 14:58 22.10.2021
5893 Clouds 11 1017 67 10000 9.26 260 13:35 22.10.2021
5894 Clouds 10 1014 69 10000 5.14 230 11:18 22.10.2021
5895 Clouds 9 1014 73 10000 4.12 230 10:38 22.10.2021
5896 Clear 7 1013 83 10000 4.12 200 09:44 22.10.2021
5897 Clear 5 1014 85 10000 3.09 210 08:31 22.10.2021
5898 Clear 5 1013 89 10000 3.09 190 07:22 22.10.2021
5899 Clouds 7 1013 88 10000 3.09 230 02:56 22.10.2021
5900 Clouds 7 1012 89 10000 0.45 270 23:54 21.10.2021
5901 Clouds 7 1014 88 10000 3.09 250 23:29 21.10.2021
5902 Clear 7 1010 86 10000 3.09 270 21:50 21.10.2021
5903 Clouds 8 1011 86 10000 3.09 280 20:28 21.10.2021
5904 Clouds 8 1010 88 10000 2.57 330 19:58 21.10.2021
5905 Clouds 9 1010 87 10000 5.14 270 19:28 21.10.2021
5906 Clouds 9 1007 84 10000 0.89 268 18:45 21.10.2021
5907 Clouds 10 1006 84 10000 1.34 275 17:56 21.10.2021
5908 Clouds 10 1006 84 10000 1.34 286 17:37 21.10.2021
5909 Rain 10 1004 91 8000 0.89 332 15:49 21.10.2021
5910 Rain 11 1003 85 10000 0.89 276 15:20 21.10.2021
5911 Rain 13 1002 65 10000 0.45 262 14:38 21.10.2021
5912 Clouds 13 1002 66 10000 1.34 338 13:19 21.10.2021
5913 -273 0 0 0 0 0 10:45 21.10.2021
5914 -273 0 0 0 0 0 10:44 21.10.2021
5915 Clouds 11 1000 82 10000 0.45 248 10:43 21.10.2021
5916 Clouds 11 1000 82 10000 0.45 248 10:43 21.10.2021
5917 Rain 11 990 77 10000 2.68 250 08:34 21.10.2021
5918 Clouds 13 988 70 10000 0.89 102 07:28 21.10.2021
5919 Clouds 15 989 85 10000 0.89 300 03:29 21.10.2021
5920 Clouds 16 997 83 10000 0.45 308 23:29 20.10.2021
5921 Clouds 17 999 80 10000 0.45 27 21:52 20.10.2021
5922 Clouds 17 999 79 10000 0.45 205 21:30 20.10.2021
5923 Clouds 17 1000 78 10000 1.34 57 20:54 20.10.2021
5924 Clouds 17 1000 78 10000 0.45 97 20:28 20.10.2021
5925 Rain 17 1000 79 10000 5.14 160 19:51 20.10.2021
5926 Clouds 17 1001 79 10000 5.14 160 18:54 20.10.2021
5927 Clouds 17 1002 78 10000 5.66 170 17:50 20.10.2021
5928 Clouds 17 1004 78 10000 0.45 275 15:39 20.10.2021
5929 Clouds 16 1006 74 10000 0.89 296 10:43 20.10.2021
5930 Clear 15 1007 74 10000 0.89 344 08:54 20.10.2021
5931 Clear 15 1010 80 10000 0.89 359 04:50 20.10.2021
5932 Clear 15 1012 89 10000 4.63 170 00:48 20.10.2021
5933 Clear 15 1012 89 10000 4.63 170 00:48 20.10.2021
5934 Clear 15 1012 90 10000 6.17 170 00:22 20.10.2021
5935 Clear 15 1014 93 10000 4.12 140 21:45 19.10.2021
5936 Clear 15 1015 93 10000 3.6 140 20:56 19.10.2021
5937 Clear 16 1014 93 10000 2.57 130 20:25 19.10.2021
5938 Clear 16 1015 92 10000 3.6 150 19:44 19.10.2021
5939 Clouds 16 1014 90 10000 4.12 190 19:20 19.10.2021
5940 Clouds 18 1015 89 10000 4.63 180 17:59 19.10.2021
5941 Clouds 17 1015 92 10000 0.89 4 15:57 19.10.2021
5942 Clouds 17 1015 92 10000 0.45 308 15:20 19.10.2021
5943 Clouds 17 1016 93 10000 5.14 160 14:27 19.10.2021
5944 Clouds 17 1016 93 10000 5.14 160 14:27 19.10.2021
5945 Clouds 16 1016 94 10000 4.63 160 13:43 19.10.2021
5946 Clouds 14 1017 94 10000 0.45 292 11:37 19.10.2021
5947 Clouds 13 1017 96 10000 4.12 140 10:39 19.10.2021
5948 Clouds 12 1016 97 10000 0.45 292 08:59 19.10.2021
5949 Clouds 12 1017 94 7000 0.45 316 07:56 19.10.2021
5950 Clear 11 1019 85 10000 3.09 130 00:27 19.10.2021
5951 Clear 11 1019 85 10000 2.57 110 23:56 18.10.2021
5952 Clear 11 1019 85 10000 3.09 120 23:21 18.10.2021
5953 Clear 11 1020 85 10000 0.45 49 22:55 18.10.2021
5954 Clear 11 1019 84 10000 4.12 130 21:58 18.10.2021
5955 Clear 11 1019 84 10000 4.12 130 21:58 18.10.2021
5956 Clear 11 1019 83 10000 4.63 130 20:46 18.10.2021
5957 Clear 12 1020 82 10000 4.63 130 20:20 18.10.2021
5958 Clear 12 1019 79 10000 0.89 281 19:31 18.10.2021
5959 Clear 13 1019 78 10000 0.89 330 18:58 18.10.2021
5960 Clear 15 1019 69 10000 0.45 331 16:32 18.10.2021
5961 Clear 16 1020 66 10000 0.45 342 14:41 18.10.2021
5962 Clear 12 1021 77 10000 0.45 354 11:47 18.10.2021
5963 Clear 8 1021 86 10000 0.45 347 09:47 18.10.2021
5964 Clear 6 1021 91 10000 1.54 110 07:31 18.10.2021
5965 Clear 9 1019 82 10000 2.06 130 23:54 17.10.2021
5966 Clear 9 1019 83 10000 0.51 0 22:27 17.10.2021
5967 Clear 10 1019 81 10000 0.51 0 21:44 17.10.2021
5968 Clear 10 1018 80 10000 1.03 0 20:56 17.10.2021
5969 Clear 11 1018 75 10000 2.06 130 19:59 17.10.2021
5970 Clear 11 1018 74 10000 2.06 130 19:38 17.10.2021
5971 Clouds 13 1016 65 10000 1.01 93 18:28 17.10.2021
5972 Clouds 15 1020 55 10000 2.06 150 16:40 17.10.2021
5973 Clouds 15 1021 58 10000 1.54 280 14:40 17.10.2021
5974 Clouds 14 1021 61 10000 1.54 280 14:21 17.10.2021
5975 Clouds 14 1021 64 10000 1.03 0 13:33 17.10.2021
5976 Clear 10 1019 82 10000 0.45 105 11:31 17.10.2021
5977 Clear 8 1019 83 10000 0.51 0 10:19 17.10.2021
5978 Clouds 5 1017 97 10000 1.34 139 09:21 17.10.2021
5979 Clouds 4 1016 94 10000 1.53 140 06:52 17.10.2021
5980 Clouds 6 1018 90 10000 1.03 0 00:35 17.10.2021
5981 Clouds 7 1019 88 10000 1.54 110 23:22 16.10.2021
5982 Clouds 8 1021 86 10000 1.54 110 21:28 16.10.2021
5983 Clouds 9 1021 83 10000 1.03 0 20:30 16.10.2021
5984 Clouds 10 1021 79 10000 1.03 0 19:42 16.10.2021
5985 Clouds 10 1021 77 10000 1.54 50 19:20 16.10.2021
5986 Clouds 11 1021 70 10000 1.03 40 18:45 16.10.2021
5987 Clouds 12 1021 69 10000 1.54 20 18:26 16.10.2021
5988 Clouds 12 1021 65 10000 1.54 350 17:49 16.10.2021
5989 Clouds 13 1021 61 10000 1.54 330 17:20 16.10.2021
5990 Clouds 12 1023 87 10000 1.03 0 13:45 16.10.2021
5991 Clear 9 1019 96 10000 1.17 139 11:25 16.10.2021
5992 Fog 5 1020 97 300 1.54 80 09:45 16.10.2021
5993 Fog 4 1020 96 2000 0.51 0 06:48 16.10.2021
5994 Clear 6 1019 94 10000 1.03 0 01:24 16.10.2021
5995 Clear 7 1019 90 10000 0 0 23:27 15.10.2021
5996 Clear 8 1021 92 10000 0.51 0 22:22 15.10.2021
5997 Clear 8 1021 92 10000 1.54 70 21:50 15.10.2021
5998 Clouds 9 1021 91 10000 0.51 0 21:20 15.10.2021
5999 Clouds 9 1020 89 10000 0.51 0 20:44 15.10.2021
6000 Clouds 11 1017 81 10000 0.51 0 19:23 15.10.2021
6001 Clouds 12 1017 78 10000 1.54 320 18:38 15.10.2021
6002 Clouds 14 1018 75 10000 2.57 340 16:27 15.10.2021
6003 Clouds 13 1018 84 10000 3.6 330 15:22 15.10.2021
6004 Clouds 13 1014 85 10000 1.34 242 12:31 15.10.2021
6005 Clouds 13 1014 80 10000 4.12 230 11:20 15.10.2021
6006 Clouds 12 1014 81 10000 3.6 220 10:42 15.10.2021
6007 Clouds 11 1013 81 10000 2.57 190 08:58 15.10.2021
6008 Clear 9 1015 86 10000 3.09 190 05:31 15.10.2021
6009 Clouds 12 1020 86 10000 3.09 210 00:38 15.10.2021
6010 Clouds 13 1018 88 10000 2.57 170 23:49 14.10.2021
6011 Clouds 13 1021 90 10000 0.51 60 22:49 14.10.2021
6012 Clouds 13 1021 87 10000 1.03 0 21:43 14.10.2021
6013 Clouds 13 1022 85 10000 1.54 210 20:36 14.10.2021
6014 Clouds 13 1022 84 10000 1.54 210 20:18 14.10.2021
6015 Clouds 14 1022 81 10000 2.06 260 19:26 14.10.2021
6016 Clouds 15 1020 75 10000 0.45 270 17:26 14.10.2021
6017 Clouds 15 1023 77 10000 4.12 230 16:48 14.10.2021
6018 Clouds 15 1021 76 10000 3.09 270 15:33 14.10.2021
6019 Clouds 15 1021 79 10000 3.6 270 14:41 14.10.2021
6020 Clouds 14 1022 85 10000 0.89 277 13:37 14.10.2021
6021 Drizzle 12 1023 90 10000 0.89 284 11:44 14.10.2021
6022 Drizzle 11 1023 88 10000 1.54 190 09:55 14.10.2021
6023 Clouds 10 1021 88 10000 2.14 242 06:54 14.10.2021
6024 Clouds 10 1022 90 10000 1.87 251 00:58 14.10.2021
6025 Clouds 11 1022 89 10000 1.87 242 00:22 14.10.2021
6026 Clouds 10 1027 89 10000 1.03 0 21:53 13.10.2021
6027 Clouds 10 1027 87 10000 1.54 260 21:32 13.10.2021
6028 Clouds 11 1026 85 10000 1.54 0 19:58 13.10.2021
6029 Clouds 12 1026 82 10000 1.54 330 18:49 13.10.2021
6030 Clouds 13 1023 75 10000 1.54 320 17:55 13.10.2021
6031 Clouds 13 1025 83 10000 2.57 310 15:32 13.10.2021
6032 Clouds 12 1025 80 10000 1.54 0 14:45 13.10.2021
6033 Clouds 13 1026 82 10000 1.54 280 14:21 13.10.2021
6034 Clouds 11 1026 92 10000 1.54 280 12:22 13.10.2021
6035 Clouds 10 1025 93 10000 1.03 0 11:34 13.10.2021
6036 Clouds 6 1022 95 10000 1.03 150 08:41 13.10.2021
6037 Clouds 6 1019 96 10000 1.9 265 06:42 13.10.2021
6038 Fog 6 1020 96 7000 1.03 0 02:27 13.10.2021
6039 Fog 6 1019 93 9000 1.03 0 01:43 13.10.2021
6040 Fog 6 1021 93 10000 1.03 0 23:30 12.10.2021
6041 Fog 7 1021 95 10000 2.06 360 22:46 12.10.2021
6042 Clouds 8 1018 95 10000 2.06 350 21:50 12.10.2021
6043 Clouds 9 1017 92 10000 3.09 340 20:34 12.10.2021
6044 Clouds 9 1017 92 10000 3.09 340 20:34 12.10.2021
6045 Clouds 9 1017 92 10000 3.09 320 19:57 12.10.2021
6046 Clouds 11 1016 90 10000 1.54 330 18:36 12.10.2021
6047 Clouds 12 1015 90 10000 3.09 320 17:57 12.10.2021
6048 Rain 13 1017 91 10000 4.12 280 16:39 12.10.2021
6049 Clouds 13 1015 92 10000 0.89 288 15:58 12.10.2021
6050 Clouds 12 1016 94 10000 0.89 270 14:45 12.10.2021
6051 Rain 12 1019 95 10000 5.14 270 13:43 12.10.2021
6052 Rain 11 1017 95 6000 4.63 270 12:39 12.10.2021
6053 Drizzle 10 1018 94 8000 0.89 270 09:59 12.10.2021
6054 Clouds 10 1018 93 10000 0.45 270 08:44 12.10.2021
6055 Clouds 10 1022 95 10000 2.06 240 07:54 12.10.2021
6056 Clouds 10 1020 94 10000 3.09 260 05:31 12.10.2021
6057 Rain 10 1021 93 10000 0.89 259 04:33 12.10.2021
6058 Clouds 10 1026 92 10000 2.01 275 00:28 12.10.2021
6059 Clouds 10 1025 92 10000 1.03 0 23:41 11.10.2021
6060 Clouds 10 1025 92 10000 0.51 0 22:58 11.10.2021
6061 Clouds 11 1025 91 10000 0.51 0 21:46 11.10.2021
6062 Clouds 11 1025 91 10000 0.51 0 21:46 11.10.2021
6063 Clouds 11 1026 89 10000 1.03 310 21:18 11.10.2021
6064 Clear 12 1026 82 10000 3.09 270 19:46 11.10.2021
6065 Clouds 13 1025 78 10000 3.6 280 18:44 11.10.2021
6066 Clouds 14 1023 70 10000 4.12 310 17:54 11.10.2021
6067 Clouds 15 1025 72 10000 3.09 330 16:39 11.10.2021
6068 Clouds 15 1026 70 10000 4.63 310 15:51 11.10.2021
6069 Clouds 15 1026 70 10000 4.63 310 15:32 11.10.2021
6070 Clouds 15 1026 72 10000 4.63 320 14:46 11.10.2021
6071 Clouds 14 1026 76 10000 2.57 330 13:38 11.10.2021
6072 Mist 13 1027 88 4000 1.03 0 11:52 11.10.2021
6073 Mist 12 1024 93 3200 0.51 0 10:43 11.10.2021
6074 Clouds 11 1021 95 10000 2.19 308 09:44 11.10.2021
6075 Drizzle 10 1023 94 3200 1.54 130 07:29 11.10.2021
6076 Clouds 8 1021 90 10000 0.84 196 01:41 11.10.2021
6077 Clear 9 1024 89 10000 1.03 0 00:50 11.10.2021
6078 Clouds 9 1024 88 10000 0.51 0 00:28 11.10.2021
6079 Clouds 9 1026 87 10000 0.78 212 21:57 10.10.2021
6080 Clear 9 1026 87 10000 1.03 0 21:32 10.10.2021
6081 Clear 10 1023 80 10000 1.54 60 20:48 10.10.2021
6082 Clear 11 1023 79 10000 1.03 60 20:22 10.10.2021
6083 Clear 11 1023 75 10000 0.51 0 19:59 10.10.2021
6084 Clear 13 1023 69 10000 0.51 0 19:38 10.10.2021
6085 Clear 15 1023 54 10000 1.03 240 18:37 10.10.2021
6086 Clear 17 1026 53 10000 1.54 160 17:19 10.10.2021
6087 Clear 17 1026 56 10000 1.54 0 15:47 10.10.2021
6088 Clear 16 1026 60 10000 1.03 0 14:42 10.10.2021
6089 Clear 15 1027 65 10000 1.54 170 13:34 10.10.2021
6090 Clear 14 1027 68 10000 2.57 170 12:40 10.10.2021
6091 Clear 10 1025 75 10000 1.54 150 10:44 10.10.2021
6092 Clear 6 1025 90 10000 1.03 0 09:31 10.10.2021
6093 Clear 6 1025 90 10000 1.03 0 09:31 10.10.2021
6094 Clear 6 1025 89 10000 1.03 0 08:54 10.10.2021
6095 Clear 5 1024 90 10000 0.51 0 07:53 10.10.2021
6096 Clear 7 1025 87 10000 1.54 100 03:28 10.10.2021
6097 Clear 8 1025 83 10000 1.03 0 01:28 10.10.2021
6098 Clear 9 1025 79 10000 2.57 110 00:33 10.10.2021
6099 Clear 10 1025 81 10000 2.57 90 23:20 09.10.2021
6100 Clear 11 1025 82 10000 3.09 90 21:48 09.10.2021
6101 Clear 10 1028 87 10000 1.03 0 21:29 09.10.2021
6102 Clear 13 1027 81 10000 1.03 0 19:45 09.10.2021
6103 Clear 14 1027 77 10000 1.54 50 19:22 09.10.2021
6104 Clear 15 1027 68 10000 1.03 50 18:33 09.10.2021
6105 Clear 15 1027 68 10000 1.03 50 18:33 09.10.2021
6106 Clear 17 1027 54 10000 1.54 70 17:43 09.10.2021
6107 Clear 18 1028 52 10000 2.57 40 16:19 09.10.2021
6108 Clouds 16 1029 66 10000 1.03 0 13:47 09.10.2021
6109 Clear 16 1029 68 10000 1.03 0 13:24 09.10.2021
6110 Clear 13 1027 75 10000 1.54 290 11:56 09.10.2021
6111 Clear 12 1027 76 10000 1.03 0 10:42 09.10.2021
6112 Clear 9 1029 94 6000 0.51 0 09:54 09.10.2021
6113 Mist 6 1026 95 1200 1.03 50 08:32 09.10.2021
6114 Mist 6 1026 95 1800 0.51 0 07:49 09.10.2021
6115 Clear 7 1026 95 10000 0.51 0 05:55 09.10.2021
6116 Clear 8 1026 93 10000 1.54 150 04:18 09.10.2021
6117 Clear 9 1026 91 10000 2.57 90 02:43 09.10.2021
6118 Clear 10 1026 92 10000 1.03 0 23:58 08.10.2021
6119 Clear 11 1026 91 10000 1.03 0 23:31 08.10.2021
6120 Clear 11 1026 88 10000 1.03 0 22:42 08.10.2021
6121 Clear 12 1026 87 10000 2.57 90 21:39 08.10.2021
6122 Clear 14 1026 78 10000 2.06 60 19:47 08.10.2021
6123 Clouds 17 1028 65 10000 2.06 90 18:19 08.10.2021
6124 Clouds 18 1029 61 10000 2.06 0 16:54 08.10.2021
6125 Clouds 18 1029 60 10000 3.6 140 16:24 08.10.2021
6126 Clouds 17 1030 66 10000 2.06 70 14:20 08.10.2021
6127 Clouds 17 1030 70 10000 1.54 0 13:45 08.10.2021
6128 Clear 14 1028 72 10000 0.45 270 11:41 08.10.2021
6129 Clear 11 1029 85 10000 0.51 0 10:42 08.10.2021
6130 Clear 9 1028 96 10000 1.03 0 09:47 08.10.2021
6131 Clear 7 1028 94 10000 0.51 0 03:38 08.10.2021
6132 Clear 9 1027 92 10000 1.54 80 23:24 07.10.2021
6133 Clear 11 1027 89 10000 0.51 0 21:48 07.10.2021
6134 Clear 11 1026 87 10000 0.51 0 21:28 07.10.2021
6135 Clear 12 1026 84 10000 2.57 60 20:39 07.10.2021
6136 Clouds 14 1026 77 10000 1.03 70 19:32 07.10.2021
6137 Clouds 16 1025 68 10000 0.51 130 18:41 07.10.2021
6138 Clouds 16 1028 68 10000 1.03 120 17:32 07.10.2021
6139 Clouds 17 1028 65 10000 1.03 0 16:25 07.10.2021
6140 Clouds 17 1028 66 10000 1.54 250 14:55 07.10.2021
6141 Clouds 16 1025 66 10000 2.06 0 13:43 07.10.2021
6142 Clouds 15 1025 77 10000 1.54 70 12:54 07.10.2021
6143 Clouds 13 1027 91 10000 2.06 120 10:59 07.10.2021
6144 Clouds 13 1024 91 10000 0.45 306 10:40 07.10.2021
6145 Fog 12 1024 97 500 1.54 110 09:43 07.10.2021
6146 Fog 12 1023 97 100 1.03 0 08:54 07.10.2021
6147 Fog 12 1023 96 500 0.51 0 07:58 07.10.2021
6148 Mist 12 1023 95 4000 0.51 0 07:38 07.10.2021
6149 Clouds 12 1022 95 6000 0.51 0 06:38 07.10.2021
6150 Clouds 12 1020 95 10000 3.6 280 00:52 07.10.2021
6151 Rain 12 1019 95 10000 4.12 270 23:20 06.10.2021
6152 Clouds 12 1018 93 10000 4.63 260 22:31 06.10.2021
6153 Clouds 12 1018 93 10000 0.89 270 21:39 06.10.2021
6154 Rain 12 1017 93 10000 5.66 240 20:29 06.10.2021
6155 Clouds 12 1016 89 10000 5.66 240 19:21 06.10.2021
6156 Clouds 13 1015 84 10000 0.45 291 17:27 06.10.2021
6157 Clouds 13 1017 82 10000 7.72 250 15:43 06.10.2021
6158 Clouds 12 1016 82 10000 5.14 250 14:43 06.10.2021
6159 Clouds 12 1015 86 10000 5.66 210 13:25 06.10.2021
6160 Rain 12 1015 82 10000 5.14 220 12:47 06.10.2021
6161 Clouds 12 1012 80 10000 5.14 210 12:26 06.10.2021
6162 Clouds 12 1012 76 10000 0.45 65 11:35 06.10.2021
6163 Clouds 12 1012 76 10000 0.45 65 11:35 06.10.2021
6164 Rain 12 1011 79 10000 4.12 210 09:40 06.10.2021
6165 Rain 11 1013 82 10000 4.12 200 08:59 06.10.2021
6166 Clouds 11 1010 80 10000 0.45 297 08:31 06.10.2021
6167 Clouds 11 1009 85 10000 4.12 200 06:18 06.10.2021
6168 Clouds 11 1008 85 10000 4.12 200 02:52 06.10.2021
6169 Clouds 12 1005 87 10000 0.45 266 00:24 06.10.2021
6170 Clouds 12 1007 88 10000 0.45 225 23:51 05.10.2021
6171 Clouds 12 1006 89 10000 4.12 180 23:30 05.10.2021
6172 Clear 12 1005 88 10000 4.12 180 22:35 05.10.2021
6173 Clear 12 1005 89 10000 0.45 338 21:57 05.10.2021
6174 Clear 12 1005 89 10000 0.45 338 21:57 05.10.2021
6175 Clear 12 1003 89 10000 4.35 219 21:29 05.10.2021
6176 Clouds 12 1007 88 10000 3.6 230 20:33 05.10.2021
6177 Clouds 13 1004 88 10000 2.06 220 19:51 05.10.2021
6178 Clouds 13 1003 87 4000 8.23 250 19:25 05.10.2021
6179 Rain 15 1005 82 10000 6.17 180 18:21 05.10.2021
6180 Rain 18 1002 56 10000 0.45 25 15:39 05.10.2021
6181 Clouds 18 1003 57 10000 0.89 304 14:29 05.10.2021
6182 Clouds 18 1007 62 10000 7.2 160 13:27 05.10.2021
6183 Clouds 17 1005 64 10000 0.89 342 12:36 05.10.2021
6184 Clouds 16 1005 69 10000 1.34 326 11:58 05.10.2021
6185 Clear 14 1006 80 10000 0.89 303 10:39 05.10.2021
6186 Clear 11 1007 90 10000 5.66 130 08:38 05.10.2021
6187 Clear 11 1011 85 10000 1.54 100 03:38 05.10.2021
6188 Clear 11 1013 80 10000 2.57 120 23:52 04.10.2021
6189 Clear 12 1016 78 10000 2.06 130 21:54 04.10.2021
6190 Clouds 16 1016 57 10000 3.6 0 18:54 04.10.2021
6191 Clouds 18 1013 51 10000 4.63 210 17:58 04.10.2021
6192 Clouds 18 1017 52 10000 6.17 210 16:22 04.10.2021
6193 Clouds 18 1017 54 10000 4.63 210 15:31 04.10.2021
6194 Clouds 18 1017 58 10000 5.14 200 14:42 04.10.2021
6195 Clouds 17 1015 61 10000 0.45 61 13:48 04.10.2021
6196 Clouds 17 1018 68 10000 6.17 170 13:23 04.10.2021
6197 Clear 15 1015 75 10000 0.89 295 11:35 04.10.2021
6198 Clear 14 1014 78 10000 0.89 287 10:48 04.10.2021
6199 Clear 13 1017 86 10000 3.6 170 09:51 04.10.2021
6200 Rain 12 1014 86 10000 3.09 140 08:33 04.10.2021
6201 Clear 12 1013 87 10000 2.57 130 06:56 04.10.2021
6202 Clear 12 1010 85 10000 1.54 120 00:28 04.10.2021
6203 Clear 12 1012 87 10000 3.09 200 22:33 03.10.2021
6204 Clouds 12 1008 88 10000 1.54 190 21:38 03.10.2021
6205 Rain 13 1007 89 10000 2.57 200 20:55 03.10.2021
6206 Clouds 13 1006 89 10000 4.12 290 19:57 03.10.2021
6207 Rain 14 1002 84 10000 0.89 271 18:33 03.10.2021
6208 Rain 16 1001 77 10000 1.79 269 17:48 03.10.2021
6209 Clouds 20 1000 64 10000 10.29 190 15:57 03.10.2021
6210 Clouds 21 1000 65 10000 6.69 180 14:45 03.10.2021
6211 Clouds 20 997 66 10000 0.89 6 13:58 03.10.2021
6212 Rain 20 997 66 10000 0.89 306 13:21 03.10.2021
6213 Rain 20 996 67 10000 1.34 325 12:28 03.10.2021
6214 Rain 19 996 66 10000 0.89 328 10:36 03.10.2021
6215 Clear 20 996 61 10000 0.89 290 08:36 03.10.2021
6216 Clouds 19 1001 71 10000 7.72 170 01:30 03.10.2021
6217 Rain 18 999 71 10000 0.89 319 22:34 02.10.2021
6218 Rain 17 1001 80 10000 5.14 130 20:55 02.10.2021
6219 Rain 17 1002 73 10000 0.89 306 19:40 02.10.2021
6220 Clouds 17 1003 72 10000 0.89 322 18:51 02.10.2021
6221 Clouds 18 1004 70 10000 0.89 325 17:41 02.10.2021
6222 Clouds 18 1004 68 10000 0.45 31 17:19 02.10.2021
6223 Clouds 18 1007 71 10000 1.79 305 14:58 02.10.2021
6224 Clouds 15 1025 55 10000 3.09 230 16:34 30.09.2021
6225 Clouds 16 1026 52 10000 4.63 240 14:48 30.09.2021
6226 Clouds 15 1027 58 10000 5.14 230 12:56 30.09.2021
6227 Clouds 13 1027 70 10000 3.09 220 11:35 30.09.2021
6228 Clouds 12 1024 70 10000 3.6 220 10:41 30.09.2021
6229 Clear 10 1024 83 10000 2.57 200 09:31 30.09.2021
6230 Clouds 8 1024 87 10000 3.6 190 08:28 30.09.2021
6231 Clouds 8 1024 87 10000 2.06 180 06:59 30.09.2021
6232 Clouds 9 1023 85 10000 3.09 220 04:42 30.09.2021
6233 Clouds 10 1024 83 10000 3.6 240 00:46 30.09.2021
6234 Clear 10 1021 78 10000 0.45 285 23:30 29.09.2021
6235 Clouds 11 1023 76 10000 4.63 250 21:58 29.09.2021
6236 Clouds 11 1022 74 10000 4.12 240 20:57 29.09.2021
6237 Clouds 12 1019 70 10000 6.17 250 20:24 29.09.2021
6238 Clouds 12 1021 70 10000 5.66 250 19:43 29.09.2021
6239 Clouds 14 1017 64 10000 0.89 228 18:25 29.09.2021
6240 Rain 14 1017 69 10000 0.89 264 17:33 29.09.2021
6241 Clouds 13 1019 79 10000 2.57 360 16:46 29.09.2021
6242 Rain 14 1018 66 10000 8.23 250 15:48 29.09.2021
6243 Clouds 14 1014 73 10000 0.45 295 14:39 29.09.2021
6244 Clouds 14 1016 84 10000 3.09 260 13:41 29.09.2021
6245 Clouds 13 1013 91 10000 0.45 134 12:47 29.09.2021
6246 Rain 13 1015 93 10000 4.63 150 11:39 29.09.2021
6247 Rain 12 1013 93 10000 0.45 78 10:39 29.09.2021
6248 Rain 12 1013 91 10000 0.45 27 09:48 29.09.2021
6249 Rain 12 1013 86 10000 0.89 292 08:49 29.09.2021
6250 Clear 11 1013 89 10000 3.09 140 07:31 29.09.2021
6251 Clear 11 1015 90 10000 2.06 130 03:29 29.09.2021
6252 Clear 12 1017 87 10000 1.03 0 23:26 28.09.2021
6253 Clear 13 1017 85 10000 1.54 100 22:23 28.09.2021
6254 Clear 13 1017 83 10000 2.06 100 21:35 28.09.2021
6255 Clouds 14 1018 81 10000 1.54 100 20:35 28.09.2021
6256 Clouds 15 1018 77 10000 2.06 90 19:42 28.09.2021
6257 Clouds 16 1018 72 10000 1.54 100 18:45 28.09.2021
6258 Clouds 17 1018 67 10000 2.06 130 17:54 28.09.2021
6259 Clouds 18 1019 63 10000 0.45 338 15:56 28.09.2021
6260 Clouds 17 1023 70 10000 2.06 140 13:44 28.09.2021
6261 Clear 17 1021 71 10000 0.45 294 12:48 28.09.2021
6262 Clear 16 1021 72 10000 0.45 327 12:19 28.09.2021
6263 Clear 16 1021 77 10000 0.89 252 11:45 28.09.2021
6264 Clear 15 1021 83 10000 0.89 272 10:58 28.09.2021
6265 Clear 13 1021 91 10000 2.57 130 09:53 28.09.2021
6266 Clouds 11 1019 94 10000 1.25 192 08:59 28.09.2021
6267 Clear 11 1021 95 10000 1.03 0 08:38 28.09.2021
6268 Clear 10 1021 94 10000 0.51 0 07:47 28.09.2021
6269 Clear 11 1020 95 10000 1.54 70 05:28 28.09.2021
6270 Clouds 12 1019 96 10000 0.51 0 01:23 28.09.2021
6271 Clouds 12 1019 94 10000 0.51 0 00:26 28.09.2021
6272 Clouds 13 1018 94 10000 2.06 200 23:41 27.09.2021
6273 Clouds 13 1018 93 10000 1.54 170 22:56 27.09.2021
6274 Clouds 14 1016 92 10000 1.54 210 21:55 27.09.2021
6275 Clouds 14 1016 93 10000 2.06 250 20:45 27.09.2021
6276 Rain 14 1015 92 10000 0.45 271 19:57 27.09.2021
6277 Rain 15 1013 89 10000 0.89 277 19:29 27.09.2021
6278 Rain 17 1013 89 10000 0.45 263 18:51 27.09.2021
6279 Rain 19 1013 77 10000 3.6 200 17:30 27.09.2021
6280 Rain 20 1012 70 10000 0.45 225 16:51 27.09.2021
6281 Rain 21 1012 64 10000 1.79 312 15:45 27.09.2021
6282 Clouds 21 1012 64 10000 0.45 330 15:27 27.09.2021
6283 Clouds 21 1012 65 10000 4.63 200 13:34 27.09.2021
6284 Clouds 21 1012 74 10000 0.89 349 11:59 27.09.2021
6285 Clear 19 1012 80 10000 0.89 62 10:38 27.09.2021
6286 Clouds 17 1013 89 10000 0.45 276 09:31 27.09.2021
6287 Clear 15 1013 93 10000 3.6 130 06:33 27.09.2021
6288 Clouds 16 1013 92 10000 2.57 140 03:29 27.09.2021
6289 Clouds 17 1014 88 10000 2.06 120 23:41 26.09.2021
6290 Clouds 18 1014 87 10000 2.06 140 21:55 26.09.2021
6291 Clouds 19 1013 85 10000 2.06 130 21:26 26.09.2021
6292 Clouds 19 1013 82 10000 3.09 130 20:24 26.09.2021
6293 Clouds 19 1013 81 10000 3.09 150 19:53 26.09.2021
6294 Clouds 20 1013 79 10000 3.09 150 19:25 26.09.2021
6295 Clouds 20 1013 79 10000 3.09 150 19:25 26.09.2021
6296 Clouds 21 1013 76 10000 2.06 180 18:34 26.09.2021
6297 Clouds 21 1013 72 10000 0.89 257 17:37 26.09.2021
6298 Clouds 21 1013 72 10000 0.45 307 17:18 26.09.2021
6299 Rain 21 1013 70 10000 0.89 42 16:22 26.09.2021
6300 Clouds 22 1013 68 10000 6.17 180 15:27 26.09.2021
6301 Clouds 22 1013 63 10000 0.89 280 14:20 26.09.2021
6302 Clouds 23 1013 62 10000 0.45 76 13:42 26.09.2021
6303 Clouds 23 1016 69 10000 4.12 170 12:31 26.09.2021
6304 Clouds 22 1013 70 10000 0.45 50 11:56 26.09.2021
6305 Clear 21 1013 73 10000 4.63 150 11:23 26.09.2021
6306 Clouds 18 1012 85 10000 4.12 150 09:51 26.09.2021
6307 Clear 17 1012 87 10000 2.06 130 08:41 26.09.2021
6308 Clear 16 1012 77 10000 2.06 90 01:18 26.09.2021
6309 Clear 16 1012 80 10000 2.57 100 00:18 26.09.2021
6310 Clear 16 1013 80 10000 2.57 90 22:39 25.09.2021
6311 Clear 16 1012 78 10000 2.06 90 22:19 25.09.2021
6312 Clear 17 1012 76 10000 2.06 80 21:46 25.09.2021
6313 Clear 18 1012 72 10000 1.03 0 20:53 25.09.2021
6314 Clear 20 1012 64 10000 2.06 120 19:41 25.09.2021
6315 Clear 23 1012 55 10000 4.12 160 18:31 25.09.2021
6316 Clear 23 1015 57 10000 3.09 150 17:46 25.09.2021
6317 Clear 23 1016 55 10000 2.06 160 14:46 25.09.2021
6318 Clear 22 1017 59 10000 2.06 160 13:55 25.09.2021
6319 Clouds 21 1014 63 10000 2.06 190 12:48 25.09.2021
6320 Clouds 19 1015 72 10000 0.45 90 11:38 25.09.2021
6321 Clear 16 1015 83 10000 3.09 160 10:21 25.09.2021
6322 Clear 15 1014 89 10000 1.03 0 09:24 25.09.2021
6323 Clear 13 1014 94 10000 2.57 130 07:50 25.09.2021
6324 Clouds 16 1017 82 10000 1.03 0 00:59 25.09.2021
6325 Clouds 16 1017 79 10000 2.06 210 23:33 24.09.2021
6326 Clouds 18 1017 75 10000 3.09 230 21:41 24.09.2021
6327 Clouds 18 1016 73 10000 2.57 250 20:33 24.09.2021
6328 Clouds 19 1016 71 10000 2.06 240 19:44 24.09.2021
6329 Clouds 20 1016 68 10000 2.57 210 18:30 24.09.2021
6330 Clouds 21 1013 65 10000 3.09 240 17:53 24.09.2021
6331 Clouds 21 1013 65 10000 3.09 240 17:35 24.09.2021
6332 Clouds 21 1013 64 10000 0.45 270 16:45 24.09.2021
6333 Clouds 20 1017 68 10000 3.6 220 13:55 24.09.2021
6334 Clouds 20 1017 71 10000 2.57 0 12:45 24.09.2021
6335 Clouds 19 1015 72 10000 0.45 288 12:27 24.09.2021
6336 Clouds 19 1015 75 10000 3.09 270 11:50 24.09.2021
6337 Clouds 17 1018 79 10000 2.06 190 10:24 24.09.2021
6338 Clouds 15 1017 88 10000 3.6 230 08:25 24.09.2021
6339 Clouds 15 1017 88 10000 3.09 240 07:32 24.09.2021
6340 Clouds 15 1017 87 10000 3.6 240 06:44 24.09.2021
6341 Clouds 16 1017 84 10000 4.12 280 04:53 24.09.2021
6342 Clouds 17 1018 75 10000 6.17 280 22:46 23.09.2021
6343 Clouds 17 1017 73 10000 5.66 280 22:20 23.09.2021
6344 Clouds 18 1017 72 10000 5.14 280 21:44 23.09.2021
6345 Clouds 19 1017 68 10000 5.66 280 20:33 23.09.2021
6346 Clouds 19 1017 66 10000 4.82 297 19:28 23.09.2021
6347 Clear 21 1017 54 10000 7.72 290 17:45 23.09.2021
6348 Clear 22 1018 46 10000 7.2 270 15:28 23.09.2021
6349 Clear 22 1018 48 10000 7.2 250 14:59 23.09.2021
6350 Clear 21 1019 52 10000 4.63 270 13:45 23.09.2021
6351 Clear 20 1019 57 10000 4.12 260 13:19 23.09.2021
6352 Clear 20 1019 61 10000 3.6 270 12:49 23.09.2021
6353 Clear 19 1020 65 10000 2.57 220 12:22 23.09.2021
6354 Clear 17 1020 71 10000 2.57 210 11:32 23.09.2021
6355 Clear 15 1021 81 10000 2.06 150 10:20 23.09.2021
6356 Clear 13 1021 88 10000 3.6 150 09:51 23.09.2021
6357 Clear 9 1022 94 10000 1.54 20 07:54 23.09.2021
6358 Clouds 10 1023 90 10000 1.81 153 03:31 23.09.2021
6359 Clear 12 1025 87 10000 0.51 0 23:24 22.09.2021
6360 Clear 12 1025 85 10000 1.03 0 22:29 22.09.2021
6361 Clear 13 1026 83 10000 0.51 0 21:55 22.09.2021
6362 Clear 13 1026 83 10000 0.51 0 21:33 22.09.2021
6363 Clear 14 1025 81 10000 1.03 50 20:52 22.09.2021
6364 Clear 17 1026 68 10000 1.03 50 19:29 22.09.2021
6365 Clear 20 1026 53 10000 1.54 360 18:39 22.09.2021
6366 Clouds 20 1026 51 10000 0.63 278 17:43 22.09.2021
6367 Clouds 21 1026 49 10000 0.73 292 16:37 22.09.2021
6368 Clear 20 1028 53 10000 2.06 0 15:19 22.09.2021
6369 Clear 19 1029 55 10000 2.06 270 13:48 22.09.2021
6370 Clear 16 1030 73 10000 1.03 0 11:57 22.09.2021
6371 Clear 14 1031 80 10000 2.57 160 10:52 22.09.2021
6372 Clouds 10 1030 88 10000 0.81 149 09:25 22.09.2021
6373 Clear 8 1030 91 10000 0.51 0 08:29 22.09.2021
6374 Clouds 8 1030 91 10000 1.01 156 07:19 22.09.2021
6375 Clear 8 1030 90 10000 0.51 0 05:56 22.09.2021
6376 Clear 8 1030 92 10000 0.51 0 05:34 22.09.2021
6377 Clouds 9 1029 88 10000 0.73 178 03:50 22.09.2021
6378 Clear 10 1031 87 10000 0.51 0 00:22 22.09.2021
6379 Clear 11 1030 85 10000 1.03 0 22:56 21.09.2021
6380 Clear 12 1030 80 10000 2.06 60 21:36 21.09.2021
6381 Clouds 14 1030 70 10000 1.12 36 20:26 21.09.2021
6382 Clear 17 1029 59 10000 0.51 0 19:22 21.09.2021
6383 Clouds 18 1029 48 10000 2.13 20 17:39 21.09.2021
6384 Clouds 18 1029 47 10000 1.03 0 16:38 21.09.2021
6385 Clouds 18 1030 46 10000 2.06 0 15:44 21.09.2021
6386 Clouds 18 1030 48 10000 2.06 0 14:58 21.09.2021
6387 Clouds 18 1030 48 10000 1.54 360 13:57 21.09.2021
6388 Clouds 18 1030 48 10000 1.54 360 13:36 21.09.2021
6389 Clouds 17 1030 51 10000 1.54 0 12:36 21.09.2021
6390 Clear 14 1029 67 10000 1.03 0 10:33 21.09.2021
6391 Clear 10 1028 93 10000 0.51 0 08:40 21.09.2021
6392 Clear 10 1027 93 10000 2.06 50 07:20 21.09.2021
6393 Clouds 12 1025 82 10000 1.03 0 00:48 21.09.2021
6394 Clouds 14 1024 67 10000 2.06 70 22:42 20.09.2021
6395 Clouds 14 1023 72 10000 2.06 80 21:41 20.09.2021
6396 Clouds 14 1022 77 10000 1.54 110 20:58 20.09.2021
6397 Clouds 16 1022 68 10000 1.03 110 19:40 20.09.2021
6398 Clouds 16 1021 60 10000 1.03 0 17:52 20.09.2021
6399 Clouds 17 1021 60 10000 2.06 70 16:57 20.09.2021
6400 Clouds 17 1020 57 10000 1.54 50 15:57 20.09.2021
6401 Clouds 17 1020 58 10000 1.54 50 15:33 20.09.2021
6402 Clouds 17 1020 58 10000 2.57 70 14:26 20.09.2021
6403 Clouds 16 1020 61 10000 2.06 120 12:44 20.09.2021
6404 Clouds 16 1020 61 10000 2.57 0 12:21 20.09.2021
6405 Clouds 16 1020 61 10000 2.57 0 12:21 20.09.2021
6406 Clouds 14 1019 66 10000 3.09 90 10:49 20.09.2021
6407 Clouds 12 1019 75 10000 2.57 100 09:48 20.09.2021
6408 Clouds 12 1018 74 10000 2.57 100 09:29 20.09.2021
6409 Clouds 11 1018 81 10000 2.06 120 08:34 20.09.2021
6410 Clear 10 1018 86 10000 1.54 90 06:21 20.09.2021
6411 Clear 13 1016 82 10000 2.57 80 22:57 19.09.2021
6412 Clear 14 1016 81 10000 2.06 90 21:48 19.09.2021
6413 Clear 14 1016 78 10000 1.54 100 20:59 19.09.2021
6414 Clear 16 1015 73 10000 2.57 90 19:54 19.09.2021
6415 Clouds 18 1015 64 10000 3.09 70 18:53 19.09.2021
6416 Clouds 19 1015 61 10000 3.6 80 17:42 19.09.2021
6417 Clouds 19 1015 61 10000 2.57 80 16:35 19.09.2021
6418 Clouds 19 1014 60 10000 2.06 110 15:31 19.09.2021
6419 Clouds 20 1015 60 10000 3.6 80 14:49 19.09.2021
6420 Clouds 19 1015 62 10000 3.09 100 13:57 19.09.2021
6421 Clouds 19 1015 61 10000 3.6 130 12:56 19.09.2021
6422 Clouds 18 1015 69 10000 4.12 120 11:49 19.09.2021
6423 Clouds 18 1015 68 10000 4.63 130 11:22 19.09.2021
6424 Clouds 15 1015 79 10000 2.57 110 09:52 19.09.2021
6425 Clouds 14 1015 84 10000 3.09 110 09:23 19.09.2021
6426 Clear 12 1014 89 10000 1.54 160 06:49 19.09.2021
6427 Clear 14 1015 82 10000 2.57 80 01:36 19.09.2021
6428 Clear 15 1015 78 10000 3.09 80 23:19 18.09.2021
6429 Clear 16 1015 75 10000 3.09 60 21:56 18.09.2021
6430 Clear 17 1015 76 10000 3.09 50 20:47 18.09.2021
6431 Clouds 19 1015 75 10000 1.54 60 19:58 18.09.2021
6432 Clouds 19 1015 71 10000 1.54 50 19:36 18.09.2021
6433 Clouds 20 1015 70 10000 1.54 50 19:18 18.09.2021
6434 Clouds 22 1015 58 10000 1.03 0 18:30 18.09.2021
6435 Clouds 23 1015 54 10000 2.57 30 16:35 18.09.2021
6436 Clouds 22 1016 61 10000 1.54 60 14:32 18.09.2021
6437 Clouds 22 1017 62 10000 1.54 0 13:45 18.09.2021
6438 Clouds 21 1017 64 10000 1.03 0 13:21 18.09.2021
6439 Clouds 20 1017 77 10000 0.51 0 12:23 18.09.2021
6440 Clear 18 1017 80 10000 1.54 190 11:31 18.09.2021
6441 Clear 19 1017 78 10000 1.54 190 11:30 18.09.2021
6442 Clear 16 1017 86 10000 1.03 0 10:31 18.09.2021
6443 Clouds 13 1017 94 7000 0.51 0 09:24 18.09.2021
6444 Mist 12 1017 94 4200 2.06 130 08:28 18.09.2021
6445 Clouds 14 1016 91 10000 0.65 139 00:53 18.09.2021
6446 Clouds 15 1016 90 10000 0.46 114 23:56 17.09.2021
6447 Clouds 15 1016 89 10000 0.45 117 23:32 17.09.2021
6448 Clouds 16 1016 88 10000 0.72 3 22:25 17.09.2021
6449 Clouds 16 1016 88 10000 1.54 60 21:45 17.09.2021
6450 Clouds 18 1015 81 10000 1.54 100 19:53 17.09.2021
6451 Clouds 20 1015 68 10000 1.03 0 18:43 17.09.2021
6452 Clouds 21 1015 65 10000 0.51 0 16:47 17.09.2021
6453 Clouds 21 1016 63 10000 2.06 0 15:25 17.09.2021
6454 Clear 19 1017 77 10000 2.57 200 12:31 17.09.2021
6455 Clear 15 1017 91 10000 2.06 150 10:24 17.09.2021
6456 Clear 14 1017 93 10000 1.03 0 07:49 17.09.2021
6457 Clear 13 1017 93 10000 1.03 0 06:29 17.09.2021
6458 Clear 14 1018 90 10000 0.51 0 00:34 17.09.2021
6459 Clouds 15 1018 86 10000 0.51 0 22:46 16.09.2021
6460 Clouds 16 1018 85 10000 1.03 0 22:24 16.09.2021
6461 Clouds 17 1017 81 10000 1.03 0 21:36 16.09.2021
6462 Clouds 17 1017 77 10000 1.03 0 20:36 16.09.2021
6463 Clouds 19 1017 70 10000 2.06 330 19:18 16.09.2021
6464 Clouds 20 1017 65 10000 1.03 0 18:19 16.09.2021
6465 Clouds 20 1017 64 10000 2.06 330 17:22 16.09.2021
6466 Clouds 19 1017 64 10000 5.14 280 14:51 16.09.2021
6467 Clouds 19 1017 68 10000 3.6 330 13:48 16.09.2021
6468 Clouds 18 1017 70 10000 4.63 300 12:47 16.09.2021
6469 Clouds 18 1017 73 10000 4.63 310 12:26 16.09.2021
6470 Clouds 16 1017 83 10000 4.12 290 11:24 16.09.2021
6471 Clouds 16 1017 86 10000 2.57 270 10:30 16.09.2021
6472 Clouds 15 1017 87 10000 3.09 280 09:39 16.09.2021
6473 Clouds 13 1017 92 10000 0.51 0 08:32 16.09.2021
6474 Clouds 13 1016 90 10000 0.51 0 06:59 16.09.2021
6475 Clouds 13 1016 89 10000 1.54 330 06:39 16.09.2021
6476 Clouds 14 1015 85 10000 4.63 300 04:31 16.09.2021
6477 Clouds 17 1014 85 10000 4.63 310 00:59 16.09.2021
6478 Clouds 17 1014 86 10000 4.63 290 23:35 15.09.2021
6479 Clouds 18 1013 86 10000 4.63 280 22:46 15.09.2021
6480 Clouds 18 1013 85 10000 4.63 300 21:41 15.09.2021
6481 Clouds 18 1013 85 10000 4.63 300 21:23 15.09.2021
6482 Clouds 19 1012 83 10000 5.66 320 19:51 15.09.2021
6483 Clouds 20 1011 85 10000 6.69 320 19:19 15.09.2021
6484 Clouds 21 1011 86 10000 3.09 260 17:49 15.09.2021
6485 Clouds 21 1011 87 10000 2.06 340 16:48 15.09.2021
6486 Rain 21 1011 90 10000 4.12 260 15:33 15.09.2021
6487 Rain 21 1011 90 10000 3.09 210 14:44 15.09.2021
6488 Rain 20 1011 91 10000 4.63 190 13:51 15.09.2021
6489 Rain 20 1011 89 10000 4.63 170 13:29 15.09.2021
6490 Rain 20 1011 87 10000 5.14 170 12:42 15.09.2021
6491 Clouds 21 1011 88 10000 4.12 170 11:51 15.09.2021
6492 Clouds 20 1011 86 10000 4.63 170 11:19 15.09.2021
6493 Clouds 20 1011 87 10000 4.63 160 10:50 15.09.2021
6494 Clouds 19 1011 93 10000 2.57 150 09:26 15.09.2021
6495 Rain 19 1011 92 10000 1.54 110 07:43 15.09.2021
6496 Clear 19 1011 87 10000 1.03 0 04:24 15.09.2021
6497 Clear 21 1013 81 10000 1.54 160 22:59 14.09.2021
6498 Clear 21 1013 77 10000 2.57 130 21:40 14.09.2021
6499 Clear 22 1013 76 10000 3.09 140 20:38 14.09.2021
6500 Clouds 22 1013 73 10000 2.57 140 19:41 14.09.2021
6501 Clear 24 1013 66 10000 2.06 120 17:40 14.09.2021
6502 Clear 24 1013 66 10000 2.06 120 17:40 14.09.2021
6503 Clear 25 1014 62 10000 3.6 140 16:58 14.09.2021
6504 Clear 25 1014 59 10000 3.6 130 15:30 14.09.2021
6505 Clouds 25 1014 57 10000 3.09 150 14:31 14.09.2021
6506 Clear 23 1015 66 10000 3.6 130 12:39 14.09.2021
6507 Clear 19 1015 76 10000 2.06 110 10:54 14.09.2021
6508 Clear 17 1015 80 10000 1.54 160 09:50 14.09.2021
6509 Clear 13 1015 93 10000 1.54 160 08:39 14.09.2021
6510 Clear 12 1015 92 10000 1.03 80 06:24 14.09.2021
6511 Clear 15 1017 85 10000 2.06 70 00:31 14.09.2021
6512 Clear 16 1017 84 10000 1.54 70 22:48 13.09.2021
6513 Clear 16 1017 84 10000 3.09 60 22:23 13.09.2021
6514 Clear 16 1017 82 10000 3.09 60 21:45 13.09.2021
6515 Clear 17 1017 81 10000 2.06 60 20:50 13.09.2021
6516 Clear 21 1017 59 10000 1.54 30 18:46 13.09.2021
6517 Clouds 22 1017 59 10000 1.03 0 17:49 13.09.2021
6518 Clouds 22 1017 58 10000 2.06 40 16:50 13.09.2021
6519 Clouds 22 1018 56 10000 2.57 50 15:30 13.09.2021
6520 Clouds 19 1019 76 10000 1.03 0 12:26 13.09.2021
6521 Clouds 16 1019 89 9000 2.06 170 10:58 13.09.2021
6522 Clouds 14 1019 92 10000 1.03 0 09:36 13.09.2021
6523 Clouds 13 1018 91 10000 0.81 1 04:59 13.09.2021
6524 Clear 14 1018 90 10000 0.51 120 23:41 12.09.2021
6525 Clouds 15 1018 84 10000 1.31 297 22:25 12.09.2021
6526 Clear 16 1018 80 10000 0.51 0 21:37 12.09.2021
6527 Clear 18 1017 72 10000 1.54 20 20:29 12.09.2021
6528 Clouds 19 1017 66 10000 1.54 350 19:51 12.09.2021
6529 Clouds 20 1017 62 10000 3.09 340 19:19 12.09.2021
6530 Clouds 21 1017 57 10000 3.6 300 18:29 12.09.2021
6531 Clouds 22 1018 53 10000 3.09 310 16:32 12.09.2021
6532 Clouds 22 1018 56 10000 2.57 0 14:56 12.09.2021
6533 Clouds 22 1018 56 10000 2.57 0 14:56 12.09.2021
6534 Clouds 21 1018 59 10000 2.06 230 13:45 12.09.2021
6535 Clouds 18 1019 76 10000 2.06 240 11:31 12.09.2021
6536 Clouds 16 1019 89 10000 1.54 200 09:27 12.09.2021
6537 Clouds 15 1019 90 10000 1.54 190 08:38 12.09.2021
6538 Clouds 17 1018 89 10000 2.06 150 02:22 12.09.2021
6539 Clouds 18 1018 85 10000 0.51 0 23:28 11.09.2021
6540 Clouds 18 1018 82 10000 2.57 320 21:50 11.09.2021
6541 Clouds 19 1018 78 10000 5.66 280 20:59 11.09.2021
6542 Clouds 20 1017 69 10000 5.14 280 19:21 11.09.2021
6543 Clouds 22 1017 58 10000 5.14 240 17:34 11.09.2021
6544 Clouds 22 1017 63 10000 4.63 230 15:51 11.09.2021
6545 Clouds 22 1017 64 10000 5.14 250 13:49 11.09.2021
6546 Clouds 21 1018 66 10000 4.63 250 12:50 11.09.2021
6547 Clouds 20 1018 71 10000 5.66 260 11:19 11.09.2021
6548 Clouds 18 1017 81 10000 4.12 290 09:38 11.09.2021
6549 Clouds 17 1017 90 10000 3.6 290 07:45 11.09.2021
6550 Clouds 18 1016 91 10000 1.54 230 06:50 11.09.2021
6551 Clouds 19 1015 92 10000 3.09 140 23:38 10.09.2021
6552 Clouds 19 1015 91 10000 3.09 130 22:25 10.09.2021
6553 Clouds 19 1015 91 10000 2.57 150 21:54 10.09.2021
6554 Clouds 20 1014 89 10000 1.03 110 20:25 10.09.2021
6555 Rain 21 1014 85 10000 2.06 300 18:28 10.09.2021
6556 Clouds 22 1013 81 10000 4.12 320 16:54 10.09.2021
6557 Rain 23 1013 78 10000 1.54 60 14:49 10.09.2021
6558 Clouds 22 1014 75 10000 2.06 0 12:43 10.09.2021
6559 Clouds 20 1013 86 10000 2.57 120 09:27 10.09.2021
6560 Clear 19 1013 91 10000 2.06 140 07:50 10.09.2021
6561 Clear 19 1013 90 10000 2.06 160 02:31 10.09.2021
6562 Clear 21 1012 89 10000 2.57 140 22:33 09.09.2021
6563 Clear 21 1012 89 10000 1.54 70 21:46 09.09.2021
6564 Rain 21 1011 87 10000 3.6 90 20:47 09.09.2021
6565 Clouds 22 1011 89 10000 1.03 0 19:58 09.09.2021
6566 Clouds 23 1010 87 10000 2.78 244 18:34 09.09.2021
6567 Clouds 27 1010 55 10000 1.54 240 16:41 09.09.2021
6568 Clouds 27 1011 55 10000 1.54 230 15:51 09.09.2021
6569 Clear 27 1011 56 10000 3.09 220 13:22 09.09.2021
6570 Clear 24 1011 59 10000 2.57 150 11:48 09.09.2021
6571 Clear 22 1011 63 10000 3.09 140 10:25 09.09.2021
6572 Clear 19 1011 69 10000 2.06 110 08:55 09.09.2021
6573 Clear 16 1011 80 10000 1.03 0 06:39 09.09.2021
6574 Clear 16 1012 76 10000 2.06 90 02:57 09.09.2021
6575 Clear 19 1013 67 10000 3.09 90 22:53 08.09.2021
6576 Clear 20 1013 65 10000 2.57 80 21:36 08.09.2021
6577 Clear 23 1013 53 10000 2.06 90 20:19 08.09.2021
6578 Clear 25 1013 45 10000 2.06 110 19:29 08.09.2021
6579 Clear 27 1014 43 10000 4.12 130 18:31 08.09.2021
6580 Clear 27 1014 43 10000 4.12 130 18:30 08.09.2021
6581 Clear 27 1014 43 10000 4.12 120 17:58 08.09.2021
6582 Clear 27 1015 39 10000 5.14 140 16:55 08.09.2021
6583 Clear 27 1016 47 10000 5.14 150 14:30 08.09.2021
6584 Clear 27 1016 47 10000 5.14 150 14:30 08.09.2021
6585 Clear 26 1017 51 10000 3.6 110 13:21 08.09.2021
6586 Clear 25 1018 55 10000 3.09 120 12:41 08.09.2021
6587 Clear 25 1018 56 10000 3.09 120 12:19 08.09.2021
6588 Clear 22 1018 66 10000 3.6 120 10:59 08.09.2021
6589 Clear 21 1018 69 10000 3.09 120 10:27 08.09.2021
6590 Clear 17 1019 80 10000 1.54 100 09:25 08.09.2021
6591 Clear 13 1019 92 10000 1.03 0 07:43 08.09.2021
6592 Clear 14 1019 89 10000 1.54 100 05:46 08.09.2021
6593 Clear 18 1021 77 10000 2.57 80 22:51 07.09.2021
6594 Clear 18 1021 78 10000 3.6 80 22:19 07.09.2021
6595 Clear 18 1021 77 10000 3.6 80 22:19 07.09.2021
6596 Clear 21 1021 70 10000 2.06 60 20:37 07.09.2021
6597 Clear 25 1021 47 10000 1.03 0 18:49 07.09.2021
6598 Clear 26 1022 46 10000 1.54 90 18:24 07.09.2021
6599 Clear 26 1022 44 10000 2.06 70 16:59 07.09.2021
6600 Clear 27 1023 42 10000 1.03 0 15:55 07.09.2021
6601 Clear 26 1023 47 10000 2.06 50 14:46 07.09.2021
6602 Clear 24 1024 56 10000 1.54 150 13:29 07.09.2021
6603 Clouds 22 1024 68 10000 1.53 101 11:51 07.09.2021
6604 Clear 19 1024 79 10000 0.51 0 10:45 07.09.2021
6605 Clouds 15 1024 86 10000 1.13 130 08:47 07.09.2021
6606 Clouds 14 1024 88 10000 1.18 130 07:45 07.09.2021
6607 Clouds 13 1023 88 10000 1.12 122 05:47 07.09.2021
6608 Clear 14 1024 88 10000 1.03 0 02:38 07.09.2021
6609 Clear 15 1024 86 10000 1.03 0 00:55 07.09.2021
6610 Clear 16 1024 84 10000 1.54 140 23:43 06.09.2021
6611 Clear 16 1024 82 10000 0.51 0 23:21 06.09.2021
6612 Clear 17 1024 80 10000 0.51 0 22:46 06.09.2021
6613 Clear 18 1024 73 10000 1.03 50 21:52 06.09.2021
6614 Clear 23 1023 52 10000 1.54 40 19:44 06.09.2021
6615 Clear 23 1023 49 10000 2.06 360 19:18 06.09.2021
6616 Clear 24 1023 47 10000 2.57 340 18:33 06.09.2021
6617 Clear 25 1023 40 10000 2.06 350 17:50 06.09.2021
6618 Clear 26 1024 45 10000 3.09 320 16:20 06.09.2021
6619 Clear 26 1024 45 10000 3.09 320 16:20 06.09.2021
6620 Clear 26 1024 53 10000 2.06 330 14:37 06.09.2021
6621 Clear 24 1024 61 10000 1.03 0 12:49 06.09.2021
6622 Clear 22 1024 69 10000 1.54 270 11:52 06.09.2021
6623 Clear 19 1024 77 10000 2.06 150 10:19 06.09.2021
6624 Clear 12 1023 91 10000 1.03 0 07:35 06.09.2021
6625 Clear 14 1022 90 10000 0.51 0 02:54 06.09.2021
6626 Clear 17 1021 82 10000 1.54 120 23:22 05.09.2021
6627 Clear 18 1021 76 10000 3.6 50 22:32 05.09.2021
6628 Clear 19 1021 72 10000 3.6 60 21:55 05.09.2021
6629 Clear 20 1021 71 10000 3.6 60 21:20 05.09.2021
6630 Clear 25 1020 54 10000 1.54 360 19:30 05.09.2021
6631 Clear 26 1020 43 10000 1.03 0 17:52 05.09.2021
6632 Clear 26 1020 47 10000 1.54 110 15:43 05.09.2021
6633 Clear 26 1020 47 10000 1.54 250 15:19 05.09.2021
6634 Clear 26 1020 47 10000 1.54 250 15:19 05.09.2021
6635 Clear 24 1020 62 10000 1.03 0 12:44 05.09.2021
6636 Clear 21 1021 71 10000 2.06 160 11:31 05.09.2021
6637 Clear 19 1020 76 10000 2.06 140 10:39 05.09.2021
6638 Clear 17 1020 77 10000 2.57 120 09:33 05.09.2021
6639 Clear 14 1020 90 10000 1.03 0 08:31 05.09.2021
6640 Clear 13 1019 92 10000 1.03 0 03:52 05.09.2021
6641 Clear 15 1018 90 10000 1.03 0 00:39 05.09.2021
6642 Clear 15 1018 87 10000 0.51 0 23:55 04.09.2021
6643 Clear 16 1018 85 10000 1.03 0 23:24 04.09.2021
6644 Clear 17 1018 80 10000 3.09 50 22:35 04.09.2021
6645 Clear 19 1017 75 10000 2.57 30 20:58 04.09.2021
6646 Clear 21 1016 64 10000 3.09 10 19:33 04.09.2021
6647 Clear 25 1017 59 10000 4.12 330 17:25 04.09.2021
6648 Clear 24 1017 58 10000 1.54 200 14:37 04.09.2021
6649 Clear 21 1018 71 10000 0.51 0 11:37 04.09.2021
6650 Clear 18 1018 78 10000 0.51 0 10:38 04.09.2021
6651 Clear 13 1018 93 10000 0.51 0 08:18 04.09.2021
6652 Clear 17 1018 80 10000 3.09 60 00:50 04.09.2021
6653 Clear 17 1018 79 10000 3.6 70 00:19 04.09.2021
6654 Clear 18 1018 77 10000 3.6 60 23:21 03.09.2021
6655 Clear 19 1018 76 10000 3.09 60 21:43 03.09.2021
6656 Clear 20 1018 73 10000 3.09 50 21:23 03.09.2021
6657 Clear 21 1017 66 10000 0.51 0 20:30 03.09.2021
6658 Clear 24 1018 54 10000 0.51 0 19:38 03.09.2021
6659 Clear 25 1018 44 10000 1.54 60 18:33 03.09.2021
6660 Clear 26 1018 41 10000 2.06 0 17:21 03.09.20